<?xml version='1.0' encoding='UTF-8'?><gpx version="1.1" creator="JPX - https://github.com/jenetics/jpx" xmlns="http://www.topografix.com/GPX/1/1"><trk><trkseg><trkpt lat="40.91781460465971" lon="9.494288411607448"><ele>3.0</ele><time>2026-05-01T06:43:39.999Z</time></trkpt><trkpt lat="40.91773765141101" lon="9.494212500457756"><ele>3.0</ele><time>2026-05-01T06:43:41.999Z</time></trkpt><trkpt lat="40.91767014832538" lon="9.494139352326437"><ele>3.0</ele><time>2026-05-01T06:43:43.999Z</time></trkpt><trkpt lat="40.91759136619234" lon="9.494073837931824"><ele>3.0</ele><time>2026-05-01T06:43:45.999Z</time></trkpt><trkpt lat="40.91753362739563" lon="9.49396930685685"><ele>3.0</ele><time>2026-05-01T06:43:47.999Z</time></trkpt><trkpt lat="40.91745566976343" lon="9.49387394873787"><ele>2.8</ele><time>2026-05-01T06:43:49.999Z</time></trkpt><trkpt lat="40.9173867824137" lon="9.493761978674986"><ele>2.5999999999999996</ele><time>2026-05-01T06:43:51.999Z</time></trkpt><trkpt lat="40.91733858718752" lon="9.493632340788126"><ele>2.4000000000000004</ele><time>2026-05-01T06:43:53.999Z</time></trkpt><trkpt lat="40.917249020603144" lon="9.49353799977832"><ele>2.2</ele><time>2026-05-01T06:43:55.999Z</time></trkpt><trkpt lat="40.91714914449914" lon="9.4934971037847"><ele>2.0</ele><time>2026-05-01T06:43:57.999Z</time></trkpt><trkpt lat="40.917043949177895" lon="9.49350273768775"><ele>2.0</ele><time>2026-05-01T06:43:59.999Z</time></trkpt><trkpt lat="40.91695188815535" lon="9.493550664265054"><ele>2.0</ele><time>2026-05-01T06:44:01.999Z</time></trkpt><trkpt lat="40.91688493322964" lon="9.49364961024255"><ele>2.0</ele><time>2026-05-01T06:44:03.999Z</time></trkpt><trkpt lat="40.91683643295103" lon="9.493763171555006"><ele>2.0</ele><time>2026-05-01T06:44:05.999Z</time></trkpt><trkpt lat="40.91680293411768" lon="9.49387622924232"><ele>2.0</ele><time>2026-05-01T06:44:07.999Z</time></trkpt><trkpt lat="40.916797208090294" lon="9.494007602955655"><ele>1.8</ele><time>2026-05-01T06:44:09.999Z</time></trkpt><trkpt lat="40.91673397618315" lon="9.494132355102348"><ele>1.6</ele><time>2026-05-01T06:44:11.999Z</time></trkpt><trkpt lat="40.91666216697131" lon="9.494216452083768"><ele>1.4000000000000001</ele><time>2026-05-01T06:44:13.999Z</time></trkpt><trkpt lat="40.91657113147341" lon="9.49424523597947"><ele>1.2000000000000002</ele><time>2026-05-01T06:44:15.999Z</time></trkpt><trkpt lat="40.916495339294286" lon="9.494291788884125"><ele>1.0</ele><time>2026-05-01T06:44:17.999Z</time></trkpt><trkpt lat="40.91643351475164" lon="9.494330937045927"><ele>0.9999999999999999</ele><time>2026-05-01T06:44:19.999Z</time></trkpt><trkpt lat="40.91636244202369" lon="9.494369424627953"><ele>1.0</ele><time>2026-05-01T06:44:21.999Z</time></trkpt><trkpt lat="40.91627991141834" lon="9.494394460790708"><ele>1.0</ele><time>2026-05-01T06:44:23.999Z</time></trkpt><trkpt lat="40.91618832792572" lon="9.494318846149"><ele>1.0</ele><time>2026-05-01T06:44:25.999Z</time></trkpt><trkpt lat="40.91613935445218" lon="9.494250261416736"><ele>0.9999999999999999</ele><time>2026-05-01T06:44:26.999Z</time></trkpt><trkpt lat="40.91609740828632" lon="9.49418086548571"><ele>1.0</ele><time>2026-05-01T06:44:27.999Z</time></trkpt><trkpt lat="40.91605027260563" lon="9.494119224445493"><ele>1.0</ele><time>2026-05-01T06:44:28.999Z</time></trkpt><trkpt lat="40.9159558772658" lon="9.494024993201528"><ele>1.0</ele><time>2026-05-01T06:44:30.999Z</time></trkpt><trkpt lat="40.915866739103876" lon="9.493947962225146"><ele>1.0</ele><time>2026-05-01T06:44:32.999Z</time></trkpt><trkpt lat="40.91582381431547" lon="9.493886160152092"><ele>1.0</ele><time>2026-05-01T06:44:33.999Z</time></trkpt><trkpt lat="40.91574700556882" lon="9.493759450907515"><ele>1.0</ele><time>2026-05-01T06:44:35.999Z</time></trkpt><trkpt lat="40.91564579823479" lon="9.493637630771891"><ele>1.2000000000000002</ele><time>2026-05-01T06:44:37.999Z</time></trkpt><trkpt lat="40.915587296482286" lon="9.493532664199147"><ele>1.4000000000000001</ele><time>2026-05-01T06:44:39.999Z</time></trkpt><trkpt lat="40.915555605549905" lon="9.493393779698108"><ele>1.6</ele><time>2026-05-01T06:44:41.999Z</time></trkpt><trkpt lat="40.91554104287297" lon="9.493272885362968"><ele>1.8</ele><time>2026-05-01T06:44:43.999Z</time></trkpt><trkpt lat="40.91554741257338" lon="9.493142972855301"><ele>2.0</ele><time>2026-05-01T06:44:45.999Z</time></trkpt><trkpt lat="40.91554244769485" lon="9.49301560407196"><ele>2.0</ele><time>2026-05-01T06:44:47.999Z</time></trkpt><trkpt lat="40.91553909526682" lon="9.492892618826472"><ele>2.0</ele><time>2026-05-01T06:44:49.999Z</time></trkpt><trkpt lat="40.9155459636559" lon="9.492775728662671"><ele>2.0</ele><time>2026-05-01T06:44:51.999Z</time></trkpt><trkpt lat="40.91554906420672" lon="9.492654318743499"><ele>2.0</ele><time>2026-05-01T06:44:53.999Z</time></trkpt><trkpt lat="40.91555415251836" lon="9.492535854826263"><ele>2.0</ele><time>2026-05-01T06:44:55.999Z</time></trkpt><trkpt lat="40.91555683730166" lon="9.492409503765476"><ele>1.9999999999999998</ele><time>2026-05-01T06:44:57.999Z</time></trkpt><trkpt lat="40.9155623384037" lon="9.492296082268373"><ele>2.0</ele><time>2026-05-01T06:44:59.999Z</time></trkpt><trkpt lat="40.91555690556809" lon="9.49216606252498"><ele>2.0</ele><time>2026-05-01T06:45:01.999Z</time></trkpt><trkpt lat="40.91556066497594" lon="9.492052135845721"><ele>2.0</ele><time>2026-05-01T06:45:03.999Z</time></trkpt><trkpt lat="40.915564063781126" lon="9.49194197134018"><ele>1.9999999999999998</ele><time>2026-05-01T06:45:05.999Z</time></trkpt><trkpt lat="40.915572908614905" lon="9.49184701512623"><ele>2.0</ele><time>2026-05-01T06:45:07.999Z</time></trkpt><trkpt lat="40.915539817166824" lon="9.491735652895024"><ele>2.4000000000000004</ele><time>2026-05-01T06:45:09.999Z</time></trkpt><trkpt lat="40.91544801249682" lon="9.491705515292706"><ele>2.8000000000000003</ele><time>2026-05-01T06:45:11.999Z</time></trkpt><trkpt lat="40.91535091737994" lon="9.491737345758809"><ele>3.2</ele><time>2026-05-01T06:45:13.999Z</time></trkpt><trkpt lat="40.91526787079201" lon="9.491778402961623"><ele>3.6</ele><time>2026-05-01T06:45:15.999Z</time></trkpt><trkpt lat="40.91518168848408" lon="9.491808894251822"><ele>4.0</ele><time>2026-05-01T06:45:17.999Z</time></trkpt><trkpt lat="40.91509458105733" lon="9.491839185788958"><ele>4.2</ele><time>2026-05-01T06:45:19.999Z</time></trkpt><trkpt lat="40.9150137199843" lon="9.491890504619741"><ele>4.4</ele><time>2026-05-01T06:45:21.999Z</time></trkpt><trkpt lat="40.91491991193446" lon="9.49193450203196"><ele>4.6</ele><time>2026-05-01T06:45:23.999Z</time></trkpt><trkpt lat="40.914815408944186" lon="9.491975026502399"><ele>4.8</ele><time>2026-05-01T06:45:25.999Z</time></trkpt><trkpt lat="40.914716566640536" lon="9.491986744522228"><ele>5.0</ele><time>2026-05-01T06:45:27.999Z</time></trkpt><trkpt lat="40.91461924196927" lon="9.49203330022141"><ele>5.0</ele><time>2026-05-01T06:45:29.999Z</time></trkpt><trkpt lat="40.91453604218119" lon="9.492073746962435"><ele>5.0</ele><time>2026-05-01T06:45:32.999Z</time></trkpt><trkpt lat="40.91447324992418" lon="9.492080864060828"><ele>5.0</ele><time>2026-05-01T06:45:35.999Z</time></trkpt><trkpt lat="40.91440739756924" lon="9.492105969163939"><ele>5.0</ele><time>2026-05-01T06:45:36.999Z</time></trkpt><trkpt lat="40.91411188627259" lon="9.492227604450683"><ele>5.0</ele><time>2026-05-01T06:45:39.999Z</time></trkpt><trkpt lat="40.91401166438431" lon="9.492289397597537"><ele>5.0</ele><time>2026-05-01T06:45:41.999Z</time></trkpt><trkpt lat="40.91389833421603" lon="9.492343849771917"><ele>5.0</ele><time>2026-05-01T06:45:43.999Z</time></trkpt><trkpt lat="40.91378511196226" lon="9.492387613439986"><ele>5.0</ele><time>2026-05-01T06:45:45.999Z</time></trkpt><trkpt lat="40.91372330432991" lon="9.492407735488506"><ele>5.0</ele><time>2026-05-01T06:45:46.999Z</time></trkpt><trkpt lat="40.91360298287448" lon="9.492432695938184"><ele>5.0</ele><time>2026-05-01T06:45:48.999Z</time></trkpt><trkpt lat="40.91348485206983" lon="9.492463782448267"><ele>5.0</ele><time>2026-05-01T06:45:50.999Z</time></trkpt><trkpt lat="40.913362817249265" lon="9.492471320589287"><ele>5.0</ele><time>2026-05-01T06:45:52.999Z</time></trkpt><trkpt lat="40.91324811958865" lon="9.492467614277777"><ele>5.0</ele><time>2026-05-01T06:45:54.999Z</time></trkpt><trkpt lat="40.91318975894328" lon="9.492376720388128"><ele>5.0</ele><time>2026-05-01T06:45:55.999Z</time></trkpt><trkpt lat="40.91309880126257" lon="9.492262948819908"><ele>5.0</ele><time>2026-05-01T06:45:57.999Z</time></trkpt><trkpt lat="40.91303943521683" lon="9.492140746502127"><ele>5.0</ele><time>2026-05-01T06:45:59.999Z</time></trkpt><trkpt lat="40.91299492133779" lon="9.492079356524076"><ele>5.0</ele><time>2026-05-01T06:46:00.999Z</time></trkpt><trkpt lat="40.912952484121526" lon="9.492012225045727"><ele>5.0</ele><time>2026-05-01T06:46:01.999Z</time></trkpt><trkpt lat="40.91290288732808" lon="9.491950038276547"><ele>5.0</ele><time>2026-05-01T06:46:02.999Z</time></trkpt><trkpt lat="40.912857265681566" lon="9.491880042743876"><ele>5.0</ele><time>2026-05-01T06:46:03.999Z</time></trkpt><trkpt lat="40.912804251063925" lon="9.491819827700857"><ele>5.0</ele><time>2026-05-01T06:46:04.999Z</time></trkpt><trkpt lat="40.91275621995007" lon="9.49176570788006"><ele>5.2</ele><time>2026-05-01T06:46:05.999Z</time></trkpt><trkpt lat="40.91270404301757" lon="9.491707135223061"><ele>5.4</ele><time>2026-05-01T06:46:06.999Z</time></trkpt><trkpt lat="40.91264992853126" lon="9.491660233331942"><ele>5.6</ele><time>2026-05-01T06:46:07.999Z</time></trkpt><trkpt lat="40.912547158559775" lon="9.491568748891208"><ele>5.8</ele><time>2026-05-01T06:46:09.999Z</time></trkpt><trkpt lat="40.91244671308798" lon="9.491478895027555"><ele>6.0</ele><time>2026-05-01T06:46:11.999Z</time></trkpt><trkpt lat="40.912355880140986" lon="9.491401010235656"><ele>5.5</ele><time>2026-05-01T06:46:13.999Z</time></trkpt><trkpt lat="40.912240905977455" lon="9.491347652112049"><ele>5.0</ele><time>2026-05-01T06:46:15.999Z</time></trkpt><trkpt lat="40.912162734862655" lon="9.491203850906876"><ele>4.5</ele><time>2026-05-01T06:46:17.999Z</time></trkpt><trkpt lat="40.91206967831248" lon="9.491143054701395"><ele>4.0</ele><time>2026-05-01T06:46:19.999Z</time></trkpt><trkpt lat="40.91198869342688" lon="9.491044747786855"><ele>4.0</ele><time>2026-05-01T06:46:21.999Z</time></trkpt><trkpt lat="40.91189595923201" lon="9.490961754092648"><ele>4.0</ele><time>2026-05-01T06:46:23.999Z</time></trkpt><trkpt lat="40.91181444756201" lon="9.49087299920006"><ele>4.0</ele><time>2026-05-01T06:46:25.999Z</time></trkpt><trkpt lat="40.91173476894621" lon="9.490783176602257"><ele>4.0</ele><time>2026-05-01T06:46:27.999Z</time></trkpt><trkpt lat="40.91164633101429" lon="9.49069683822325"><ele>4.0</ele><time>2026-05-01T06:46:29.999Z</time></trkpt><trkpt lat="40.911559045419864" lon="9.490607325387035"><ele>4.2</ele><time>2026-05-01T06:46:32Z</time></trkpt><trkpt lat="40.91149103341667" lon="9.490498723214735"><ele>4.4</ele><time>2026-05-01T06:46:34Z</time></trkpt><trkpt lat="40.91143034272549" lon="9.490383205179453"><ele>4.6</ele><time>2026-05-01T06:46:36Z</time></trkpt><trkpt lat="40.91137868096599" lon="9.490268055887219"><ele>4.8</ele><time>2026-05-01T06:46:38Z</time></trkpt><trkpt lat="40.911331728514966" lon="9.490156837259041"><ele>5.0</ele><time>2026-05-01T06:46:40Z</time></trkpt><trkpt lat="40.91128992468424" lon="9.490049801234813"><ele>5.4</ele><time>2026-05-01T06:46:42Z</time></trkpt><trkpt lat="40.91124077375223" lon="9.489936842617272"><ele>5.8</ele><time>2026-05-01T06:46:44Z</time></trkpt><trkpt lat="40.91119219867789" lon="9.489826963997952"><ele>6.199999999999999</ele><time>2026-05-01T06:46:46Z</time></trkpt><trkpt lat="40.91114955989945" lon="9.489717855726028"><ele>6.6</ele><time>2026-05-01T06:46:48Z</time></trkpt><trkpt lat="40.911101633988636" lon="9.489613260410103"><ele>7.0</ele><time>2026-05-01T06:46:50Z</time></trkpt><trkpt lat="40.91106578217021" lon="9.489490520256835"><ele>7.3999999999999995</ele><time>2026-05-01T06:46:52Z</time></trkpt><trkpt lat="40.911022280962335" lon="9.489373011966782"><ele>7.799999999999999</ele><time>2026-05-01T06:46:54Z</time></trkpt><trkpt lat="40.910966624595936" lon="9.489258690531347"><ele>8.2</ele><time>2026-05-01T06:46:56Z</time></trkpt><trkpt lat="40.91088730741996" lon="9.489153384383652"><ele>8.6</ele><time>2026-05-01T06:46:58Z</time></trkpt><trkpt lat="40.91079227189792" lon="9.489065334931414"><ele>9.0</ele><time>2026-05-01T06:47:00Z</time></trkpt><trkpt lat="40.91067953566395" lon="9.489010037585942"><ele>9.166666666666666</ele><time>2026-05-01T06:47:02Z</time></trkpt><trkpt lat="40.910560586576395" lon="9.488971929863217"><ele>9.333333333333334</ele><time>2026-05-01T06:47:04Z</time></trkpt><trkpt lat="40.9104924896142" lon="9.488975000538861"><ele>9.5</ele><time>2026-05-01T06:47:05Z</time></trkpt><trkpt lat="40.91042532894564" lon="9.48896511488601"><ele>9.666666666666668</ele><time>2026-05-01T06:47:06Z</time></trkpt><trkpt lat="40.910357176921806" lon="9.488942559678897"><ele>9.833333333333334</ele><time>2026-05-01T06:47:07Z</time></trkpt><trkpt lat="40.910293325540245" lon="9.488900278874945"><ele>10.0</ele><time>2026-05-01T06:47:08Z</time></trkpt><trkpt lat="40.91025691188921" lon="9.488817712477836"><ele>9.857142857142858</ele><time>2026-05-01T06:47:09Z</time></trkpt><trkpt lat="40.910209481496466" lon="9.488756122302977"><ele>9.714285714285715</ele><time>2026-05-01T06:47:10Z</time></trkpt><trkpt lat="40.910163017596616" lon="9.488691401960521"><ele>9.571428571428573</ele><time>2026-05-01T06:47:10.999Z</time></trkpt><trkpt lat="40.9101190523905" lon="9.488620141714526"><ele>9.428571428571429</ele><time>2026-05-01T06:47:11.999Z</time></trkpt><trkpt lat="40.91007726975889" lon="9.48854750073606"><ele>9.285714285714286</ele><time>2026-05-01T06:47:12.999Z</time></trkpt><trkpt lat="40.91002951759454" lon="9.488485377248445"><ele>9.142857142857144</ele><time>2026-05-01T06:47:13.999Z</time></trkpt><trkpt lat="40.90999586073873" lon="9.48841198842151"><ele>9.0</ele><time>2026-05-01T06:47:14.999Z</time></trkpt><trkpt lat="40.909968551010394" lon="9.488333118021325"><ele>8.8</ele><time>2026-05-01T06:47:15.999Z</time></trkpt><trkpt lat="40.909943246894144" lon="9.488256036171135"><ele>8.600000000000001</ele><time>2026-05-01T06:47:16.999Z</time></trkpt><trkpt lat="40.90990080910186" lon="9.488100442627331"><ele>8.4</ele><time>2026-05-01T06:47:18.999Z</time></trkpt><trkpt lat="40.909860381170944" lon="9.487948647478314"><ele>8.200000000000001</ele><time>2026-05-01T06:47:20.999Z</time></trkpt><trkpt lat="40.90981738597711" lon="9.487806562937443"><ele>8.0</ele><time>2026-05-01T06:47:22.999Z</time></trkpt><trkpt lat="40.90979323133215" lon="9.487709546707771"><ele>8.5</ele><time>2026-05-01T06:47:23.999Z</time></trkpt><trkpt lat="40.90975127154381" lon="9.487558500330874"><ele>9.0</ele><time>2026-05-01T06:47:25.999Z</time></trkpt><trkpt lat="40.909707981792586" lon="9.487414215548643"><ele>9.5</ele><time>2026-05-01T06:47:27.999Z</time></trkpt><trkpt lat="40.909666497107985" lon="9.487277616572568"><ele>10.0</ele><time>2026-05-01T06:47:29.999Z</time></trkpt><trkpt lat="40.90961952737145" lon="9.487122956566692"><ele>10.5</ele><time>2026-05-01T06:47:31.999Z</time></trkpt><trkpt lat="40.90957430410776" lon="9.486974047365628"><ele>11.0</ele><time>2026-05-01T06:47:33.999Z</time></trkpt><trkpt lat="40.909528021516756" lon="9.486821551913408"><ele>11.5</ele><time>2026-05-01T06:47:35.999Z</time></trkpt><trkpt lat="40.909486978836405" lon="9.486684624515092"><ele>12.0</ele><time>2026-05-01T06:47:37.999Z</time></trkpt><trkpt lat="40.909443547275536" lon="9.48653972761095"><ele>12.0</ele><time>2026-05-01T06:47:39.999Z</time></trkpt><trkpt lat="40.90939997739488" lon="9.486394369040644"><ele>12.0</ele><time>2026-05-01T06:47:41.999Z</time></trkpt><trkpt lat="40.9093571919793" lon="9.486251627526709"><ele>12.0</ele><time>2026-05-01T06:47:43.999Z</time></trkpt><trkpt lat="40.90931593219577" lon="9.486112115458932"><ele>12.0</ele><time>2026-05-01T06:47:45.999Z</time></trkpt><trkpt lat="40.909278251968175" lon="9.485968670581668"><ele>11.75</ele><time>2026-05-01T06:47:47.999Z</time></trkpt><trkpt lat="40.90924458106998" lon="9.485834415207274"><ele>11.5</ele><time>2026-05-01T06:47:49.999Z</time></trkpt><trkpt lat="40.9092037610726" lon="9.485695042353832"><ele>11.25</ele><time>2026-05-01T06:47:51.999Z</time></trkpt><trkpt lat="40.90913449970326" lon="9.485580734677262"><ele>11.0</ele><time>2026-05-01T06:47:53.999Z</time></trkpt><trkpt lat="40.90906370736942" lon="9.485447870633102"><ele>10.75</ele><time>2026-05-01T06:47:55.999Z</time></trkpt><trkpt lat="40.9089766472116" lon="9.485341728733484"><ele>10.5</ele><time>2026-05-01T06:47:57.999Z</time></trkpt><trkpt lat="40.908875942023435" lon="9.485252763220196"><ele>10.25</ele><time>2026-05-01T06:47:59.999Z</time></trkpt><trkpt lat="40.908788763418066" lon="9.485139548325874"><ele>10.0</ele><time>2026-05-01T06:48:01.999Z</time></trkpt><trkpt lat="40.90869579221394" lon="9.485038474862659"><ele>10.0</ele><time>2026-05-01T06:48:03.999Z</time></trkpt><trkpt lat="40.90860829582066" lon="9.48494335341172"><ele>10.0</ele><time>2026-05-01T06:48:05.999Z</time></trkpt><trkpt lat="40.90851883558264" lon="9.484846096889823"><ele>10.0</ele><time>2026-05-01T06:48:07.999Z</time></trkpt><trkpt lat="40.9084275329174" lon="9.484746837618115"><ele>10.0</ele><time>2026-05-01T06:48:09.999Z</time></trkpt><trkpt lat="40.90833397426105" lon="9.484645125602718"><ele>10.0</ele><time>2026-05-01T06:48:11.999Z</time></trkpt><trkpt lat="40.908236645566525" lon="9.484539314979262"><ele>10.0</ele><time>2026-05-01T06:48:13.999Z</time></trkpt><trkpt lat="40.908133372069464" lon="9.48445547538692"><ele>10.0</ele><time>2026-05-01T06:48:15.999Z</time></trkpt><trkpt lat="40.90809554214066" lon="9.484385914798441"><ele>10.0</ele><time>2026-05-01T06:48:16.999Z</time></trkpt><trkpt lat="40.90800652264893" lon="9.48428913755522"><ele>10.0</ele><time>2026-05-01T06:48:18.999Z</time></trkpt><trkpt lat="40.90789696704313" lon="9.484198033817695"><ele>10.0</ele><time>2026-05-01T06:48:20.999Z</time></trkpt><trkpt lat="40.90781394246534" lon="9.484083566618127"><ele>10.0</ele><time>2026-05-01T06:48:22.999Z</time></trkpt><trkpt lat="40.90775775528496" lon="9.484037798576125"><ele>10.0</ele><time>2026-05-01T06:48:23.999Z</time></trkpt><trkpt lat="40.90770571925225" lon="9.483988375430037"><ele>10.0</ele><time>2026-05-01T06:48:24.999Z</time></trkpt><trkpt lat="40.907622510122" lon="9.483882496836916"><ele>10.0</ele><time>2026-05-01T06:48:26.999Z</time></trkpt><trkpt lat="40.90756259750337" lon="9.483753906701654"><ele>10.0</ele><time>2026-05-01T06:48:28.999Z</time></trkpt><trkpt lat="40.90748487652014" lon="9.483622151238922"><ele>10.0</ele><time>2026-05-01T06:48:30.999Z</time></trkpt><trkpt lat="40.90741204150985" lon="9.48350191284034"><ele>10.0</ele><time>2026-05-01T06:48:32.999Z</time></trkpt><trkpt lat="40.90730816538789" lon="9.483397017766881"><ele>10.0</ele><time>2026-05-01T06:48:34.999Z</time></trkpt><trkpt lat="40.907243768766044" lon="9.48337092628683"><ele>10.0</ele><time>2026-05-01T06:48:35.999Z</time></trkpt><trkpt lat="40.90718801638996" lon="9.483329857165632"><ele>10.0</ele><time>2026-05-01T06:48:36.999Z</time></trkpt><trkpt lat="40.90708150551803" lon="9.483255117103706"><ele>10.0</ele><time>2026-05-01T06:48:38.999Z</time></trkpt><trkpt lat="40.90697926747732" lon="9.483208938588271"><ele>10.0</ele><time>2026-05-01T06:48:40.999Z</time></trkpt><trkpt lat="40.906870538822595" lon="9.48314593850372"><ele>10.0</ele><time>2026-05-01T06:48:43Z</time></trkpt><trkpt lat="40.90675521911517" lon="9.483089663236793"><ele>10.4</ele><time>2026-05-01T06:48:45Z</time></trkpt><trkpt lat="40.90666728905035" lon="9.483026516630483"><ele>10.8</ele><time>2026-05-01T06:48:47Z</time></trkpt><trkpt lat="40.90660627304959" lon="9.482995738451837"><ele>11.2</ele><time>2026-05-01T06:48:48Z</time></trkpt><trkpt lat="40.906487805518445" lon="9.482948827455791"><ele>11.6</ele><time>2026-05-01T06:48:50Z</time></trkpt><trkpt lat="40.90638602483204" lon="9.482883730360912"><ele>12.0</ele><time>2026-05-01T06:48:52Z</time></trkpt><trkpt lat="40.906316893796124" lon="9.482838726055386"><ele>12.0</ele><time>2026-05-01T06:48:53Z</time></trkpt><trkpt lat="40.9062463371724" lon="9.48281529707664"><ele>12.0</ele><time>2026-05-01T06:48:54Z</time></trkpt><trkpt lat="40.90613627923388" lon="9.482765214114288"><ele>12.0</ele><time>2026-05-01T06:48:56Z</time></trkpt><trkpt lat="40.90599733529864" lon="9.48269429837691"><ele>12.0</ele><time>2026-05-01T06:48:58Z</time></trkpt><trkpt lat="40.90593853677813" lon="9.482639362759764"><ele>12.0</ele><time>2026-05-01T06:48:59Z</time></trkpt><trkpt lat="40.90587532511585" lon="9.482620432361557"><ele>12.166666666666666</ele><time>2026-05-01T06:49:00Z</time></trkpt><trkpt lat="40.90576927854923" lon="9.482550986759748"><ele>12.333333333333332</ele><time>2026-05-01T06:49:02Z</time></trkpt><trkpt lat="40.90571379249813" lon="9.482508507097677"><ele>12.5</ele><time>2026-05-01T06:49:03Z</time></trkpt><trkpt lat="40.90565944523173" lon="9.482461989692055"><ele>12.666666666666666</ele><time>2026-05-01T06:49:04Z</time></trkpt><trkpt lat="40.905564515179705" lon="9.482374095598589"><ele>12.833333333333332</ele><time>2026-05-01T06:49:06Z</time></trkpt><trkpt lat="40.90551193778247" lon="9.48232106566181"><ele>13.0</ele><time>2026-05-01T06:49:07Z</time></trkpt><trkpt lat="40.90545895078771" lon="9.482275937691256"><ele>12.999999999999998</ele><time>2026-05-01T06:49:08Z</time></trkpt><trkpt lat="40.905406316624905" lon="9.482219383072705"><ele>13.0</ele><time>2026-05-01T06:49:09Z</time></trkpt><trkpt lat="40.90535535329689" lon="9.48216525249935"><ele>13.0</ele><time>2026-05-01T06:49:10Z</time></trkpt><trkpt lat="40.90530646454669" lon="9.482109211285854"><ele>13.0</ele><time>2026-05-01T06:49:11Z</time></trkpt><trkpt lat="40.90522411627351" lon="9.482020574231655"><ele>12.999999999999998</ele><time>2026-05-01T06:49:13Z</time></trkpt><trkpt lat="40.90513651915363" lon="9.481923247983985"><ele>13.0</ele><time>2026-05-01T06:49:15Z</time></trkpt><trkpt lat="40.9050374039448" lon="9.48181953282491"><ele>13.8</ele><time>2026-05-01T06:49:17Z</time></trkpt><trkpt lat="40.90494063334277" lon="9.481726249258424"><ele>14.600000000000001</ele><time>2026-05-01T06:49:19Z</time></trkpt><trkpt lat="40.90488993982237" lon="9.481672051365951"><ele>15.399999999999999</ele><time>2026-05-01T06:49:20Z</time></trkpt><trkpt lat="40.904838720063374" lon="9.481618915156613"><ele>16.2</ele><time>2026-05-01T06:49:21Z</time></trkpt><trkpt lat="40.90473998176854" lon="9.481515129127411"><ele>17.0</ele><time>2026-05-01T06:49:23Z</time></trkpt><trkpt lat="40.9046322091263" lon="9.481415620408923"><ele>16.999999999999996</ele><time>2026-05-01T06:49:24.999Z</time></trkpt><trkpt lat="40.90459534700986" lon="9.48134797850453"><ele>17.0</ele><time>2026-05-01T06:49:25.999Z</time></trkpt><trkpt lat="40.90453333727292" lon="9.48130654356474"><ele>17.0</ele><time>2026-05-01T06:49:26.999Z</time></trkpt><trkpt lat="40.9044411167887" lon="9.481206867528444"><ele>17.0</ele><time>2026-05-01T06:49:28.999Z</time></trkpt><trkpt lat="40.9043869927489" lon="9.481151288863717"><ele>17.0</ele><time>2026-05-01T06:49:29.999Z</time></trkpt><trkpt lat="40.904335511011574" lon="9.481098135942904"><ele>16.999999999999996</ele><time>2026-05-01T06:49:30.999Z</time></trkpt><trkpt lat="40.90428932994483" lon="9.48104042085631"><ele>17.0</ele><time>2026-05-01T06:49:31.999Z</time></trkpt><trkpt lat="40.904238740916675" lon="9.480989889100364"><ele>17.166666666666668</ele><time>2026-05-01T06:49:32.999Z</time></trkpt><trkpt lat="40.90414007729901" lon="9.480880455762023"><ele>17.333333333333336</ele><time>2026-05-01T06:49:34.999Z</time></trkpt><trkpt lat="40.90408056883183" lon="9.480824708022842"><ele>17.5</ele><time>2026-05-01T06:49:35.999Z</time></trkpt><trkpt lat="40.90403070193495" lon="9.480771324362788"><ele>17.666666666666668</ele><time>2026-05-01T06:49:36.999Z</time></trkpt><trkpt lat="40.903989967501005" lon="9.480701093272028"><ele>17.833333333333332</ele><time>2026-05-01T06:49:37.999Z</time></trkpt><trkpt lat="40.903940763862146" lon="9.480648151517373"><ele>18.0</ele><time>2026-05-01T06:49:38.999Z</time></trkpt><trkpt lat="40.903833658736154" lon="9.480562032167967"><ele>18.0</ele><time>2026-05-01T06:49:40.999Z</time></trkpt><trkpt lat="40.9037803951753" lon="9.480505574528438"><ele>18.0</ele><time>2026-05-01T06:49:41.999Z</time></trkpt><trkpt lat="40.90369473529394" lon="9.480415413955413"><ele>18.0</ele><time>2026-05-01T06:49:43.999Z</time></trkpt><trkpt lat="40.90364005363123" lon="9.48035953874928"><ele>18.0</ele><time>2026-05-01T06:49:44.999Z</time></trkpt><trkpt lat="40.903592130923116" lon="9.480305516908988"><ele>18.0</ele><time>2026-05-01T06:49:45.999Z</time></trkpt><trkpt lat="40.903494278581654" lon="9.480206646317022"><ele>18.0</ele><time>2026-05-01T06:49:47.999Z</time></trkpt><trkpt lat="40.90339780945265" lon="9.48013648766102"><ele>18.6</ele><time>2026-05-01T06:49:49.999Z</time></trkpt><trkpt lat="40.90329004007188" lon="9.480067193438288"><ele>19.200000000000003</ele><time>2026-05-01T06:49:51.999Z</time></trkpt><trkpt lat="40.90316659599258" lon="9.480079739053618"><ele>19.8</ele><time>2026-05-01T06:49:53.999Z</time></trkpt><trkpt lat="40.90305066825475" lon="9.480090616795176"><ele>20.400000000000002</ele><time>2026-05-01T06:49:55.999Z</time></trkpt><trkpt lat="40.902985470303165" lon="9.48010019250239"><ele>21.0</ele><time>2026-05-01T06:49:56.999Z</time></trkpt><trkpt lat="40.90292307317614" lon="9.480112692087886"><ele>21.0</ele><time>2026-05-01T06:49:57.999Z</time></trkpt><trkpt lat="40.90280712717524" lon="9.480108117286989"><ele>21.0</ele><time>2026-05-01T06:49:59.999Z</time></trkpt><trkpt lat="40.902689887982376" lon="9.480124491271996"><ele>21.0</ele><time>2026-05-01T06:50:01.999Z</time></trkpt><trkpt lat="40.902576517334055" lon="9.48015694844008"><ele>21.0</ele><time>2026-05-01T06:50:03.999Z</time></trkpt><trkpt lat="40.902509718406726" lon="9.480157746748576"><ele>21.0</ele><time>2026-05-01T06:50:04.999Z</time></trkpt><trkpt lat="40.902393212826475" lon="9.480112564524783"><ele>21.0</ele><time>2026-05-01T06:50:06.999Z</time></trkpt><trkpt lat="40.90227660399518" lon="9.480070817244483"><ele>21.0</ele><time>2026-05-01T06:50:08.999Z</time></trkpt><trkpt lat="40.902174014791136" lon="9.479988335637978"><ele>21.0</ele><time>2026-05-01T06:50:10.999Z</time></trkpt><trkpt lat="40.90206095940381" lon="9.479892990565205"><ele>21.0</ele><time>2026-05-01T06:50:12.999Z</time></trkpt><trkpt lat="40.90200096319647" lon="9.479851690323684"><ele>21.0</ele><time>2026-05-01T06:50:13.999Z</time></trkpt><trkpt lat="40.90193930180138" lon="9.479817369825511"><ele>21.0</ele><time>2026-05-01T06:50:14.999Z</time></trkpt><trkpt lat="40.9018846768922" lon="9.47976304343022"><ele>21.0</ele><time>2026-05-01T06:50:15.999Z</time></trkpt><trkpt lat="40.90182630025455" lon="9.479716748967387"><ele>21.0</ele><time>2026-05-01T06:50:16.999Z</time></trkpt><trkpt lat="40.90176195436773" lon="9.479689215204194"><ele>21.0</ele><time>2026-05-01T06:50:17.999Z</time></trkpt><trkpt lat="40.90165126300293" lon="9.479602034241305"><ele>21.0</ele><time>2026-05-01T06:50:19.999Z</time></trkpt><trkpt lat="40.90160392756107" lon="9.479540122042597"><ele>21.0</ele><time>2026-05-01T06:50:20.999Z</time></trkpt><trkpt lat="40.9015045472689" lon="9.479476465874487"><ele>21.6</ele><time>2026-05-01T06:50:22.999Z</time></trkpt><trkpt lat="40.90139618177868" lon="9.479409838206367"><ele>22.200000000000003</ele><time>2026-05-01T06:50:24.999Z</time></trkpt><trkpt lat="40.90127746443727" lon="9.479376283441901"><ele>22.799999999999997</ele><time>2026-05-01T06:50:26.999Z</time></trkpt><trkpt lat="40.90121153541094" lon="9.479371080252362"><ele>23.4</ele><time>2026-05-01T06:50:27.999Z</time></trkpt><trkpt lat="40.90110258721082" lon="9.479338693949678"><ele>24.0</ele><time>2026-05-01T06:50:29.999Z</time></trkpt><trkpt lat="40.90097830133997" lon="9.479338099147435"><ele>24.0</ele><time>2026-05-01T06:50:31.999Z</time></trkpt><trkpt lat="40.90091431762021" lon="9.479337860127599"><ele>24.0</ele><time>2026-05-01T06:50:32.999Z</time></trkpt><trkpt lat="40.900797362102566" lon="9.47931242793254"><ele>24.0</ele><time>2026-05-01T06:50:35Z</time></trkpt><trkpt lat="40.90068544733545" lon="9.479291723039415"><ele>24.0</ele><time>2026-05-01T06:50:37Z</time></trkpt><trkpt lat="40.90058270024808" lon="9.479261291640858"><ele>24.0</ele><time>2026-05-01T06:50:39Z</time></trkpt><trkpt lat="40.90047988174516" lon="9.479241675044623"><ele>24.0</ele><time>2026-05-01T06:50:41Z</time></trkpt><trkpt lat="40.900418257166315" lon="9.479220991231989"><ele>24.0</ele><time>2026-05-01T06:50:42Z</time></trkpt><trkpt lat="40.9003225951145" lon="9.479164493372547"><ele>24.0</ele><time>2026-05-01T06:50:44Z</time></trkpt><trkpt lat="40.900228122588665" lon="9.47911065441181"><ele>24.0</ele><time>2026-05-01T06:50:46Z</time></trkpt><trkpt lat="40.900170224833786" lon="9.479071413091004"><ele>24.0</ele><time>2026-05-01T06:50:47Z</time></trkpt><trkpt lat="40.900063902846085" lon="9.479018598504064"><ele>24.4</ele><time>2026-05-01T06:50:49Z</time></trkpt><trkpt lat="40.89998768801136" lon="9.478938598205847"><ele>24.799999999999997</ele><time>2026-05-01T06:50:51Z</time></trkpt><trkpt lat="40.899890485002146" lon="9.478866066837101"><ele>25.200000000000003</ele><time>2026-05-01T06:50:53Z</time></trkpt><trkpt lat="40.89980935911087" lon="9.478799388503518"><ele>25.6</ele><time>2026-05-01T06:50:55Z</time></trkpt><trkpt lat="40.8997236342838" lon="9.478712614690183"><ele>26.0</ele><time>2026-05-01T06:50:57Z</time></trkpt><trkpt lat="40.89964962278404" lon="9.478613086176281"><ele>26.6</ele><time>2026-05-01T06:50:59Z</time></trkpt><trkpt lat="40.89959629245263" lon="9.478514793835004"><ele>27.200000000000003</ele><time>2026-05-01T06:51:01Z</time></trkpt><trkpt lat="40.899536321249464" lon="9.478378779792687"><ele>27.799999999999997</ele><time>2026-05-01T06:51:03Z</time></trkpt><trkpt lat="40.89947879784348" lon="9.478269896750296"><ele>28.4</ele><time>2026-05-01T06:51:05Z</time></trkpt><trkpt lat="40.8994263059007" lon="9.478130177549945"><ele>29.0</ele><time>2026-05-01T06:51:07Z</time></trkpt><trkpt lat="40.89939613536608" lon="9.478052452898435"><ele>29.4</ele><time>2026-05-01T06:51:08Z</time></trkpt><trkpt lat="40.899336921403794" lon="9.47791317338091"><ele>29.799999999999997</ele><time>2026-05-01T06:51:10Z</time></trkpt><trkpt lat="40.899289783380176" lon="9.477785348456655"><ele>30.200000000000003</ele><time>2026-05-01T06:51:12Z</time></trkpt><trkpt lat="40.8992287992046" lon="9.477650806543632"><ele>30.6</ele><time>2026-05-01T06:51:14Z</time></trkpt><trkpt lat="40.89919713668583" lon="9.477572929530046"><ele>31.0</ele><time>2026-05-01T06:51:15Z</time></trkpt><trkpt lat="40.89914084248216" lon="9.477449043932888"><ele>31.000000000000004</ele><time>2026-05-01T06:51:17Z</time></trkpt><trkpt lat="40.89909654116654" lon="9.477310549924633"><ele>31.0</ele><time>2026-05-01T06:51:19Z</time></trkpt><trkpt lat="40.89905659572812" lon="9.477244673399525"><ele>31.0</ele><time>2026-05-01T06:51:20Z</time></trkpt><trkpt lat="40.89902198951533" lon="9.477174973055417"><ele>31.0</ele><time>2026-05-01T06:51:21Z</time></trkpt><trkpt lat="40.89897774960834" lon="9.477024892628657"><ele>31.000000000000004</ele><time>2026-05-01T06:51:23Z</time></trkpt><trkpt lat="40.898947438134506" lon="9.476951070002313"><ele>31.0</ele><time>2026-05-01T06:51:24Z</time></trkpt><trkpt lat="40.89889177869041" lon="9.476815513087507"><ele>31.666666666666668</ele><time>2026-05-01T06:51:26Z</time></trkpt><trkpt lat="40.8988603625526" lon="9.476736167169499"><ele>32.333333333333336</ele><time>2026-05-01T06:51:27Z</time></trkpt><trkpt lat="40.898811307284724" lon="9.476608589019719"><ele>33.0</ele><time>2026-05-01T06:51:29Z</time></trkpt><trkpt lat="40.89878007634741" lon="9.476525291185958"><ele>33.666666666666664</ele><time>2026-05-01T06:51:30Z</time></trkpt><trkpt lat="40.89872725838942" lon="9.476391368514367"><ele>34.33333333333333</ele><time>2026-05-01T06:51:32Z</time></trkpt><trkpt lat="40.89869511163272" lon="9.476315265015069"><ele>35.0</ele><time>2026-05-01T06:51:33Z</time></trkpt><trkpt lat="40.89862915850735" lon="9.47619842195332"><ele>35.33333333333333</ele><time>2026-05-01T06:51:35Z</time></trkpt><trkpt lat="40.89857382838903" lon="9.476132359685533"><ele>35.666666666666664</ele><time>2026-05-01T06:51:36Z</time></trkpt><trkpt lat="40.898517284381185" lon="9.476085777337122"><ele>36.0</ele><time>2026-05-01T06:51:37Z</time></trkpt><trkpt lat="40.89841532213456" lon="9.476003618532971"><ele>36.333333333333336</ele><time>2026-05-01T06:51:39Z</time></trkpt><trkpt lat="40.89831957321571" lon="9.475934542964593"><ele>36.66666666666667</ele><time>2026-05-01T06:51:41Z</time></trkpt><trkpt lat="40.898262251934554" lon="9.475893470484078"><ele>37.0</ele><time>2026-05-01T06:51:42Z</time></trkpt><trkpt lat="40.89815439234911" lon="9.47581740636466"><ele>36.2</ele><time>2026-05-01T06:51:44Z</time></trkpt><trkpt lat="40.89809605122403" lon="9.47577637286181"><ele>35.400000000000006</ele><time>2026-05-01T06:51:45Z</time></trkpt><trkpt lat="40.897990937276546" lon="9.47570244235397"><ele>34.599999999999994</ele><time>2026-05-01T06:51:47Z</time></trkpt><trkpt lat="40.89789455142203" lon="9.475633533077684"><ele>33.8</ele><time>2026-05-01T06:51:49Z</time></trkpt><trkpt lat="40.89783919731509" lon="9.47559382388824"><ele>33.0</ele><time>2026-05-01T06:51:50Z</time></trkpt><trkpt lat="40.89772327325439" lon="9.47551066394389"><ele>33.0</ele><time>2026-05-01T06:51:52Z</time></trkpt><trkpt lat="40.89761526172793" lon="9.47543351030641"><ele>33.0</ele><time>2026-05-01T06:51:54Z</time></trkpt><trkpt lat="40.89755328367725" lon="9.47539089797612"><ele>33.0</ele><time>2026-05-01T06:51:55Z</time></trkpt><trkpt lat="40.897495020621356" lon="9.475350839717212"><ele>33.0</ele><time>2026-05-01T06:51:56Z</time></trkpt><trkpt lat="40.897383584117605" lon="9.47527422261008"><ele>33.0</ele><time>2026-05-01T06:51:58Z</time></trkpt><trkpt lat="40.897271691107626" lon="9.47519338552321"><ele>33.0</ele><time>2026-05-01T06:52:00Z</time></trkpt><trkpt lat="40.89714670640348" lon="9.47510734896248"><ele>33.0</ele><time>2026-05-01T06:52:01.999Z</time></trkpt><trkpt lat="40.89710707910364" lon="9.475026366650095"><ele>33.0</ele><time>2026-05-01T06:52:02.999Z</time></trkpt><trkpt lat="40.89705172951069" lon="9.474888956271387"><ele>33.0</ele><time>2026-05-01T06:52:04.999Z</time></trkpt><trkpt lat="40.89704440884891" lon="9.474710533871225"><ele>33.75</ele><time>2026-05-01T06:52:06.999Z</time></trkpt><trkpt lat="40.89706413052023" lon="9.474538720925606"><ele>34.5</ele><time>2026-05-01T06:52:08.999Z</time></trkpt><trkpt lat="40.89707290548137" lon="9.474375574340918"><ele>35.25</ele><time>2026-05-01T06:52:10.999Z</time></trkpt><trkpt lat="40.8970688577823" lon="9.474217055433469"><ele>36.0</ele><time>2026-05-01T06:52:12.999Z</time></trkpt><trkpt lat="40.89708964520892" lon="9.474068686315965"><ele>36.0</ele><time>2026-05-01T06:52:14.999Z</time></trkpt><trkpt lat="40.89709848794678" lon="9.473923159286857"><ele>36.0</ele><time>2026-05-01T06:52:16.999Z</time></trkpt><trkpt lat="40.89710710908574" lon="9.473781279208538"><ele>36.0</ele><time>2026-05-01T06:52:18.999Z</time></trkpt><trkpt lat="40.89710162485215" lon="9.473641346552432"><ele>36.0</ele><time>2026-05-01T06:52:20.999Z</time></trkpt><trkpt lat="40.89710890978121" lon="9.473503588832342"><ele>36.0</ele><time>2026-05-01T06:52:22.999Z</time></trkpt><trkpt lat="40.897133630482415" lon="9.473372799163105"><ele>36.4</ele><time>2026-05-01T06:52:24.999Z</time></trkpt><trkpt lat="40.89712916576343" lon="9.473246239733271"><ele>36.8</ele><time>2026-05-01T06:52:26.999Z</time></trkpt><trkpt lat="40.897151531969335" lon="9.473110243902584"><ele>37.199999999999996</ele><time>2026-05-01T06:52:28.999Z</time></trkpt><trkpt lat="40.89715817282394" lon="9.472985528516057"><ele>37.6</ele><time>2026-05-01T06:52:30.999Z</time></trkpt><trkpt lat="40.89717718612334" lon="9.47286192963916"><ele>38.0</ele><time>2026-05-01T06:52:32.999Z</time></trkpt><trkpt lat="40.89719655277594" lon="9.472747706607837"><ele>38.199999999999996</ele><time>2026-05-01T06:52:34.999Z</time></trkpt><trkpt lat="40.89719730419026" lon="9.472618693339225"><ele>38.4</ele><time>2026-05-01T06:52:36.999Z</time></trkpt><trkpt lat="40.897197402701686" lon="9.47248751115974"><ele>38.599999999999994</ele><time>2026-05-01T06:52:38.999Z</time></trkpt><trkpt lat="40.897236572388515" lon="9.472347096178682"><ele>38.8</ele><time>2026-05-01T06:52:43Z</time></trkpt><trkpt lat="40.8972362839431" lon="9.472254140807351"><ele>39.0</ele><time>2026-05-01T06:52:46Z</time></trkpt><trkpt lat="40.89722731490828" lon="9.472149749024222"><ele>39.666666666666664</ele><time>2026-05-01T06:52:48Z</time></trkpt><trkpt lat="40.89725155625447" lon="9.472033439191165"><ele>40.333333333333336</ele><time>2026-05-01T06:52:50Z</time></trkpt><trkpt lat="40.89725083790706" lon="9.47191993048109"><ele>41.0</ele><time>2026-05-01T06:52:52Z</time></trkpt><trkpt lat="40.89725313832209" lon="9.471765436159462"><ele>41.66666666666667</ele><time>2026-05-01T06:52:54Z</time></trkpt><trkpt lat="40.89725279319771" lon="9.471677197347567"><ele>42.333333333333336</ele><time>2026-05-01T06:52:56Z</time></trkpt><trkpt lat="40.89722945930787" lon="9.471565284795558"><ele>43.0</ele><time>2026-05-01T06:52:58Z</time></trkpt><trkpt lat="40.897195546320276" lon="9.471450520017456"><ele>43.0</ele><time>2026-05-01T06:52:59Z</time></trkpt><trkpt lat="40.897145692039736" lon="9.471372249920979"><ele>43.0</ele><time>2026-05-01T06:53:01Z</time></trkpt><trkpt lat="40.89712916852476" lon="9.471254812924595"><ele>43.0</ele><time>2026-05-01T06:53:03Z</time></trkpt><trkpt lat="40.89708130721502" lon="9.471092966865553"><ele>43.0</ele><time>2026-05-01T06:53:07Z</time></trkpt><trkpt lat="40.89704226005607" lon="9.470968344967124"><ele>43.0</ele><time>2026-05-01T06:53:09Z</time></trkpt><trkpt lat="40.897012686040156" lon="9.470888570112407"><ele>43.16666666666667</ele><time>2026-05-01T06:53:11Z</time></trkpt><trkpt lat="40.896955291325625" lon="9.470759298144229"><ele>43.333333333333336</ele><time>2026-05-01T06:53:12Z</time></trkpt><trkpt lat="40.89689552058246" lon="9.470676488387936"><ele>43.5</ele><time>2026-05-01T06:53:13Z</time></trkpt><trkpt lat="40.89684470103765" lon="9.470588732344337"><ele>43.666666666666664</ele><time>2026-05-01T06:53:14Z</time></trkpt><trkpt lat="40.89679827333841" lon="9.470510527775883"><ele>43.83333333333333</ele><time>2026-05-01T06:53:15Z</time></trkpt><trkpt lat="40.896750503733465" lon="9.470431138174627"><ele>44.0</ele><time>2026-05-01T06:53:16Z</time></trkpt><trkpt lat="40.89671051785144" lon="9.470345952650378"><ele>44.5</ele><time>2026-05-01T06:53:17Z</time></trkpt><trkpt lat="40.896657912069855" lon="9.470254126769206"><ele>45.0</ele><time>2026-05-01T06:53:18Z</time></trkpt><trkpt lat="40.89660786805328" lon="9.470166435953512"><ele>45.5</ele><time>2026-05-01T06:53:19Z</time></trkpt><trkpt lat="40.89655493808967" lon="9.470079953788217"><ele>46.0</ele><time>2026-05-01T06:53:20Z</time></trkpt><trkpt lat="40.89651614312445" lon="9.469997537832693"><ele>46.5</ele><time>2026-05-01T06:53:21Z</time></trkpt><trkpt lat="40.89646241848409" lon="9.469918437147706"><ele>47.0</ele><time>2026-05-01T06:53:22Z</time></trkpt><trkpt lat="40.89642535735812" lon="9.469836078632111"><ele>47.0</ele><time>2026-05-01T06:53:23Z</time></trkpt><trkpt lat="40.89637791872463" lon="9.469757210231394"><ele>47.0</ele><time>2026-05-01T06:53:24Z</time></trkpt><trkpt lat="40.896353405021536" lon="9.469675462718168"><ele>47.0</ele><time>2026-05-01T06:53:25Z</time></trkpt><trkpt lat="40.89633055808135" lon="9.469585851580105"><ele>47.0</ele><time>2026-05-01T06:53:26Z</time></trkpt><trkpt lat="40.896336759010715" lon="9.469502036167574"><ele>47.0</ele><time>2026-05-01T06:53:27Z</time></trkpt><trkpt lat="40.89633538178616" lon="9.469411857193013"><ele>47.0</ele><time>2026-05-01T06:53:28Z</time></trkpt><trkpt lat="40.89636852644706" lon="9.469331958110862"><ele>47.0</ele><time>2026-05-01T06:53:29Z</time></trkpt><trkpt lat="40.89642063909879" lon="9.469269680971449"><ele>47.0</ele><time>2026-05-01T06:53:30Z</time></trkpt><trkpt lat="40.89648761649809" lon="9.469159773860175"><ele>47.0</ele><time>2026-05-01T06:53:32Z</time></trkpt><trkpt lat="40.89650188330221" lon="9.469075413441661"><ele>47.0</ele><time>2026-05-01T06:53:33Z</time></trkpt><trkpt lat="40.89648320385281" lon="9.468989528968255"><ele>47.0</ele><time>2026-05-01T06:53:34Z</time></trkpt><trkpt lat="40.89643919810096" lon="9.468838253019713"><ele>47.0</ele><time>2026-05-01T06:53:36Z</time></trkpt><trkpt lat="40.896380557117325" lon="9.46870985010066"><ele>47.25</ele><time>2026-05-01T06:53:38Z</time></trkpt><trkpt lat="40.89631553707842" lon="9.468578931479753"><ele>47.5</ele><time>2026-05-01T06:53:40Z</time></trkpt><trkpt lat="40.896248567784625" lon="9.46843657706482"><ele>47.75</ele><time>2026-05-01T06:53:42Z</time></trkpt><trkpt lat="40.89617944590889" lon="9.468316131525494"><ele>48.0</ele><time>2026-05-01T06:53:44Z</time></trkpt><trkpt lat="40.89611647501408" lon="9.46821020367609"><ele>48.0</ele><time>2026-05-01T06:53:46Z</time></trkpt><trkpt lat="40.89604705674868" lon="9.468086954720839"><ele>48.0</ele><time>2026-05-01T06:53:48Z</time></trkpt><trkpt lat="40.89596933402662" lon="9.467969233121341"><ele>48.0</ele><time>2026-05-01T06:53:50Z</time></trkpt><trkpt lat="40.89590418529522" lon="9.46783401216955"><ele>48.0</ele><time>2026-05-01T06:53:52Z</time></trkpt><trkpt lat="40.89585363745474" lon="9.467697326598287"><ele>49.0</ele><time>2026-05-01T06:53:54Z</time></trkpt><trkpt lat="40.895793223026246" lon="9.467565730652023"><ele>50.0</ele><time>2026-05-01T06:53:56Z</time></trkpt><trkpt lat="40.89573332381709" lon="9.467433008074094"><ele>51.0</ele><time>2026-05-01T06:53:58Z</time></trkpt><trkpt lat="40.8956735991881" lon="9.467298725666526"><ele>52.0</ele><time>2026-05-01T06:54:00Z</time></trkpt><trkpt lat="40.8956176304547" lon="9.467169362857481"><ele>52.666666666666664</ele><time>2026-05-01T06:54:02Z</time></trkpt><trkpt lat="40.89556090829761" lon="9.467038258827515"><ele>53.33333333333333</ele><time>2026-05-01T06:54:04Z</time></trkpt><trkpt lat="40.89552875980348" lon="9.466963952776984"><ele>54.0</ele><time>2026-05-01T06:54:05Z</time></trkpt><trkpt lat="40.8954982162463" lon="9.46689098152917"><ele>54.66666666666667</ele><time>2026-05-01T06:54:06Z</time></trkpt><trkpt lat="40.8954380999268" lon="9.466746091357964"><ele>55.333333333333336</ele><time>2026-05-01T06:54:08Z</time></trkpt><trkpt lat="40.8954072291284" lon="9.4666716878449"><ele>56.0</ele><time>2026-05-01T06:54:09Z</time></trkpt><trkpt lat="40.895352042218526" lon="9.466538520406617"><ele>56.0</ele><time>2026-05-01T06:54:11Z</time></trkpt><trkpt lat="40.89529430350507" lon="9.466397525874322"><ele>55.99999999999999</ele><time>2026-05-01T06:54:13Z</time></trkpt><trkpt lat="40.89524034535568" lon="9.466265763379294"><ele>55.99999999999999</ele><time>2026-05-01T06:54:15Z</time></trkpt><trkpt lat="40.89518039926165" lon="9.466119378864558"><ele>56.0</ele><time>2026-05-01T06:54:17Z</time></trkpt><trkpt lat="40.89513908459694" lon="9.46605550806941"><ele>56.0</ele><time>2026-05-01T06:54:18Z</time></trkpt><trkpt lat="40.89509709004594" lon="9.465922575217366"><ele>55.599999999999994</ele><time>2026-05-01T06:54:20Z</time></trkpt><trkpt lat="40.895062603095575" lon="9.465844065533293"><ele>55.199999999999996</ele><time>2026-05-01T06:54:21Z</time></trkpt><trkpt lat="40.894984996434374" lon="9.465709268509242"><ele>54.800000000000004</ele><time>2026-05-01T06:54:23Z</time></trkpt><trkpt lat="40.89494904322427" lon="9.465627596795194"><ele>54.400000000000006</ele><time>2026-05-01T06:54:24Z</time></trkpt><trkpt lat="40.894905597273514" lon="9.465486640901226"><ele>54.0</ele><time>2026-05-01T06:54:26Z</time></trkpt><trkpt lat="40.894837039733225" lon="9.465355628976845"><ele>54.0</ele><time>2026-05-01T06:54:28Z</time></trkpt><trkpt lat="40.894782292305024" lon="9.465192562137503"><ele>54.00000000000001</ele><time>2026-05-01T06:54:30Z</time></trkpt><trkpt lat="40.89474959703998" lon="9.465111340502515"><ele>54.00000000000001</ele><time>2026-05-01T06:54:31Z</time></trkpt><trkpt lat="40.89468974136775" lon="9.464962647381748"><ele>54.0</ele><time>2026-05-01T06:54:33Z</time></trkpt><trkpt lat="40.89465656190927" lon="9.46488022302744"><ele>54.0</ele><time>2026-05-01T06:54:34Z</time></trkpt><trkpt lat="40.89462365494953" lon="9.46479955229786"><ele>54.0</ele><time>2026-05-01T06:54:35Z</time></trkpt><trkpt lat="40.89458072551367" lon="9.464725754824032"><ele>54.0</ele><time>2026-05-01T06:54:36Z</time></trkpt><trkpt lat="40.89451610596588" lon="9.46457951914276"><ele>54.0</ele><time>2026-05-01T06:54:38Z</time></trkpt><trkpt lat="40.89449272115946" lon="9.464494629701592"><ele>54.0</ele><time>2026-05-01T06:54:39Z</time></trkpt><trkpt lat="40.89444483196636" lon="9.464427631638731"><ele>54.0</ele><time>2026-05-01T06:54:40Z</time></trkpt><trkpt lat="40.894425101020715" lon="9.464338475777943"><ele>54.0</ele><time>2026-05-01T06:54:41Z</time></trkpt><trkpt lat="40.89436502912794" lon="9.464191653613119"><ele>54.0</ele><time>2026-05-01T06:54:43Z</time></trkpt><trkpt lat="40.894303403042485" lon="9.464049375273909"><ele>54.0</ele><time>2026-05-01T06:54:45Z</time></trkpt><trkpt lat="40.894258945370304" lon="9.463987324822448"><ele>54.0</ele><time>2026-05-01T06:54:46Z</time></trkpt><trkpt lat="40.894221200290595" lon="9.463919754951121"><ele>54.0</ele><time>2026-05-01T06:54:47Z</time></trkpt><trkpt lat="40.89417670141739" lon="9.463859393697467"><ele>54.0</ele><time>2026-05-01T06:54:48Z</time></trkpt><trkpt lat="40.89408213948818" lon="9.463742197290262"><ele>54.0</ele><time>2026-05-01T06:54:50Z</time></trkpt><trkpt lat="40.89402919985097" lon="9.463683700324571"><ele>54.0</ele><time>2026-05-01T06:54:51Z</time></trkpt><trkpt lat="40.893979366427835" lon="9.463631939069403"><ele>54.0</ele><time>2026-05-01T06:54:52Z</time></trkpt><trkpt lat="40.89392628819972" lon="9.463576306871916"><ele>54.0</ele><time>2026-05-01T06:54:53Z</time></trkpt><trkpt lat="40.89383681242521" lon="9.463467255636273"><ele>54.0</ele><time>2026-05-01T06:54:55Z</time></trkpt><trkpt lat="40.893789883022144" lon="9.463410943645156"><ele>54.0</ele><time>2026-05-01T06:54:56Z</time></trkpt><trkpt lat="40.89369555274054" lon="9.463330266875527"><ele>54.0</ele><time>2026-05-01T06:54:58Z</time></trkpt><trkpt lat="40.89365005513795" lon="9.46325967528634"><ele>54.0</ele><time>2026-05-01T06:54:59Z</time></trkpt><trkpt lat="40.89356043294747" lon="9.463176776562282"><ele>54.00000000000001</ele><time>2026-05-01T06:55:01Z</time></trkpt><trkpt lat="40.89345444823855" lon="9.463069751861092"><ele>54.00000000000001</ele><time>2026-05-01T06:55:03Z</time></trkpt><trkpt lat="40.89336830152047" lon="9.462969535788089"><ele>54.0</ele><time>2026-05-01T06:55:05Z</time></trkpt><trkpt lat="40.89330418563489" lon="9.462913297860794"><ele>54.0</ele><time>2026-05-01T06:55:06Z</time></trkpt><trkpt lat="40.89324551040982" lon="9.46283357941419"><ele>53.800000000000004</ele><time>2026-05-01T06:55:08Z</time></trkpt><trkpt lat="40.89319158969149" lon="9.462786352885812"><ele>53.60000000000001</ele><time>2026-05-01T06:55:09Z</time></trkpt><trkpt lat="40.89314337493419" lon="9.462716008025327"><ele>53.4</ele><time>2026-05-01T06:55:10Z</time></trkpt><trkpt lat="40.89304273237009" lon="9.462612047162317"><ele>53.2</ele><time>2026-05-01T06:55:12Z</time></trkpt><trkpt lat="40.892936742257696" lon="9.462523936157238"><ele>53.0</ele><time>2026-05-01T06:55:14Z</time></trkpt><trkpt lat="40.89288123006517" lon="9.462465849106868"><ele>53.0</ele><time>2026-05-01T06:55:15Z</time></trkpt><trkpt lat="40.892772558359184" lon="9.462367119586578"><ele>53.0</ele><time>2026-05-01T06:55:17Z</time></trkpt><trkpt lat="40.8926839506235" lon="9.462279859748497"><ele>53.0</ele><time>2026-05-01T06:55:19Z</time></trkpt><trkpt lat="40.89262361652734" lon="9.462235601249342"><ele>53.0</ele><time>2026-05-01T06:55:20Z</time></trkpt><trkpt lat="40.892563090077026" lon="9.462160860259331"><ele>53.0</ele><time>2026-05-01T06:55:21Z</time></trkpt><trkpt lat="40.89250282267047" lon="9.462108384455105"><ele>52.66666666666667</ele><time>2026-05-01T06:55:22Z</time></trkpt><trkpt lat="40.89244523536991" lon="9.462058844739763"><ele>52.333333333333336</ele><time>2026-05-01T06:55:23Z</time></trkpt><trkpt lat="40.89234141930875" lon="9.461990031524218"><ele>52.0</ele><time>2026-05-01T06:55:25Z</time></trkpt><trkpt lat="40.89228198820547" lon="9.461939513763154"><ele>51.66666666666667</ele><time>2026-05-01T06:55:26Z</time></trkpt><trkpt lat="40.89222687521931" lon="9.461895748444007"><ele>51.333333333333336</ele><time>2026-05-01T06:55:27Z</time></trkpt><trkpt lat="40.89216422181258" lon="9.4618361916183"><ele>51.0</ele><time>2026-05-01T06:55:28Z</time></trkpt><trkpt lat="40.892066941903174" lon="9.461763468166737"><ele>51.0</ele><time>2026-05-01T06:55:30Z</time></trkpt><trkpt lat="40.892008892107945" lon="9.461720971426478"><ele>51.0</ele><time>2026-05-01T06:55:31Z</time></trkpt><trkpt lat="40.891921795412195" lon="9.46162444931665"><ele>51.0</ele><time>2026-05-01T06:55:33Z</time></trkpt><trkpt lat="40.89181156284638" lon="9.461532403887611"><ele>51.0</ele><time>2026-05-01T06:55:35Z</time></trkpt><trkpt lat="40.89170526129229" lon="9.461468486206307"><ele>51.0</ele><time>2026-05-01T06:55:37Z</time></trkpt><trkpt lat="40.89166007746923" lon="9.461405911833957"><ele>50.666666666666664</ele><time>2026-05-01T06:55:38Z</time></trkpt><trkpt lat="40.89156096834339" lon="9.461336922079527"><ele>50.33333333333333</ele><time>2026-05-01T06:55:40Z</time></trkpt><trkpt lat="40.89150193563318" lon="9.461292357843329"><ele>50.0</ele><time>2026-05-01T06:55:41Z</time></trkpt><trkpt lat="40.89145461924365" lon="9.46123352654532"><ele>49.666666666666664</ele><time>2026-05-01T06:55:42Z</time></trkpt><trkpt lat="40.891392844656664" lon="9.4611951646477"><ele>49.33333333333333</ele><time>2026-05-01T06:55:43Z</time></trkpt><trkpt lat="40.89130271049211" lon="9.46112203799443"><ele>49.0</ele><time>2026-05-01T06:55:45Z</time></trkpt><trkpt lat="40.89124370106423" lon="9.461071847048899"><ele>49.0</ele><time>2026-05-01T06:55:46Z</time></trkpt><trkpt lat="40.891164210752365" lon="9.460980929427095"><ele>49.0</ele><time>2026-05-01T06:55:48Z</time></trkpt><trkpt lat="40.891111381647185" lon="9.46093497868922"><ele>49.0</ele><time>2026-05-01T06:55:49Z</time></trkpt><trkpt lat="40.89100770912229" lon="9.460845530879157"><ele>49.0</ele><time>2026-05-01T06:55:51Z</time></trkpt><trkpt lat="40.89090389319027" lon="9.460773643348743"><ele>49.0</ele><time>2026-05-01T06:55:53Z</time></trkpt><trkpt lat="40.890803173894994" lon="9.460670017761197"><ele>48.99999999999999</ele><time>2026-05-01T06:55:55Z</time></trkpt><trkpt lat="40.89071799830571" lon="9.460596996230715"><ele>49.0</ele><time>2026-05-01T06:55:57Z</time></trkpt><trkpt lat="40.890633787242294" lon="9.460542894684348"><ele>49.0</ele><time>2026-05-01T06:55:59Z</time></trkpt><trkpt lat="40.89057980908228" lon="9.460489262931874"><ele>49.0</ele><time>2026-05-01T06:56:00Z</time></trkpt><trkpt lat="40.89052658850098" lon="9.460430402131603"><ele>48.99999999999999</ele><time>2026-05-01T06:56:01Z</time></trkpt><trkpt lat="40.89043811477276" lon="9.46035855578565"><ele>49.0</ele><time>2026-05-01T06:56:03Z</time></trkpt><trkpt lat="40.890342824189915" lon="9.460278906013206"><ele>49.800000000000004</ele><time>2026-05-01T06:56:05Z</time></trkpt><trkpt lat="40.89024960365915" lon="9.46020257187777"><ele>50.6</ele><time>2026-05-01T06:56:07Z</time></trkpt><trkpt lat="40.89014187103514" lon="9.4601409298689"><ele>51.4</ele><time>2026-05-01T06:56:09Z</time></trkpt><trkpt lat="40.89004984407657" lon="9.460040842409978"><ele>52.2</ele><time>2026-05-01T06:56:11Z</time></trkpt><trkpt lat="40.88996218278499" lon="9.459977201607895"><ele>53.0</ele><time>2026-05-01T06:56:13Z</time></trkpt><trkpt lat="40.889872694709105" lon="9.459893025535157"><ele>53.2</ele><time>2026-05-01T06:56:15Z</time></trkpt><trkpt lat="40.88978375294168" lon="9.459814174485947"><ele>53.4</ele><time>2026-05-01T06:56:17Z</time></trkpt><trkpt lat="40.88972418071074" lon="9.459784711326833"><ele>53.60000000000001</ele><time>2026-05-01T06:56:18Z</time></trkpt><trkpt lat="40.889637102346555" lon="9.459703082351082"><ele>53.800000000000004</ele><time>2026-05-01T06:56:20Z</time></trkpt><trkpt lat="40.88954734955436" lon="9.459632915063294"><ele>54.0</ele><time>2026-05-01T06:56:22Z</time></trkpt><trkpt lat="40.889473451134045" lon="9.45957123887573"><ele>54.400000000000006</ele><time>2026-05-01T06:56:24Z</time></trkpt><trkpt lat="40.88937338178667" lon="9.459505757982724"><ele>54.800000000000004</ele><time>2026-05-01T06:56:26Z</time></trkpt><trkpt lat="40.88928978100771" lon="9.459418239421336"><ele>55.199999999999996</ele><time>2026-05-01T06:56:28Z</time></trkpt><trkpt lat="40.88919835781695" lon="9.459338442180531"><ele>55.599999999999994</ele><time>2026-05-01T06:56:30Z</time></trkpt><trkpt lat="40.88914871367381" lon="9.459286938270775"><ele>56.0</ele><time>2026-05-01T06:56:31Z</time></trkpt><trkpt lat="40.88904685387936" lon="9.459186089081783"><ele>56.0</ele><time>2026-05-01T06:56:33Z</time></trkpt><trkpt lat="40.88899368973616" lon="9.459116839287784"><ele>56.0</ele><time>2026-05-01T06:56:34Z</time></trkpt><trkpt lat="40.888942825133775" lon="9.459057397944761"><ele>56.0</ele><time>2026-05-01T06:56:35Z</time></trkpt><trkpt lat="40.88889535069954" lon="9.458990727284721"><ele>56.0</ele><time>2026-05-01T06:56:36Z</time></trkpt><trkpt lat="40.88883521826395" lon="9.458917770021337"><ele>56.0</ele><time>2026-05-01T06:56:37Z</time></trkpt><trkpt lat="40.8887860945824" lon="9.458843718360495"><ele>56.0</ele><time>2026-05-01T06:56:38Z</time></trkpt><trkpt lat="40.888727043777976" lon="9.458777470726357"><ele>56.0</ele><time>2026-05-01T06:56:39Z</time></trkpt><trkpt lat="40.8886672388111" lon="9.45871217538887"><ele>55.66666666666667</ele><time>2026-05-01T06:56:40Z</time></trkpt><trkpt lat="40.88860690301346" lon="9.458623806119272"><ele>55.333333333333336</ele><time>2026-05-01T06:56:41Z</time></trkpt><trkpt lat="40.888542232974466" lon="9.458566845136541"><ele>55.0</ele><time>2026-05-01T06:56:42Z</time></trkpt><trkpt lat="40.88849632661971" lon="9.458484322140555"><ele>54.66666666666667</ele><time>2026-05-01T06:56:43Z</time></trkpt><trkpt lat="40.88841786208553" lon="9.458406706466887"><ele>54.333333333333336</ele><time>2026-05-01T06:56:44Z</time></trkpt><trkpt lat="40.88836275747108" lon="9.45831572999322"><ele>54.0</ele><time>2026-05-01T06:56:45Z</time></trkpt><trkpt lat="40.888290550767294" lon="9.458247067426292"><ele>53.6</ele><time>2026-05-01T06:56:46Z</time></trkpt><trkpt lat="40.88823662296966" lon="9.458154320108388"><ele>53.2</ele><time>2026-05-01T06:56:47Z</time></trkpt><trkpt lat="40.888171479740414" lon="9.458081330229037"><ele>52.800000000000004</ele><time>2026-05-01T06:56:48Z</time></trkpt><trkpt lat="40.8880980452442" lon="9.45799897280385"><ele>52.400000000000006</ele><time>2026-05-01T06:56:49Z</time></trkpt><trkpt lat="40.88802864520379" lon="9.457900257693433"><ele>52.0</ele><time>2026-05-01T06:56:49.999Z</time></trkpt><trkpt lat="40.88795988360443" lon="9.457820510324815"><ele>51.6</ele><time>2026-05-01T06:56:51Z</time></trkpt><trkpt lat="40.88788449172492" lon="9.45773041613493"><ele>51.2</ele><time>2026-05-01T06:56:52Z</time></trkpt><trkpt lat="40.88780748528788" lon="9.457638135860405"><ele>50.8</ele><time>2026-05-01T06:56:53Z</time></trkpt><trkpt lat="40.88773327850171" lon="9.457533778778817"><ele>50.4</ele><time>2026-05-01T06:56:54Z</time></trkpt><trkpt lat="40.88765875569976" lon="9.457448851973092"><ele>50.0</ele><time>2026-05-01T06:56:55Z</time></trkpt><trkpt lat="40.8875602761015" lon="9.457369244062653"><ele>49.4</ele><time>2026-05-01T06:56:56Z</time></trkpt><trkpt lat="40.88746105482196" lon="9.457309626244113"><ele>48.8</ele><time>2026-05-01T06:56:57Z</time></trkpt><trkpt lat="40.88736486232246" lon="9.457234715499922"><ele>48.2</ele><time>2026-05-01T06:56:58Z</time></trkpt><trkpt lat="40.887269929469014" lon="9.457173277195114"><ele>47.6</ele><time>2026-05-01T06:56:59Z</time></trkpt><trkpt lat="40.88718465721863" lon="9.457124518611137"><ele>47.0</ele><time>2026-05-01T06:57:00Z</time></trkpt><trkpt lat="40.88709764801132" lon="9.457052470618056"><ele>45.75</ele><time>2026-05-01T06:57:01Z</time></trkpt><trkpt lat="40.88699476756447" lon="9.456956050738995"><ele>44.5</ele><time>2026-05-01T06:57:02Z</time></trkpt><trkpt lat="40.88691683954612" lon="9.456867404459976"><ele>43.25</ele><time>2026-05-01T06:57:03Z</time></trkpt><trkpt lat="40.88680519487088" lon="9.456783113066795"><ele>42.0</ele><time>2026-05-01T06:57:04Z</time></trkpt><trkpt lat="40.88670045522469" lon="9.456703369483455"><ele>41.6</ele><time>2026-05-01T06:57:05Z</time></trkpt><trkpt lat="40.886603914853055" lon="9.456655672978577"><ele>41.2</ele><time>2026-05-01T06:57:06Z</time></trkpt><trkpt lat="40.88650165424165" lon="9.456568747506216"><ele>40.8</ele><time>2026-05-01T06:57:07Z</time></trkpt><trkpt lat="40.88640666284185" lon="9.45648639329818"><ele>40.4</ele><time>2026-05-01T06:57:08Z</time></trkpt><trkpt lat="40.88632233093878" lon="9.456433519186161"><ele>40.0</ele><time>2026-05-01T06:57:09Z</time></trkpt><trkpt lat="40.886237165838196" lon="9.45636087525883"><ele>40.2</ele><time>2026-05-01T06:57:10Z</time></trkpt><trkpt lat="40.886146145833095" lon="9.45627574279838"><ele>40.4</ele><time>2026-05-01T06:57:11Z</time></trkpt><trkpt lat="40.88606414230153" lon="9.456218663859964"><ele>40.599999999999994</ele><time>2026-05-01T06:57:12Z</time></trkpt><trkpt lat="40.88597402955309" lon="9.456162319569504"><ele>40.8</ele><time>2026-05-01T06:57:13Z</time></trkpt><trkpt lat="40.8858790527163" lon="9.456066589804566"><ele>41.0</ele><time>2026-05-01T06:57:14Z</time></trkpt><trkpt lat="40.885795148881606" lon="9.455999653870798"><ele>40.4</ele><time>2026-05-01T06:57:15Z</time></trkpt><trkpt lat="40.88571458691483" lon="9.455941215135432"><ele>39.8</ele><time>2026-05-01T06:57:16Z</time></trkpt><trkpt lat="40.88563813870706" lon="9.455884786659444"><ele>39.199999999999996</ele><time>2026-05-01T06:57:17Z</time></trkpt><trkpt lat="40.88555651182315" lon="9.455809545174485"><ele>38.599999999999994</ele><time>2026-05-01T06:57:18Z</time></trkpt><trkpt lat="40.88547330313242" lon="9.455740476903433"><ele>38.0</ele><time>2026-05-01T06:57:19Z</time></trkpt><trkpt lat="40.8853920433851" lon="9.455686600348379"><ele>38.0</ele><time>2026-05-01T06:57:20Z</time></trkpt><trkpt lat="40.88531093911898" lon="9.45561970199514"><ele>38.0</ele><time>2026-05-01T06:57:21Z</time></trkpt><trkpt lat="40.88522644803771" lon="9.455543798650979"><ele>38.0</ele><time>2026-05-01T06:57:22Z</time></trkpt><trkpt lat="40.885130712387635" lon="9.455480305784958"><ele>38.0</ele><time>2026-05-01T06:57:23Z</time></trkpt><trkpt lat="40.88505218479307" lon="9.455402527098355"><ele>38.0</ele><time>2026-05-01T06:57:24Z</time></trkpt><trkpt lat="40.884958545976914" lon="9.455332791597705"><ele>37.6</ele><time>2026-05-01T06:57:25Z</time></trkpt><trkpt lat="40.884878140489576" lon="9.45526312449872"><ele>37.199999999999996</ele><time>2026-05-01T06:57:26Z</time></trkpt><trkpt lat="40.88479119102287" lon="9.455194067987874"><ele>36.8</ele><time>2026-05-01T06:57:27Z</time></trkpt><trkpt lat="40.884703578400924" lon="9.455125352758051"><ele>36.4</ele><time>2026-05-01T06:57:28Z</time></trkpt><trkpt lat="40.88462067650798" lon="9.45505845502431"><ele>36.0</ele><time>2026-05-01T06:57:29Z</time></trkpt><trkpt lat="40.884528090353555" lon="9.45498342541996"><ele>36.0</ele><time>2026-05-01T06:57:30Z</time></trkpt><trkpt lat="40.88444805571907" lon="9.454911204471365"><ele>36.0</ele><time>2026-05-01T06:57:31Z</time></trkpt><trkpt lat="40.884358079116446" lon="9.454856131293806"><ele>36.0</ele><time>2026-05-01T06:57:32Z</time></trkpt><trkpt lat="40.88428307518414" lon="9.454790619001173"><ele>36.0</ele><time>2026-05-01T06:57:33Z</time></trkpt><trkpt lat="40.8842004507886" lon="9.454729233180151"><ele>36.0</ele><time>2026-05-01T06:57:34Z</time></trkpt><trkpt lat="40.88412008741749" lon="9.454664509133769"><ele>35.4</ele><time>2026-05-01T06:57:35Z</time></trkpt><trkpt lat="40.88404381239792" lon="9.454588015443983"><ele>34.8</ele><time>2026-05-01T06:57:36Z</time></trkpt><trkpt lat="40.88395000548691" lon="9.454532797993163"><ele>34.199999999999996</ele><time>2026-05-01T06:57:37Z</time></trkpt><trkpt lat="40.88387217491124" lon="9.454466740079113"><ele>33.6</ele><time>2026-05-01T06:57:38Z</time></trkpt><trkpt lat="40.883795446141605" lon="9.454399621861766"><ele>33.0</ele><time>2026-05-01T06:57:39Z</time></trkpt><trkpt lat="40.88371879790661" lon="9.454343393700075"><ele>33.0</ele><time>2026-05-01T06:57:40Z</time></trkpt><trkpt lat="40.88363946708268" lon="9.454285545865018"><ele>33.0</ele><time>2026-05-01T06:57:41Z</time></trkpt><trkpt lat="40.883548907037344" lon="9.454223849936364"><ele>33.0</ele><time>2026-05-01T06:57:42Z</time></trkpt><trkpt lat="40.883474708843686" lon="9.454175473866943"><ele>33.0</ele><time>2026-05-01T06:57:43Z</time></trkpt><trkpt lat="40.883382426927334" lon="9.45413498608004"><ele>33.0</ele><time>2026-05-01T06:57:44Z</time></trkpt><trkpt lat="40.88329331227186" lon="9.454079941912564"><ele>33.0</ele><time>2026-05-01T06:57:45Z</time></trkpt><trkpt lat="40.88320061987524" lon="9.45405896596172"><ele>33.0</ele><time>2026-05-01T06:57:46Z</time></trkpt><trkpt lat="40.88310911096231" lon="9.453997621021635"><ele>33.0</ele><time>2026-05-01T06:57:47Z</time></trkpt><trkpt lat="40.8830137217754" lon="9.453956567912519"><ele>33.0</ele><time>2026-05-01T06:57:48Z</time></trkpt><trkpt lat="40.88291935285878" lon="9.45392847568965"><ele>33.0</ele><time>2026-05-01T06:57:49Z</time></trkpt><trkpt lat="40.88283049483423" lon="9.453886575858508"><ele>33.0</ele><time>2026-05-01T06:57:50Z</time></trkpt><trkpt lat="40.88273367276208" lon="9.453846092758656"><ele>33.0</ele><time>2026-05-01T06:57:51Z</time></trkpt><trkpt lat="40.88264397814225" lon="9.453806975459816"><ele>33.0</ele><time>2026-05-01T06:57:52Z</time></trkpt><trkpt lat="40.882553585672305" lon="9.453754483212055"><ele>33.0</ele><time>2026-05-01T06:57:53Z</time></trkpt><trkpt lat="40.88245861425534" lon="9.453712009180325"><ele>33.0</ele><time>2026-05-01T06:57:54Z</time></trkpt><trkpt lat="40.8823689096642" lon="9.453673527616173"><ele>32.0</ele><time>2026-05-01T06:57:55Z</time></trkpt><trkpt lat="40.88228027088224" lon="9.453620147279075"><ele>30.999999999999996</ele><time>2026-05-01T06:57:56Z</time></trkpt><trkpt lat="40.88219538979704" lon="9.453576812616"><ele>29.999999999999996</ele><time>2026-05-01T06:57:57Z</time></trkpt><trkpt lat="40.88210080949091" lon="9.453536529010593"><ele>29.0</ele><time>2026-05-01T06:57:58Z</time></trkpt><trkpt lat="40.88200271371575" lon="9.453500216915728"><ele>28.0</ele><time>2026-05-01T06:57:59Z</time></trkpt><trkpt lat="40.881906210000636" lon="9.453443119402365"><ele>28.0</ele><time>2026-05-01T06:58:00Z</time></trkpt><trkpt lat="40.88181459746473" lon="9.453398990782384"><ele>27.999999999999996</ele><time>2026-05-01T06:58:01Z</time></trkpt><trkpt lat="40.88172499771274" lon="9.453355831614909"><ele>27.999999999999996</ele><time>2026-05-01T06:58:02Z</time></trkpt><trkpt lat="40.881634929825566" lon="9.453312446970365"><ele>28.0</ele><time>2026-05-01T06:58:03Z</time></trkpt><trkpt lat="40.881539245289765" lon="9.453266356957418"><ele>28.0</ele><time>2026-05-01T06:58:04Z</time></trkpt><trkpt lat="40.8814433463382" lon="9.453220387314072"><ele>28.0</ele><time>2026-05-01T06:58:05Z</time></trkpt><trkpt lat="40.88135197218377" lon="9.453177561619546"><ele>27.999999999999996</ele><time>2026-05-01T06:58:06Z</time></trkpt><trkpt lat="40.88126708078233" lon="9.453137791092146"><ele>27.999999999999996</ele><time>2026-05-01T06:58:07Z</time></trkpt><trkpt lat="40.88117734241711" lon="9.453096591911441"><ele>28.0</ele><time>2026-05-01T06:58:08Z</time></trkpt><trkpt lat="40.88108687169864" lon="9.453055058045438"><ele>28.0</ele><time>2026-05-01T06:58:09Z</time></trkpt><trkpt lat="40.880989627053616" lon="9.45303281395218"><ele>28.2</ele><time>2026-05-01T06:58:10Z</time></trkpt><trkpt lat="40.88091171786819" lon="9.452974644319346"><ele>28.4</ele><time>2026-05-01T06:58:11Z</time></trkpt><trkpt lat="40.88082506541614" lon="9.452934861893361"><ele>28.599999999999998</ele><time>2026-05-01T06:58:12Z</time></trkpt><trkpt lat="40.880735969829075" lon="9.452893957818944"><ele>28.799999999999997</ele><time>2026-05-01T06:58:13Z</time></trkpt><trkpt lat="40.88065584598256" lon="9.452857172698437"><ele>29.0</ele><time>2026-05-01T06:58:14Z</time></trkpt><trkpt lat="40.880555482699705" lon="9.45283312650271"><ele>29.2</ele><time>2026-05-01T06:58:15Z</time></trkpt><trkpt lat="40.88048183945078" lon="9.45279271958219"><ele>29.4</ele><time>2026-05-01T06:58:16Z</time></trkpt><trkpt lat="40.880401320939896" lon="9.452751343147769"><ele>29.6</ele><time>2026-05-01T06:58:17Z</time></trkpt><trkpt lat="40.880320853274796" lon="9.45271828725947"><ele>29.8</ele><time>2026-05-01T06:58:18Z</time></trkpt><trkpt lat="40.880249290962226" lon="9.452679541864665"><ele>30.0</ele><time>2026-05-01T06:58:19Z</time></trkpt><trkpt lat="40.8801106420536" lon="9.452610080472216"><ele>30.333333333333332</ele><time>2026-05-01T06:58:21Z</time></trkpt><trkpt lat="40.880034006946445" lon="9.452581868489208"><ele>30.666666666666664</ele><time>2026-05-01T06:58:22Z</time></trkpt><trkpt lat="40.879960880534" lon="9.452561494937045"><ele>31.0</ele><time>2026-05-01T06:58:23Z</time></trkpt><trkpt lat="40.879880374453066" lon="9.452532846313005"><ele>31.333333333333332</ele><time>2026-05-01T06:58:24Z</time></trkpt><trkpt lat="40.87980891594161" lon="9.452515632478278"><ele>31.666666666666664</ele><time>2026-05-01T06:58:25Z</time></trkpt><trkpt lat="40.87973605351872" lon="9.452505730943802"><ele>32.0</ele><time>2026-05-01T06:58:26Z</time></trkpt><trkpt lat="40.8796669288572" lon="9.45249736647274"><ele>32.0</ele><time>2026-05-01T06:58:27Z</time></trkpt><trkpt lat="40.879600071611094" lon="9.45248325055211"><ele>32.0</ele><time>2026-05-01T06:58:28Z</time></trkpt><trkpt lat="40.87953069562277" lon="9.452463507119683"><ele>32.0</ele><time>2026-05-01T06:58:29Z</time></trkpt><trkpt lat="40.8795894539773" lon="9.452260436814012"><ele>32.0</ele><time>2026-05-01T06:58:34Z</time></trkpt><trkpt lat="40.87963089476763" lon="9.452124544669976"><ele>32.0</ele><time>2026-05-01T06:58:36Z</time></trkpt><trkpt lat="40.87967142833993" lon="9.452047836405894"><ele>31.857142857142854</ele><time>2026-05-01T06:58:37Z</time></trkpt><trkpt lat="40.87970671307258" lon="9.451958245091635"><ele>31.71428571428571</ele><time>2026-05-01T06:58:38Z</time></trkpt><trkpt lat="40.87974419864732" lon="9.451877986214512"><ele>31.57142857142857</ele><time>2026-05-01T06:58:39Z</time></trkpt><trkpt lat="40.87977965707198" lon="9.451795928925943"><ele>31.42857142857143</ele><time>2026-05-01T06:58:40Z</time></trkpt><trkpt lat="40.87981425314419" lon="9.45171661171186"><ele>31.28571428571429</ele><time>2026-05-01T06:58:41Z</time></trkpt><trkpt lat="40.87984718710012" lon="9.451626658174638"><ele>31.142857142857146</ele><time>2026-05-01T06:58:42Z</time></trkpt><trkpt lat="40.879877183530375" lon="9.451536921860317"><ele>31.0</ele><time>2026-05-01T06:58:43Z</time></trkpt><trkpt lat="40.87990380326346" lon="9.451442407290992"><ele>31.0</ele><time>2026-05-01T06:58:44Z</time></trkpt><trkpt lat="40.87992970591445" lon="9.451342523042115"><ele>31.000000000000004</ele><time>2026-05-01T06:58:45Z</time></trkpt><trkpt lat="40.87993494801119" lon="9.451245887767175"><ele>31.0</ele><time>2026-05-01T06:58:46Z</time></trkpt><trkpt lat="40.879944412837276" lon="9.45115282218845"><ele>31.0</ele><time>2026-05-01T06:58:47Z</time></trkpt><trkpt lat="40.87995365455765" lon="9.451054101228612"><ele>31.000000000000004</ele><time>2026-05-01T06:58:48Z</time></trkpt><trkpt lat="40.87995326784574" lon="9.450949915036409"><ele>31.0</ele><time>2026-05-01T06:58:49Z</time></trkpt><trkpt lat="40.8799566609955" lon="9.450857902584758"><ele>31.0</ele><time>2026-05-01T06:58:50Z</time></trkpt><trkpt lat="40.87995378102006" lon="9.450758647990066"><ele>31.0</ele><time>2026-05-01T06:58:51Z</time></trkpt><trkpt lat="40.879962732386225" lon="9.45066272449939"><ele>31.000000000000004</ele><time>2026-05-01T06:58:52Z</time></trkpt><trkpt lat="40.879971880226094" lon="9.450579746792725"><ele>31.0</ele><time>2026-05-01T06:58:53Z</time></trkpt><trkpt lat="40.87998379394061" lon="9.450478171066317"><ele>31.0</ele><time>2026-05-01T06:58:54Z</time></trkpt><trkpt lat="40.87999096425075" lon="9.450387044422772"><ele>31.000000000000004</ele><time>2026-05-01T06:58:55Z</time></trkpt><trkpt lat="40.87999573533238" lon="9.450300725511164"><ele>31.0</ele><time>2026-05-01T06:58:56Z</time></trkpt><trkpt lat="40.88000796822344" lon="9.450206554526282"><ele>31.0</ele><time>2026-05-01T06:58:57Z</time></trkpt><trkpt lat="40.88002193229826" lon="9.450111654404322"><ele>31.0</ele><time>2026-05-01T06:58:58Z</time></trkpt><trkpt lat="40.880036727567415" lon="9.449946877625084"><ele>31.0</ele><time>2026-05-01T06:59:00Z</time></trkpt><trkpt lat="40.880034775648234" lon="9.449849712869543"><ele>31.0</ele><time>2026-05-01T06:59:01Z</time></trkpt><trkpt lat="40.88004441067136" lon="9.4497630740825"><ele>31.0</ele><time>2026-05-01T06:59:02Z</time></trkpt><trkpt lat="40.88007447340172" lon="9.449601068076694"><ele>31.0</ele><time>2026-05-01T06:59:04Z</time></trkpt><trkpt lat="40.88010780165674" lon="9.449505927640804"><ele>31.0</ele><time>2026-05-01T06:59:05Z</time></trkpt><trkpt lat="40.8801210206185" lon="9.449396342800918"><ele>31.000000000000004</ele><time>2026-05-01T06:59:06Z</time></trkpt><trkpt lat="40.88010993946995" lon="9.449303131267751"><ele>31.0</ele><time>2026-05-01T06:59:07Z</time></trkpt><trkpt lat="40.88011932202712" lon="9.44921043163999"><ele>31.0</ele><time>2026-05-01T06:59:08Z</time></trkpt><trkpt lat="40.88013410953347" lon="9.449115412506586"><ele>31.000000000000004</ele><time>2026-05-01T06:59:09Z</time></trkpt><trkpt lat="40.88014168738526" lon="9.449027953101222"><ele>31.0</ele><time>2026-05-01T06:59:10Z</time></trkpt><trkpt lat="40.88016100010344" lon="9.448938696579054"><ele>31.0</ele><time>2026-05-01T06:59:30Z</time></trkpt><trkpt lat="40.88017738951717" lon="9.448848375545198"><ele>31.25</ele><time>2026-05-01T06:59:32Z</time></trkpt><trkpt lat="40.880180200137126" lon="9.448706742480292"><ele>31.5</ele><time>2026-05-01T06:59:34Z</time></trkpt><trkpt lat="40.88023997003141" lon="9.448581158819648"><ele>31.75</ele><time>2026-05-01T06:59:36Z</time></trkpt><trkpt lat="40.88031747105147" lon="9.448476035196526"><ele>32.0</ele><time>2026-05-01T06:59:38Z</time></trkpt><trkpt lat="40.880410264142945" lon="9.448370713786776"><ele>32.0</ele><time>2026-05-01T06:59:40Z</time></trkpt><trkpt lat="40.880458639979175" lon="9.448316249771016"><ele>31.999999999999996</ele><time>2026-05-01T06:59:41Z</time></trkpt><trkpt lat="40.88050659881537" lon="9.448256700095301"><ele>32.0</ele><time>2026-05-01T06:59:42Z</time></trkpt><trkpt lat="40.88055746042099" lon="9.44819512401214"><ele>32.0</ele><time>2026-05-01T06:59:43Z</time></trkpt><trkpt lat="40.880604667843755" lon="9.448129010256737"><ele>31.999999999999996</ele><time>2026-05-01T06:59:44Z</time></trkpt><trkpt lat="40.880651066740256" lon="9.448062145465652"><ele>32.0</ele><time>2026-05-01T06:59:45Z</time></trkpt><trkpt lat="40.880689873503314" lon="9.447990335809251"><ele>32.0</ele><time>2026-05-01T06:59:46Z</time></trkpt><trkpt lat="40.88072978206777" lon="9.447916488624253"><ele>32.0</ele><time>2026-05-01T06:59:47Z</time></trkpt><trkpt lat="40.88074525075965" lon="9.447829435294793"><ele>31.999999999999996</ele><time>2026-05-01T06:59:48Z</time></trkpt><trkpt lat="40.88077142761959" lon="9.447739004481026"><ele>32.0</ele><time>2026-05-01T06:59:49Z</time></trkpt><trkpt lat="40.88079840049183" lon="9.447662252217158"><ele>32.0</ele><time>2026-05-01T06:59:50Z</time></trkpt><trkpt lat="40.88082693996187" lon="9.447568552255461"><ele>31.999999999999996</ele><time>2026-05-01T06:59:51Z</time></trkpt><trkpt lat="40.88085496074655" lon="9.447488264212009"><ele>32.0</ele><time>2026-05-01T06:59:52Z</time></trkpt><trkpt lat="40.88088989763036" lon="9.447415701771492"><ele>32.0</ele><time>2026-05-01T06:59:53Z</time></trkpt><trkpt lat="40.88093610048671" lon="9.447348677852817"><ele>32.0</ele><time>2026-05-01T06:59:54Z</time></trkpt><trkpt lat="40.880970990512395" lon="9.447255536657291"><ele>32.0</ele><time>2026-05-01T06:59:55Z</time></trkpt><trkpt lat="40.88104239754268" lon="9.44712609724252"><ele>32.0</ele><time>2026-05-01T06:59:57Z</time></trkpt><trkpt lat="40.881086592075555" lon="9.44706241797865"><ele>32.0</ele><time>2026-05-01T06:59:58Z</time></trkpt><trkpt lat="40.88112894938321" lon="9.44690772710392"><ele>32.0</ele><time>2026-05-01T07:00:00Z</time></trkpt><trkpt lat="40.88119145627001" lon="9.446796629668372"><ele>32.75</ele><time>2026-05-01T07:00:02Z</time></trkpt><trkpt lat="40.88125360908414" lon="9.446645484741598"><ele>33.5</ele><time>2026-05-01T07:00:04Z</time></trkpt><trkpt lat="40.88130002556304" lon="9.446516866598834"><ele>34.25</ele><time>2026-05-01T07:00:06Z</time></trkpt><trkpt lat="40.88134794639827" lon="9.446388155742596"><ele>35.0</ele><time>2026-05-01T07:00:08Z</time></trkpt><trkpt lat="40.8813868899266" lon="9.446249933791616"><ele>35.5</ele><time>2026-05-01T07:00:10Z</time></trkpt><trkpt lat="40.881411278527274" lon="9.446088888694018"><ele>36.0</ele><time>2026-05-01T07:00:12Z</time></trkpt><trkpt lat="40.881437083347" lon="9.445949861725829"><ele>36.5</ele><time>2026-05-01T07:00:14Z</time></trkpt><trkpt lat="40.88150430451203" lon="9.445817107747914"><ele>37.0</ele><time>2026-05-01T07:00:16Z</time></trkpt><trkpt lat="40.881543835876656" lon="9.445673988657076"><ele>37.0</ele><time>2026-05-01T07:00:18Z</time></trkpt><trkpt lat="40.88157219353981" lon="9.445515985123558"><ele>37.0</ele><time>2026-05-01T07:00:20Z</time></trkpt><trkpt lat="40.8815915935523" lon="9.445435529866469"><ele>37.0</ele><time>2026-05-01T07:00:21Z</time></trkpt><trkpt lat="40.881620988378685" lon="9.445285760312393"><ele>37.0</ele><time>2026-05-01T07:00:23Z</time></trkpt><trkpt lat="40.881654381125635" lon="9.445135605414775"><ele>37.0</ele><time>2026-05-01T07:00:25Z</time></trkpt><trkpt lat="40.88167057463809" lon="9.445052679652754"><ele>37.5</ele><time>2026-05-01T07:00:26Z</time></trkpt><trkpt lat="40.88170788369504" lon="9.444908348017584"><ele>38.0</ele><time>2026-05-01T07:00:28Z</time></trkpt><trkpt lat="40.88174157994769" lon="9.444747875778273"><ele>38.5</ele><time>2026-05-01T07:00:30Z</time></trkpt><trkpt lat="40.88176928377743" lon="9.44459562644031"><ele>39.0</ele><time>2026-05-01T07:00:32Z</time></trkpt><trkpt lat="40.88180326665653" lon="9.444455123615686"><ele>39.2</ele><time>2026-05-01T07:00:34Z</time></trkpt><trkpt lat="40.88181802837136" lon="9.444372403054029"><ele>39.4</ele><time>2026-05-01T07:00:35Z</time></trkpt><trkpt lat="40.88184980924099" lon="9.444224082023458"><ele>39.6</ele><time>2026-05-01T07:00:37Z</time></trkpt><trkpt lat="40.88187096725412" lon="9.444072142934065"><ele>39.8</ele><time>2026-05-01T07:00:39Z</time></trkpt><trkpt lat="40.88189195964844" lon="9.443912785783398"><ele>40.0</ele><time>2026-05-01T07:00:41Z</time></trkpt><trkpt lat="40.881907888165635" lon="9.443757450562426"><ele>40.5</ele><time>2026-05-01T07:00:43Z</time></trkpt><trkpt lat="40.881904466307375" lon="9.443673114640681"><ele>41.0</ele><time>2026-05-01T07:00:44Z</time></trkpt><trkpt lat="40.88189582921547" lon="9.44353127411778"><ele>41.5</ele><time>2026-05-01T07:00:46Z</time></trkpt><trkpt lat="40.881888136080846" lon="9.44340493738435"><ele>42.0</ele><time>2026-05-01T07:00:48Z</time></trkpt><trkpt lat="40.88184434108093" lon="9.443271229997361"><ele>42.5</ele><time>2026-05-01T07:00:50Z</time></trkpt><trkpt lat="40.88183360189997" lon="9.443187093080702"><ele>43.0</ele><time>2026-05-01T07:00:51Z</time></trkpt><trkpt lat="40.88183872593231" lon="9.443103903934674"><ele>43.5</ele><time>2026-05-01T07:00:52Z</time></trkpt><trkpt lat="40.881826313324126" lon="9.442946646419838"><ele>44.0</ele><time>2026-05-01T07:00:54Z</time></trkpt><trkpt lat="40.881824458804296" lon="9.442797312006634"><ele>44.5</ele><time>2026-05-01T07:00:56Z</time></trkpt><trkpt lat="40.88181179208849" lon="9.442633175222765"><ele>45.0</ele><time>2026-05-01T07:00:58Z</time></trkpt><trkpt lat="40.88181449994822" lon="9.442471661539187"><ele>45.0</ele><time>2026-05-01T07:01:00Z</time></trkpt><trkpt lat="40.88178958879895" lon="9.442388782564825"><ele>45.0</ele><time>2026-05-01T07:01:01Z</time></trkpt><trkpt lat="40.88177800237106" lon="9.442294887335287"><ele>45.0</ele><time>2026-05-01T07:01:02Z</time></trkpt><trkpt lat="40.88177021817426" lon="9.442203289567226"><ele>45.0</ele><time>2026-05-01T07:01:03Z</time></trkpt><trkpt lat="40.88175971257958" lon="9.442111398132045"><ele>45.0</ele><time>2026-05-01T07:01:04Z</time></trkpt><trkpt lat="40.88175324567172" lon="9.441956949158307"><ele>45.0</ele><time>2026-05-01T07:01:06Z</time></trkpt><trkpt lat="40.88175272364458" lon="9.441870960022987"><ele>45.333333333333336</ele><time>2026-05-01T07:01:07Z</time></trkpt><trkpt lat="40.88175206252468" lon="9.441786403117524"><ele>45.666666666666664</ele><time>2026-05-01T07:01:08Z</time></trkpt><trkpt lat="40.88175133625122" lon="9.441693512516819"><ele>46.0</ele><time>2026-05-01T07:01:09Z</time></trkpt><trkpt lat="40.88175064821889" lon="9.44160551299089"><ele>46.33333333333333</ele><time>2026-05-01T07:01:10Z</time></trkpt><trkpt lat="40.88174279430334" lon="9.441451721625095"><ele>46.666666666666664</ele><time>2026-05-01T07:01:12Z</time></trkpt><trkpt lat="40.881722969103315" lon="9.441368082376835"><ele>47.0</ele><time>2026-05-01T07:01:13Z</time></trkpt><trkpt lat="40.8816953443638" lon="9.441221312269718"><ele>47.400000000000006</ele><time>2026-05-01T07:01:15Z</time></trkpt><trkpt lat="40.88168378444033" lon="9.441079951334759"><ele>47.800000000000004</ele><time>2026-05-01T07:01:17Z</time></trkpt><trkpt lat="40.88162679384043" lon="9.44093880994834"><ele>48.2</ele><time>2026-05-01T07:01:19Z</time></trkpt><trkpt lat="40.8815829696741" lon="9.440801943936718"><ele>48.6</ele><time>2026-05-01T07:01:21Z</time></trkpt><trkpt lat="40.88153021415239" lon="9.440682097879666"><ele>49.0</ele><time>2026-05-01T07:01:23Z</time></trkpt><trkpt lat="40.88145472134785" lon="9.440554980594323"><ele>48.800000000000004</ele><time>2026-05-01T07:01:25Z</time></trkpt><trkpt lat="40.88139081582468" lon="9.440454166151344"><ele>48.6</ele><time>2026-05-01T07:01:27Z</time></trkpt><trkpt lat="40.88131442994827" lon="9.440325347018788"><ele>48.4</ele><time>2026-05-01T07:01:29Z</time></trkpt><trkpt lat="40.88127247347268" lon="9.440259834402232"><ele>48.2</ele><time>2026-05-01T07:01:30Z</time></trkpt><trkpt lat="40.88118613794573" lon="9.440140136144946"><ele>48.0</ele><time>2026-05-01T07:01:32Z</time></trkpt><trkpt lat="40.881140881012904" lon="9.440074902994512"><ele>47.99999999999999</ele><time>2026-05-01T07:01:33Z</time></trkpt><trkpt lat="40.88109091521287" lon="9.440013653640344"><ele>48.0</ele><time>2026-05-01T07:01:34Z</time></trkpt><trkpt lat="40.881041790102934" lon="9.439947313681976"><ele>48.0</ele><time>2026-05-01T07:01:35Z</time></trkpt><trkpt lat="40.88100281393361" lon="9.439876415047957"><ele>48.0</ele><time>2026-05-01T07:01:36Z</time></trkpt><trkpt lat="40.8809668981671" lon="9.439807734446857"><ele>48.0</ele><time>2026-05-01T07:01:37Z</time></trkpt><trkpt lat="40.88093640655816" lon="9.43973091194628"><ele>47.99999999999999</ele><time>2026-05-01T07:01:38Z</time></trkpt><trkpt lat="40.88088141834045" lon="9.439595604661854"><ele>48.0</ele><time>2026-05-01T07:01:40Z</time></trkpt><trkpt lat="40.88084511277488" lon="9.439516517653935"><ele>47.666666666666664</ele><time>2026-05-01T07:01:41Z</time></trkpt><trkpt lat="40.880832763473244" lon="9.439426544227024"><ele>47.333333333333336</ele><time>2026-05-01T07:01:42Z</time></trkpt><trkpt lat="40.880806555211116" lon="9.439346886960436"><ele>47.0</ele><time>2026-05-01T07:01:43Z</time></trkpt><trkpt lat="40.88076014809333" lon="9.439248505373241"><ele>46.66666666666667</ele><time>2026-05-01T07:01:45Z</time></trkpt><trkpt lat="40.880743665855796" lon="9.439121235002492"><ele>46.333333333333336</ele><time>2026-05-01T07:01:47Z</time></trkpt><trkpt lat="40.88072921296522" lon="9.438975569578751"><ele>46.0</ele><time>2026-05-01T07:01:49Z</time></trkpt><trkpt lat="40.88074659647859" lon="9.438817068509518"><ele>46.4</ele><time>2026-05-01T07:01:51Z</time></trkpt><trkpt lat="40.88070174604948" lon="9.438670223297223"><ele>46.8</ele><time>2026-05-01T07:01:53Z</time></trkpt><trkpt lat="40.88058260228487" lon="9.438616632867024"><ele>47.199999999999996</ele><time>2026-05-01T07:01:55Z</time></trkpt><trkpt lat="40.880515268795946" lon="9.438625291154372"><ele>47.599999999999994</ele><time>2026-05-01T07:01:56Z</time></trkpt><trkpt lat="40.8804439694867" lon="9.43862236324577"><ele>48.0</ele><time>2026-05-01T07:01:57Z</time></trkpt><trkpt lat="40.88037084340494" lon="9.438611995743765"><ele>48.0</ele><time>2026-05-01T07:01:58Z</time></trkpt><trkpt lat="40.88025113072362" lon="9.438605827725107"><ele>48.0</ele><time>2026-05-01T07:02:00Z</time></trkpt><trkpt lat="40.88013368233914" lon="9.438599706974074"><ele>48.0</ele><time>2026-05-01T07:02:02Z</time></trkpt><trkpt lat="40.880071227085594" lon="9.438627136993542"><ele>48.0</ele><time>2026-05-01T07:02:03Z</time></trkpt><trkpt lat="40.880003402945356" lon="9.438601305547898"><ele>48.0</ele><time>2026-05-01T07:02:04Z</time></trkpt><trkpt lat="40.879930378082854" lon="9.438581485436009"><ele>48.0</ele><time>2026-05-01T07:02:05Z</time></trkpt><trkpt lat="40.87986002341017" lon="9.43858128054246"><ele>47.285714285714285</ele><time>2026-05-01T07:02:06Z</time></trkpt><trkpt lat="40.87979816007678" lon="9.438558132023955"><ele>46.57142857142857</ele><time>2026-05-01T07:02:07Z</time></trkpt><trkpt lat="40.87973047571582" lon="9.438507991289681"><ele>45.85714285714286</ele><time>2026-05-01T07:02:08Z</time></trkpt><trkpt lat="40.8796689425876" lon="9.438476837504211"><ele>45.14285714285714</ele><time>2026-05-01T07:02:09Z</time></trkpt><trkpt lat="40.87963438602023" lon="9.43839647922149"><ele>44.42857142857143</ele><time>2026-05-01T07:02:10Z</time></trkpt><trkpt lat="40.87957481007576" lon="9.438346550458792"><ele>43.714285714285715</ele><time>2026-05-01T07:02:11Z</time></trkpt><trkpt lat="40.87951225405119" lon="9.438269025714249"><ele>43.0</ele><time>2026-05-01T07:02:12Z</time></trkpt><trkpt lat="40.87945892774076" lon="9.438210473557474"><ele>43.0</ele><time>2026-05-01T07:02:13Z</time></trkpt><trkpt lat="40.87938928356387" lon="9.43814010188482"><ele>43.0</ele><time>2026-05-01T07:02:14Z</time></trkpt><trkpt lat="40.87933509700443" lon="9.438078692115182"><ele>43.0</ele><time>2026-05-01T07:02:15Z</time></trkpt><trkpt lat="40.879276449093794" lon="9.438016649819588"><ele>43.0</ele><time>2026-05-01T07:02:16Z</time></trkpt><trkpt lat="40.87921056046773" lon="9.437944748104309"><ele>43.0</ele><time>2026-05-01T07:02:17Z</time></trkpt><trkpt lat="40.8791553248964" lon="9.43787337977704"><ele>43.0</ele><time>2026-05-01T07:02:18Z</time></trkpt><trkpt lat="40.87910057969241" lon="9.437797757271976"><ele>42.66666666666667</ele><time>2026-05-01T07:02:19Z</time></trkpt><trkpt lat="40.879050631698505" lon="9.437724514075535"><ele>42.333333333333336</ele><time>2026-05-01T07:02:20Z</time></trkpt><trkpt lat="40.87897480110913" lon="9.437636747644536"><ele>42.0</ele><time>2026-05-01T07:02:21Z</time></trkpt><trkpt lat="40.878915941325076" lon="9.437561043306786"><ele>41.666666666666664</ele><time>2026-05-01T07:02:22Z</time></trkpt><trkpt lat="40.878860211440134" lon="9.437495263307245"><ele>41.33333333333333</ele><time>2026-05-01T07:02:23Z</time></trkpt><trkpt lat="40.87877568197283" lon="9.43741164456302"><ele>41.0</ele><time>2026-05-01T07:02:24Z</time></trkpt><trkpt lat="40.87870124537594" lon="9.437312479984232"><ele>41.0</ele><time>2026-05-01T07:02:25Z</time></trkpt><trkpt lat="40.87862396095448" lon="9.4372066426753"><ele>41.0</ele><time>2026-05-01T07:02:26Z</time></trkpt><trkpt lat="40.87855680223358" lon="9.437113557009988"><ele>41.0</ele><time>2026-05-01T07:02:27Z</time></trkpt><trkpt lat="40.8785078696982" lon="9.437012785910587"><ele>41.0</ele><time>2026-05-01T07:02:28Z</time></trkpt><trkpt lat="40.87844333938189" lon="9.436925553862286"><ele>41.0</ele><time>2026-05-01T07:02:29Z</time></trkpt><trkpt lat="40.878364157735675" lon="9.436834794324863"><ele>40.0</ele><time>2026-05-01T07:02:30Z</time></trkpt><trkpt lat="40.87828976134816" lon="9.436779621088478"><ele>39.0</ele><time>2026-05-01T07:02:31Z</time></trkpt><trkpt lat="40.878202668337615" lon="9.436761273376423"><ele>38.0</ele><time>2026-05-01T07:02:32Z</time></trkpt><trkpt lat="40.878125930916035" lon="9.436762563847198"><ele>37.0</ele><time>2026-05-01T07:02:33Z</time></trkpt><trkpt lat="40.87801559055029" lon="9.43681606938961"><ele>36.0</ele><time>2026-05-01T07:02:35Z</time></trkpt><trkpt lat="40.877917086006" lon="9.436848341153603"><ele>36.0</ele><time>2026-05-01T07:02:37Z</time></trkpt><trkpt lat="40.87784387544017" lon="9.436860249791296"><ele>36.0</ele><time>2026-05-01T07:02:38Z</time></trkpt><trkpt lat="40.87777410889488" lon="9.436869091112754"><ele>36.0</ele><time>2026-05-01T07:02:39Z</time></trkpt><trkpt lat="40.877661373360304" lon="9.436838182097393"><ele>36.0</ele><time>2026-05-01T07:02:41Z</time></trkpt><trkpt lat="40.87759259602722" lon="9.43681068931263"><ele>36.0</ele><time>2026-05-01T07:02:42Z</time></trkpt><trkpt lat="40.8775288731165" lon="9.43676843303973"><ele>36.0</ele><time>2026-05-01T07:02:43Z</time></trkpt><trkpt lat="40.87743609206486" lon="9.436692776653118"><ele>35.833333333333336</ele><time>2026-05-01T07:02:45Z</time></trkpt><trkpt lat="40.87736391981255" lon="9.436622683151322"><ele>35.666666666666664</ele><time>2026-05-01T07:02:47Z</time></trkpt><trkpt lat="40.87729991941117" lon="9.436604448796253"><ele>35.5</ele><time>2026-05-01T07:02:48Z</time></trkpt><trkpt lat="40.87724181189552" lon="9.436557052073697"><ele>35.33333333333333</ele><time>2026-05-01T07:02:49Z</time></trkpt><trkpt lat="40.87718891057486" lon="9.436457150754512"><ele>35.166666666666664</ele><time>2026-05-01T07:02:51Z</time></trkpt><trkpt lat="40.877186481643825" lon="9.43633077140856"><ele>35.0</ele><time>2026-05-01T07:02:53Z</time></trkpt><trkpt lat="40.87719917096216" lon="9.43620050759165"><ele>35.5</ele><time>2026-05-01T07:02:55Z</time></trkpt><trkpt lat="40.87721898604934" lon="9.436061505419449"><ele>36.0</ele><time>2026-05-01T07:02:57Z</time></trkpt><trkpt lat="40.8771971075877" lon="9.435914069767188"><ele>36.5</ele><time>2026-05-01T07:02:59Z</time></trkpt><trkpt lat="40.87713693258004" lon="9.435777999959305"><ele>37.0</ele><time>2026-05-01T07:03:01Z</time></trkpt><trkpt lat="40.87708184351471" lon="9.435648898263233"><ele>37.0</ele><time>2026-05-01T07:03:03Z</time></trkpt><trkpt lat="40.877024162299264" lon="9.435538758684048"><ele>37.0</ele><time>2026-05-01T07:03:05Z</time></trkpt><trkpt lat="40.876970837731896" lon="9.43542712227395"><ele>37.0</ele><time>2026-05-01T07:03:07Z</time></trkpt><trkpt lat="40.8769148431997" lon="9.435319333208136"><ele>37.0</ele><time>2026-05-01T07:03:09Z</time></trkpt><trkpt lat="40.876896621261224" lon="9.435213442038053"><ele>37.0</ele><time>2026-05-01T07:03:11Z</time></trkpt><trkpt lat="40.87683216540579" lon="9.435116168144331"><ele>37.333333333333336</ele><time>2026-05-01T07:03:13Z</time></trkpt><trkpt lat="40.87678259832251" lon="9.435022289036166"><ele>37.66666666666667</ele><time>2026-05-01T07:03:15Z</time></trkpt><trkpt lat="40.87673004346799" lon="9.434927927440775"><ele>38.0</ele><time>2026-05-01T07:03:19Z</time></trkpt><trkpt lat="40.876687037198714" lon="9.43485029468971"><ele>38.333333333333336</ele><time>2026-05-01T07:03:22Z</time></trkpt><trkpt lat="40.87661069986593" lon="9.43474043251104"><ele>38.666666666666664</ele><time>2026-05-01T07:03:24Z</time></trkpt><trkpt lat="40.87655253589511" lon="9.43468621535728"><ele>39.0</ele><time>2026-05-01T07:03:25Z</time></trkpt><trkpt lat="40.87645371741529" lon="9.434576507395883"><ele>40.2</ele><time>2026-05-01T07:03:27Z</time></trkpt><trkpt lat="40.876408878036386" lon="9.434514899181247"><ele>41.4</ele><time>2026-05-01T07:03:28Z</time></trkpt><trkpt lat="40.87636017496434" lon="9.43445286965732"><ele>42.6</ele><time>2026-05-01T07:03:29Z</time></trkpt><trkpt lat="40.876295454776916" lon="9.434358145373796"><ele>43.8</ele><time>2026-05-01T07:03:31Z</time></trkpt><trkpt lat="40.87621848013912" lon="9.43426473719624"><ele>45.0</ele><time>2026-05-01T07:03:36Z</time></trkpt><trkpt lat="40.876133453503485" lon="9.434129968820866"><ele>45.0</ele><time>2026-05-01T07:03:38Z</time></trkpt><trkpt lat="40.87605666365706" lon="9.434044733154554"><ele>45.0</ele><time>2026-05-01T07:03:40Z</time></trkpt><trkpt lat="40.87596647885108" lon="9.433971085287524"><ele>45.0</ele><time>2026-05-01T07:03:42Z</time></trkpt><trkpt lat="40.87592775415737" lon="9.433886553909403"><ele>45.0</ele><time>2026-05-01T07:03:46Z</time></trkpt><trkpt lat="40.87586154867917" lon="9.433806247080838"><ele>45.0</ele><time>2026-05-01T07:03:49Z</time></trkpt><trkpt lat="40.87580908201639" lon="9.433735289076628"><ele>45.0</ele><time>2026-05-01T07:03:51Z</time></trkpt><trkpt lat="40.875719113111764" lon="9.433638246716018"><ele>46.5</ele><time>2026-05-01T07:03:54Z</time></trkpt><trkpt lat="40.87563084071214" lon="9.433531192841704"><ele>48.0</ele><time>2026-05-01T07:03:56Z</time></trkpt><trkpt lat="40.8755609199729" lon="9.433404186687003"><ele>49.5</ele><time>2026-05-01T07:03:58Z</time></trkpt><trkpt lat="40.875473011090165" lon="9.433324436882623"><ele>51.0</ele><time>2026-05-01T07:04:00Z</time></trkpt><trkpt lat="40.87539912700561" lon="9.433226822937081"><ele>51.0</ele><time>2026-05-01T07:04:02Z</time></trkpt><trkpt lat="40.87533318960632" lon="9.433198015524866"><ele>51.0</ele><time>2026-05-01T07:04:03Z</time></trkpt><trkpt lat="40.875280426086334" lon="9.433121275388242"><ele>51.0</ele><time>2026-05-01T07:04:05Z</time></trkpt><trkpt lat="40.875232788644865" lon="9.433025787050852"><ele>51.0</ele><time>2026-05-01T07:04:09Z</time></trkpt><trkpt lat="40.87517065227716" lon="9.43290042998132"><ele>51.0</ele><time>2026-05-01T07:04:12Z</time></trkpt><trkpt lat="40.8751153508058" lon="9.432782632485194"><ele>52.0</ele><time>2026-05-01T07:04:16Z</time></trkpt><trkpt lat="40.87508209414687" lon="9.432703110791957"><ele>53.0</ele><time>2026-05-01T07:04:18Z</time></trkpt><trkpt lat="40.87505262371815" lon="9.432599490840792"><ele>54.0</ele><time>2026-05-01T07:04:21Z</time></trkpt><trkpt lat="40.875003846692806" lon="9.432500279525183"><ele>55.0</ele><time>2026-05-01T07:04:22Z</time></trkpt><trkpt lat="40.87496026797674" lon="9.432414821906692"><ele>56.0</ele><time>2026-05-01T07:04:23Z</time></trkpt><trkpt lat="40.874907299142045" lon="9.432338759466319"><ele>57.0</ele><time>2026-05-01T07:04:24Z</time></trkpt><trkpt lat="40.87486105247077" lon="9.432258010662524"><ele>57.0</ele><time>2026-05-01T07:04:25Z</time></trkpt><trkpt lat="40.87477637381382" lon="9.432210698722526"><ele>57.0</ele><time>2026-05-01T07:04:26Z</time></trkpt><trkpt lat="40.87472745672903" lon="9.432054925564291"><ele>57.0</ele><time>2026-05-01T07:04:28Z</time></trkpt><trkpt lat="40.87467395230191" lon="9.431972608463811"><ele>57.0</ele><time>2026-05-01T07:04:32Z</time></trkpt><trkpt lat="40.87463471646446" lon="9.431884702778072"><ele>57.0</ele><time>2026-05-01T07:04:34Z</time></trkpt><trkpt lat="40.87459735540839" lon="9.431801454216483"><ele>57.8</ele><time>2026-05-01T07:04:36Z</time></trkpt><trkpt lat="40.874524330082046" lon="9.431640871838187"><ele>58.6</ele><time>2026-05-01T07:04:38Z</time></trkpt><trkpt lat="40.87448368379527" lon="9.431553854289566"><ele>59.39999999999999</ele><time>2026-05-01T07:04:39Z</time></trkpt><trkpt lat="40.87442022462664" lon="9.431407283319949"><ele>60.199999999999996</ele><time>2026-05-01T07:04:41Z</time></trkpt><trkpt lat="40.87438187383779" lon="9.431337398587978"><ele>61.0</ele><time>2026-05-01T07:04:42Z</time></trkpt><trkpt lat="40.87434338501961" lon="9.431268640941292"><ele>61.599999999999994</ele><time>2026-05-01T07:04:43Z</time></trkpt><trkpt lat="40.87426920171797" lon="9.431151094777862"><ele>62.199999999999996</ele><time>2026-05-01T07:04:45Z</time></trkpt><trkpt lat="40.874226242218214" lon="9.431086872584869"><ele>62.800000000000004</ele><time>2026-05-01T07:04:46Z</time></trkpt><trkpt lat="40.87412655757738" lon="9.431005484046997"><ele>63.400000000000006</ele><time>2026-05-01T07:04:48Z</time></trkpt><trkpt lat="40.87403095221707" lon="9.43093329649183"><ele>64.0</ele><time>2026-05-01T07:04:50Z</time></trkpt><trkpt lat="40.87404446569545" lon="9.430786711122224"><ele>64.0</ele><time>2026-05-01T07:04:55Z</time></trkpt><trkpt lat="40.87400849593723" lon="9.430679553982623"><ele>64.0</ele><time>2026-05-01T07:04:58Z</time></trkpt><trkpt lat="40.873941819829405" lon="9.43049991046554"><ele>64.0</ele><time>2026-05-01T07:05:00Z</time></trkpt><trkpt lat="40.87388551431714" lon="9.43040487149621"><ele>64.0</ele><time>2026-05-01T07:05:01Z</time></trkpt><trkpt lat="40.8738406802238" lon="9.430322369789433"><ele>64.0</ele><time>2026-05-01T07:05:02Z</time></trkpt><trkpt lat="40.87374213314145" lon="9.430246135023708"><ele>64.66666666666666</ele><time>2026-05-01T07:05:03Z</time></trkpt><trkpt lat="40.873707552384204" lon="9.43016277855293"><ele>65.33333333333333</ele><time>2026-05-01T07:05:04Z</time></trkpt><trkpt lat="40.87367303365619" lon="9.430080754766403"><ele>66.0</ele><time>2026-05-01T07:05:05Z</time></trkpt><trkpt lat="40.87363430909599" lon="9.429936123846309"><ele>66.66666666666667</ele><time>2026-05-01T07:05:07Z</time></trkpt><trkpt lat="40.87361551692203" lon="9.429832218007313"><ele>67.33333333333334</ele><time>2026-05-01T07:05:08Z</time></trkpt><trkpt lat="40.873609513234705" lon="9.429692492294787"><ele>68.0</ele><time>2026-05-01T07:05:10Z</time></trkpt><trkpt lat="40.87358807424901" lon="9.4295694735495"><ele>69.0</ele><time>2026-05-01T07:05:12Z</time></trkpt><trkpt lat="40.87356203156444" lon="9.429447941736433"><ele>70.0</ele><time>2026-05-01T07:05:14Z</time></trkpt><trkpt lat="40.8735545633096" lon="9.42932975917308"><ele>71.0</ele><time>2026-05-01T07:05:16Z</time></trkpt><trkpt lat="40.87353694368932" lon="9.429203834548789"><ele>72.0</ele><time>2026-05-01T07:05:18Z</time></trkpt><trkpt lat="40.87350443430692" lon="9.429096397064892"><ele>73.0</ele><time>2026-05-01T07:05:20Z</time></trkpt><trkpt lat="40.87349681294667" lon="9.429013658867552"><ele>74.0</ele><time>2026-05-01T07:05:22Z</time></trkpt><trkpt lat="40.87348204673703" lon="9.428908435139137"><ele>74.33333333333334</ele><time>2026-05-01T07:05:24Z</time></trkpt><trkpt lat="40.87344824026945" lon="9.428805874073344"><ele>74.66666666666667</ele><time>2026-05-01T07:05:26Z</time></trkpt><trkpt lat="40.8734429795196" lon="9.42870559611454"><ele>75.0</ele><time>2026-05-01T07:05:28Z</time></trkpt><trkpt lat="40.87343926270251" lon="9.428597603244734"><ele>75.33333333333333</ele><time>2026-05-01T07:05:31Z</time></trkpt><trkpt lat="40.8733921536321" lon="9.428443449048387"><ele>75.66666666666666</ele><time>2026-05-01T07:05:34Z</time></trkpt><trkpt lat="40.873382021498905" lon="9.428359680359824"><ele>76.0</ele><time>2026-05-01T07:05:36Z</time></trkpt><trkpt lat="40.87336506725084" lon="9.428277026247704"><ele>75.83333333333333</ele><time>2026-05-01T07:05:38Z</time></trkpt><trkpt lat="40.873365042315" lon="9.42815486585152"><ele>75.66666666666666</ele><time>2026-05-01T07:05:41Z</time></trkpt><trkpt lat="40.87334364961551" lon="9.42807145699003"><ele>75.5</ele><time>2026-05-01T07:05:43Z</time></trkpt><trkpt lat="40.87335330742304" lon="9.427976616806012"><ele>75.33333333333333</ele><time>2026-05-01T07:05:45Z</time></trkpt><trkpt lat="40.87334938571235" lon="9.427874384350448"><ele>75.16666666666667</ele><time>2026-05-01T07:05:47Z</time></trkpt><trkpt lat="40.873302891018334" lon="9.427793236973073"><ele>75.0</ele><time>2026-05-01T07:05:50Z</time></trkpt><trkpt lat="40.873290720133554" lon="9.427686728462843"><ele>75.0</ele><time>2026-05-01T07:05:53Z</time></trkpt><trkpt lat="40.87331366578463" lon="9.427574981123056"><ele>75.0</ele><time>2026-05-01T07:05:56Z</time></trkpt><trkpt lat="40.87330300552764" lon="9.427464014192104"><ele>75.0</ele><time>2026-05-01T07:05:59Z</time></trkpt><trkpt lat="40.87330220468351" lon="9.427372748698845"><ele>75.0</ele><time>2026-05-01T07:06:03Z</time></trkpt><trkpt lat="40.87330468866687" lon="9.427262595277693"><ele>75.0</ele><time>2026-05-01T07:06:07Z</time></trkpt><trkpt lat="40.87331388341117" lon="9.427156487515363"><ele>75.0</ele><time>2026-05-01T07:06:11Z</time></trkpt><trkpt lat="40.87331666622971" lon="9.427042402798525"><ele>76.0</ele><time>2026-05-01T07:06:14Z</time></trkpt><trkpt lat="40.8733430842942" lon="9.426954978156376"><ele>77.0</ele><time>2026-05-01T07:06:19Z</time></trkpt><trkpt lat="40.8733632271863" lon="9.426861787927553"><ele>78.0</ele><time>2026-05-01T07:06:22Z</time></trkpt><trkpt lat="40.87336532072658" lon="9.426749385054237"><ele>79.0</ele><time>2026-05-01T07:06:25Z</time></trkpt><trkpt lat="40.873361161916414" lon="9.426659868422279"><ele>80.0</ele><time>2026-05-01T07:06:28Z</time></trkpt><trkpt lat="40.87337019552474" lon="9.42654598282977"><ele>81.0</ele><time>2026-05-01T07:06:31Z</time></trkpt><trkpt lat="40.87336302855564" lon="9.426432114578384"><ele>81.0</ele><time>2026-05-01T07:06:34Z</time></trkpt><trkpt lat="40.873378171245506" lon="9.426341878899677"><ele>81.0</ele><time>2026-05-01T07:06:37Z</time></trkpt><trkpt lat="40.873384772382394" lon="9.426229361911048"><ele>81.0</ele><time>2026-05-01T07:06:40Z</time></trkpt><trkpt lat="40.87340936839138" lon="9.426130936124771"><ele>81.0</ele><time>2026-05-01T07:06:43Z</time></trkpt><trkpt lat="40.87340900265559" lon="9.426039788513908"><ele>81.0</ele><time>2026-05-01T07:06:47Z</time></trkpt><trkpt lat="40.87340946353536" lon="9.42594956448432"><ele>81.0</ele><time>2026-05-01T07:06:50Z</time></trkpt><trkpt lat="40.87342766068175" lon="9.425862355556797"><ele>81.0</ele><time>2026-05-01T07:06:55Z</time></trkpt><trkpt lat="40.87347844047312" lon="9.425808619290382"><ele>83.5</ele><time>2026-05-01T07:06:59Z</time></trkpt><trkpt lat="40.87354853670434" lon="9.42578127288505"><ele>86.0</ele><time>2026-05-01T07:07:04Z</time></trkpt><trkpt lat="40.873582516713014" lon="9.425696025618674"><ele>88.5</ele><time>2026-05-01T07:07:08Z</time></trkpt><trkpt lat="40.873613094942144" lon="9.425592402125648"><ele>91.0</ele><time>2026-05-01T07:07:12Z</time></trkpt><trkpt lat="40.87361782071644" lon="9.425500074594872"><ele>93.5</ele><time>2026-05-01T07:07:15Z</time></trkpt><trkpt lat="40.873644656976175" lon="9.425401132349014"><ele>96.0</ele><time>2026-05-01T07:07:19Z</time></trkpt><trkpt lat="40.8736818741124" lon="9.425318123252882"><ele>97.71428571428571</ele><time>2026-05-01T07:07:22Z</time></trkpt><trkpt lat="40.87369920449289" lon="9.425229984917776"><ele>99.42857142857143</ele><time>2026-05-01T07:07:25Z</time></trkpt><trkpt lat="40.87371402024056" lon="9.42514608105443"><ele>101.14285714285714</ele><time>2026-05-01T07:07:29Z</time></trkpt><trkpt lat="40.873752814652725" lon="9.425038219274573"><ele>102.85714285714286</ele><time>2026-05-01T07:07:33Z</time></trkpt><trkpt lat="40.873781850516075" lon="9.42495898897867"><ele>104.57142857142857</ele><time>2026-05-01T07:07:36Z</time></trkpt><trkpt lat="40.873810187188155" lon="9.424869764620144"><ele>106.28571428571428</ele><time>2026-05-01T07:07:39Z</time></trkpt><trkpt lat="40.87385753323859" lon="9.424779605211967"><ele>108.0</ele><time>2026-05-01T07:07:44Z</time></trkpt><trkpt lat="40.87389231714406" lon="9.424700708454884"><ele>108.5</ele><time>2026-05-01T07:07:48Z</time></trkpt><trkpt lat="40.87390436966652" lon="9.424602160601623"><ele>109.0</ele><time>2026-05-01T07:07:52Z</time></trkpt><trkpt lat="40.873897893857794" lon="9.424483141608249"><ele>109.5</ele><time>2026-05-01T07:07:57Z</time></trkpt><trkpt lat="40.873899245685074" lon="9.42438283288326"><ele>110.0</ele><time>2026-05-01T07:08:01Z</time></trkpt><trkpt lat="40.87389450625947" lon="9.424287408988835"><ele>110.5</ele><time>2026-05-01T07:08:05Z</time></trkpt><trkpt lat="40.87387690829815" lon="9.424179221919115"><ele>111.0</ele><time>2026-05-01T07:08:08Z</time></trkpt><trkpt lat="40.87387993260683" lon="9.424089153174505"><ele>111.0</ele><time>2026-05-01T07:08:11Z</time></trkpt><trkpt lat="40.8738538488428" lon="9.424008748057343"><ele>111.0</ele><time>2026-05-01T07:08:15Z</time></trkpt><trkpt lat="40.87385820276812" lon="9.423884286982997"><ele>111.0</ele><time>2026-05-01T07:08:18Z</time></trkpt><trkpt lat="40.87385381194689" lon="9.423790283903669"><ele>111.0</ele><time>2026-05-01T07:08:21Z</time></trkpt><trkpt lat="40.87388447501138" lon="9.423673255885456"><ele>111.0</ele><time>2026-05-01T07:08:24Z</time></trkpt><trkpt lat="40.87388098546957" lon="9.423587630956963"><ele>111.0</ele><time>2026-05-01T07:08:27Z</time></trkpt><trkpt lat="40.87387724504788" lon="9.423498199199082"><ele>111.5</ele><time>2026-05-01T07:08:30Z</time></trkpt><trkpt lat="40.873871933407166" lon="9.42337006049011"><ele>112.0</ele><time>2026-05-01T07:08:33Z</time></trkpt><trkpt lat="40.87387259349445" lon="9.423285041256555"><ele>112.5</ele><time>2026-05-01T07:08:36Z</time></trkpt><trkpt lat="40.8738605918938" lon="9.423192643882906"><ele>113.0</ele><time>2026-05-01T07:08:39Z</time></trkpt><trkpt lat="40.873848892109834" lon="9.423101691338625"><ele>113.5</ele><time>2026-05-01T07:08:42Z</time></trkpt><trkpt lat="40.8738496513933" lon="9.423008913967697"><ele>114.0</ele><time>2026-05-01T07:08:46Z</time></trkpt><trkpt lat="40.873843893359336" lon="9.422899374005157"><ele>115.28571428571428</ele><time>2026-05-01T07:08:50Z</time></trkpt><trkpt lat="40.873832741095484" lon="9.422813616950688"><ele>116.57142857142856</ele><time>2026-05-01T07:08:53Z</time></trkpt><trkpt lat="40.873802561812425" lon="9.422728619571915"><ele>117.85714285714286</ele><time>2026-05-01T07:08:57Z</time></trkpt><trkpt lat="40.87378627786198" lon="9.422646118474095"><ele>119.14285714285714</ele><time>2026-05-01T07:09:00Z</time></trkpt><trkpt lat="40.87377524951983" lon="9.422551639347867"><ele>120.42857142857143</ele><time>2026-05-01T07:09:05Z</time></trkpt><trkpt lat="40.87373881057421" lon="9.422475383109447"><ele>121.71428571428572</ele><time>2026-05-01T07:09:10Z</time></trkpt><trkpt lat="40.87368211906941" lon="9.422397827251109"><ele>123.00000000000001</ele><time>2026-05-01T07:09:13Z</time></trkpt><trkpt lat="40.87364883018543" lon="9.422316595771957"><ele>123.00000000000001</ele><time>2026-05-01T07:09:16Z</time></trkpt><trkpt lat="40.87360846337055" lon="9.422222325109333"><ele>123.0</ele><time>2026-05-01T07:09:20Z</time></trkpt><trkpt lat="40.873566287296235" lon="9.42215017926295"><ele>123.00000000000001</ele><time>2026-05-01T07:09:23Z</time></trkpt><trkpt lat="40.87353020668591" lon="9.422063269788268"><ele>123.00000000000001</ele><time>2026-05-01T07:09:26Z</time></trkpt><trkpt lat="40.87348543939734" lon="9.42199047806647"><ele>123.0</ele><time>2026-05-01T07:09:29Z</time></trkpt><trkpt lat="40.87347128168807" lon="9.421894096477764"><ele>123.00000000000001</ele><time>2026-05-01T07:09:32Z</time></trkpt><trkpt lat="40.873438619726485" lon="9.421811559300448"><ele>123.00000000000001</ele><time>2026-05-01T07:09:35Z</time></trkpt><trkpt lat="40.873383525273574" lon="9.421683350396606"><ele>123.83333333333333</ele><time>2026-05-01T07:09:38Z</time></trkpt><trkpt lat="40.873345501792876" lon="9.4215861161542"><ele>124.66666666666666</ele><time>2026-05-01T07:09:40Z</time></trkpt><trkpt lat="40.87330534105095" lon="9.421505190990759"><ele>125.5</ele><time>2026-05-01T07:09:42Z</time></trkpt><trkpt lat="40.87325250105727" lon="9.42142286805144"><ele>126.33333333333333</ele><time>2026-05-01T07:09:44Z</time></trkpt><trkpt lat="40.87321027955413" lon="9.421344245100672"><ele>127.16666666666666</ele><time>2026-05-01T07:09:46Z</time></trkpt><trkpt lat="40.873187789633135" lon="9.421256783436965"><ele>128.0</ele><time>2026-05-01T07:09:48Z</time></trkpt><trkpt lat="40.873150341039576" lon="9.421136917394643"><ele>128.42857142857142</ele><time>2026-05-01T07:09:51Z</time></trkpt><trkpt lat="40.87310487652518" lon="9.421049894277406"><ele>128.85714285714283</ele><time>2026-05-01T07:09:54Z</time></trkpt><trkpt lat="40.873049080773846" lon="9.42098641304607"><ele>129.28571428571428</ele><time>2026-05-01T07:09:56Z</time></trkpt><trkpt lat="40.873030162773965" lon="9.42089709663278"><ele>129.71428571428572</ele><time>2026-05-01T07:09:59Z</time></trkpt><trkpt lat="40.87297856964956" lon="9.420840197615997"><ele>130.14285714285717</ele><time>2026-05-01T07:10:01Z</time></trkpt><trkpt lat="40.87294038604992" lon="9.42073788848552"><ele>130.57142857142858</ele><time>2026-05-01T07:10:03Z</time></trkpt><trkpt lat="40.87292170652541" lon="9.420651370104032"><ele>131.0</ele><time>2026-05-01T07:10:05Z</time></trkpt><trkpt lat="40.87286195022228" lon="9.420577010898805"><ele>131.0</ele><time>2026-05-01T07:10:08Z</time></trkpt><trkpt lat="40.87280747854274" lon="9.42052154620624"><ele>131.0</ele><time>2026-05-01T07:10:10Z</time></trkpt><trkpt lat="40.872745323638604" lon="9.420462246866931"><ele>131.0</ele><time>2026-05-01T07:10:13Z</time></trkpt><trkpt lat="40.87271069986339" lon="9.420373606877712"><ele>131.0</ele><time>2026-05-01T07:10:17Z</time></trkpt><trkpt lat="40.87265038730404" lon="9.420307848294955"><ele>131.0</ele><time>2026-05-01T07:10:21Z</time></trkpt><trkpt lat="40.87259724937379" lon="9.420251691882148"><ele>131.0</ele><time>2026-05-01T07:10:24Z</time></trkpt><trkpt lat="40.87257240035509" lon="9.420163912454024"><ele>131.0</ele><time>2026-05-01T07:10:27Z</time></trkpt><trkpt lat="40.87253213589565" lon="9.42006378130396"><ele>132.5</ele><time>2026-05-01T07:10:30Z</time></trkpt><trkpt lat="40.8724923191779" lon="9.419982712566831"><ele>134.0</ele><time>2026-05-01T07:10:33Z</time></trkpt><trkpt lat="40.87245426748794" lon="9.419897145226932"><ele>135.5</ele><time>2026-05-01T07:10:36Z</time></trkpt><trkpt lat="40.87241171456042" lon="9.419824681294509"><ele>137.0</ele><time>2026-05-01T07:10:39Z</time></trkpt><trkpt lat="40.8723934122404" lon="9.419713732001997"><ele>138.5</ele><time>2026-05-01T07:10:43Z</time></trkpt><trkpt lat="40.87237381289699" lon="9.419619047776013"><ele>140.0</ele><time>2026-05-01T07:10:46Z</time></trkpt><trkpt lat="40.87232526026234" lon="9.419533969007961"><ele>141.0</ele><time>2026-05-01T07:10:49Z</time></trkpt><trkpt lat="40.872294005880164" lon="9.41944427662676"><ele>142.0</ele><time>2026-05-01T07:10:52Z</time></trkpt><trkpt lat="40.872281436668956" lon="9.419344357044704"><ele>143.0</ele><time>2026-05-01T07:10:55Z</time></trkpt><trkpt lat="40.87224435874769" lon="9.41924802046854"><ele>144.0</ele><time>2026-05-01T07:10:58Z</time></trkpt><trkpt lat="40.87218902703306" lon="9.419180331852077"><ele>145.0</ele><time>2026-05-01T07:11:02Z</time></trkpt><trkpt lat="40.87213568472142" lon="9.419129957846808"><ele>146.0</ele><time>2026-05-01T07:11:05Z</time></trkpt><trkpt lat="40.87205899864653" lon="9.419106686974517"><ele>146.0</ele><time>2026-05-01T07:11:08Z</time></trkpt><trkpt lat="40.87198751139182" lon="9.419061366107284"><ele>146.0</ele><time>2026-05-01T07:11:13Z</time></trkpt><trkpt lat="40.871943354457514" lon="9.418968662082982"><ele>146.0</ele><time>2026-05-01T07:11:16Z</time></trkpt><trkpt lat="40.87192462450104" lon="9.418867607892333"><ele>146.0</ele><time>2026-05-01T07:11:20Z</time></trkpt><trkpt lat="40.871855944683126" lon="9.418808074189375"><ele>146.0</ele><time>2026-05-01T07:11:25Z</time></trkpt><trkpt lat="40.87178049439294" lon="9.418777247354765"><ele>146.0</ele><time>2026-05-01T07:11:28Z</time></trkpt><trkpt lat="40.871718651456966" lon="9.418751829890757"><ele>147.83333333333331</ele><time>2026-05-01T07:11:31Z</time></trkpt><trkpt lat="40.87165048589491" lon="9.418677264964924"><ele>149.66666666666666</ele><time>2026-05-01T07:11:35Z</time></trkpt><trkpt lat="40.871616543241565" lon="9.418591863603442"><ele>151.5</ele><time>2026-05-01T07:11:39Z</time></trkpt><trkpt lat="40.87162477253046" lon="9.418509143200026"><ele>153.33333333333334</ele><time>2026-05-01T07:11:41Z</time></trkpt><trkpt lat="40.871628108108226" lon="9.418421213869484"><ele>155.16666666666669</ele><time>2026-05-01T07:11:44Z</time></trkpt><trkpt lat="40.87165304123922" lon="9.418315293265707"><ele>157.0</ele><time>2026-05-01T07:11:47Z</time></trkpt><trkpt lat="40.8717105941448" lon="9.418135599594251"><ele>157.0</ele><time>2026-05-01T07:11:56Z</time></trkpt><trkpt lat="40.871751423514915" lon="9.418047689487866"><ele>157.0</ele><time>2026-05-01T07:12:01Z</time></trkpt><trkpt lat="40.87178334609642" lon="9.417969115495557"><ele>157.0</ele><time>2026-05-01T07:12:06Z</time></trkpt><trkpt lat="40.87181567416784" lon="9.417866158340782"><ele>157.0</ele><time>2026-05-01T07:12:10Z</time></trkpt><trkpt lat="40.87186716514354" lon="9.417775789389042"><ele>157.0</ele><time>2026-05-01T07:12:15Z</time></trkpt><trkpt lat="40.871926053701216" lon="9.417711097772182"><ele>157.0</ele><time>2026-05-01T07:12:20Z</time></trkpt><trkpt lat="40.871993330641665" lon="9.417679009192254"><ele>158.33333333333334</ele><time>2026-05-01T07:12:24Z</time></trkpt><trkpt lat="40.87205025826612" lon="9.417613055669154"><ele>159.66666666666669</ele><time>2026-05-01T07:12:29Z</time></trkpt><trkpt lat="40.87210205094957" lon="9.417561115750436"><ele>161.0</ele><time>2026-05-01T07:12:30Z</time></trkpt><trkpt lat="40.87214144540354" lon="9.417490185083675"><ele>162.33333333333334</ele><time>2026-05-01T07:12:32Z</time></trkpt><trkpt lat="40.87213819751188" lon="9.41737020382006"><ele>163.66666666666666</ele><time>2026-05-01T07:12:34Z</time></trkpt><trkpt lat="40.872183353849" lon="9.417265390783747"><ele>165.0</ele><time>2026-05-01T07:12:36Z</time></trkpt><trkpt lat="40.872198447228" lon="9.417153073228704"><ele>165.66666666666666</ele><time>2026-05-01T07:12:38Z</time></trkpt><trkpt lat="40.87224788279241" lon="9.417006917025397"><ele>166.33333333333334</ele><time>2026-05-01T07:12:40Z</time></trkpt><trkpt lat="40.8722665870377" lon="9.416885507319794"><ele>167.0</ele><time>2026-05-01T07:12:42Z</time></trkpt><trkpt lat="40.87231830381811" lon="9.416789197291532"><ele>167.66666666666669</ele><time>2026-05-01T07:12:44Z</time></trkpt><trkpt lat="40.87233902254792" lon="9.416694883548635"><ele>168.33333333333334</ele><time>2026-05-01T07:12:47Z</time></trkpt><trkpt lat="40.87233492797856" lon="9.416605450548184"><ele>169.0</ele><time>2026-05-01T07:12:50Z</time></trkpt><trkpt lat="40.87231004630759" lon="9.41651244333778"><ele>169.0</ele><time>2026-05-01T07:12:54Z</time></trkpt><trkpt lat="40.87229494513287" lon="9.416423632080795"><ele>169.0</ele><time>2026-05-01T07:12:57Z</time></trkpt><trkpt lat="40.8723193910687" lon="9.416341194246261"><ele>169.0</ele><time>2026-05-01T07:13:00Z</time></trkpt><trkpt lat="40.87230008772778" lon="9.416254968778919"><ele>169.0</ele><time>2026-05-01T07:13:02Z</time></trkpt><trkpt lat="40.87232535191937" lon="9.416162815507176"><ele>169.0</ele><time>2026-05-01T07:13:06Z</time></trkpt><trkpt lat="40.872354526003186" lon="9.416088621539046"><ele>169.0</ele><time>2026-05-01T07:13:10Z</time></trkpt><trkpt lat="40.87239929799896" lon="9.416013111344705"><ele>169.0</ele><time>2026-05-01T07:13:14Z</time></trkpt><trkpt lat="40.872455470568326" lon="9.415927546516045"><ele>170.28571428571428</ele><time>2026-05-01T07:13:18Z</time></trkpt><trkpt lat="40.87250433998194" lon="9.415823795808024"><ele>171.57142857142856</ele><time>2026-05-01T07:13:22Z</time></trkpt><trkpt lat="40.8725452059655" lon="9.41574584423895"><ele>172.85714285714283</ele><time>2026-05-01T07:13:26Z</time></trkpt><trkpt lat="40.872559225778076" lon="9.41565874690706"><ele>174.14285714285714</ele><time>2026-05-01T07:13:29Z</time></trkpt><trkpt lat="40.87257313089014" lon="9.415572719081714"><ele>175.42857142857142</ele><time>2026-05-01T07:13:32Z</time></trkpt><trkpt lat="40.872516900258056" lon="9.415505743253426"><ele>176.7142857142857</ele><time>2026-05-01T07:13:36Z</time></trkpt><trkpt lat="40.87245826530558" lon="9.41545815663476"><ele>178.0</ele><time>2026-05-01T07:13:40Z</time></trkpt><trkpt lat="40.8724087252703" lon="9.415404245114813"><ele>179.57142857142856</ele><time>2026-05-01T07:13:44Z</time></trkpt><trkpt lat="40.872353675312986" lon="9.415331310542394"><ele>181.14285714285714</ele><time>2026-05-01T07:13:49Z</time></trkpt><trkpt lat="40.87234026440094" lon="9.415245499581282"><ele>182.71428571428572</ele><time>2026-05-01T07:14:01Z</time></trkpt><trkpt lat="40.87232902954996" lon="9.415155680432376"><ele>184.28571428571428</ele><time>2026-05-01T07:14:07Z</time></trkpt><trkpt lat="40.872325964689125" lon="9.415063289750911"><ele>185.85714285714286</ele><time>2026-05-01T07:14:14Z</time></trkpt><trkpt lat="40.87232134078249" lon="9.414973959768433"><ele>187.42857142857142</ele><time>2026-05-01T07:14:20Z</time></trkpt><trkpt lat="40.872274269746335" lon="9.41489496941109"><ele>189.0</ele><time>2026-05-01T07:14:30Z</time></trkpt><trkpt lat="40.87223416935887" lon="9.414826136060107"><ele>189.0</ele><time>2026-05-01T07:14:35Z</time></trkpt><trkpt lat="40.872186195640325" lon="9.414771264241612"><ele>189.0</ele><time>2026-05-01T07:14:44Z</time></trkpt><trkpt lat="40.8721379002381" lon="9.414702163521893"><ele>189.0</ele><time>2026-05-01T07:14:49Z</time></trkpt><trkpt lat="40.87206437607483" lon="9.414650103860708"><ele>189.0</ele><time>2026-05-01T07:14:54Z</time></trkpt><trkpt lat="40.87205166255525" lon="9.414555590022767"><ele>189.0</ele><time>2026-05-01T07:14:57Z</time></trkpt><trkpt lat="40.87200372032844" lon="9.414468223819659"><ele>189.0</ele><time>2026-05-01T07:14:59Z</time></trkpt><trkpt lat="40.871939300545854" lon="9.414362397060614"><ele>190.14285714285714</ele><time>2026-05-01T07:15:02Z</time></trkpt><trkpt lat="40.87190455240724" lon="9.414279889089116"><ele>191.28571428571428</ele><time>2026-05-01T07:15:04Z</time></trkpt><trkpt lat="40.87186144976704" lon="9.414215426828344"><ele>192.42857142857144</ele><time>2026-05-01T07:15:06Z</time></trkpt><trkpt lat="40.87185840559165" lon="9.414119339005369"><ele>193.57142857142856</ele><time>2026-05-01T07:15:11Z</time></trkpt><trkpt lat="40.871839212043824" lon="9.414020909696484"><ele>194.71428571428572</ele><time>2026-05-01T07:15:14Z</time></trkpt><trkpt lat="40.87185660386007" lon="9.413926719155265"><ele>195.85714285714286</ele><time>2026-05-01T07:15:19Z</time></trkpt><trkpt lat="40.8718600469067" lon="9.413839373513365"><ele>197.0</ele><time>2026-05-01T07:15:22Z</time></trkpt><trkpt lat="40.87185524215626" lon="9.41375267536587"><ele>197.00000000000003</ele><time>2026-05-01T07:15:25Z</time></trkpt><trkpt lat="40.87182053330388" lon="9.413682355438928"><ele>197.0</ele><time>2026-05-01T07:15:29Z</time></trkpt><trkpt lat="40.871802672757106" lon="9.41359539436365"><ele>197.0</ele><time>2026-05-01T07:15:32Z</time></trkpt><trkpt lat="40.87178410686248" lon="9.41350384974448"><ele>197.0</ele><time>2026-05-01T07:15:36Z</time></trkpt><trkpt lat="40.87175246816037" lon="9.413389599066829"><ele>197.00000000000003</ele><time>2026-05-01T07:15:38Z</time></trkpt><trkpt lat="40.8717178115204" lon="9.413282303444799"><ele>197.0</ele><time>2026-05-01T07:15:40Z</time></trkpt><trkpt lat="40.87170699066848" lon="9.413178738847316"><ele>198.33333333333334</ele><time>2026-05-01T07:15:42Z</time></trkpt><trkpt lat="40.871668542534536" lon="9.413068762804908"><ele>199.66666666666669</ele><time>2026-05-01T07:15:44Z</time></trkpt><trkpt lat="40.87169259664552" lon="9.412950305447003"><ele>201.0</ele><time>2026-05-01T07:15:47Z</time></trkpt><trkpt lat="40.87169782046438" lon="9.412839346593834"><ele>202.33333333333331</ele><time>2026-05-01T07:15:50Z</time></trkpt><trkpt lat="40.871713363276506" lon="9.4127545404573"><ele>203.66666666666666</ele><time>2026-05-01T07:15:52Z</time></trkpt><trkpt lat="40.871718168891924" lon="9.412636400729617"><ele>205.0</ele><time>2026-05-01T07:15:56Z</time></trkpt><trkpt lat="40.87172780190315" lon="9.412526770175916"><ele>206.14285714285714</ele><time>2026-05-01T07:16:00Z</time></trkpt><trkpt lat="40.8717024496774" lon="9.412431633227985"><ele>207.28571428571428</ele><time>2026-05-01T07:16:03Z</time></trkpt><trkpt lat="40.87169755315843" lon="9.412330438061295"><ele>208.42857142857142</ele><time>2026-05-01T07:16:06Z</time></trkpt><trkpt lat="40.8717270244011" lon="9.412254871791275"><ele>209.57142857142856</ele><time>2026-05-01T07:16:09Z</time></trkpt><trkpt lat="40.87174921052946" lon="9.412152477613468"><ele>210.71428571428572</ele><time>2026-05-01T07:16:15Z</time></trkpt><trkpt lat="40.8718000800983" lon="9.41208249185398"><ele>211.85714285714283</ele><time>2026-05-01T07:16:19Z</time></trkpt><trkpt lat="40.87182071222641" lon="9.411995423077595"><ele>213.0</ele><time>2026-05-01T07:16:25Z</time></trkpt><trkpt lat="40.87184820085909" lon="9.411896387163258"><ele>213.14285714285714</ele><time>2026-05-01T07:16:30Z</time></trkpt><trkpt lat="40.871878283835386" lon="9.41182240171951"><ele>213.28571428571428</ele><time>2026-05-01T07:16:33Z</time></trkpt><trkpt lat="40.871905788368736" lon="9.411719984434306"><ele>213.42857142857144</ele><time>2026-05-01T07:16:38Z</time></trkpt><trkpt lat="40.87194774105333" lon="9.411641630772545"><ele>213.57142857142856</ele><time>2026-05-01T07:16:42Z</time></trkpt><trkpt lat="40.87196589971158" lon="9.411558417783867"><ele>213.71428571428572</ele><time>2026-05-01T07:16:46Z</time></trkpt><trkpt lat="40.87196437000123" lon="9.411460399229929"><ele>213.85714285714286</ele><time>2026-05-01T07:16:50Z</time></trkpt><trkpt lat="40.87200617018684" lon="9.411365365929186"><ele>214.0</ele><time>2026-05-01T07:16:56Z</time></trkpt><trkpt lat="40.87205619099671" lon="9.411298895317014"><ele>215.83333333333331</ele><time>2026-05-01T07:17:00Z</time></trkpt><trkpt lat="40.872108882422644" lon="9.411217188549088"><ele>217.66666666666666</ele><time>2026-05-01T07:17:06Z</time></trkpt><trkpt lat="40.872161324506685" lon="9.411140362907792"><ele>219.5</ele><time>2026-05-01T07:17:10Z</time></trkpt><trkpt lat="40.872219248221384" lon="9.411051477472823"><ele>221.33333333333331</ele><time>2026-05-01T07:17:13Z</time></trkpt><trkpt lat="40.87229026422119" lon="9.410960504447313"><ele>223.16666666666666</ele><time>2026-05-01T07:17:15Z</time></trkpt><trkpt lat="40.872356013285334" lon="9.410898517775639"><ele>225.0</ele><time>2026-05-01T07:17:17Z</time></trkpt><trkpt lat="40.87241783599882" lon="9.410798289486884"><ele>225.00000000000003</ele><time>2026-05-01T07:17:20Z</time></trkpt><trkpt lat="40.8724570248422" lon="9.410726409476917"><ele>225.0</ele><time>2026-05-01T07:17:22Z</time></trkpt><trkpt lat="40.87248452262729" lon="9.410642342136171"><ele>225.00000000000003</ele><time>2026-05-01T07:17:25Z</time></trkpt><trkpt lat="40.8725086914098" lon="9.410524659159524"><ele>225.00000000000003</ele><time>2026-05-01T07:17:28Z</time></trkpt><trkpt lat="40.87251543433089" lon="9.410439183817891"><ele>225.0</ele><time>2026-05-01T07:17:31Z</time></trkpt><trkpt lat="40.872503887657516" lon="9.41035452424597"><ele>225.00000000000003</ele><time>2026-05-01T07:17:35Z</time></trkpt><trkpt lat="40.87251160585042" lon="9.41026020492698"><ele>225.00000000000003</ele><time>2026-05-01T07:17:38Z</time></trkpt><trkpt lat="40.87254214012343" lon="9.410183047526955"><ele>226.8</ele><time>2026-05-01T07:17:41Z</time></trkpt><trkpt lat="40.87262385854914" lon="9.410081204862205"><ele>228.6</ele><time>2026-05-01T07:17:44Z</time></trkpt><trkpt lat="40.872729785536244" lon="9.410015754937655"><ele>230.39999999999998</ele><time>2026-05-01T07:17:46Z</time></trkpt><trkpt lat="40.872831422448726" lon="9.409962348627907"><ele>232.2</ele><time>2026-05-01T07:17:48Z</time></trkpt><trkpt lat="40.87293548826615" lon="9.409913249285568"><ele>234.0</ele><time>2026-05-01T07:17:50Z</time></trkpt><trkpt lat="40.87298449330473" lon="9.40983807609222"><ele>234.0</ele><time>2026-05-01T07:17:53Z</time></trkpt><trkpt lat="40.87301323456525" lon="9.40976169837816"><ele>234.0</ele><time>2026-05-01T07:17:55Z</time></trkpt><trkpt lat="40.873032025484285" lon="9.40964338000027"><ele>234.0</ele><time>2026-05-01T07:17:59Z</time></trkpt><trkpt lat="40.87303068445208" lon="9.409525953672086"><ele>234.0</ele><time>2026-05-01T07:18:02Z</time></trkpt><trkpt lat="40.87300518937353" lon="9.40940619987415"><ele>234.0</ele><time>2026-05-01T07:18:05Z</time></trkpt><trkpt lat="40.872972054448674" lon="9.409320778738731"><ele>234.0</ele><time>2026-05-01T07:18:08Z</time></trkpt><trkpt lat="40.87296953016725" lon="9.409230272756226"><ele>233.83333333333334</ele><time>2026-05-01T07:18:12Z</time></trkpt><trkpt lat="40.872936400793904" lon="9.409112224792516"><ele>233.66666666666669</ele><time>2026-05-01T07:18:16Z</time></trkpt><trkpt lat="40.872921322797445" lon="9.409020561623716"><ele>233.5</ele><time>2026-05-01T07:18:18Z</time></trkpt><trkpt lat="40.87284250457398" lon="9.408964194190032"><ele>233.33333333333334</ele><time>2026-05-01T07:18:21Z</time></trkpt><trkpt lat="40.87277937545338" lon="9.408922398204611"><ele>233.16666666666669</ele><time>2026-05-01T07:18:23Z</time></trkpt><trkpt lat="40.872720931751196" lon="9.408885787624857"><ele>233.0</ele><time>2026-05-01T07:18:25Z</time></trkpt><trkpt lat="40.87266285942413" lon="9.408817332173978"><ele>233.42857142857144</ele><time>2026-05-01T07:18:28Z</time></trkpt><trkpt lat="40.872644249111225" lon="9.408734611690488"><ele>233.85714285714283</ele><time>2026-05-01T07:18:30Z</time></trkpt><trkpt lat="40.87258480137282" lon="9.408683842473753"><ele>234.28571428571428</ele><time>2026-05-01T07:18:33Z</time></trkpt><trkpt lat="40.87253251877242" lon="9.408633951220885"><ele>234.71428571428572</ele><time>2026-05-01T07:18:35Z</time></trkpt><trkpt lat="40.87249440862177" lon="9.408565713228231"><ele>235.14285714285717</ele><time>2026-05-01T07:18:37Z</time></trkpt><trkpt lat="40.87245538248451" lon="9.408500318370583"><ele>235.57142857142856</ele><time>2026-05-01T07:18:41Z</time></trkpt><trkpt lat="40.87236225722999" lon="9.40850875296678"><ele>236.0</ele><time>2026-05-01T07:18:44Z</time></trkpt><trkpt lat="40.87230149306079" lon="9.408458072111888"><ele>236.00000000000003</ele><time>2026-05-01T07:18:48Z</time></trkpt><trkpt lat="40.8722177497106" lon="9.408356483670138"><ele>236.0</ele><time>2026-05-01T07:18:49Z</time></trkpt><trkpt lat="40.87215063369567" lon="9.408294956869094"><ele>236.0</ele><time>2026-05-01T07:18:50Z</time></trkpt><trkpt lat="40.872081910152865" lon="9.408226956263254"><ele>236.0</ele><time>2026-05-01T07:18:51Z</time></trkpt><trkpt lat="40.872018253474614" lon="9.408191337590683"><ele>236.00000000000003</ele><time>2026-05-01T07:18:52Z</time></trkpt><trkpt lat="40.871945060082446" lon="9.408192029799919"><ele>236.0</ele><time>2026-05-01T07:18:53Z</time></trkpt><trkpt lat="40.87189683711711" lon="9.408135434919052"><ele>236.0</ele><time>2026-05-01T07:18:54Z</time></trkpt><trkpt lat="40.871835105623724" lon="9.408040521160263"><ele>236.00000000000003</ele><time>2026-05-01T07:18:56Z</time></trkpt><trkpt lat="40.87172039642829" lon="9.408026712301941"><ele>236.00000000000003</ele><time>2026-05-01T07:18:58Z</time></trkpt><trkpt lat="40.87165894087489" lon="9.40800732715335"><ele>236.0</ele><time>2026-05-01T07:18:59Z</time></trkpt><trkpt lat="40.871558368544356" lon="9.407958135340637"><ele>236.0</ele><time>2026-05-01T07:19:01Z</time></trkpt><trkpt lat="40.87147045521401" lon="9.407914367119433"><ele>235.83333333333334</ele><time>2026-05-01T07:19:03Z</time></trkpt><trkpt lat="40.87140352122225" lon="9.407823163402668"><ele>235.66666666666669</ele><time>2026-05-01T07:19:05Z</time></trkpt><trkpt lat="40.87138404639474" lon="9.407709475192053"><ele>235.5</ele><time>2026-05-01T07:19:07Z</time></trkpt><trkpt lat="40.8713626729585" lon="9.407562484463547"><ele>235.33333333333331</ele><time>2026-05-01T07:19:09Z</time></trkpt><trkpt lat="40.87137156925124" lon="9.407469285644261"><ele>235.16666666666666</ele><time>2026-05-01T07:19:12Z</time></trkpt><trkpt lat="40.87135406116027" lon="9.407368883947672"><ele>235.0</ele><time>2026-05-01T07:19:14Z</time></trkpt><trkpt lat="40.87133508409161" lon="9.407288757500078"><ele>235.0</ele><time>2026-05-01T07:19:15Z</time></trkpt><trkpt lat="40.87135241235026" lon="9.40717141977802"><ele>235.0</ele><time>2026-05-01T07:19:17Z</time></trkpt><trkpt lat="40.87136709990743" lon="9.407088242226159"><ele>235.0</ele><time>2026-05-01T07:19:18Z</time></trkpt><trkpt lat="40.871397893940276" lon="9.406954666817283"><ele>235.0</ele><time>2026-05-01T07:19:20Z</time></trkpt><trkpt lat="40.871411412535124" lon="9.406822906582905"><ele>235.0</ele><time>2026-05-01T07:19:22Z</time></trkpt><trkpt lat="40.871426029908775" lon="9.406683793012867"><ele>235.83333333333331</ele><time>2026-05-01T07:19:25Z</time></trkpt><trkpt lat="40.871437560488275" lon="9.40657518392777"><ele>236.66666666666666</ele><time>2026-05-01T07:19:27Z</time></trkpt><trkpt lat="40.87145368000364" lon="9.406468777391575"><ele>237.5</ele><time>2026-05-01T07:19:29Z</time></trkpt><trkpt lat="40.871454893976555" lon="9.406336449877148"><ele>238.33333333333331</ele><time>2026-05-01T07:19:31Z</time></trkpt><trkpt lat="40.87148817766253" lon="9.406245436866575"><ele>239.16666666666666</ele><time>2026-05-01T07:19:33Z</time></trkpt><trkpt lat="40.87150718216523" lon="9.406148308312874"><ele>240.0</ele><time>2026-05-01T07:19:36Z</time></trkpt><trkpt lat="40.87153034972811" lon="9.406045653253358"><ele>240.0</ele><time>2026-05-01T07:19:38Z</time></trkpt><trkpt lat="40.871553133368714" lon="9.405940508422573"><ele>240.0</ele><time>2026-05-01T07:19:41Z</time></trkpt><trkpt lat="40.8715600286206" lon="9.405833384286835"><ele>240.0</ele><time>2026-05-01T07:19:44Z</time></trkpt><trkpt lat="40.871611066663874" lon="9.405755607435065"><ele>240.0</ele><time>2026-05-01T07:19:47Z</time></trkpt><trkpt lat="40.871605308104165" lon="9.405663159424561"><ele>240.0</ele><time>2026-05-01T07:19:51Z</time></trkpt><trkpt lat="40.871573307362375" lon="9.405560811321108"><ele>240.0</ele><time>2026-05-01T07:19:55Z</time></trkpt><trkpt lat="40.87155136709616" lon="9.405435208058652"><ele>240.0</ele><time>2026-05-01T07:19:57Z</time></trkpt><trkpt lat="40.87155273358364" lon="9.405279854902673"><ele>240.0</ele><time>2026-05-01T07:19:59Z</time></trkpt><trkpt lat="40.871540563987374" lon="9.405183376131099"><ele>240.0</ele><time>2026-05-01T07:20:00Z</time></trkpt><trkpt lat="40.87153719525122" lon="9.40508624835435"><ele>240.0</ele><time>2026-05-01T07:20:01Z</time></trkpt><trkpt lat="40.8715275731864" lon="9.404996562477496"><ele>240.0</ele><time>2026-05-01T07:20:02Z</time></trkpt><trkpt lat="40.87146701422671" lon="9.40477742130008"><ele>240.0</ele><time>2026-05-01T07:20:04Z</time></trkpt><trkpt lat="40.87142322530052" lon="9.404702171400096"><ele>240.0</ele><time>2026-05-01T07:20:05Z</time></trkpt><trkpt lat="40.87135269536263" lon="9.404589084369846"><ele>240.0</ele><time>2026-05-01T07:20:07Z</time></trkpt><trkpt lat="40.87122355814624" lon="9.404530670588697"><ele>240.0</ele><time>2026-05-01T07:20:09Z</time></trkpt><trkpt lat="40.8711319375595" lon="9.404525519203334"><ele>240.0</ele><time>2026-05-01T07:20:11Z</time></trkpt><trkpt lat="40.87106411357013" lon="9.404512769235332"><ele>240.33333333333334</ele><time>2026-05-01T07:20:12Z</time></trkpt><trkpt lat="40.87099906228818" lon="9.404491694668163"><ele>240.66666666666669</ele><time>2026-05-01T07:20:13Z</time></trkpt><trkpt lat="40.87090386321137" lon="9.404439858135957"><ele>241.0</ele><time>2026-05-01T07:20:15Z</time></trkpt><trkpt lat="40.87080676544043" lon="9.404394024517543"><ele>241.33333333333334</ele><time>2026-05-01T07:20:17Z</time></trkpt><trkpt lat="40.87074222930543" lon="9.404315469510058"><ele>241.66666666666669</ele><time>2026-05-01T07:20:19Z</time></trkpt><trkpt lat="40.87066643281303" lon="9.404256297604174"><ele>242.0</ele><time>2026-05-01T07:20:22Z</time></trkpt><trkpt lat="40.870621987247276" lon="9.404191574129465"><ele>242.00000000000003</ele><time>2026-05-01T07:20:25Z</time></trkpt><trkpt lat="40.87055768236604" lon="9.404105022254196"><ele>242.0</ele><time>2026-05-01T07:20:27Z</time></trkpt><trkpt lat="40.87051855088027" lon="9.403992334358678"><ele>242.0</ele><time>2026-05-01T07:20:30Z</time></trkpt><trkpt lat="40.87048227358171" lon="9.403890968135007"><ele>242.0</ele><time>2026-05-01T07:20:32Z</time></trkpt><trkpt lat="40.87042416250647" lon="9.403834387067874"><ele>242.00000000000003</ele><time>2026-05-01T07:20:35Z</time></trkpt><trkpt lat="40.870374408368086" lon="9.40375149132091"><ele>242.0</ele><time>2026-05-01T07:20:40Z</time></trkpt><trkpt lat="40.87032670093809" lon="9.403650263685822"><ele>241.33333333333334</ele><time>2026-05-01T07:20:43Z</time></trkpt><trkpt lat="40.87024889943655" lon="9.403575038739119"><ele>240.66666666666669</ele><time>2026-05-01T07:20:47Z</time></trkpt><trkpt lat="40.87017699041342" lon="9.403462065361758"><ele>240.0</ele><time>2026-05-01T07:20:51Z</time></trkpt><trkpt lat="40.87011805289404" lon="9.403411508044785"><ele>239.33333333333331</ele><time>2026-05-01T07:20:52Z</time></trkpt><trkpt lat="40.87006368061959" lon="9.403344840047206"><ele>238.66666666666666</ele><time>2026-05-01T07:20:53Z</time></trkpt><trkpt lat="40.87000043402756" lon="9.403278531452615"><ele>238.0</ele><time>2026-05-01T07:20:54Z</time></trkpt><trkpt lat="40.869925489316515" lon="9.403227539938088"><ele>238.49999999999997</ele><time>2026-05-01T07:20:55Z</time></trkpt><trkpt lat="40.86986407269814" lon="9.403173170234147"><ele>239.0</ele><time>2026-05-01T07:20:56Z</time></trkpt><trkpt lat="40.86979208047149" lon="9.403098848883404"><ele>239.5</ele><time>2026-05-01T07:20:57Z</time></trkpt><trkpt lat="40.86973989095087" lon="9.403017273690995"><ele>240.0</ele><time>2026-05-01T07:20:58Z</time></trkpt><trkpt lat="40.869704356997396" lon="9.402946867082456"><ele>240.49999999999997</ele><time>2026-05-01T07:20:59Z</time></trkpt><trkpt lat="40.869641932766356" lon="9.402865300828202"><ele>241.0</ele><time>2026-05-01T07:21:00Z</time></trkpt><trkpt lat="40.8696002755242" lon="9.402788099435865"><ele>241.0</ele><time>2026-05-01T07:21:01Z</time></trkpt><trkpt lat="40.86955581490108" lon="9.402686261195203"><ele>241.00000000000003</ele><time>2026-05-01T07:21:02Z</time></trkpt><trkpt lat="40.86948458404003" lon="9.402576334522758"><ele>241.00000000000003</ele><time>2026-05-01T07:21:04Z</time></trkpt><trkpt lat="40.86939432361845" lon="9.402463424847799"><ele>241.0</ele><time>2026-05-01T07:21:06Z</time></trkpt><trkpt lat="40.86932377829857" lon="9.402371781395793"><ele>241.0</ele><time>2026-05-01T07:21:08Z</time></trkpt><trkpt lat="40.86923772941498" lon="9.402302517479649"><ele>242.0</ele><time>2026-05-01T07:21:10Z</time></trkpt><trkpt lat="40.86915983766533" lon="9.40218206179625"><ele>243.0</ele><time>2026-05-01T07:21:12Z</time></trkpt><trkpt lat="40.86907369603626" lon="9.402098907076537"><ele>244.0</ele><time>2026-05-01T07:21:14Z</time></trkpt><trkpt lat="40.868978015845066" lon="9.401996866280344"><ele>245.0</ele><time>2026-05-01T07:21:16Z</time></trkpt><trkpt lat="40.868898039050656" lon="9.40189554049684"><ele>245.0</ele><time>2026-05-01T07:21:18Z</time></trkpt><trkpt lat="40.868819821555306" lon="9.401761397529754"><ele>245.0</ele><time>2026-05-01T07:21:20Z</time></trkpt><trkpt lat="40.868751771625625" lon="9.401645110762606"><ele>245.0</ele><time>2026-05-01T07:21:22Z</time></trkpt><trkpt lat="40.868700716812484" lon="9.401554270345436"><ele>245.0</ele><time>2026-05-01T07:21:24Z</time></trkpt><trkpt lat="40.86864339033887" lon="9.401396728849793"><ele>244.4</ele><time>2026-05-01T07:21:26Z</time></trkpt><trkpt lat="40.86859532701279" lon="9.401317955399898"><ele>243.8</ele><time>2026-05-01T07:21:27Z</time></trkpt><trkpt lat="40.86854037823014" lon="9.401237999527533"><ele>243.2</ele><time>2026-05-01T07:21:28Z</time></trkpt><trkpt lat="40.868457474222005" lon="9.401144593109539"><ele>242.6</ele><time>2026-05-01T07:21:30Z</time></trkpt><trkpt lat="40.8684115203829" lon="9.4010778753926"><ele>242.0</ele><time>2026-05-01T07:21:31Z</time></trkpt><trkpt lat="40.868342673228504" lon="9.400949494203813"><ele>243.39999999999998</ele><time>2026-05-01T07:21:33Z</time></trkpt><trkpt lat="40.86824968862174" lon="9.400853135551682"><ele>244.79999999999998</ele><time>2026-05-01T07:21:36Z</time></trkpt><trkpt lat="40.86815269151638" lon="9.400780323713693"><ele>246.2</ele><time>2026-05-01T07:21:38Z</time></trkpt><trkpt lat="40.86807545639573" lon="9.4007375253893"><ele>247.6</ele><time>2026-05-01T07:21:40Z</time></trkpt><trkpt lat="40.86799724842469" lon="9.400702905654509"><ele>249.0</ele><time>2026-05-01T07:21:42Z</time></trkpt><trkpt lat="40.86793347209338" lon="9.400641907449165"><ele>249.0</ele><time>2026-05-01T07:21:44Z</time></trkpt><trkpt lat="40.86785334288487" lon="9.40060647570248"><ele>248.99999999999997</ele><time>2026-05-01T07:21:46Z</time></trkpt><trkpt lat="40.86773955212618" lon="9.400519378083816"><ele>248.99999999999997</ele><time>2026-05-01T07:21:48Z</time></trkpt><trkpt lat="40.86764187453561" lon="9.400448532078656"><ele>249.0</ele><time>2026-05-01T07:21:50Z</time></trkpt><trkpt lat="40.86758001855574" lon="9.400395577387274"><ele>249.0</ele><time>2026-05-01T07:21:52Z</time></trkpt><trkpt lat="40.86747334488948" lon="9.400367315417277"><ele>249.33333333333334</ele><time>2026-05-01T07:21:54Z</time></trkpt><trkpt lat="40.86741213661443" lon="9.400346844348794"><ele>249.66666666666669</ele><time>2026-05-01T07:21:56Z</time></trkpt><trkpt lat="40.8673292899357" lon="9.400316757475178"><ele>250.0</ele><time>2026-05-01T07:21:58Z</time></trkpt><trkpt lat="40.86725312934577" lon="9.400260049227464"><ele>250.33333333333334</ele><time>2026-05-01T07:22:01Z</time></trkpt><trkpt lat="40.86719683645587" lon="9.400212490063005"><ele>250.66666666666669</ele><time>2026-05-01T07:22:03Z</time></trkpt><trkpt lat="40.867118828071334" lon="9.400189066380808"><ele>251.0</ele><time>2026-05-01T07:22:05Z</time></trkpt><trkpt lat="40.86705681049359" lon="9.400152954346185"><ele>251.00000000000003</ele><time>2026-05-01T07:22:07Z</time></trkpt><trkpt lat="40.86700018929712" lon="9.400110858575358"><ele>251.0</ele><time>2026-05-01T07:22:09Z</time></trkpt><trkpt lat="40.86691797810908" lon="9.400079147275894"><ele>251.0</ele><time>2026-05-01T07:22:11Z</time></trkpt><trkpt lat="40.86681606100169" lon="9.400025974843098"><ele>251.0</ele><time>2026-05-01T07:22:18Z</time></trkpt><trkpt lat="40.8667613406402" lon="9.399981010983153"><ele>251.00000000000003</ele><time>2026-05-01T07:22:21Z</time></trkpt><trkpt lat="40.86669586629454" lon="9.399909401327859"><ele>251.0</ele><time>2026-05-01T07:22:23Z</time></trkpt><trkpt lat="40.86661600240096" lon="9.39985682493232"><ele>252.0</ele><time>2026-05-01T07:22:26Z</time></trkpt><trkpt lat="40.866521479276706" lon="9.399791313610148"><ele>253.00000000000003</ele><time>2026-05-01T07:22:28Z</time></trkpt><trkpt lat="40.86643291723092" lon="9.399743544652162"><ele>254.00000000000003</ele><time>2026-05-01T07:22:30Z</time></trkpt><trkpt lat="40.86634971491505" lon="9.399684872767692"><ele>255.0</ele><time>2026-05-01T07:22:32Z</time></trkpt><trkpt lat="40.866271696365374" lon="9.399654452000062"><ele>256.0</ele><time>2026-05-01T07:22:34Z</time></trkpt><trkpt lat="40.866199518563484" lon="9.399620673506814"><ele>255.99999999999997</ele><time>2026-05-01T07:22:35Z</time></trkpt><trkpt lat="40.86612299358143" lon="9.39952784854831"><ele>256.0</ele><time>2026-05-01T07:22:38Z</time></trkpt><trkpt lat="40.86604255327108" lon="9.399499991930407"><ele>256.0</ele><time>2026-05-01T07:22:41Z</time></trkpt><trkpt lat="40.865972964568435" lon="9.399479720852316"><ele>256.0</ele><time>2026-05-01T07:22:44Z</time></trkpt><trkpt lat="40.86590346695989" lon="9.399476640173141"><ele>255.99999999999997</ele><time>2026-05-01T07:22:46Z</time></trkpt><trkpt lat="40.86579802437043" lon="9.399518775096189"><ele>256.0</ele><time>2026-05-01T07:22:49Z</time></trkpt><trkpt lat="40.865716504525366" lon="9.399554506585373"><ele>256.8333333333333</ele><time>2026-05-01T07:22:53Z</time></trkpt><trkpt lat="40.86562978415937" lon="9.39960923699139"><ele>257.66666666666663</ele><time>2026-05-01T07:22:55Z</time></trkpt><trkpt lat="40.865560207114626" lon="9.399664311008602"><ele>258.5</ele><time>2026-05-01T07:22:57Z</time></trkpt><trkpt lat="40.86549411875948" lon="9.399723069727555"><ele>259.3333333333333</ele><time>2026-05-01T07:22:59Z</time></trkpt><trkpt lat="40.86539386491935" lon="9.399769626479955"><ele>260.1666666666667</ele><time>2026-05-01T07:23:04Z</time></trkpt><trkpt lat="40.86534951031872" lon="9.39983259689185"><ele>261.0</ele><time>2026-05-01T07:23:10Z</time></trkpt><trkpt lat="40.86528343789372" lon="9.399864718393262"><ele>261.3333333333333</ele><time>2026-05-01T07:23:31Z</time></trkpt><trkpt lat="40.86525663759442" lon="9.399953358318715"><ele>261.6666666666667</ele><time>2026-05-01T07:23:39Z</time></trkpt><trkpt lat="40.86519592036238" lon="9.39998599273802"><ele>262.0</ele><time>2026-05-01T07:23:41Z</time></trkpt><trkpt lat="40.86510576345068" lon="9.400015898928988"><ele>262.33333333333337</ele><time>2026-05-01T07:23:43Z</time></trkpt><trkpt lat="40.865009325787064" lon="9.400062469298438"><ele>262.6666666666667</ele><time>2026-05-01T07:23:45Z</time></trkpt><trkpt lat="40.8649488185583" lon="9.400094933040132"><ele>263.0</ele><time>2026-05-01T07:23:46Z</time></trkpt><trkpt lat="40.86482725964423" lon="9.40012135491826"><ele>263.0</ele><time>2026-05-01T07:23:48Z</time></trkpt><trkpt lat="40.864761952048475" lon="9.4001163825379"><ele>263.0</ele><time>2026-05-01T07:23:49Z</time></trkpt><trkpt lat="40.86466218054588" lon="9.400072323594166"><ele>263.0</ele><time>2026-05-01T07:23:51Z</time></trkpt><trkpt lat="40.864586579854446" lon="9.399955731501796"><ele>263.0</ele><time>2026-05-01T07:23:53Z</time></trkpt><trkpt lat="40.86454070528256" lon="9.399880127581815"><ele>263.0</ele><time>2026-05-01T07:23:55Z</time></trkpt><trkpt lat="40.864480647294954" lon="9.399781314422205"><ele>263.0</ele><time>2026-05-01T07:23:57Z</time></trkpt><trkpt lat="40.86441373818311" lon="9.399683759785795"><ele>263.0</ele><time>2026-05-01T07:23:59Z</time></trkpt><trkpt lat="40.864359296137046" lon="9.399578597013248"><ele>263.0</ele><time>2026-05-01T07:24:01Z</time></trkpt><trkpt lat="40.86429061998339" lon="9.399459128236606"><ele>263.0</ele><time>2026-05-01T07:24:03Z</time></trkpt><trkpt lat="40.86426021228245" lon="9.399375997763746"><ele>263.0</ele><time>2026-05-01T07:24:04Z</time></trkpt><trkpt lat="40.86422403872115" lon="9.399300235983903"><ele>263.0</ele><time>2026-05-01T07:24:05Z</time></trkpt><trkpt lat="40.86418906218446" lon="9.399229571820651"><ele>262.5</ele><time>2026-05-01T07:24:06Z</time></trkpt><trkpt lat="40.86414852893042" lon="9.399147681066147"><ele>262.0</ele><time>2026-05-01T07:24:07Z</time></trkpt><trkpt lat="40.86410004875473" lon="9.399061303248665"><ele>261.5</ele><time>2026-05-01T07:24:08Z</time></trkpt><trkpt lat="40.86405435165816" lon="9.398957435395126"><ele>261.0</ele><time>2026-05-01T07:24:09Z</time></trkpt><trkpt lat="40.86400464498628" lon="9.398849199833148"><ele>260.5</ele><time>2026-05-01T07:24:10Z</time></trkpt><trkpt lat="40.86395581354262" lon="9.398748674258654"><ele>260.0</ele><time>2026-05-01T07:24:11Z</time></trkpt><trkpt lat="40.863904446085996" lon="9.398650895867513"><ele>260.0</ele><time>2026-05-01T07:24:12Z</time></trkpt><trkpt lat="40.8638401392042" lon="9.398537263239032"><ele>260.0</ele><time>2026-05-01T07:24:13Z</time></trkpt><trkpt lat="40.86377774205732" lon="9.398428703449879"><ele>260.0</ele><time>2026-05-01T07:24:14Z</time></trkpt><trkpt lat="40.863726658994985" lon="9.398322258898325"><ele>260.0</ele><time>2026-05-01T07:24:15Z</time></trkpt><trkpt lat="40.86367859302645" lon="9.398210600724243"><ele>260.0</ele><time>2026-05-01T07:24:16Z</time></trkpt><trkpt lat="40.8636203147511" lon="9.398111248601623"><ele>260.0</ele><time>2026-05-01T07:24:17Z</time></trkpt><trkpt lat="40.86355786538606" lon="9.39800236249879"><ele>260.0</ele><time>2026-05-01T07:24:18Z</time></trkpt><trkpt lat="40.86349015878674" lon="9.397893595249043"><ele>260.0</ele><time>2026-05-01T07:24:19Z</time></trkpt><trkpt lat="40.86343327520138" lon="9.397759655913697"><ele>260.0</ele><time>2026-05-01T07:24:20Z</time></trkpt><trkpt lat="40.86337158436054" lon="9.397656778154305"><ele>260.0</ele><time>2026-05-01T07:24:21Z</time></trkpt><trkpt lat="40.86329346606291" lon="9.397544113312728"><ele>258.0</ele><time>2026-05-01T07:24:22Z</time></trkpt><trkpt lat="40.86320847559596" lon="9.3974325191609"><ele>256.0</ele><time>2026-05-01T07:24:23Z</time></trkpt><trkpt lat="40.863124245459936" lon="9.397326474155822"><ele>254.0</ele><time>2026-05-01T07:24:24Z</time></trkpt><trkpt lat="40.863037673194675" lon="9.397220862337253"><ele>252.0</ele><time>2026-05-01T07:24:25Z</time></trkpt><trkpt lat="40.862965626538184" lon="9.397112309905193"><ele>251.5</ele><time>2026-05-01T07:24:26Z</time></trkpt><trkpt lat="40.86288065193252" lon="9.396991993273666"><ele>251.0</ele><time>2026-05-01T07:24:27Z</time></trkpt><trkpt lat="40.86279027570835" lon="9.396871018918333"><ele>250.5</ele><time>2026-05-01T07:24:28Z</time></trkpt><trkpt lat="40.86268904527702" lon="9.396760878996776"><ele>250.0</ele><time>2026-05-01T07:24:29Z</time></trkpt><trkpt lat="40.86261386192394" lon="9.396628593648657"><ele>249.25</ele><time>2026-05-01T07:24:30Z</time></trkpt><trkpt lat="40.86253338433465" lon="9.3964736312502"><ele>248.5</ele><time>2026-05-01T07:24:31Z</time></trkpt><trkpt lat="40.86244656264291" lon="9.396377172457385"><ele>247.75</ele><time>2026-05-01T07:24:32Z</time></trkpt><trkpt lat="40.86236761274605" lon="9.396266775090897"><ele>247.0</ele><time>2026-05-01T07:24:33Z</time></trkpt><trkpt lat="40.86228209998341" lon="9.396173115694392"><ele>247.0</ele><time>2026-05-01T07:24:34Z</time></trkpt><trkpt lat="40.862178623448976" lon="9.396040167527282"><ele>247.0</ele><time>2026-05-01T07:24:35Z</time></trkpt><trkpt lat="40.86208810262961" lon="9.395926530302052"><ele>247.0</ele><time>2026-05-01T07:24:36Z</time></trkpt><trkpt lat="40.86202260688685" lon="9.395802425543618"><ele>247.0</ele><time>2026-05-01T07:24:37Z</time></trkpt><trkpt lat="40.86194783108594" lon="9.395673789626656"><ele>247.0</ele><time>2026-05-01T07:24:38Z</time></trkpt><trkpt lat="40.861884095333686" lon="9.395552194332042"><ele>247.0</ele><time>2026-05-01T07:24:39Z</time></trkpt><trkpt lat="40.86182513747931" lon="9.395450600183478"><ele>247.0</ele><time>2026-05-01T07:24:40Z</time></trkpt><trkpt lat="40.86172763690039" lon="9.395324133087646"><ele>247.0</ele><time>2026-05-01T07:24:41Z</time></trkpt><trkpt lat="40.86168172918184" lon="9.395166587016238"><ele>245.39999999999998</ele><time>2026-05-01T07:24:42Z</time></trkpt><trkpt lat="40.86163290334424" lon="9.395046892609509"><ele>243.79999999999998</ele><time>2026-05-01T07:24:43Z</time></trkpt><trkpt lat="40.86160298557202" lon="9.394915464711733"><ele>242.2</ele><time>2026-05-01T07:24:44Z</time></trkpt><trkpt lat="40.86155101402422" lon="9.394761344709444"><ele>240.6</ele><time>2026-05-01T07:24:45Z</time></trkpt><trkpt lat="40.86150616157341" lon="9.394653891970965"><ele>239.0</ele><time>2026-05-01T07:24:46Z</time></trkpt><trkpt lat="40.86144874963768" lon="9.39451181225385"><ele>239.00000000000003</ele><time>2026-05-01T07:24:47Z</time></trkpt><trkpt lat="40.86140771785239" lon="9.394426132360108"><ele>239.0</ele><time>2026-05-01T07:24:48Z</time></trkpt><trkpt lat="40.86136503011357" lon="9.394315727670287"><ele>239.0</ele><time>2026-05-01T07:24:49Z</time></trkpt><trkpt lat="40.861309702928644" lon="9.394209624425724"><ele>239.0</ele><time>2026-05-01T07:24:50Z</time></trkpt><trkpt lat="40.86126907573798" lon="9.394122078976629"><ele>239.00000000000003</ele><time>2026-05-01T07:24:51Z</time></trkpt><trkpt lat="40.86122196185876" lon="9.394030922518276"><ele>239.0</ele><time>2026-05-01T07:24:52Z</time></trkpt><trkpt lat="40.86117508399873" lon="9.393933069498797"><ele>239.0</ele><time>2026-05-01T07:24:53Z</time></trkpt><trkpt lat="40.861116181658154" lon="9.393839264519942"><ele>238.99999999999997</ele><time>2026-05-01T07:24:54Z</time></trkpt><trkpt lat="40.8610848236823" lon="9.39373836294495"><ele>238.99999999999997</ele><time>2026-05-01T07:24:55Z</time></trkpt><trkpt lat="40.861073459758316" lon="9.393639598675708"><ele>239.0</ele><time>2026-05-01T07:24:56Z</time></trkpt><trkpt lat="40.86105080949733" lon="9.393460139071697"><ele>239.0</ele><time>2026-05-01T07:24:58Z</time></trkpt><trkpt lat="40.86102349884604" lon="9.393276790189555"><ele>239.16666666666669</ele><time>2026-05-01T07:25:00Z</time></trkpt><trkpt lat="40.86098634694395" lon="9.393197608313034"><ele>239.33333333333334</ele><time>2026-05-01T07:25:01Z</time></trkpt><trkpt lat="40.86094206587393" lon="9.393097284805506"><ele>239.5</ele><time>2026-05-01T07:25:02Z</time></trkpt><trkpt lat="40.860918176048486" lon="9.393010845011922"><ele>239.66666666666669</ele><time>2026-05-01T07:25:03Z</time></trkpt><trkpt lat="40.860872353313695" lon="9.392934318400433"><ele>239.83333333333334</ele><time>2026-05-01T07:25:04Z</time></trkpt><trkpt lat="40.86085010178294" lon="9.392823964540497"><ele>240.0</ele><time>2026-05-01T07:25:05Z</time></trkpt><trkpt lat="40.860817257068526" lon="9.39273670145927"><ele>239.2</ele><time>2026-05-01T07:25:06Z</time></trkpt><trkpt lat="40.8608087099923" lon="9.392608186950673"><ele>238.4</ele><time>2026-05-01T07:25:07Z</time></trkpt><trkpt lat="40.86081859447661" lon="9.392484395139382"><ele>237.60000000000002</ele><time>2026-05-01T07:25:08Z</time></trkpt><trkpt lat="40.86083896236189" lon="9.392354633079375"><ele>236.8</ele><time>2026-05-01T07:25:09Z</time></trkpt><trkpt lat="40.86085605835679" lon="9.392216943863513"><ele>236.0</ele><time>2026-05-01T07:25:10Z</time></trkpt><trkpt lat="40.86084536461525" lon="9.392083508975594"><ele>235.4</ele><time>2026-05-01T07:25:11Z</time></trkpt><trkpt lat="40.86079316460721" lon="9.391948397351067"><ele>234.8</ele><time>2026-05-01T07:25:12Z</time></trkpt><trkpt lat="40.860769457981" lon="9.391834169278201"><ele>234.20000000000002</ele><time>2026-05-01T07:25:13Z</time></trkpt><trkpt lat="40.860727171478594" lon="9.391728556761672"><ele>233.60000000000002</ele><time>2026-05-01T07:25:14Z</time></trkpt><trkpt lat="40.860671032330664" lon="9.391621411951046"><ele>233.0</ele><time>2026-05-01T07:25:15Z</time></trkpt><trkpt lat="40.86062690421308" lon="9.391511731306991"><ele>233.0</ele><time>2026-05-01T07:25:16Z</time></trkpt><trkpt lat="40.860575931460986" lon="9.39139731548486"><ele>233.0</ele><time>2026-05-01T07:25:17Z</time></trkpt><trkpt lat="40.8605245090189" lon="9.391286820756905"><ele>233.0</ele><time>2026-05-01T07:25:18Z</time></trkpt><trkpt lat="40.860471132986" lon="9.391161329352908"><ele>233.0</ele><time>2026-05-01T07:25:19Z</time></trkpt><trkpt lat="40.86042166297215" lon="9.391015292387543"><ele>233.0</ele><time>2026-05-01T07:25:20Z</time></trkpt><trkpt lat="40.860386278885095" lon="9.390868928284348"><ele>232.8</ele><time>2026-05-01T07:25:21Z</time></trkpt><trkpt lat="40.86037336112607" lon="9.390718766715311"><ele>232.60000000000002</ele><time>2026-05-01T07:25:22Z</time></trkpt><trkpt lat="40.8603596920846" lon="9.390578378426971"><ele>232.39999999999998</ele><time>2026-05-01T07:25:23Z</time></trkpt><trkpt lat="40.86035963185524" lon="9.390444051895933"><ele>232.2</ele><time>2026-05-01T07:25:24Z</time></trkpt><trkpt lat="40.860356026643814" lon="9.390328062845212"><ele>232.0</ele><time>2026-05-01T07:25:25Z</time></trkpt><trkpt lat="40.86035189518854" lon="9.390207550157738"><ele>232.39999999999998</ele><time>2026-05-01T07:25:26Z</time></trkpt><trkpt lat="40.860344110968185" lon="9.390081345379432"><ele>232.79999999999998</ele><time>2026-05-01T07:25:27Z</time></trkpt><trkpt lat="40.860339144485636" lon="9.38996271849568"><ele>233.2</ele><time>2026-05-01T07:25:28Z</time></trkpt><trkpt lat="40.86033552704148" lon="9.38984049245215"><ele>233.6</ele><time>2026-05-01T07:25:29Z</time></trkpt><trkpt lat="40.86033048556152" lon="9.389726901553964"><ele>234.0</ele><time>2026-05-01T07:25:30Z</time></trkpt><trkpt lat="40.8603257082782" lon="9.389598885819394"><ele>234.2</ele><time>2026-05-01T07:25:31Z</time></trkpt><trkpt lat="40.860299113668326" lon="9.389459340663885"><ele>234.39999999999998</ele><time>2026-05-01T07:25:32Z</time></trkpt><trkpt lat="40.860281259248225" lon="9.389339003349079"><ele>234.6</ele><time>2026-05-01T07:25:33Z</time></trkpt><trkpt lat="40.86026719958811" lon="9.389221468525173"><ele>234.8</ele><time>2026-05-01T07:25:34Z</time></trkpt><trkpt lat="40.8602577801079" lon="9.38911454876669"><ele>235.0</ele><time>2026-05-01T07:25:35Z</time></trkpt><trkpt lat="40.86024739200143" lon="9.388954733078661"><ele>234.99999999999997</ele><time>2026-05-01T07:25:37Z</time></trkpt><trkpt lat="40.86023908236075" lon="9.388859470700712"><ele>235.0</ele><time>2026-05-01T07:25:38Z</time></trkpt><trkpt lat="40.86022210012224" lon="9.38877839859406"><ele>235.0</ele><time>2026-05-01T07:25:39Z</time></trkpt><trkpt lat="40.86021916493573" lon="9.388626511295538"><ele>235.0</ele><time>2026-05-01T07:25:41Z</time></trkpt><trkpt lat="40.86020911300392" lon="9.388504657494005"><ele>234.99999999999997</ele><time>2026-05-01T07:25:43Z</time></trkpt><trkpt lat="40.86020450364082" lon="9.388374436526169"><ele>235.0</ele><time>2026-05-01T07:25:45Z</time></trkpt><trkpt lat="40.86020744539352" lon="9.388241953660163"><ele>235.4</ele><time>2026-05-01T07:25:47Z</time></trkpt><trkpt lat="40.860192016649236" lon="9.388129537030371"><ele>235.8</ele><time>2026-05-01T07:25:49Z</time></trkpt><trkpt lat="40.86015310279258" lon="9.387996383061324"><ele>236.2</ele><time>2026-05-01T07:25:51Z</time></trkpt><trkpt lat="40.86012011318617" lon="9.387866415632228"><ele>236.6</ele><time>2026-05-01T07:25:53Z</time></trkpt><trkpt lat="40.86007245093745" lon="9.38774452254718"><ele>237.0</ele><time>2026-05-01T07:25:55Z</time></trkpt><trkpt lat="40.86003848419049" lon="9.387665652387966"><ele>237.0</ele><time>2026-05-01T07:25:56Z</time></trkpt><trkpt lat="40.85995202657923" lon="9.387522472349769"><ele>237.0</ele><time>2026-05-01T07:25:58Z</time></trkpt><trkpt lat="40.85991070875135" lon="9.387430594844274"><ele>237.0</ele><time>2026-05-01T07:26:00Z</time></trkpt><trkpt lat="40.85987229268181" lon="9.38735785106198"><ele>237.0</ele><time>2026-05-01T07:26:01Z</time></trkpt><trkpt lat="40.8598336073075" lon="9.387287370948293"><ele>237.0</ele><time>2026-05-01T07:26:02Z</time></trkpt><trkpt lat="40.85975109892091" lon="9.387154659491896"><ele>237.1428571428571</ele><time>2026-05-01T07:26:04Z</time></trkpt><trkpt lat="40.85971840448234" lon="9.387074221676135"><ele>237.28571428571428</ele><time>2026-05-01T07:26:05Z</time></trkpt><trkpt lat="40.85968364074585" lon="9.386999932853746"><ele>237.42857142857142</ele><time>2026-05-01T07:26:06Z</time></trkpt><trkpt lat="40.85966442733522" lon="9.386914056013941"><ele>237.57142857142856</ele><time>2026-05-01T07:26:07Z</time></trkpt><trkpt lat="40.85962715092873" lon="9.386827893278344"><ele>237.71428571428572</ele><time>2026-05-01T07:26:08Z</time></trkpt><trkpt lat="40.859580627838845" lon="9.386742348077147"><ele>237.85714285714286</ele><time>2026-05-01T07:26:09Z</time></trkpt><trkpt lat="40.859542174552544" lon="9.386658086898175"><ele>238.0</ele><time>2026-05-01T07:26:10Z</time></trkpt><trkpt lat="40.859489996698244" lon="9.386578361451035"><ele>237.99999999999997</ele><time>2026-05-01T07:26:11Z</time></trkpt><trkpt lat="40.85944365489188" lon="9.386482486727617"><ele>238.0</ele><time>2026-05-01T07:26:12Z</time></trkpt><trkpt lat="40.85941132359234" lon="9.386397360991886"><ele>238.0</ele><time>2026-05-01T07:26:13Z</time></trkpt><trkpt lat="40.859371932264615" lon="9.386310551909892"><ele>238.0</ele><time>2026-05-01T07:26:14Z</time></trkpt><trkpt lat="40.85935360240671" lon="9.386214142670216"><ele>237.99999999999997</ele><time>2026-05-01T07:26:15Z</time></trkpt><trkpt lat="40.85928560490663" lon="9.386114383664282"><ele>238.0</ele><time>2026-05-01T07:26:16Z</time></trkpt><trkpt lat="40.85922706683668" lon="9.386016294072821"><ele>237.60000000000002</ele><time>2026-05-01T07:26:17Z</time></trkpt><trkpt lat="40.85918607467967" lon="9.385918093956453"><ele>237.20000000000002</ele><time>2026-05-01T07:26:18Z</time></trkpt><trkpt lat="40.85913977577161" lon="9.385846393127128"><ele>236.8</ele><time>2026-05-01T07:26:19Z</time></trkpt><trkpt lat="40.859090136711956" lon="9.385699091506694"><ele>236.4</ele><time>2026-05-01T07:26:21Z</time></trkpt><trkpt lat="40.85903345707846" lon="9.385554202384247"><ele>236.0</ele><time>2026-05-01T07:26:23Z</time></trkpt><trkpt lat="40.85899955610622" lon="9.385455801661225"><ele>236.00000000000003</ele><time>2026-05-01T07:26:24Z</time></trkpt><trkpt lat="40.858965363882774" lon="9.385354612281224"><ele>236.0</ele><time>2026-05-01T07:26:25Z</time></trkpt><trkpt lat="40.85893458563824" lon="9.385277538168006"><ele>236.0</ele><time>2026-05-01T07:26:26Z</time></trkpt><trkpt lat="40.85887646337199" lon="9.385192574760595"><ele>236.0</ele><time>2026-05-01T07:26:27Z</time></trkpt><trkpt lat="40.85883695818323" lon="9.38509845858768"><ele>236.00000000000003</ele><time>2026-05-01T07:26:28Z</time></trkpt><trkpt lat="40.85883645699874" lon="9.384995913675205"><ele>236.0</ele><time>2026-05-01T07:26:29Z</time></trkpt><trkpt lat="40.85880127399625" lon="9.384904818388275"><ele>236.00000000000003</ele><time>2026-05-01T07:26:30Z</time></trkpt><trkpt lat="40.85876582177656" lon="9.38482748152984"><ele>236.0</ele><time>2026-05-01T07:26:31Z</time></trkpt><trkpt lat="40.858739509369705" lon="9.384741788855214"><ele>236.0</ele><time>2026-05-01T07:26:32Z</time></trkpt><trkpt lat="40.85869692734313" lon="9.384648718968299"><ele>236.0</ele><time>2026-05-01T07:26:33Z</time></trkpt><trkpt lat="40.85870198466098" lon="9.384536489634932"><ele>236.00000000000003</ele><time>2026-05-01T07:26:35Z</time></trkpt><trkpt lat="40.85873727058052" lon="9.38445389658886"><ele>236.0</ele><time>2026-05-01T07:26:38Z</time></trkpt><trkpt lat="40.85879084873836" lon="9.384354411253895"><ele>237.16666666666669</ele><time>2026-05-01T07:26:40Z</time></trkpt><trkpt lat="40.858814314330324" lon="9.38426079914094"><ele>238.33333333333334</ele><time>2026-05-01T07:26:42Z</time></trkpt><trkpt lat="40.85882935633317" lon="9.38414646096832"><ele>239.5</ele><time>2026-05-01T07:26:44Z</time></trkpt><trkpt lat="40.85883025835959" lon="9.384025165584685"><ele>240.66666666666669</ele><time>2026-05-01T07:26:46Z</time></trkpt><trkpt lat="40.85880610013446" lon="9.3839282219622"><ele>241.83333333333334</ele><time>2026-05-01T07:26:50Z</time></trkpt><trkpt lat="40.85881459369822" lon="9.383814955336502"><ele>243.0</ele><time>2026-05-01T07:26:54Z</time></trkpt><trkpt lat="40.8588225192911" lon="9.383705456270961"><ele>243.16666666666666</ele><time>2026-05-01T07:26:56Z</time></trkpt><trkpt lat="40.85881097340963" lon="9.383580074670968"><ele>243.33333333333331</ele><time>2026-05-01T07:26:58Z</time></trkpt><trkpt lat="40.858838474556215" lon="9.383502178216613"><ele>243.5</ele><time>2026-05-01T07:27:01Z</time></trkpt><trkpt lat="40.85884680974927" lon="9.383392683770916"><ele>243.66666666666666</ele><time>2026-05-01T07:27:03Z</time></trkpt><trkpt lat="40.85884673093098" lon="9.38328888072649"><ele>243.83333333333331</ele><time>2026-05-01T07:27:06Z</time></trkpt><trkpt lat="40.85883223234481" lon="9.383180873284076"><ele>244.0</ele><time>2026-05-01T07:27:07Z</time></trkpt><trkpt lat="40.8588378969475" lon="9.38306978565449"><ele>244.0</ele><time>2026-05-01T07:27:08Z</time></trkpt><trkpt lat="40.858857633869626" lon="9.382952599793871"><ele>243.99999999999997</ele><time>2026-05-01T07:27:09Z</time></trkpt><trkpt lat="40.858844877147106" lon="9.382830749344881"><ele>243.99999999999997</ele><time>2026-05-01T07:27:10Z</time></trkpt><trkpt lat="40.85885033656686" lon="9.382699122582402"><ele>244.0</ele><time>2026-05-01T07:27:11Z</time></trkpt><trkpt lat="40.85886180521688" lon="9.382572388971134"><ele>244.0</ele><time>2026-05-01T07:27:12Z</time></trkpt><trkpt lat="40.85888224036602" lon="9.382480313179917"><ele>243.99999999999997</ele><time>2026-05-01T07:27:13Z</time></trkpt><trkpt lat="40.85890270687115" lon="9.382394808792036"><ele>244.0</ele><time>2026-05-01T07:27:14Z</time></trkpt><trkpt lat="40.858909093702934" lon="9.382293935735296"><ele>244.0</ele><time>2026-05-01T07:27:15Z</time></trkpt><trkpt lat="40.85892670002889" lon="9.382197642399975"><ele>244.0</ele><time>2026-05-01T07:27:16Z</time></trkpt><trkpt lat="40.85893591131765" lon="9.382100240002373"><ele>243.99999999999997</ele><time>2026-05-01T07:27:17Z</time></trkpt><trkpt lat="40.858977175448004" lon="9.381945503663184"><ele>244.0</ele><time>2026-05-01T07:27:19Z</time></trkpt><trkpt lat="40.85899442075538" lon="9.381854415973242"><ele>244.0</ele><time>2026-05-01T07:27:20Z</time></trkpt><trkpt lat="40.859019538949795" lon="9.381716052589702"><ele>243.99999999999997</ele><time>2026-05-01T07:27:22Z</time></trkpt><trkpt lat="40.85903784737618" lon="9.381597001574816"><ele>243.99999999999997</ele><time>2026-05-01T07:27:24Z</time></trkpt><trkpt lat="40.859069721082975" lon="9.381460704936185"><ele>244.0</ele><time>2026-05-01T07:27:26Z</time></trkpt><trkpt lat="40.8590886014421" lon="9.38132401373055"><ele>244.0</ele><time>2026-05-01T07:27:28Z</time></trkpt><trkpt lat="40.85911618249644" lon="9.381199784370532"><ele>244.5</ele><time>2026-05-01T07:27:30Z</time></trkpt><trkpt lat="40.85916559692347" lon="9.381096883104396"><ele>245.0</ele><time>2026-05-01T07:27:32Z</time></trkpt><trkpt lat="40.859234169998274" lon="9.381045032671743"><ele>245.5</ele><time>2026-05-01T07:27:34Z</time></trkpt><trkpt lat="40.85932384282216" lon="9.380825609704967"><ele>246.0</ele><time>2026-05-01T07:27:40Z</time></trkpt><trkpt lat="40.85932778139905" lon="9.380693716246466"><ele>247.4</ele><time>2026-05-01T07:27:42Z</time></trkpt><trkpt lat="40.85931674732858" lon="9.380602710609034"><ele>248.8</ele><time>2026-05-01T07:27:46Z</time></trkpt><trkpt lat="40.85930536118291" lon="9.380507024249424"><ele>250.20000000000002</ele><time>2026-05-01T07:27:48Z</time></trkpt><trkpt lat="40.85933650527586" lon="9.38037349012559"><ele>251.60000000000002</ele><time>2026-05-01T07:27:50Z</time></trkpt><trkpt lat="40.85936905561505" lon="9.38024111277896"><ele>253.0</ele><time>2026-05-01T07:27:52Z</time></trkpt><trkpt lat="40.85940840817599" lon="9.38011769430574"><ele>253.0</ele><time>2026-05-01T07:27:54Z</time></trkpt><trkpt lat="40.85944671966845" lon="9.379973607960531"><ele>253.0</ele><time>2026-05-01T07:27:56Z</time></trkpt><trkpt lat="40.85949231812229" lon="9.379857263902728"><ele>253.0</ele><time>2026-05-01T07:27:58Z</time></trkpt><trkpt lat="40.85951486237733" lon="9.379778767748514"><ele>253.0</ele><time>2026-05-01T07:27:59Z</time></trkpt><trkpt lat="40.859581044176636" lon="9.379643088453166"><ele>253.0</ele><time>2026-05-01T07:28:01Z</time></trkpt><trkpt lat="40.85959864699333" lon="9.379519363988333"><ele>252.4</ele><time>2026-05-01T07:28:05Z</time></trkpt><trkpt lat="40.85966352134536" lon="9.379422779583432"><ele>251.8</ele><time>2026-05-01T07:28:08Z</time></trkpt><trkpt lat="40.859727317917816" lon="9.379327901273669"><ele>251.2</ele><time>2026-05-01T07:28:10Z</time></trkpt><trkpt lat="40.859797768248555" lon="9.3791904376263"><ele>250.6</ele><time>2026-05-01T07:28:12Z</time></trkpt><trkpt lat="40.8598466523863" lon="9.379123689434799"><ele>250.0</ele><time>2026-05-01T07:28:13Z</time></trkpt><trkpt lat="40.85991134799782" lon="9.379048210147081"><ele>250.0</ele><time>2026-05-01T07:28:14Z</time></trkpt><trkpt lat="40.85999614453695" lon="9.378939069435354"><ele>250.0</ele><time>2026-05-01T07:28:16Z</time></trkpt><trkpt lat="40.86006384422887" lon="9.3788537697913"><ele>250.0</ele><time>2026-05-01T07:28:18Z</time></trkpt><trkpt lat="40.86013339114011" lon="9.378781292961667"><ele>250.0</ele><time>2026-05-01T07:28:19Z</time></trkpt><trkpt lat="40.860244843593144" lon="9.378651572002559"><ele>250.0</ele><time>2026-05-01T07:28:21Z</time></trkpt><trkpt lat="40.860299349319995" lon="9.378596988437007"><ele>249.85714285714283</ele><time>2026-05-01T07:28:22Z</time></trkpt><trkpt lat="40.8603574492666" lon="9.378558999228034"><ele>249.71428571428572</ele><time>2026-05-01T07:28:23Z</time></trkpt><trkpt lat="40.86041853223711" lon="9.378525199603002"><ele>249.57142857142856</ele><time>2026-05-01T07:28:24Z</time></trkpt><trkpt lat="40.860478769595645" lon="9.378484265781092"><ele>249.42857142857142</ele><time>2026-05-01T07:28:25Z</time></trkpt><trkpt lat="40.86055200660087" lon="9.378438141824127"><ele>249.28571428571428</ele><time>2026-05-01T07:28:26Z</time></trkpt><trkpt lat="40.860638202928364" lon="9.378393595992097"><ele>249.14285714285714</ele><time>2026-05-01T07:28:28Z</time></trkpt><trkpt lat="40.86069056228743" lon="9.37834168378243"><ele>249.0</ele><time>2026-05-01T07:28:29Z</time></trkpt><trkpt lat="40.86078588420175" lon="9.378277062098103"><ele>249.0</ele><time>2026-05-01T07:28:31Z</time></trkpt><trkpt lat="40.86088651059247" lon="9.378177441099286"><ele>248.99999999999997</ele><time>2026-05-01T07:28:33Z</time></trkpt><trkpt lat="40.860933505463585" lon="9.37810251089192"><ele>248.99999999999997</ele><time>2026-05-01T07:28:35Z</time></trkpt><trkpt lat="40.86101130857801" lon="9.378006856550684"><ele>249.0</ele><time>2026-05-01T07:28:37Z</time></trkpt><trkpt lat="40.86109732199369" lon="9.377918691578364"><ele>249.0</ele><time>2026-05-01T07:28:39Z</time></trkpt><trkpt lat="40.86114465677016" lon="9.377861666293319"><ele>249.39999999999998</ele><time>2026-05-01T07:28:40Z</time></trkpt><trkpt lat="40.861221678697376" lon="9.377781677577927"><ele>249.79999999999998</ele><time>2026-05-01T07:28:42Z</time></trkpt><trkpt lat="40.86130034489746" lon="9.377680708748377"><ele>250.20000000000002</ele><time>2026-05-01T07:28:44Z</time></trkpt><trkpt lat="40.861362058062234" lon="9.377599021216001"><ele>250.60000000000002</ele><time>2026-05-01T07:28:46Z</time></trkpt><trkpt lat="40.86144037262647" lon="9.37751326907767"><ele>251.0</ele><time>2026-05-01T07:28:48Z</time></trkpt><trkpt lat="40.86149793292559" lon="9.377467302527373"><ele>251.0</ele><time>2026-05-01T07:28:49Z</time></trkpt><trkpt lat="40.86156453258888" lon="9.377372347608503"><ele>251.00000000000003</ele><time>2026-05-01T07:28:51Z</time></trkpt><trkpt lat="40.86164649742544" lon="9.377300109246905"><ele>251.00000000000003</ele><time>2026-05-01T07:28:53Z</time></trkpt><trkpt lat="40.86172040928205" lon="9.377226639173738"><ele>251.0</ele><time>2026-05-01T07:28:58Z</time></trkpt><trkpt lat="40.86179191130836" lon="9.37718742963412"><ele>251.0</ele><time>2026-05-01T07:29:01Z</time></trkpt><trkpt lat="40.861874795574074" lon="9.377141696453538"><ele>252.75</ele><time>2026-05-01T07:29:05Z</time></trkpt><trkpt lat="40.861939037486856" lon="9.377166411950235"><ele>254.5</ele><time>2026-05-01T07:29:07Z</time></trkpt><trkpt lat="40.86204330647339" lon="9.377141975980471"><ele>256.25</ele><time>2026-05-01T07:29:11Z</time></trkpt><trkpt lat="40.86213096515181" lon="9.37710664177996"><ele>258.0</ele><time>2026-05-01T07:29:14Z</time></trkpt><trkpt lat="40.86233920669547" lon="9.37709569500443"><ele>258.0</ele><time>2026-05-01T07:29:19Z</time></trkpt><trkpt lat="40.86242205182658" lon="9.377040173767783"><ele>258.0</ele><time>2026-05-01T07:29:21Z</time></trkpt><trkpt lat="40.86253018986862" lon="9.377010438032949"><ele>258.0</ele><time>2026-05-01T07:29:25Z</time></trkpt><trkpt lat="40.86260946805453" lon="9.376968185289767"><ele>258.0</ele><time>2026-05-01T07:29:27Z</time></trkpt><trkpt lat="40.86267363467654" lon="9.37694946187619"><ele>258.0</ele><time>2026-05-01T07:29:28Z</time></trkpt><trkpt lat="40.86273793314611" lon="9.37691784468199"><ele>258.0</ele><time>2026-05-01T07:29:29Z</time></trkpt><trkpt lat="40.86284269290871" lon="9.376888441367514"><ele>257.6</ele><time>2026-05-01T07:29:30Z</time></trkpt><trkpt lat="40.862943921349995" lon="9.376870098083499"><ele>257.20000000000005</ele><time>2026-05-01T07:29:31Z</time></trkpt><trkpt lat="40.86303941798186" lon="9.376797071828788"><ele>256.8</ele><time>2026-05-01T07:29:32Z</time></trkpt><trkpt lat="40.86313161212841" lon="9.376762731233041"><ele>256.40000000000003</ele><time>2026-05-01T07:29:33Z</time></trkpt><trkpt lat="40.86323476349772" lon="9.376729991901762"><ele>256.0</ele><time>2026-05-01T07:29:34Z</time></trkpt><trkpt lat="40.86332431953135" lon="9.376704224574736"><ele>256.0</ele><time>2026-05-01T07:29:35Z</time></trkpt><trkpt lat="40.86339774627337" lon="9.376685475556615"><ele>256.0</ele><time>2026-05-01T07:29:36Z</time></trkpt><trkpt lat="40.863478900038444" lon="9.376664754331763"><ele>256.0</ele><time>2026-05-01T07:29:37Z</time></trkpt><trkpt lat="40.86358454914921" lon="9.376646047491608"><ele>256.0</ele><time>2026-05-01T07:29:38Z</time></trkpt><trkpt lat="40.86368267854892" lon="9.376633772810052"><ele>256.0</ele><time>2026-05-01T07:29:39Z</time></trkpt><trkpt lat="40.86378819387365" lon="9.376628497108106"><ele>255.16666666666666</ele><time>2026-05-01T07:29:40Z</time></trkpt><trkpt lat="40.86387903483228" lon="9.376626388480789"><ele>254.33333333333331</ele><time>2026-05-01T07:29:41Z</time></trkpt><trkpt lat="40.86396316125753" lon="9.376613115174285"><ele>253.5</ele><time>2026-05-01T07:29:42Z</time></trkpt><trkpt lat="40.86404969215304" lon="9.376589880992464"><ele>252.66666666666669</ele><time>2026-05-01T07:29:43Z</time></trkpt><trkpt lat="40.86413570337367" lon="9.376569199813883"><ele>251.83333333333334</ele><time>2026-05-01T07:29:44Z</time></trkpt><trkpt lat="40.86421347682407" lon="9.376544500276665"><ele>251.0</ele><time>2026-05-01T07:29:45Z</time></trkpt><trkpt lat="40.86427400493572" lon="9.376491606051081"><ele>251.00000000000003</ele><time>2026-05-01T07:29:46Z</time></trkpt><trkpt lat="40.86433680291542" lon="9.376456168942926"><ele>251.0</ele><time>2026-05-01T07:29:47Z</time></trkpt><trkpt lat="40.86441307544165" lon="9.37641689737146"><ele>251.0</ele><time>2026-05-01T07:29:48Z</time></trkpt><trkpt lat="40.86448063980782" lon="9.376369637494433"><ele>251.0</ele><time>2026-05-01T07:29:49Z</time></trkpt><trkpt lat="40.864556015158875" lon="9.376337821714564"><ele>251.00000000000003</ele><time>2026-05-01T07:29:50Z</time></trkpt><trkpt lat="40.86463279628098" lon="9.37630061433717"><ele>251.0</ele><time>2026-05-01T07:29:51Z</time></trkpt><trkpt lat="40.864708502895226" lon="9.376275939202772"><ele>251.0</ele><time>2026-05-01T07:29:52Z</time></trkpt><trkpt lat="40.864778572136814" lon="9.37626955292485"><ele>251.00000000000003</ele><time>2026-05-01T07:29:53Z</time></trkpt><trkpt lat="40.864922245488856" lon="9.376288671500172"><ele>251.00000000000003</ele><time>2026-05-01T07:29:55Z</time></trkpt><trkpt lat="40.86506216731827" lon="9.376338240776114"><ele>251.0</ele><time>2026-05-01T07:29:57Z</time></trkpt><trkpt lat="40.86513690721451" lon="9.37635777563757"><ele>251.0</ele><time>2026-05-01T07:29:58Z</time></trkpt><trkpt lat="40.86520839132224" lon="9.376379528011903"><ele>249.33333333333334</ele><time>2026-05-01T07:29:59Z</time></trkpt><trkpt lat="40.86526974113361" lon="9.376410076394588"><ele>247.66666666666669</ele><time>2026-05-01T07:30:00Z</time></trkpt><trkpt lat="40.865358287803396" lon="9.376477663344321"><ele>246.0</ele><time>2026-05-01T07:30:01Z</time></trkpt><trkpt lat="40.86542531430772" lon="9.37653264258593"><ele>244.33333333333331</ele><time>2026-05-01T07:30:02Z</time></trkpt><trkpt lat="40.86552326167824" lon="9.376569486556381"><ele>242.66666666666666</ele><time>2026-05-01T07:30:03Z</time></trkpt><trkpt lat="40.865593775336286" lon="9.376571406477996"><ele>241.0</ele><time>2026-05-01T07:30:04Z</time></trkpt><trkpt lat="40.86566844873666" lon="9.376582041499585"><ele>240.99999999999997</ele><time>2026-05-01T07:30:05Z</time></trkpt><trkpt lat="40.865739604967835" lon="9.376576904261295"><ele>241.0</ele><time>2026-05-01T07:30:06Z</time></trkpt><trkpt lat="40.86583346083756" lon="9.376580707706792"><ele>241.0</ele><time>2026-05-01T07:30:07Z</time></trkpt><trkpt lat="40.86592767944334" lon="9.376582912464896"><ele>241.0</ele><time>2026-05-01T07:30:08Z</time></trkpt><trkpt lat="40.86599602635655" lon="9.376593714310877"><ele>240.99999999999997</ele><time>2026-05-01T07:30:09Z</time></trkpt><trkpt lat="40.86606970749929" lon="9.376600937678754"><ele>241.0</ele><time>2026-05-01T07:30:10Z</time></trkpt><trkpt lat="40.86613547720889" lon="9.37658475748845"><ele>240.49999999999997</ele><time>2026-05-01T07:30:11Z</time></trkpt><trkpt lat="40.86622047105775" lon="9.376581089930418"><ele>240.0</ele><time>2026-05-01T07:30:12Z</time></trkpt><trkpt lat="40.86630637062541" lon="9.376602056134338"><ele>239.5</ele><time>2026-05-01T07:30:13Z</time></trkpt><trkpt lat="40.86639353251239" lon="9.3765836749748"><ele>239.0</ele><time>2026-05-01T07:30:14Z</time></trkpt><trkpt lat="40.86648278710244" lon="9.376600374119937"><ele>238.49999999999997</ele><time>2026-05-01T07:30:15Z</time></trkpt><trkpt lat="40.86654708457911" lon="9.376599837362416"><ele>238.0</ele><time>2026-05-01T07:30:16Z</time></trkpt><trkpt lat="40.86663704073216" lon="9.37661389992839"><ele>237.4</ele><time>2026-05-01T07:30:17Z</time></trkpt><trkpt lat="40.86680350805056" lon="9.376615254340527"><ele>236.8</ele><time>2026-05-01T07:30:19Z</time></trkpt><trkpt lat="40.86687121813311" lon="9.376609724959419"><ele>236.2</ele><time>2026-05-01T07:30:20Z</time></trkpt><trkpt lat="40.86694309509057" lon="9.376618060956938"><ele>235.6</ele><time>2026-05-01T07:30:21Z</time></trkpt><trkpt lat="40.86701526880387" lon="9.376629550287554"><ele>235.0</ele><time>2026-05-01T07:30:22Z</time></trkpt><trkpt lat="40.867099902462584" lon="9.376616865652188"><ele>234.99999999999997</ele><time>2026-05-01T07:30:23Z</time></trkpt><trkpt lat="40.86719067784549" lon="9.376631551617914"><ele>235.0</ele><time>2026-05-01T07:30:24Z</time></trkpt><trkpt lat="40.86726144781814" lon="9.376635863236535"><ele>235.0</ele><time>2026-05-01T07:30:25Z</time></trkpt><trkpt lat="40.86733657060258" lon="9.376629278543268"><ele>235.0</ele><time>2026-05-01T07:30:26Z</time></trkpt><trkpt lat="40.867413554267436" lon="9.376646021228668"><ele>234.99999999999997</ele><time>2026-05-01T07:30:27Z</time></trkpt><trkpt lat="40.86748933524864" lon="9.376658154500216"><ele>235.0</ele><time>2026-05-01T07:30:28Z</time></trkpt><trkpt lat="40.86756310103153" lon="9.376656685833591"><ele>234.99999999999997</ele><time>2026-05-01T07:30:29Z</time></trkpt><trkpt lat="40.867645621198726" lon="9.37665974054752"><ele>235.0</ele><time>2026-05-01T07:30:30Z</time></trkpt><trkpt lat="40.86772921925665" lon="9.376642328702323"><ele>235.0</ele><time>2026-05-01T07:30:31Z</time></trkpt><trkpt lat="40.86779331720813" lon="9.376593101784275"><ele>235.0</ele><time>2026-05-01T07:30:32Z</time></trkpt><trkpt lat="40.867840110699035" lon="9.376510955446985"><ele>234.99999999999997</ele><time>2026-05-01T07:30:33Z</time></trkpt><trkpt lat="40.86787342728735" lon="9.376407947499105"><ele>235.0</ele><time>2026-05-01T07:30:34Z</time></trkpt><trkpt lat="40.867879791508834" lon="9.37631574473683"><ele>234.6</ele><time>2026-05-01T07:30:35Z</time></trkpt><trkpt lat="40.86787005882016" lon="9.376231130593577"><ele>234.2</ele><time>2026-05-01T07:30:36Z</time></trkpt><trkpt lat="40.867836237172355" lon="9.376055902832913"><ele>233.8</ele><time>2026-05-01T07:30:38Z</time></trkpt><trkpt lat="40.86781762020541" lon="9.375972209471428"><ele>233.4</ele><time>2026-05-01T07:30:39Z</time></trkpt><trkpt lat="40.86779343063606" lon="9.375818450722596"><ele>233.0</ele><time>2026-05-01T07:30:41Z</time></trkpt><trkpt lat="40.867768917493535" lon="9.375689967657703"><ele>233.0</ele><time>2026-05-01T07:30:43Z</time></trkpt><trkpt lat="40.86773540718985" lon="9.375566283619722"><ele>233.0</ele><time>2026-05-01T07:30:45Z</time></trkpt><trkpt lat="40.86770991226837" lon="9.37545265002221"><ele>233.0</ele><time>2026-05-01T07:30:47Z</time></trkpt><trkpt lat="40.867686330869205" lon="9.375370367860004"><ele>233.0</ele><time>2026-05-01T07:30:48Z</time></trkpt><trkpt lat="40.86768045541517" lon="9.375215186046685"><ele>233.0</ele><time>2026-05-01T07:30:50Z</time></trkpt><trkpt lat="40.867653892472916" lon="9.375061819204909"><ele>233.50000000000003</ele><time>2026-05-01T07:30:52Z</time></trkpt><trkpt lat="40.867638006483645" lon="9.374974077632734"><ele>234.0</ele><time>2026-05-01T07:30:53Z</time></trkpt><trkpt lat="40.86761970168093" lon="9.374892692190283"><ele>234.5</ele><time>2026-05-01T07:30:54Z</time></trkpt><trkpt lat="40.867618055090574" lon="9.374732550653734"><ele>235.0</ele><time>2026-05-01T07:30:56Z</time></trkpt><trkpt lat="40.86764759754685" lon="9.374647368994012"><ele>235.50000000000003</ele><time>2026-05-01T07:30:57Z</time></trkpt><trkpt lat="40.86767137852161" lon="9.37456999200297"><ele>236.0</ele><time>2026-05-01T07:30:58Z</time></trkpt><trkpt lat="40.86774978954671" lon="9.374446366975915"><ele>237.75</ele><time>2026-05-01T07:31:00Z</time></trkpt><trkpt lat="40.86783602877037" lon="9.374329533892059"><ele>239.5</ele><time>2026-05-01T07:31:02Z</time></trkpt><trkpt lat="40.867937988186" lon="9.37427988567749"><ele>241.25</ele><time>2026-05-01T07:31:04Z</time></trkpt><trkpt lat="40.86800390900963" lon="9.37425254779424"><ele>243.0</ele><time>2026-05-01T07:31:06Z</time></trkpt><trkpt lat="40.8682036669847" lon="9.374240270325478"><ele>243.0</ele><time>2026-05-01T07:31:14Z</time></trkpt><trkpt lat="40.86827125569111" lon="9.374203191536553"><ele>243.0</ele><time>2026-05-01T07:31:17Z</time></trkpt><trkpt lat="40.868321583259366" lon="9.374142939601342"><ele>243.0</ele><time>2026-05-01T07:31:20Z</time></trkpt><trkpt lat="40.86837989648233" lon="9.374097259284962"><ele>243.0</ele><time>2026-05-01T07:31:26Z</time></trkpt><trkpt lat="40.86842647197711" lon="9.374001931873222"><ele>243.0</ele><time>2026-05-01T07:31:30Z</time></trkpt><trkpt lat="40.868427365277455" lon="9.373894296432535"><ele>243.0</ele><time>2026-05-01T07:31:34Z</time></trkpt><trkpt lat="40.868430120942186" lon="9.37378428638507"><ele>244.14285714285714</ele><time>2026-05-01T07:31:40Z</time></trkpt><trkpt lat="40.868429856389" lon="9.373688940136656"><ele>245.28571428571428</ele><time>2026-05-01T07:31:43Z</time></trkpt><trkpt lat="40.86839814662471" lon="9.373552965830404"><ele>246.42857142857142</ele><time>2026-05-01T07:31:47Z</time></trkpt><trkpt lat="40.868403752979646" lon="9.37346668037834"><ele>247.57142857142856</ele><time>2026-05-01T07:31:49Z</time></trkpt><trkpt lat="40.868383634841855" lon="9.37338768217056"><ele>248.71428571428572</ele><time>2026-05-01T07:31:51Z</time></trkpt><trkpt lat="40.86838824664772" lon="9.373302427357723"><ele>249.85714285714283</ele><time>2026-05-01T07:31:53Z</time></trkpt><trkpt lat="40.86840318155159" lon="9.373217806066046"><ele>250.99999999999997</ele><time>2026-05-01T07:31:55Z</time></trkpt><trkpt lat="40.86840307113985" lon="9.373090085655438"><ele>251.33333333333334</ele><time>2026-05-01T07:31:58Z</time></trkpt><trkpt lat="40.86839931625708" lon="9.372990915334698"><ele>251.66666666666669</ele><time>2026-05-01T07:32:00Z</time></trkpt><trkpt lat="40.86842121861625" lon="9.372901513511014"><ele>252.0</ele><time>2026-05-01T07:32:02Z</time></trkpt><trkpt lat="40.86841868463254" lon="9.372796547884755"><ele>252.33333333333331</ele><time>2026-05-01T07:32:04Z</time></trkpt><trkpt lat="40.8684527727873" lon="9.37270490294637"><ele>252.66666666666666</ele><time>2026-05-01T07:32:06Z</time></trkpt><trkpt lat="40.868474033239565" lon="9.372604161637199"><ele>253.0</ele><time>2026-05-01T07:32:11Z</time></trkpt><trkpt lat="40.86851107398606" lon="9.372518041932404"><ele>253.33333333333331</ele><time>2026-05-01T07:32:14Z</time></trkpt><trkpt lat="40.86853068984821" lon="9.372429702804293"><ele>253.66666666666666</ele><time>2026-05-01T07:32:16Z</time></trkpt><trkpt lat="40.868549187494295" lon="9.372345729044106"><ele>254.0</ele><time>2026-05-01T07:32:19Z</time></trkpt><trkpt lat="40.86860290874237" lon="9.372225508811786"><ele>254.33333333333331</ele><time>2026-05-01T07:32:21Z</time></trkpt><trkpt lat="40.86865897664293" lon="9.372132274060212"><ele>254.66666666666666</ele><time>2026-05-01T07:32:23Z</time></trkpt><trkpt lat="40.868738690553116" lon="9.372054532450957"><ele>255.0</ele><time>2026-05-01T07:32:25Z</time></trkpt><trkpt lat="40.86876799425427" lon="9.371959654101074"><ele>255.0</ele><time>2026-05-01T07:32:28Z</time></trkpt><trkpt lat="40.86887188252713" lon="9.371815202051685"><ele>255.0</ele><time>2026-05-01T07:32:30Z</time></trkpt><trkpt lat="40.86891682259054" lon="9.371741174800038"><ele>255.0</ele><time>2026-05-01T07:32:32Z</time></trkpt><trkpt lat="40.86894466584388" lon="9.371650398063965"><ele>255.0</ele><time>2026-05-01T07:32:36Z</time></trkpt><trkpt lat="40.86900071713998" lon="9.371543448721804"><ele>255.0</ele><time>2026-05-01T07:32:39Z</time></trkpt><trkpt lat="40.86904096702287" lon="9.371457208461617"><ele>255.0</ele><time>2026-05-01T07:32:41Z</time></trkpt><trkpt lat="40.86909546779336" lon="9.371325770234627"><ele>255.0</ele><time>2026-05-01T07:32:44Z</time></trkpt><trkpt lat="40.86912495099147" lon="9.371216743061527"><ele>255.0</ele><time>2026-05-01T07:32:45Z</time></trkpt><trkpt lat="40.86916420367948" lon="9.371121422642531"><ele>255.0</ele><time>2026-05-01T07:32:46Z</time></trkpt><trkpt lat="40.86926489007328" lon="9.37096629772139"><ele>255.0</ele><time>2026-05-01T07:32:48Z</time></trkpt><trkpt lat="40.86928624845579" lon="9.370880396804164"><ele>256.0</ele><time>2026-05-01T07:32:49Z</time></trkpt><trkpt lat="40.869297671029976" lon="9.370784714723987"><ele>257.0</ele><time>2026-05-01T07:32:50Z</time></trkpt><trkpt lat="40.869333738013914" lon="9.370641634481952"><ele>258.0</ele><time>2026-05-01T07:32:52Z</time></trkpt><trkpt lat="40.86937163721668" lon="9.370517467987597"><ele>259.0</ele><time>2026-05-01T07:32:54Z</time></trkpt><trkpt lat="40.869400925206484" lon="9.37038263619061"><ele>260.0</ele><time>2026-05-01T07:32:56Z</time></trkpt><trkpt lat="40.86943529230265" lon="9.370231034153099"><ele>261.0</ele><time>2026-05-01T07:32:58Z</time></trkpt><trkpt lat="40.86947042470132" lon="9.370097887959526"><ele>262.0</ele><time>2026-05-01T07:33:00Z</time></trkpt><trkpt lat="40.869495442885814" lon="9.369950739817096"><ele>263.0</ele><time>2026-05-01T07:33:02Z</time></trkpt><trkpt lat="40.869524910020175" lon="9.369828540745"><ele>264.0</ele><time>2026-05-01T07:33:04Z</time></trkpt><trkpt lat="40.86954356880278" lon="9.369723042607617"><ele>265.0</ele><time>2026-05-01T07:33:06Z</time></trkpt><trkpt lat="40.86955385964667" lon="9.369638595021941"><ele>265.2</ele><time>2026-05-01T07:33:07Z</time></trkpt><trkpt lat="40.86957500854614" lon="9.36949984253783"><ele>265.4</ele><time>2026-05-01T07:33:09Z</time></trkpt><trkpt lat="40.869623286197445" lon="9.369384218040134"><ele>265.6</ele><time>2026-05-01T07:33:11Z</time></trkpt><trkpt lat="40.869660385501334" lon="9.369256288944655"><ele>265.8</ele><time>2026-05-01T07:33:13Z</time></trkpt><trkpt lat="40.869716565600235" lon="9.369165007710423"><ele>266.0</ele><time>2026-05-01T07:33:15Z</time></trkpt><trkpt lat="40.86975023878996" lon="9.36906360000075"><ele>266.0</ele><time>2026-05-01T07:33:17Z</time></trkpt><trkpt lat="40.86980968894819" lon="9.368976928772428"><ele>266.0</ele><time>2026-05-01T07:33:19Z</time></trkpt><trkpt lat="40.86986864163255" lon="9.368886171525572"><ele>266.0</ele><time>2026-05-01T07:33:22Z</time></trkpt><trkpt lat="40.86989613779232" lon="9.368788858607696"><ele>266.0</ele><time>2026-05-01T07:33:25Z</time></trkpt><trkpt lat="40.86995957609224" lon="9.368699799162185"><ele>266.0</ele><time>2026-05-01T07:33:28Z</time></trkpt><trkpt lat="40.87003283636429" lon="9.368632840662162"><ele>266.0</ele><time>2026-05-01T07:33:31Z</time></trkpt><trkpt lat="40.87009336679982" lon="9.368562172152295"><ele>266.85714285714283</ele><time>2026-05-01T07:33:34Z</time></trkpt><trkpt lat="40.87014431422521" lon="9.36850765122009"><ele>267.7142857142857</ele><time>2026-05-01T07:33:37Z</time></trkpt><trkpt lat="40.870202694095674" lon="9.36845315304161"><ele>268.57142857142856</ele><time>2026-05-01T07:33:40Z</time></trkpt><trkpt lat="40.870238240455265" lon="9.368380068732977"><ele>269.42857142857144</ele><time>2026-05-01T07:33:43Z</time></trkpt><trkpt lat="40.87028843669136" lon="9.368286014593387"><ele>270.2857142857143</ele><time>2026-05-01T07:33:46Z</time></trkpt><trkpt lat="40.87032344794165" lon="9.368216404456714"><ele>271.1428571428571</ele><time>2026-05-01T07:33:48Z</time></trkpt><trkpt lat="40.87038858655761" lon="9.368135628556455"><ele>272.0</ele><time>2026-05-01T07:33:51Z</time></trkpt><trkpt lat="40.870450796344954" lon="9.368092584703989"><ele>272.4</ele><time>2026-05-01T07:33:53Z</time></trkpt><trkpt lat="40.870495534611344" lon="9.367997352676273"><ele>272.79999999999995</ele><time>2026-05-01T07:33:55Z</time></trkpt><trkpt lat="40.87055032167367" lon="9.367904088874857"><ele>273.2</ele><time>2026-05-01T07:33:57Z</time></trkpt><trkpt lat="40.87060713772449" lon="9.3677802880792"><ele>273.59999999999997</ele><time>2026-05-01T07:33:59Z</time></trkpt><trkpt lat="40.870664064003236" lon="9.367691343666216"><ele>274.0</ele><time>2026-05-01T07:34:01Z</time></trkpt><trkpt lat="40.87071633715386" lon="9.36759527079313"><ele>274.0</ele><time>2026-05-01T07:34:04Z</time></trkpt><trkpt lat="40.87079686890404" lon="9.367504127766527"><ele>274.0</ele><time>2026-05-01T07:34:07Z</time></trkpt><trkpt lat="40.87085175359665" lon="9.367438770807162"><ele>274.0</ele><time>2026-05-01T07:34:10Z</time></trkpt><trkpt lat="40.870901317896255" lon="9.367347190645313"><ele>274.0</ele><time>2026-05-01T07:34:14Z</time></trkpt><trkpt lat="40.87093200660502" lon="9.367260268312844"><ele>274.0</ele><time>2026-05-01T07:34:16Z</time></trkpt><trkpt lat="40.870958389829674" lon="9.367178089859651"><ele>274.0</ele><time>2026-05-01T07:34:19Z</time></trkpt><trkpt lat="40.870985011791824" lon="9.3670994470597"><ele>274.14285714285717</ele><time>2026-05-01T07:34:21Z</time></trkpt><trkpt lat="40.87103924790551" lon="9.367008963446677"><ele>274.2857142857143</ele><time>2026-05-01T07:34:24Z</time></trkpt><trkpt lat="40.871076599274026" lon="9.366938201761759"><ele>274.42857142857144</ele><time>2026-05-01T07:34:26Z</time></trkpt><trkpt lat="40.87110497661129" lon="9.366856447829262"><ele>274.57142857142856</ele><time>2026-05-01T07:34:28Z</time></trkpt><trkpt lat="40.871139268951886" lon="9.366747788498362"><ele>274.7142857142857</ele><time>2026-05-01T07:34:30Z</time></trkpt><trkpt lat="40.871166415366886" lon="9.36666686787711"><ele>274.8571428571429</ele><time>2026-05-01T07:34:31Z</time></trkpt><trkpt lat="40.87118809822317" lon="9.366587195058496"><ele>275.0</ele><time>2026-05-01T07:34:32Z</time></trkpt><trkpt lat="40.871242650732356" lon="9.366450059274758"><ele>275.1666666666667</ele><time>2026-05-01T07:34:34Z</time></trkpt><trkpt lat="40.87128613078978" lon="9.366296285801207"><ele>275.33333333333337</ele><time>2026-05-01T07:34:36Z</time></trkpt><trkpt lat="40.871311350329535" lon="9.36621352251581"><ele>275.5</ele><time>2026-05-01T07:34:37Z</time></trkpt><trkpt lat="40.87133623296562" lon="9.3661196339499"><ele>275.6666666666667</ele><time>2026-05-01T07:34:38Z</time></trkpt><trkpt lat="40.871343478483254" lon="9.3660234249054"><ele>275.8333333333333</ele><time>2026-05-01T07:34:39Z</time></trkpt><trkpt lat="40.87135644580159" lon="9.365939020070668"><ele>276.0</ele><time>2026-05-01T07:34:40Z</time></trkpt><trkpt lat="40.87137335316692" lon="9.3657897255491"><ele>276.0</ele><time>2026-05-01T07:34:42Z</time></trkpt><trkpt lat="40.87139929239361" lon="9.365658239199606"><ele>276.0</ele><time>2026-05-01T07:34:44Z</time></trkpt><trkpt lat="40.871436312484335" lon="9.365583105280878"><ele>276.0</ele><time>2026-05-01T07:34:45Z</time></trkpt><trkpt lat="40.87147487256594" lon="9.365434581730781"><ele>276.0</ele><time>2026-05-01T07:34:47Z</time></trkpt><trkpt lat="40.87151158375004" lon="9.365290509554411"><ele>276.0</ele><time>2026-05-01T07:34:49Z</time></trkpt><trkpt lat="40.8715282740181" lon="9.365204381162846"><ele>275.8333333333333</ele><time>2026-05-01T07:34:50Z</time></trkpt><trkpt lat="40.87156895168526" lon="9.365110685616882"><ele>275.6666666666667</ele><time>2026-05-01T07:34:55Z</time></trkpt><trkpt lat="40.87162440636012" lon="9.365033751225164"><ele>275.5</ele><time>2026-05-01T07:34:57Z</time></trkpt><trkpt lat="40.87166430168362" lon="9.3649570731371"><ele>275.33333333333337</ele><time>2026-05-01T07:34:59Z</time></trkpt><trkpt lat="40.87170223223867" lon="9.364878976766862"><ele>275.1666666666667</ele><time>2026-05-01T07:35:00Z</time></trkpt><trkpt lat="40.87175164261975" lon="9.364772570388295"><ele>275.0</ele><time>2026-05-01T07:35:01Z</time></trkpt><trkpt lat="40.871800233334966" lon="9.364667929315178"><ele>275.83333333333337</ele><time>2026-05-01T07:35:02Z</time></trkpt><trkpt lat="40.87184322907485" lon="9.364550076767284"><ele>276.6666666666667</ele><time>2026-05-01T07:35:03Z</time></trkpt><trkpt lat="40.871903061987304" lon="9.36444462236693"><ele>277.5</ele><time>2026-05-01T07:35:04Z</time></trkpt><trkpt lat="40.871943896101385" lon="9.364364379903044"><ele>278.3333333333333</ele><time>2026-05-01T07:35:05Z</time></trkpt><trkpt lat="40.872006691280056" lon="9.364254565884098"><ele>279.16666666666663</ele><time>2026-05-01T07:35:07Z</time></trkpt><trkpt lat="40.87203313110497" lon="9.36417505358876"><ele>280.0</ele><time>2026-05-01T07:35:08Z</time></trkpt><trkpt lat="40.87206266578496" lon="9.364064570871378"><ele>280.0</ele><time>2026-05-01T07:35:10Z</time></trkpt><trkpt lat="40.87212913505691" lon="9.363932653837164"><ele>280.0</ele><time>2026-05-01T07:35:12Z</time></trkpt><trkpt lat="40.87218128870464" lon="9.363809984494583"><ele>280.0</ele><time>2026-05-01T07:35:14Z</time></trkpt><trkpt lat="40.872216763938965" lon="9.363736771865158"><ele>280.0</ele><time>2026-05-01T07:35:15Z</time></trkpt><trkpt lat="40.87221758889798" lon="9.36363797827208"><ele>280.0</ele><time>2026-05-01T07:35:19Z</time></trkpt><trkpt lat="40.87223405522339" lon="9.363554360501604"><ele>280.0</ele><time>2026-05-01T07:35:21Z</time></trkpt><trkpt lat="40.87225611406262" lon="9.363452717901529"><ele>280.5</ele><time>2026-05-01T07:35:23Z</time></trkpt><trkpt lat="40.87228561310937" lon="9.363378434934612"><ele>281.0</ele><time>2026-05-01T07:35:25Z</time></trkpt><trkpt lat="40.87228989271183" lon="9.363288780426036"><ele>281.5</ele><time>2026-05-01T07:35:28Z</time></trkpt><trkpt lat="40.87233396436048" lon="9.363214891318284"><ele>282.0</ele><time>2026-05-01T07:35:30Z</time></trkpt><trkpt lat="40.87233809859686" lon="9.363121707468354"><ele>282.5</ele><time>2026-05-01T07:35:32Z</time></trkpt><trkpt lat="40.87236134170327" lon="9.363000591552005"><ele>283.0</ele><time>2026-05-01T07:35:35Z</time></trkpt><trkpt lat="40.872413634908774" lon="9.362900970729052"><ele>283.16666666666663</ele><time>2026-05-01T07:35:38Z</time></trkpt><trkpt lat="40.872444629002956" lon="9.362828037178506"><ele>283.3333333333333</ele><time>2026-05-01T07:35:40Z</time></trkpt><trkpt lat="40.87247553727475" lon="9.362748359382561"><ele>283.5</ele><time>2026-05-01T07:35:42Z</time></trkpt><trkpt lat="40.87255759971266" lon="9.36264020051915"><ele>283.6666666666667</ele><time>2026-05-01T07:35:45Z</time></trkpt><trkpt lat="40.872602033112344" lon="9.362568517894546"><ele>283.83333333333337</ele><time>2026-05-01T07:35:47Z</time></trkpt><trkpt lat="40.872705178654556" lon="9.362509464728605"><ele>284.0</ele><time>2026-05-01T07:35:50Z</time></trkpt><trkpt lat="40.872755820448475" lon="9.362438513504838"><ele>284.2857142857143</ele><time>2026-05-01T07:35:52Z</time></trkpt><trkpt lat="40.872789500528256" lon="9.362356695391414"><ele>284.57142857142856</ele><time>2026-05-01T07:35:54Z</time></trkpt><trkpt lat="40.872857417521956" lon="9.362298737392946"><ele>284.85714285714283</ele><time>2026-05-01T07:35:57Z</time></trkpt><trkpt lat="40.87290979086186" lon="9.362241072218545"><ele>285.1428571428571</ele><time>2026-05-01T07:35:59Z</time></trkpt><trkpt lat="40.87296304919825" lon="9.362160173758303"><ele>285.42857142857144</ele><time>2026-05-01T07:36:01Z</time></trkpt><trkpt lat="40.87301150967011" lon="9.362096537742689"><ele>285.71428571428567</ele><time>2026-05-01T07:36:03Z</time></trkpt><trkpt lat="40.87306690088483" lon="9.362033899893984"><ele>286.0</ele><time>2026-05-01T07:36:05Z</time></trkpt><trkpt lat="40.87311975907866" lon="9.361983075433862"><ele>286.0</ele><time>2026-05-01T07:36:06Z</time></trkpt><trkpt lat="40.87317820969896" lon="9.36192665207797"><ele>286.0</ele><time>2026-05-01T07:36:07Z</time></trkpt><trkpt lat="40.87323775389953" lon="9.361835144387591"><ele>286.0</ele><time>2026-05-01T07:36:08Z</time></trkpt><trkpt lat="40.87330104580286" lon="9.361773194349801"><ele>286.0</ele><time>2026-05-01T07:36:09Z</time></trkpt><trkpt lat="40.87336477038009" lon="9.361659924099037"><ele>286.0</ele><time>2026-05-01T07:36:10Z</time></trkpt><trkpt lat="40.87335625721543" lon="9.36157513817023"><ele>286.0</ele><time>2026-05-01T07:36:11Z</time></trkpt><trkpt lat="40.873363721071165" lon="9.361477107514391"><ele>286.6</ele><time>2026-05-01T07:36:12Z</time></trkpt><trkpt lat="40.873430921552725" lon="9.361244560420477"><ele>287.20000000000005</ele><time>2026-05-01T07:36:14Z</time></trkpt><trkpt lat="40.87337640841299" lon="9.361167573664604"><ele>287.79999999999995</ele><time>2026-05-01T07:36:16Z</time></trkpt><trkpt lat="40.873317535083196" lon="9.361084429488379"><ele>288.4</ele><time>2026-05-01T07:36:18Z</time></trkpt><trkpt lat="40.87325744764598" lon="9.360999574257312"><ele>289.0</ele><time>2026-05-01T07:36:20Z</time></trkpt><trkpt lat="40.873190637440814" lon="9.360906181935913"><ele>289.0</ele><time>2026-05-01T07:36:22Z</time></trkpt><trkpt lat="40.87312908406843" lon="9.360819820042654"><ele>289.0</ele><time>2026-05-01T07:36:24Z</time></trkpt><trkpt lat="40.873063723537356" lon="9.360725138070991"><ele>289.0</ele><time>2026-05-01T07:36:26Z</time></trkpt><trkpt lat="40.872994546548156" lon="9.360626705653587"><ele>289.0</ele><time>2026-05-01T07:36:28Z</time></trkpt><trkpt lat="40.87292134480657" lon="9.360523581951409"><ele>289.0</ele><time>2026-05-01T07:36:30Z</time></trkpt><trkpt lat="40.8728448276545" lon="9.360416538512318"><ele>289.0</ele><time>2026-05-01T07:36:32Z</time></trkpt><trkpt lat="40.8727616033628" lon="9.36032637436397"><ele>289.0</ele><time>2026-05-01T07:36:34Z</time></trkpt><trkpt lat="40.87271443674162" lon="9.360219313605223"><ele>289.0</ele><time>2026-05-01T07:36:36Z</time></trkpt><trkpt lat="40.872641718294865" lon="9.360121034742368"><ele>289.0</ele><time>2026-05-01T07:36:38Z</time></trkpt><trkpt lat="40.87256786896997" lon="9.359996481765602"><ele>289.0</ele><time>2026-05-01T07:36:40Z</time></trkpt><trkpt lat="40.872490787119" lon="9.359896613157106"><ele>288.8</ele><time>2026-05-01T07:36:42Z</time></trkpt><trkpt lat="40.872406551105456" lon="9.359795722423748"><ele>288.59999999999997</ele><time>2026-05-01T07:36:44Z</time></trkpt><trkpt lat="40.872345879305165" lon="9.359692877474986"><ele>288.4</ele><time>2026-05-01T07:36:46Z</time></trkpt><trkpt lat="40.872294760906534" lon="9.35960929571681"><ele>288.2</ele><time>2026-05-01T07:36:48Z</time></trkpt><trkpt lat="40.8722052454248" lon="9.359518415642917"><ele>288.0</ele><time>2026-05-01T07:36:50Z</time></trkpt><trkpt lat="40.87215135641071" lon="9.359412342196014"><ele>288.8</ele><time>2026-05-01T07:36:52Z</time></trkpt><trkpt lat="40.87206797177961" lon="9.359303275549616"><ele>289.6</ele><time>2026-05-01T07:36:54Z</time></trkpt><trkpt lat="40.871994626330775" lon="9.359203633238026"><ele>290.4</ele><time>2026-05-01T07:36:56Z</time></trkpt><trkpt lat="40.87193720852196" lon="9.35911696467061"><ele>291.2</ele><time>2026-05-01T07:36:58Z</time></trkpt><trkpt lat="40.87187254640133" lon="9.35901150149207"><ele>292.0</ele><time>2026-05-01T07:37:00Z</time></trkpt><trkpt lat="40.871815782626925" lon="9.358930468966907"><ele>293.4</ele><time>2026-05-01T07:37:02Z</time></trkpt><trkpt lat="40.8717333568293" lon="9.358848882917815"><ele>294.79999999999995</ele><time>2026-05-01T07:37:04Z</time></trkpt><trkpt lat="40.87166639432317" lon="9.358739543081452"><ele>296.2</ele><time>2026-05-01T07:37:06Z</time></trkpt><trkpt lat="40.87160791191175" lon="9.35863599287562"><ele>297.59999999999997</ele><time>2026-05-01T07:37:08Z</time></trkpt><trkpt lat="40.871533951695525" lon="9.358530474695584"><ele>299.0</ele><time>2026-05-01T07:37:10Z</time></trkpt><trkpt lat="40.87147451589805" lon="9.358455798328317"><ele>299.0</ele><time>2026-05-01T07:37:12Z</time></trkpt><trkpt lat="40.87139505867572" lon="9.358349116337383"><ele>299.0</ele><time>2026-05-01T07:37:14Z</time></trkpt><trkpt lat="40.87133850216725" lon="9.358264566832029"><ele>299.0</ele><time>2026-05-01T07:37:16Z</time></trkpt><trkpt lat="40.871309878013875" lon="9.358148966403563"><ele>299.0</ele><time>2026-05-01T07:37:18Z</time></trkpt><trkpt lat="40.87140951638814" lon="9.358063092071964"><ele>299.0</ele><time>2026-05-01T07:37:20Z</time></trkpt><trkpt lat="40.87144145624421" lon="9.35798824408421"><ele>299.33333333333337</ele><time>2026-05-01T07:37:24Z</time></trkpt><trkpt lat="40.87149595180027" lon="9.357942421032927"><ele>299.6666666666667</ele><time>2026-05-01T07:37:27Z</time></trkpt><trkpt lat="40.87155462013363" lon="9.357902354824772"><ele>300.0</ele><time>2026-05-01T07:37:29Z</time></trkpt><trkpt lat="40.87162409743724" lon="9.357823307531309"><ele>300.3333333333333</ele><time>2026-05-01T07:37:31Z</time></trkpt><trkpt lat="40.871689965364844" lon="9.357716322963181"><ele>300.66666666666663</ele><time>2026-05-01T07:37:34Z</time></trkpt><trkpt lat="40.87173316006251" lon="9.35765551436999"><ele>301.0</ele><time>2026-05-01T07:37:36Z</time></trkpt><trkpt lat="40.871832707206515" lon="9.357596991242964"><ele>301.0</ele><time>2026-05-01T07:37:39Z</time></trkpt><trkpt lat="40.87187031021643" lon="9.357514411404477"><ele>301.0</ele><time>2026-05-01T07:37:42Z</time></trkpt><trkpt lat="40.87191719629206" lon="9.357456482208308"><ele>301.0</ele><time>2026-05-01T07:37:44Z</time></trkpt><trkpt lat="40.871963408687925" lon="9.357387487681379"><ele>301.0</ele><time>2026-05-01T07:37:46Z</time></trkpt><trkpt lat="40.872013677437806" lon="9.357303935664248"><ele>301.0</ele><time>2026-05-01T07:37:49Z</time></trkpt><trkpt lat="40.87209339412773" lon="9.35724180776241"><ele>301.0</ele><time>2026-05-01T07:37:52Z</time></trkpt><trkpt lat="40.87215492325438" lon="9.357140439674948"><ele>301.2857142857143</ele><time>2026-05-01T07:37:55Z</time></trkpt><trkpt lat="40.87219387217058" lon="9.35706719342385"><ele>301.57142857142856</ele><time>2026-05-01T07:37:57Z</time></trkpt><trkpt lat="40.872250409955114" lon="9.35700521971807"><ele>301.8571428571429</ele><time>2026-05-01T07:38:01Z</time></trkpt><trkpt lat="40.87229008111992" lon="9.356939990965344"><ele>302.1428571428571</ele><time>2026-05-01T07:38:03Z</time></trkpt><trkpt lat="40.87234963825861" lon="9.356876453109193"><ele>302.42857142857144</ele><time>2026-05-01T07:38:06Z</time></trkpt><trkpt lat="40.87239138329837" lon="9.356790894205108"><ele>302.7142857142857</ele><time>2026-05-01T07:38:09Z</time></trkpt><trkpt lat="40.87243904353122" lon="9.356718416535974"><ele>303.0</ele><time>2026-05-01T07:38:11Z</time></trkpt><trkpt lat="40.872494799283885" lon="9.356663207276226"><ele>303.0</ele><time>2026-05-01T07:38:12Z</time></trkpt><trkpt lat="40.87255501583228" lon="9.356587558417454"><ele>303.0</ele><time>2026-05-01T07:38:13Z</time></trkpt><trkpt lat="40.87260897581743" lon="9.356534568949847"><ele>303.0</ele><time>2026-05-01T07:38:14Z</time></trkpt><trkpt lat="40.87269799444835" lon="9.356444223418077"><ele>303.0</ele><time>2026-05-01T07:38:15Z</time></trkpt><trkpt lat="40.872767994956014" lon="9.356385351898053"><ele>303.0</ele><time>2026-05-01T07:38:16Z</time></trkpt><trkpt lat="40.87287726229719" lon="9.35626404098849"><ele>304.5</ele><time>2026-05-01T07:38:18Z</time></trkpt><trkpt lat="40.87293684928278" lon="9.356181030603814"><ele>306.0</ele><time>2026-05-01T07:38:19Z</time></trkpt><trkpt lat="40.87305739337963" lon="9.35609047705817"><ele>307.5</ele><time>2026-05-01T07:38:20Z</time></trkpt><trkpt lat="40.87317388339572" lon="9.3559787735434"><ele>309.0</ele><time>2026-05-01T07:38:21Z</time></trkpt><trkpt lat="40.8732980413331" lon="9.355841174759297"><ele>309.0</ele><time>2026-05-01T07:38:22Z</time></trkpt><trkpt lat="40.873396877053594" lon="9.355741132411266"><ele>309.0</ele><time>2026-05-01T07:38:23Z</time></trkpt><trkpt lat="40.87351900928068" lon="9.355613934971862"><ele>309.0</ele><time>2026-05-01T07:38:24Z</time></trkpt><trkpt lat="40.87364015054427" lon="9.355485935110856"><ele>309.0</ele><time>2026-05-01T07:38:25Z</time></trkpt><trkpt lat="40.87372528700356" lon="9.355403091608428"><ele>309.6666666666667</ele><time>2026-05-01T07:38:26Z</time></trkpt><trkpt lat="40.87378332750816" lon="9.35534422308235"><ele>310.3333333333333</ele><time>2026-05-01T07:38:27Z</time></trkpt><trkpt lat="40.87385846556088" lon="9.355249793559622"><ele>311.0</ele><time>2026-05-01T07:38:29Z</time></trkpt><trkpt lat="40.87392429579053" lon="9.35517646364099"><ele>311.66666666666663</ele><time>2026-05-01T07:38:31Z</time></trkpt><trkpt lat="40.87398922933007" lon="9.35510299613614"><ele>312.3333333333333</ele><time>2026-05-01T07:38:33Z</time></trkpt><trkpt lat="40.87405613473782" lon="9.355033194626253"><ele>313.0</ele><time>2026-05-01T07:38:35Z</time></trkpt><trkpt lat="40.87412110984896" lon="9.354972722083533"><ele>313.0</ele><time>2026-05-01T07:38:37Z</time></trkpt><trkpt lat="40.87416247612381" lon="9.354909472655091"><ele>313.0</ele><time>2026-05-01T07:38:40Z</time></trkpt><trkpt lat="40.87420936204975" lon="9.354846897068224"><ele>313.0</ele><time>2026-05-01T07:38:41Z</time></trkpt><trkpt lat="40.874264789378735" lon="9.354785234414123"><ele>313.0</ele><time>2026-05-01T07:38:44Z</time></trkpt><trkpt lat="40.87430466047337" lon="9.354710205860863"><ele>313.0</ele><time>2026-05-01T07:38:46Z</time></trkpt><trkpt lat="40.87439085515041" lon="9.354633148893354"><ele>313.0</ele><time>2026-05-01T07:38:49Z</time></trkpt><trkpt lat="40.874463502719365" lon="9.354552420616258"><ele>314.0</ele><time>2026-05-01T07:38:51Z</time></trkpt><trkpt lat="40.874528973096396" lon="9.354490416946902"><ele>315.0</ele><time>2026-05-01T07:38:54Z</time></trkpt><trkpt lat="40.87459642681328" lon="9.354398373505855"><ele>316.0</ele><time>2026-05-01T07:38:56Z</time></trkpt><trkpt lat="40.874673299665" lon="9.354319665907816"><ele>317.0</ele><time>2026-05-01T07:38:59Z</time></trkpt><trkpt lat="40.874750931133384" lon="9.354261398837833"><ele>318.0</ele><time>2026-05-01T07:39:01Z</time></trkpt><trkpt lat="40.874824835415716" lon="9.354182668254957"><ele>318.0</ele><time>2026-05-01T07:39:03Z</time></trkpt><trkpt lat="40.87489838636481" lon="9.354132475160867"><ele>318.0</ele><time>2026-05-01T07:39:05Z</time></trkpt><trkpt lat="40.87494871892095" lon="9.354052777143888"><ele>318.0</ele><time>2026-05-01T07:39:07Z</time></trkpt><trkpt lat="40.87500646915416" lon="9.353991809314833"><ele>318.0</ele><time>2026-05-01T07:39:09Z</time></trkpt><trkpt lat="40.87504687851268" lon="9.353926042246966"><ele>318.0</ele><time>2026-05-01T07:39:10Z</time></trkpt><trkpt lat="40.87509016758009" lon="9.353856934329853"><ele>318.0</ele><time>2026-05-01T07:39:13Z</time></trkpt><trkpt lat="40.87518146419784" lon="9.353769644058406"><ele>318.4</ele><time>2026-05-01T07:39:15Z</time></trkpt><trkpt lat="40.87525677873448" lon="9.353684112200543"><ele>318.8</ele><time>2026-05-01T07:39:17Z</time></trkpt><trkpt lat="40.8753291065654" lon="9.353605946264315"><ele>319.2</ele><time>2026-05-01T07:39:19Z</time></trkpt><trkpt lat="40.87538497461939" lon="9.35352154490554"><ele>319.6</ele><time>2026-05-01T07:39:21Z</time></trkpt><trkpt lat="40.87545101029875" lon="9.353427445272336"><ele>320.0</ele><time>2026-05-01T07:39:23Z</time></trkpt><trkpt lat="40.87551418826761" lon="9.353348479859596"><ele>320.0</ele><time>2026-05-01T07:39:25Z</time></trkpt><trkpt lat="40.87556118024399" lon="9.353289227945595"><ele>320.0</ele><time>2026-05-01T07:39:27Z</time></trkpt><trkpt lat="40.875629787388" lon="9.353202797611038"><ele>320.0</ele><time>2026-05-01T07:39:29Z</time></trkpt><trkpt lat="40.87568958226539" lon="9.353090095287783"><ele>320.0</ele><time>2026-05-01T07:39:31Z</time></trkpt><trkpt lat="40.87575680770133" lon="9.352993861497227"><ele>320.0</ele><time>2026-05-01T07:39:33Z</time></trkpt><trkpt lat="40.875807303118364" lon="9.352878386199029"><ele>320.83333333333337</ele><time>2026-05-01T07:39:36Z</time></trkpt><trkpt lat="40.87585236243479" lon="9.352760937352222"><ele>321.6666666666667</ele><time>2026-05-01T07:39:38Z</time></trkpt><trkpt lat="40.875878714286856" lon="9.35265509314747"><ele>322.5</ele><time>2026-05-01T07:39:40Z</time></trkpt><trkpt lat="40.87586961455837" lon="9.352537731271292"><ele>323.3333333333333</ele><time>2026-05-01T07:39:42Z</time></trkpt><trkpt lat="40.875891194953745" lon="9.352427929299306"><ele>324.16666666666663</ele><time>2026-05-01T07:39:44Z</time></trkpt><trkpt lat="40.875904641068644" lon="9.352309552217777"><ele>325.0</ele><time>2026-05-01T07:39:47Z</time></trkpt><trkpt lat="40.87591578984025" lon="9.35218826160503"><ele>325.1428571428571</ele><time>2026-05-01T07:39:50Z</time></trkpt><trkpt lat="40.875908168616235" lon="9.352100792620398"><ele>325.28571428571433</ele><time>2026-05-01T07:39:52Z</time></trkpt><trkpt lat="40.87592214712675" lon="9.352018644785431"><ele>325.42857142857144</ele><time>2026-05-01T07:39:54Z</time></trkpt><trkpt lat="40.87591032161879" lon="9.351917093624799"><ele>325.57142857142856</ele><time>2026-05-01T07:39:56Z</time></trkpt><trkpt lat="40.87589773171852" lon="9.351830867301484"><ele>325.71428571428567</ele><time>2026-05-01T07:39:58Z</time></trkpt><trkpt lat="40.87589491666766" lon="9.3517426633946"><ele>325.8571428571429</ele><time>2026-05-01T07:40:00Z</time></trkpt><trkpt lat="40.8758698010997" lon="9.351656303024203"><ele>326.0</ele><time>2026-05-01T07:40:02Z</time></trkpt><trkpt lat="40.875892502746694" lon="9.351557777454548"><ele>326.0</ele><time>2026-05-01T07:40:04Z</time></trkpt><trkpt lat="40.875904361802746" lon="9.351425974341296"><ele>326.0</ele><time>2026-05-01T07:40:06Z</time></trkpt><trkpt lat="40.87591609801847" lon="9.351321560087007"><ele>326.0</ele><time>2026-05-01T07:40:09Z</time></trkpt><trkpt lat="40.87593197298493" lon="9.351190467344498"><ele>326.0</ele><time>2026-05-01T07:40:11Z</time></trkpt><trkpt lat="40.8759188607228" lon="9.351004582548386"><ele>326.0</ele><time>2026-05-01T07:40:13Z</time></trkpt><trkpt lat="40.87590902156222" lon="9.35082216757618"><ele>326.4</ele><time>2026-05-01T07:40:15Z</time></trkpt><trkpt lat="40.87595840535684" lon="9.350633811276472"><ele>326.8</ele><time>2026-05-01T07:40:17Z</time></trkpt><trkpt lat="40.87599661526815" lon="9.350510222712545"><ele>327.2</ele><time>2026-05-01T07:40:19Z</time></trkpt><trkpt lat="40.876030251269256" lon="9.350423365742987"><ele>327.59999999999997</ele><time>2026-05-01T07:40:21Z</time></trkpt><trkpt lat="40.87607077837161" lon="9.350315211812248"><ele>328.0</ele><time>2026-05-01T07:40:24Z</time></trkpt><trkpt lat="40.87612339624667" lon="9.350221391088501"><ele>328.0</ele><time>2026-05-01T07:40:26Z</time></trkpt><trkpt lat="40.87618876279073" lon="9.350111732351069"><ele>328.0</ele><time>2026-05-01T07:40:28Z</time></trkpt><trkpt lat="40.8762478807076" lon="9.350047547061699"><ele>328.0</ele><time>2026-05-01T07:40:30Z</time></trkpt><trkpt lat="40.87629115446263" lon="9.34996716638512"><ele>328.0</ele><time>2026-05-01T07:40:33Z</time></trkpt><trkpt lat="40.87640391507355" lon="9.349856775824223"><ele>328.0</ele><time>2026-05-01T07:40:35Z</time></trkpt><trkpt lat="40.876464224535944" lon="9.349829892530641"><ele>328.0</ele><time>2026-05-01T07:40:36Z</time></trkpt><trkpt lat="40.87652887898624" lon="9.349800857082494"><ele>328.0</ele><time>2026-05-01T07:40:37Z</time></trkpt><trkpt lat="40.87663965652836" lon="9.349747252034643"><ele>328.0</ele><time>2026-05-01T07:40:39Z</time></trkpt><trkpt lat="40.876727081529374" lon="9.349691086984919"><ele>328.0</ele><time>2026-05-01T07:40:41Z</time></trkpt><trkpt lat="40.87683035157789" lon="9.349607059805876"><ele>328.0</ele><time>2026-05-01T07:40:43Z</time></trkpt><trkpt lat="40.87691406101852" lon="9.3495189086702"><ele>328.4</ele><time>2026-05-01T07:40:45Z</time></trkpt><trkpt lat="40.87697010831501" lon="9.349400746850833"><ele>328.79999999999995</ele><time>2026-05-01T07:40:47Z</time></trkpt><trkpt lat="40.87699064107474" lon="9.349261334831047"><ele>329.2</ele><time>2026-05-01T07:40:49Z</time></trkpt><trkpt lat="40.87700088799999" lon="9.349118487721977"><ele>329.6</ele><time>2026-05-01T07:40:51Z</time></trkpt><trkpt lat="40.876996348986964" lon="9.34897182356854"><ele>330.0</ele><time>2026-05-01T07:40:53Z</time></trkpt><trkpt lat="40.876994362181556" lon="9.34883406739885"><ele>329.2</ele><time>2026-05-01T07:40:55Z</time></trkpt><trkpt lat="40.87699621890301" lon="9.348698472576737"><ele>328.4</ele><time>2026-05-01T07:40:57Z</time></trkpt><trkpt lat="40.87700258124288" lon="9.348559508115228"><ele>327.6</ele><time>2026-05-01T07:40:59Z</time></trkpt><trkpt lat="40.877036903666244" lon="9.348440340671926"><ele>326.8</ele><time>2026-05-01T07:41:01Z</time></trkpt><trkpt lat="40.87709555441485" lon="9.3484009234462"><ele>326.0</ele><time>2026-05-01T07:41:02Z</time></trkpt><trkpt lat="40.87720823623703" lon="9.348359215786617"><ele>326.0</ele><time>2026-05-01T07:41:04Z</time></trkpt><trkpt lat="40.87731083794854" lon="9.348334610667866"><ele>326.0</ele><time>2026-05-01T07:41:06Z</time></trkpt><trkpt lat="40.877406591901355" lon="9.348325510415236"><ele>326.0</ele><time>2026-05-01T07:41:08Z</time></trkpt><trkpt lat="40.877502484188284" lon="9.348319759636976"><ele>326.0</ele><time>2026-05-01T07:41:10Z</time></trkpt><trkpt lat="40.877604016759776" lon="9.348320244032307"><ele>326.0</ele><time>2026-05-01T07:41:12Z</time></trkpt><trkpt lat="40.87770163174972" lon="9.348323097257738"><ele>326.8</ele><time>2026-05-01T07:41:14Z</time></trkpt><trkpt lat="40.87780183038106" lon="9.34831523478598"><ele>327.6</ele><time>2026-05-01T07:41:16Z</time></trkpt><trkpt lat="40.87790305706685" lon="9.348288759281617"><ele>328.4</ele><time>2026-05-01T07:41:18Z</time></trkpt><trkpt lat="40.87799871072138" lon="9.348236941178111"><ele>329.2</ele><time>2026-05-01T07:41:20Z</time></trkpt><trkpt lat="40.878076296889915" lon="9.348153610281283"><ele>330.0</ele><time>2026-05-01T07:41:22Z</time></trkpt><trkpt lat="40.87814021848582" lon="9.348047134802744"><ele>329.4</ele><time>2026-05-01T07:41:24Z</time></trkpt><trkpt lat="40.878188767130695" lon="9.347923402858147"><ele>328.8</ele><time>2026-05-01T07:41:26Z</time></trkpt><trkpt lat="40.8782259461234" lon="9.347793559046986"><ele>328.20000000000005</ele><time>2026-05-01T07:41:28Z</time></trkpt><trkpt lat="40.87825069179733" lon="9.347658373033173"><ele>327.6</ele><time>2026-05-01T07:41:30Z</time></trkpt><trkpt lat="40.8782716607203" lon="9.347525589239217"><ele>327.0</ele><time>2026-05-01T07:41:32Z</time></trkpt><trkpt lat="40.8782861490372" lon="9.347393561492437"><ele>327.0</ele><time>2026-05-01T07:41:34Z</time></trkpt><trkpt lat="40.87831043063116" lon="9.347262334519776"><ele>327.0</ele><time>2026-05-01T07:41:36Z</time></trkpt><trkpt lat="40.878323689863706" lon="9.347125097770546"><ele>327.0</ele><time>2026-05-01T07:41:38Z</time></trkpt><trkpt lat="40.87834206557312" lon="9.346995433680254"><ele>327.0</ele><time>2026-05-01T07:41:40Z</time></trkpt><trkpt lat="40.8783577188897" lon="9.346865187692835"><ele>327.0</ele><time>2026-05-01T07:41:42Z</time></trkpt><trkpt lat="40.87837286502437" lon="9.346729151171422"><ele>327.0</ele><time>2026-05-01T07:41:44Z</time></trkpt><trkpt lat="40.878411324479195" lon="9.34658696853822"><ele>327.0</ele><time>2026-05-01T07:41:47Z</time></trkpt><trkpt lat="40.878429487283604" lon="9.346394697000452"><ele>327.0</ele><time>2026-05-01T07:41:49Z</time></trkpt><trkpt lat="40.878446792712396" lon="9.346259978631169"><ele>327.0</ele><time>2026-05-01T07:41:51Z</time></trkpt><trkpt lat="40.87846302477054" lon="9.346119469282154"><ele>327.6</ele><time>2026-05-01T07:41:53Z</time></trkpt><trkpt lat="40.878475096930465" lon="9.345986384108528"><ele>328.20000000000005</ele><time>2026-05-01T07:41:55Z</time></trkpt><trkpt lat="40.878501840182444" lon="9.34585974063278"><ele>328.8</ele><time>2026-05-01T07:41:57Z</time></trkpt><trkpt lat="40.87850998323739" lon="9.345724151782523"><ele>329.4</ele><time>2026-05-01T07:41:59Z</time></trkpt><trkpt lat="40.878523813848744" lon="9.345584887294752"><ele>330.0</ele><time>2026-05-01T07:42:01Z</time></trkpt><trkpt lat="40.87854144090129" lon="9.34545070975074"><ele>330.0</ele><time>2026-05-01T07:42:03Z</time></trkpt><trkpt lat="40.8785569906193" lon="9.345321242138262"><ele>330.0</ele><time>2026-05-01T07:42:05Z</time></trkpt><trkpt lat="40.87857530315772" lon="9.345190483804757"><ele>330.0</ele><time>2026-05-01T07:42:07Z</time></trkpt><trkpt lat="40.87857278683515" lon="9.345042339295452"><ele>330.0</ele><time>2026-05-01T07:42:09Z</time></trkpt><trkpt lat="40.878587897225735" lon="9.344911228953107"><ele>330.0</ele><time>2026-05-01T07:42:11Z</time></trkpt><trkpt lat="40.878604357949776" lon="9.344788981740434"><ele>329.6</ele><time>2026-05-01T07:42:13Z</time></trkpt><trkpt lat="40.87862017523377" lon="9.344664297215221"><ele>329.2</ele><time>2026-05-01T07:42:15Z</time></trkpt><trkpt lat="40.87863848026332" lon="9.344534650557957"><ele>328.79999999999995</ele><time>2026-05-01T07:42:17Z</time></trkpt><trkpt lat="40.878654507594575" lon="9.34440742352845"><ele>328.4</ele><time>2026-05-01T07:42:19Z</time></trkpt><trkpt lat="40.87867258817708" lon="9.344282246188445"><ele>328.0</ele><time>2026-05-01T07:42:21Z</time></trkpt><trkpt lat="40.8786889590944" lon="9.344160938148027"><ele>328.0</ele><time>2026-05-01T07:42:23Z</time></trkpt><trkpt lat="40.87870985866603" lon="9.344028766228154"><ele>328.0</ele><time>2026-05-01T07:42:25Z</time></trkpt><trkpt lat="40.8787245201474" lon="9.343908278566305"><ele>328.0</ele><time>2026-05-01T07:42:27Z</time></trkpt><trkpt lat="40.87874258643717" lon="9.343783438806174"><ele>328.0</ele><time>2026-05-01T07:42:29Z</time></trkpt><trkpt lat="40.87876175783544" lon="9.343650555449361"><ele>328.0</ele><time>2026-05-01T07:42:31Z</time></trkpt><trkpt lat="40.87877945662091" lon="9.343520705316076"><ele>328.0</ele><time>2026-05-01T07:42:33Z</time></trkpt><trkpt lat="40.87879880203711" lon="9.343394072640004"><ele>328.0</ele><time>2026-05-01T07:42:35Z</time></trkpt><trkpt lat="40.8788132777324" lon="9.343267720440563"><ele>328.0</ele><time>2026-05-01T07:42:37Z</time></trkpt><trkpt lat="40.87882689279326" lon="9.343140233620698"><ele>328.0</ele><time>2026-05-01T07:42:39Z</time></trkpt><trkpt lat="40.878843794359376" lon="9.343009610366193"><ele>328.0</ele><time>2026-05-01T07:42:41Z</time></trkpt><trkpt lat="40.87886216383297" lon="9.342880266525542"><ele>329.2</ele><time>2026-05-01T07:42:43Z</time></trkpt><trkpt lat="40.87889061598449" lon="9.3427636635134"><ele>330.4</ele><time>2026-05-01T07:42:45Z</time></trkpt><trkpt lat="40.87891009253817" lon="9.342639203986016"><ele>331.59999999999997</ele><time>2026-05-01T07:42:47Z</time></trkpt><trkpt lat="40.878921141693084" lon="9.342519361635864"><ele>332.79999999999995</ele><time>2026-05-01T07:42:49Z</time></trkpt><trkpt lat="40.878933978671824" lon="9.342399969673668"><ele>334.0</ele><time>2026-05-01T07:42:51Z</time></trkpt><trkpt lat="40.87894879125245" lon="9.342279776756993"><ele>334.3333333333333</ele><time>2026-05-01T07:42:53Z</time></trkpt><trkpt lat="40.8789620052334" lon="9.342171444447208"><ele>334.66666666666663</ele><time>2026-05-01T07:42:55Z</time></trkpt><trkpt lat="40.878972385836605" lon="9.34205971875999"><ele>335.0</ele><time>2026-05-01T07:42:57Z</time></trkpt><trkpt lat="40.87899336185161" lon="9.341958012751626"><ele>335.3333333333333</ele><time>2026-05-01T07:42:59Z</time></trkpt><trkpt lat="40.87902399523461" lon="9.341863805312508"><ele>335.6666666666667</ele><time>2026-05-01T07:43:01Z</time></trkpt><trkpt lat="40.87903701244445" lon="9.341762394033271"><ele>336.0</ele><time>2026-05-01T07:43:03Z</time></trkpt><trkpt lat="40.87904697270263" lon="9.341653239871741"><ele>336.0</ele><time>2026-05-01T07:43:06Z</time></trkpt><trkpt lat="40.87907370833602" lon="9.341514607944154"><ele>336.0</ele><time>2026-05-01T07:43:10Z</time></trkpt><trkpt lat="40.87908969457121" lon="9.341431696507946"><ele>336.0</ele><time>2026-05-01T07:43:13Z</time></trkpt><trkpt lat="40.87910955204231" lon="9.341293801407614"><ele>336.0</ele><time>2026-05-01T07:43:16Z</time></trkpt><trkpt lat="40.87914063325923" lon="9.341176473429085"><ele>336.0</ele><time>2026-05-01T07:43:19Z</time></trkpt><trkpt lat="40.87915111929205" lon="9.341055139106158"><ele>336.1666666666667</ele><time>2026-05-01T07:43:22Z</time></trkpt><trkpt lat="40.87916945348853" lon="9.34096386935504"><ele>336.3333333333333</ele><time>2026-05-01T07:43:25Z</time></trkpt><trkpt lat="40.87918254036732" lon="9.34081521326026"><ele>336.5</ele><time>2026-05-01T07:43:28Z</time></trkpt><trkpt lat="40.879191203606425" lon="9.340720712184003"><ele>336.66666666666663</ele><time>2026-05-01T07:43:31Z</time></trkpt><trkpt lat="40.87919057532163" lon="9.340582188819923"><ele>336.8333333333333</ele><time>2026-05-01T07:43:34Z</time></trkpt><trkpt lat="40.879190688059204" lon="9.340495764864432"><ele>337.0</ele><time>2026-05-01T07:43:36Z</time></trkpt><trkpt lat="40.87918725349025" lon="9.340402973253074"><ele>337.66666666666663</ele><time>2026-05-01T07:43:39Z</time></trkpt><trkpt lat="40.87918026790571" lon="9.340311925123416"><ele>338.3333333333333</ele><time>2026-05-01T07:43:41Z</time></trkpt><trkpt lat="40.879179386520626" lon="9.340213360469695"><ele>339.0</ele><time>2026-05-01T07:43:43Z</time></trkpt><trkpt lat="40.879179483915735" lon="9.34011613181846"><ele>339.6666666666667</ele><time>2026-05-01T07:43:45Z</time></trkpt><trkpt lat="40.879178365265304" lon="9.339975542052123"><ele>340.33333333333337</ele><time>2026-05-01T07:43:48Z</time></trkpt><trkpt lat="40.879170762624874" lon="9.339880216785973"><ele>341.0</ele><time>2026-05-01T07:43:50Z</time></trkpt><trkpt lat="40.879159954084066" lon="9.339786151161682"><ele>341.85714285714283</ele><time>2026-05-01T07:43:52Z</time></trkpt><trkpt lat="40.87914762516287" lon="9.33968880163487"><ele>342.7142857142857</ele><time>2026-05-01T07:43:55Z</time></trkpt><trkpt lat="40.87914274825351" lon="9.339602745996741"><ele>343.57142857142856</ele><time>2026-05-01T07:43:56Z</time></trkpt><trkpt lat="40.879132648097325" lon="9.33951335582718"><ele>344.42857142857144</ele><time>2026-05-01T07:43:58Z</time></trkpt><trkpt lat="40.879133441585836" lon="9.339416490316207"><ele>345.2857142857143</ele><time>2026-05-01T07:44:00Z</time></trkpt><trkpt lat="40.87912884906686" lon="9.339312560891395"><ele>346.14285714285717</ele><time>2026-05-01T07:44:02Z</time></trkpt><trkpt lat="40.87911214760422" lon="9.339232266031399"><ele>347.0</ele><time>2026-05-01T07:44:03Z</time></trkpt><trkpt lat="40.87910201582034" lon="9.339131624820421"><ele>347.0</ele><time>2026-05-01T07:44:05Z</time></trkpt><trkpt lat="40.87909866970304" lon="9.339043885431689"><ele>347.0</ele><time>2026-05-01T07:44:07Z</time></trkpt><trkpt lat="40.87909618968086" lon="9.338940186816172"><ele>347.0</ele><time>2026-05-01T07:44:09Z</time></trkpt><trkpt lat="40.87910920817302" lon="9.33905171789171"><ele>347.0</ele><time>2026-05-01T07:44:10Z</time></trkpt><trkpt lat="40.87912581996815" lon="9.33896869701903"><ele>347.0</ele><time>2026-05-01T07:44:12Z</time></trkpt><trkpt lat="40.87912031454774" lon="9.338860034079548"><ele>347.0</ele><time>2026-05-01T07:44:14Z</time></trkpt><trkpt lat="40.879121550713876" lon="9.33872827290333"><ele>346.5</ele><time>2026-05-01T07:44:16Z</time></trkpt><trkpt lat="40.87913967550576" lon="9.338642463605957"><ele>346.0</ele><time>2026-05-01T07:44:18Z</time></trkpt><trkpt lat="40.87917330946058" lon="9.338568500064223"><ele>345.5</ele><time>2026-05-01T07:44:20Z</time></trkpt><trkpt lat="40.87924894369031" lon="9.338499925315611"><ele>345.0</ele><time>2026-05-01T07:44:23Z</time></trkpt><trkpt lat="40.879311652907546" lon="9.338455215497307"><ele>344.5</ele><time>2026-05-01T07:44:24Z</time></trkpt><trkpt lat="40.87939404971409" lon="9.338407962351464"><ele>344.0</ele><time>2026-05-01T07:44:28Z</time></trkpt><trkpt lat="40.879455831287984" lon="9.338379479480825"><ele>345.6</ele><time>2026-05-01T07:44:30Z</time></trkpt><trkpt lat="40.87952458235807" lon="9.338346990722247"><ele>347.2</ele><time>2026-05-01T07:44:32Z</time></trkpt><trkpt lat="40.87960513307655" lon="9.33830294849352"><ele>348.8</ele><time>2026-05-01T07:44:34Z</time></trkpt><trkpt lat="40.87971130523593" lon="9.33824388055733"><ele>350.40000000000003</ele><time>2026-05-01T07:44:37Z</time></trkpt><trkpt lat="40.879808972492626" lon="9.338196391685004"><ele>352.0</ele><time>2026-05-01T07:44:40Z</time></trkpt><trkpt lat="40.879898983172225" lon="9.338147899030416"><ele>352.0</ele><time>2026-05-01T07:44:43Z</time></trkpt><trkpt lat="40.87995774752692" lon="9.338093490406383"><ele>352.0</ele><time>2026-05-01T07:44:45Z</time></trkpt><trkpt lat="40.88001767891275" lon="9.338057335770216"><ele>352.0</ele><time>2026-05-01T07:44:47Z</time></trkpt><trkpt lat="40.88009757617145" lon="9.337982990781184"><ele>352.0</ele><time>2026-05-01T07:44:49Z</time></trkpt><trkpt lat="40.88016448979475" lon="9.337932213443358"><ele>352.0</ele><time>2026-05-01T07:44:51Z</time></trkpt><trkpt lat="40.88022651087603" lon="9.337873675978651"><ele>352.0</ele><time>2026-05-01T07:44:53Z</time></trkpt><trkpt lat="40.88028841238616" lon="9.337831077378596"><ele>352.7142857142857</ele><time>2026-05-01T07:44:55Z</time></trkpt><trkpt lat="40.88034595981335" lon="9.337777319890442"><ele>353.42857142857144</ele><time>2026-05-01T07:44:57Z</time></trkpt><trkpt lat="40.880399476639916" lon="9.337731759005115"><ele>354.1428571428571</ele><time>2026-05-01T07:44:59Z</time></trkpt><trkpt lat="40.880459070781896" lon="9.3376863314217"><ele>354.8571428571429</ele><time>2026-05-01T07:45:01Z</time></trkpt><trkpt lat="40.88051497744444" lon="9.3376312775328"><ele>355.57142857142856</ele><time>2026-05-01T07:45:03Z</time></trkpt><trkpt lat="40.88057150242445" lon="9.33758532515529"><ele>356.2857142857143</ele><time>2026-05-01T07:45:05Z</time></trkpt><trkpt lat="40.88062787787346" lon="9.337537997674904"><ele>357.0</ele><time>2026-05-01T07:45:07Z</time></trkpt><trkpt lat="40.88068861961225" lon="9.337482197705032"><ele>357.0</ele><time>2026-05-01T07:45:10Z</time></trkpt><trkpt lat="40.88076485066155" lon="9.3374202550904"><ele>357.0</ele><time>2026-05-01T07:45:13Z</time></trkpt><trkpt lat="40.88086813240232" lon="9.337352013803963"><ele>357.0</ele><time>2026-05-01T07:45:16Z</time></trkpt><trkpt lat="40.88094436646994" lon="9.337312298483425"><ele>357.0</ele><time>2026-05-01T07:45:19Z</time></trkpt><trkpt lat="40.88102521774201" lon="9.337275516252006"><ele>357.0</ele><time>2026-05-01T07:45:22Z</time></trkpt><trkpt lat="40.88110557109817" lon="9.33724051369151"><ele>357.40000000000003</ele><time>2026-05-01T07:45:25Z</time></trkpt><trkpt lat="40.88121015082291" lon="9.337183617999779"><ele>357.8</ele><time>2026-05-01T07:45:27Z</time></trkpt><trkpt lat="40.88130947282465" lon="9.337154597150262"><ele>358.2</ele><time>2026-05-01T07:45:29Z</time></trkpt><trkpt lat="40.88139310921017" lon="9.33712652476798"><ele>358.6</ele><time>2026-05-01T07:45:32Z</time></trkpt><trkpt lat="40.881471408210174" lon="9.337098355434788"><ele>359.0</ele><time>2026-05-01T07:45:34Z</time></trkpt><trkpt lat="40.88155142161531" lon="9.33707313194671"><ele>359.0</ele><time>2026-05-01T07:45:37Z</time></trkpt><trkpt lat="40.88165500180293" lon="9.337034952679486"><ele>359.0</ele><time>2026-05-01T07:45:40Z</time></trkpt><trkpt lat="40.881742849148054" lon="9.336986781879402"><ele>359.0</ele><time>2026-05-01T07:45:43Z</time></trkpt><trkpt lat="40.88182573706926" lon="9.336949000579148"><ele>359.0</ele><time>2026-05-01T07:45:46Z</time></trkpt><trkpt lat="40.88191262937262" lon="9.33690799855983"><ele>359.0</ele><time>2026-05-01T07:45:48Z</time></trkpt><trkpt lat="40.881978674861145" lon="9.336898847620537"><ele>359.0</ele><time>2026-05-01T07:45:50Z</time></trkpt><trkpt lat="40.88205760741736" lon="9.33687945166325"><ele>359.83333333333337</ele><time>2026-05-01T07:45:52Z</time></trkpt><trkpt lat="40.882139585118075" lon="9.336849842130748"><ele>360.6666666666667</ele><time>2026-05-01T07:45:54Z</time></trkpt><trkpt lat="40.88221474440896" lon="9.336819660279696"><ele>361.5</ele><time>2026-05-01T07:45:56Z</time></trkpt><trkpt lat="40.88228217534316" lon="9.33678214306513"><ele>362.3333333333333</ele><time>2026-05-01T07:45:58Z</time></trkpt><trkpt lat="40.88235703643568" lon="9.336763612923098"><ele>363.16666666666663</ele><time>2026-05-01T07:46:00Z</time></trkpt><trkpt lat="40.8824228148784" lon="9.336739257992644"><ele>364.0</ele><time>2026-05-01T07:46:02Z</time></trkpt><trkpt lat="40.88249017165928" lon="9.336716332810845"><ele>364.0</ele><time>2026-05-01T07:46:04Z</time></trkpt><trkpt lat="40.88256388571051" lon="9.336695401360206"><ele>364.0</ele><time>2026-05-01T07:46:06Z</time></trkpt><trkpt lat="40.88263125777697" lon="9.33668335063061"><ele>364.0</ele><time>2026-05-01T07:46:08Z</time></trkpt><trkpt lat="40.88270618334922" lon="9.336663343361995"><ele>364.0</ele><time>2026-05-01T07:46:10Z</time></trkpt><trkpt lat="40.88278199241474" lon="9.336650922032538"><ele>364.0</ele><time>2026-05-01T07:46:12Z</time></trkpt><trkpt lat="40.88285561799153" lon="9.336641005710478"><ele>364.0</ele><time>2026-05-01T07:46:14Z</time></trkpt><trkpt lat="40.88292625160339" lon="9.33662962081333"><ele>364.0</ele><time>2026-05-01T07:46:16Z</time></trkpt><trkpt lat="40.882996876102695" lon="9.336611589751852"><ele>364.57142857142856</ele><time>2026-05-01T07:46:18Z</time></trkpt><trkpt lat="40.88306364565356" lon="9.336604273964909"><ele>365.1428571428571</ele><time>2026-05-01T07:46:20Z</time></trkpt><trkpt lat="40.883129816714536" lon="9.336588084042669"><ele>365.7142857142857</ele><time>2026-05-01T07:46:22Z</time></trkpt><trkpt lat="40.883192491928625" lon="9.336574747266416"><ele>366.2857142857143</ele><time>2026-05-01T07:46:24Z</time></trkpt><trkpt lat="40.88325892921448" lon="9.336544081985943"><ele>366.85714285714283</ele><time>2026-05-01T07:46:26Z</time></trkpt><trkpt lat="40.8833245116575" lon="9.336494664247944"><ele>367.42857142857144</ele><time>2026-05-01T07:46:28Z</time></trkpt><trkpt lat="40.88338435562746" lon="9.336438355915224"><ele>368.0</ele><time>2026-05-01T07:46:30Z</time></trkpt><trkpt lat="40.88346259006268" lon="9.336375515873492"><ele>368.0</ele><time>2026-05-01T07:46:33Z</time></trkpt><trkpt lat="40.88353122764243" lon="9.336292377257589"><ele>368.0</ele><time>2026-05-01T07:46:36Z</time></trkpt><trkpt lat="40.88358388526071" lon="9.336208037148772"><ele>368.0</ele><time>2026-05-01T07:46:38Z</time></trkpt><trkpt lat="40.88364139846813" lon="9.336125095110173"><ele>368.0</ele><time>2026-05-01T07:46:41Z</time></trkpt><trkpt lat="40.883707389362975" lon="9.336047781328617"><ele>368.0</ele><time>2026-05-01T07:46:44Z</time></trkpt><trkpt lat="40.88377432933387" lon="9.335986898165277"><ele>368.0</ele><time>2026-05-01T07:46:46Z</time></trkpt><trkpt lat="40.883853071985264" lon="9.335948399200861"><ele>368.0</ele><time>2026-05-01T07:46:49Z</time></trkpt><trkpt lat="40.883929592219985" lon="9.335922390912522"><ele>368.0</ele><time>2026-05-01T07:46:51Z</time></trkpt><trkpt lat="40.884017620930514" lon="9.335909607434726"><ele>368.0</ele><time>2026-05-01T07:46:54Z</time></trkpt><trkpt lat="40.88408551636187" lon="9.335914007035012"><ele>368.0</ele><time>2026-05-01T07:46:56Z</time></trkpt><trkpt lat="40.884153067266844" lon="9.335918095219267"><ele>368.0</ele><time>2026-05-01T07:46:58Z</time></trkpt><trkpt lat="40.88423531704639" lon="9.335933351758893"><ele>368.0</ele><time>2026-05-01T07:46:59Z</time></trkpt><trkpt lat="40.884301431058276" lon="9.335940717535438"><ele>367.0</ele><time>2026-05-01T07:47:01Z</time></trkpt><trkpt lat="40.88439103713303" lon="9.335948175261882"><ele>366.0</ele><time>2026-05-01T07:47:03Z</time></trkpt><trkpt lat="40.884480722286376" lon="9.335939576348906"><ele>365.0</ele><time>2026-05-01T07:47:04Z</time></trkpt><trkpt lat="40.88454257208115" lon="9.335915131076643"><ele>364.0</ele><time>2026-05-01T07:47:05Z</time></trkpt><trkpt lat="40.88465309893025" lon="9.335855837683573"><ele>363.0</ele><time>2026-05-01T07:47:07Z</time></trkpt><trkpt lat="40.88471508334422" lon="9.335835646716347"><ele>362.0</ele><time>2026-05-01T07:47:08Z</time></trkpt><trkpt lat="40.884771249278465" lon="9.33578681683601"><ele>362.0</ele><time>2026-05-01T07:47:09Z</time></trkpt><trkpt lat="40.884825843578184" lon="9.335731248527207"><ele>362.0</ele><time>2026-05-01T07:47:10Z</time></trkpt><trkpt lat="40.884878309182426" lon="9.335669373310168"><ele>362.0</ele><time>2026-05-01T07:47:11Z</time></trkpt><trkpt lat="40.884928736381404" lon="9.335609654095283"><ele>362.0</ele><time>2026-05-01T07:47:12Z</time></trkpt><trkpt lat="40.8849825142978" lon="9.335542749802498"><ele>362.0</ele><time>2026-05-01T07:47:13Z</time></trkpt><trkpt lat="40.885036165982555" lon="9.335472498720291"><ele>362.0</ele><time>2026-05-01T07:47:14Z</time></trkpt><trkpt lat="40.88507437003889" lon="9.335388112972849"><ele>362.0</ele><time>2026-05-01T07:47:15Z</time></trkpt><trkpt lat="40.88513280902029" lon="9.335329378205628"><ele>361.85714285714283</ele><time>2026-05-01T07:47:16Z</time></trkpt><trkpt lat="40.88517462149708" lon="9.335254531661873"><ele>361.71428571428567</ele><time>2026-05-01T07:47:17Z</time></trkpt><trkpt lat="40.88521037837457" lon="9.335169755118969"><ele>361.57142857142856</ele><time>2026-05-01T07:47:18Z</time></trkpt><trkpt lat="40.8852309304456" lon="9.335072906638802"><ele>361.42857142857144</ele><time>2026-05-01T07:47:19Z</time></trkpt><trkpt lat="40.88524623477408" lon="9.334982172568562"><ele>361.2857142857143</ele><time>2026-05-01T07:47:20Z</time></trkpt><trkpt lat="40.88524350972638" lon="9.334885811745915"><ele>361.14285714285717</ele><time>2026-05-01T07:47:21Z</time></trkpt><trkpt lat="40.88525928837678" lon="9.33479419094828"><ele>361.0</ele><time>2026-05-01T07:47:22Z</time></trkpt><trkpt lat="40.88527508507237" lon="9.334708840242635"><ele>361.0</ele><time>2026-05-01T07:47:23Z</time></trkpt><trkpt lat="40.885287908471156" lon="9.334616616917764"><ele>361.0</ele><time>2026-05-01T07:47:24Z</time></trkpt><trkpt lat="40.88531040762808" lon="9.334530927440417"><ele>361.0</ele><time>2026-05-01T07:47:25Z</time></trkpt><trkpt lat="40.88533063853148" lon="9.334444023008821"><ele>361.0</ele><time>2026-05-01T07:47:26Z</time></trkpt><trkpt lat="40.88535774794759" lon="9.334363071179776"><ele>361.0</ele><time>2026-05-01T07:47:27Z</time></trkpt><trkpt lat="40.88538732696582" lon="9.334285139785303"><ele>361.0</ele><time>2026-05-01T07:47:28Z</time></trkpt><trkpt lat="40.88545481886262" lon="9.334144661273378"><ele>361.0</ele><time>2026-05-01T07:47:30Z</time></trkpt><trkpt lat="40.88552962702887" lon="9.334023010038777"><ele>361.0</ele><time>2026-05-01T07:47:32Z</time></trkpt><trkpt lat="40.88560222841132" lon="9.333912237360375"><ele>361.0</ele><time>2026-05-01T07:47:34Z</time></trkpt><trkpt lat="40.88567402596762" lon="9.333812429846992"><ele>361.0</ele><time>2026-05-01T07:47:36Z</time></trkpt><trkpt lat="40.88574637339096" lon="9.333710057339255"><ele>361.0</ele><time>2026-05-01T07:47:38Z</time></trkpt><trkpt lat="40.88582971667716" lon="9.333609951954166"><ele>361.6</ele><time>2026-05-01T07:47:40Z</time></trkpt><trkpt lat="40.88591199108621" lon="9.333504711479215"><ele>362.20000000000005</ele><time>2026-05-01T07:47:42Z</time></trkpt><trkpt lat="40.88599339860675" lon="9.333400348185911"><ele>362.79999999999995</ele><time>2026-05-01T07:47:44Z</time></trkpt><trkpt lat="40.88607034878497" lon="9.333293100241296"><ele>363.4</ele><time>2026-05-01T07:47:46Z</time></trkpt><trkpt lat="40.886144982842666" lon="9.333191343927552"><ele>364.0</ele><time>2026-05-01T07:47:48Z</time></trkpt><trkpt lat="40.886216989013654" lon="9.333096725851988"><ele>364.6</ele><time>2026-05-01T07:47:50Z</time></trkpt><trkpt lat="40.88628676803114" lon="9.33300028080264"><ele>365.2</ele><time>2026-05-01T07:47:52Z</time></trkpt><trkpt lat="40.88635698568659" lon="9.332905212116824"><ele>365.8</ele><time>2026-05-01T07:47:54Z</time></trkpt><trkpt lat="40.88642893484562" lon="9.332812741996277"><ele>366.40000000000003</ele><time>2026-05-01T07:47:56Z</time></trkpt><trkpt lat="40.88649383714957" lon="9.332722736273313"><ele>367.0</ele><time>2026-05-01T07:47:58Z</time></trkpt><trkpt lat="40.886562464226664" lon="9.332640114840599"><ele>367.0</ele><time>2026-05-01T07:48:00Z</time></trkpt><trkpt lat="40.886636848358805" lon="9.332551949140845"><ele>367.0</ele><time>2026-05-01T07:48:02Z</time></trkpt><trkpt lat="40.88671516022547" lon="9.332463247882941"><ele>367.0</ele><time>2026-05-01T07:48:04Z</time></trkpt><trkpt lat="40.886775931855226" lon="9.332411287439138"><ele>367.0</ele><time>2026-05-01T07:48:05Z</time></trkpt><trkpt lat="40.88686997719033" lon="9.332370158113697"><ele>367.0</ele><time>2026-05-01T07:48:07Z</time></trkpt><trkpt lat="40.886891346763875" lon="9.332289964060195"><ele>367.0</ele><time>2026-05-01T07:48:08Z</time></trkpt><trkpt lat="40.886981030708746" lon="9.33219625495224"><ele>366.40000000000003</ele><time>2026-05-01T07:48:10Z</time></trkpt><trkpt lat="40.8870593368338" lon="9.332093382400176"><ele>365.8</ele><time>2026-05-01T07:48:12Z</time></trkpt><trkpt lat="40.88714671238353" lon="9.331990969021861"><ele>365.2</ele><time>2026-05-01T07:48:14Z</time></trkpt><trkpt lat="40.887239435568986" lon="9.331882954727122"><ele>364.6</ele><time>2026-05-01T07:48:16Z</time></trkpt><trkpt lat="40.887289215834194" lon="9.33183039369413"><ele>364.0</ele><time>2026-05-01T07:48:17Z</time></trkpt><trkpt lat="40.887378620176015" lon="9.331715466608538"><ele>364.0</ele><time>2026-05-01T07:48:19Z</time></trkpt><trkpt lat="40.887426118732066" lon="9.331654628933299"><ele>364.0</ele><time>2026-05-01T07:48:20Z</time></trkpt><trkpt lat="40.88747606822942" lon="9.331596529856911"><ele>364.0</ele><time>2026-05-01T07:48:21Z</time></trkpt><trkpt lat="40.887528100742884" lon="9.331541138700562"><ele>364.0</ele><time>2026-05-01T07:48:22Z</time></trkpt><trkpt lat="40.88757694726929" lon="9.331481539134789"><ele>364.0</ele><time>2026-05-01T07:48:23Z</time></trkpt><trkpt lat="40.88766879084748" lon="9.331371804867485"><ele>364.0</ele><time>2026-05-01T07:48:25Z</time></trkpt><trkpt lat="40.88776590229247" lon="9.33125758492096"><ele>363.79999999999995</ele><time>2026-05-01T07:48:27Z</time></trkpt><trkpt lat="40.88785263694351" lon="9.331150637168879"><ele>363.59999999999997</ele><time>2026-05-01T07:48:29Z</time></trkpt><trkpt lat="40.88793614117324" lon="9.331050298075077"><ele>363.4</ele><time>2026-05-01T07:48:31Z</time></trkpt><trkpt lat="40.88801502804161" lon="9.33095838860798"><ele>363.2</ele><time>2026-05-01T07:48:33Z</time></trkpt><trkpt lat="40.888091234785385" lon="9.330871411653057"><ele>363.0</ele><time>2026-05-01T07:48:35Z</time></trkpt><trkpt lat="40.88817456312773" lon="9.330777831478658"><ele>363.0</ele><time>2026-05-01T07:48:37Z</time></trkpt><trkpt lat="40.88826318743835" lon="9.330697801040388"><ele>363.0</ele><time>2026-05-01T07:48:39Z</time></trkpt><trkpt lat="40.88836370698367" lon="9.330632566638611"><ele>363.0</ele><time>2026-05-01T07:48:41Z</time></trkpt><trkpt lat="40.88847359215588" lon="9.330591062042137"><ele>363.0</ele><time>2026-05-01T07:48:43Z</time></trkpt><trkpt lat="40.888594409345735" lon="9.330600246873976"><ele>362.0</ele><time>2026-05-01T07:48:45Z</time></trkpt><trkpt lat="40.888705958273405" lon="9.330659224511276"><ele>361.0</ele><time>2026-05-01T07:48:47Z</time></trkpt><trkpt lat="40.88876339449741" lon="9.330693623082695"><ele>360.0</ele><time>2026-05-01T07:48:48Z</time></trkpt><trkpt lat="40.888879033055574" lon="9.330733320095426"><ele>359.0</ele><time>2026-05-01T07:48:50Z</time></trkpt><trkpt lat="40.888999582152785" lon="9.33070694991992"><ele>358.0</ele><time>2026-05-01T07:48:52Z</time></trkpt><trkpt lat="40.88910151197816" lon="9.330601460428246"><ele>358.00000000000006</ele><time>2026-05-01T07:48:54Z</time></trkpt><trkpt lat="40.88914347235384" lon="9.330529575901979"><ele>358.0</ele><time>2026-05-01T07:48:55Z</time></trkpt><trkpt lat="40.88918491744461" lon="9.330457013773989"><ele>358.0</ele><time>2026-05-01T07:48:56Z</time></trkpt><trkpt lat="40.889226526294834" lon="9.330387559756355"><ele>358.0</ele><time>2026-05-01T07:48:57Z</time></trkpt><trkpt lat="40.88926865288338" lon="9.330318401549645"><ele>358.0</ele><time>2026-05-01T07:48:58Z</time></trkpt><trkpt lat="40.88930892346392" lon="9.330250901199719"><ele>358.00000000000006</ele><time>2026-05-01T07:48:59Z</time></trkpt><trkpt lat="40.88935005339758" lon="9.330176307463677"><ele>358.0</ele><time>2026-05-01T07:49:00Z</time></trkpt><trkpt lat="40.88939143943354" lon="9.330102741272373"><ele>358.00000000000006</ele><time>2026-05-01T07:49:01Z</time></trkpt><trkpt lat="40.889433446625205" lon="9.33003136287416"><ele>358.0</ele><time>2026-05-01T07:49:02Z</time></trkpt><trkpt lat="40.889466653940346" lon="9.329952248603565"><ele>358.0</ele><time>2026-05-01T07:49:03Z</time></trkpt><trkpt lat="40.88948058879336" lon="9.329862948382349"><ele>358.0</ele><time>2026-05-01T07:49:04Z</time></trkpt><trkpt lat="40.88950579715594" lon="9.32977903371152"><ele>358.0</ele><time>2026-05-01T07:49:05Z</time></trkpt><trkpt lat="40.88952388645218" lon="9.32969256620039"><ele>358.00000000000006</ele><time>2026-05-01T07:49:06Z</time></trkpt><trkpt lat="40.889538927030316" lon="9.329606820575757"><ele>358.0</ele><time>2026-05-01T07:49:07Z</time></trkpt><trkpt lat="40.8895557192642" lon="9.32951903970285"><ele>357.5714285714286</ele><time>2026-05-01T07:49:08Z</time></trkpt><trkpt lat="40.889574560206945" lon="9.32943050447227"><ele>357.14285714285717</ele><time>2026-05-01T07:49:09Z</time></trkpt><trkpt lat="40.88959350174933" lon="9.329343268129676"><ele>356.7142857142857</ele><time>2026-05-01T07:49:10Z</time></trkpt><trkpt lat="40.88961564375283" lon="9.329255187443493"><ele>356.28571428571433</ele><time>2026-05-01T07:49:11Z</time></trkpt><trkpt lat="40.889636921803685" lon="9.329168219403604"><ele>355.8571428571429</ele><time>2026-05-01T07:49:12Z</time></trkpt><trkpt lat="40.88966116662701" lon="9.32908174392781"><ele>355.42857142857144</ele><time>2026-05-01T07:49:13Z</time></trkpt><trkpt lat="40.88968919827876" lon="9.328993182771836"><ele>355.0</ele><time>2026-05-01T07:49:14Z</time></trkpt><trkpt lat="40.88970764548943" lon="9.328910075537056"><ele>355.1428571428571</ele><time>2026-05-01T07:49:15Z</time></trkpt><trkpt lat="40.889732399887734" lon="9.328825330265685"><ele>355.2857142857143</ele><time>2026-05-01T07:49:16Z</time></trkpt><trkpt lat="40.88975827934433" lon="9.328748399878513"><ele>355.42857142857144</ele><time>2026-05-01T07:49:17Z</time></trkpt><trkpt lat="40.88978160692205" lon="9.328668639927743"><ele>355.57142857142856</ele><time>2026-05-01T07:49:18Z</time></trkpt><trkpt lat="40.88981649427781" lon="9.328598002536427"><ele>355.7142857142857</ele><time>2026-05-01T07:49:19Z</time></trkpt><trkpt lat="40.88983510851616" lon="9.328514973272346"><ele>355.85714285714283</ele><time>2026-05-01T07:49:20Z</time></trkpt><trkpt lat="40.889867608000664" lon="9.32836744621342"><ele>356.0</ele><time>2026-05-01T07:49:22Z</time></trkpt><trkpt lat="40.88992437085243" lon="9.328230209191762"><ele>356.0</ele><time>2026-05-01T07:49:24Z</time></trkpt><trkpt lat="40.88997017588403" lon="9.328101741543357"><ele>356.0</ele><time>2026-05-01T07:49:26Z</time></trkpt><trkpt lat="40.89001134383155" lon="9.327963859026342"><ele>356.0</ele><time>2026-05-01T07:49:28Z</time></trkpt><trkpt lat="40.89005035963714" lon="9.327833766493466"><ele>356.0</ele><time>2026-05-01T07:49:30Z</time></trkpt><trkpt lat="40.890089193379154" lon="9.327709454656103"><ele>356.0</ele><time>2026-05-01T07:49:32Z</time></trkpt><trkpt lat="40.89013122383489" lon="9.327579670323217"><ele>355.20000000000005</ele><time>2026-05-01T07:49:34Z</time></trkpt><trkpt lat="40.89017474629486" lon="9.327450879866687"><ele>354.40000000000003</ele><time>2026-05-01T07:49:36Z</time></trkpt><trkpt lat="40.890220326384416" lon="9.327327049226371"><ele>353.6</ele><time>2026-05-01T07:49:38Z</time></trkpt><trkpt lat="40.89026805355692" lon="9.327196584931762"><ele>352.8</ele><time>2026-05-01T07:49:40Z</time></trkpt><trkpt lat="40.890323155388025" lon="9.327074341761962"><ele>352.0</ele><time>2026-05-01T07:49:42Z</time></trkpt><trkpt lat="40.890379401456954" lon="9.3269605045121"><ele>353.6</ele><time>2026-05-01T07:49:44Z</time></trkpt><trkpt lat="40.890439864860454" lon="9.326858597894516"><ele>355.20000000000005</ele><time>2026-05-01T07:49:46Z</time></trkpt><trkpt lat="40.89050256848383" lon="9.326758397469163"><ele>356.8</ele><time>2026-05-01T07:49:48Z</time></trkpt><trkpt lat="40.89056812848086" lon="9.326654426214867"><ele>358.4</ele><time>2026-05-01T07:49:50Z</time></trkpt><trkpt lat="40.89063625057329" lon="9.32654720292863"><ele>360.0</ele><time>2026-05-01T07:49:52Z</time></trkpt><trkpt lat="40.89069874933537" lon="9.326435572607751"><ele>360.8</ele><time>2026-05-01T07:49:54Z</time></trkpt><trkpt lat="40.89076401907948" lon="9.326323824060855"><ele>361.6</ele><time>2026-05-01T07:49:56Z</time></trkpt><trkpt lat="40.89082539643884" lon="9.326212806142678"><ele>362.4</ele><time>2026-05-01T07:49:58Z</time></trkpt><trkpt lat="40.89088115564728" lon="9.326107393414704"><ele>363.2</ele><time>2026-05-01T07:50:00Z</time></trkpt><trkpt lat="40.89093473374132" lon="9.325997606762146"><ele>364.0</ele><time>2026-05-01T07:50:02Z</time></trkpt><trkpt lat="40.89099167538227" lon="9.325875842227598"><ele>363.0</ele><time>2026-05-01T07:50:04Z</time></trkpt><trkpt lat="40.89103521939403" lon="9.325762121346088"><ele>362.0</ele><time>2026-05-01T07:50:06Z</time></trkpt><trkpt lat="40.891083690508296" lon="9.32564283186243"><ele>361.0</ele><time>2026-05-01T07:50:08Z</time></trkpt><trkpt lat="40.89113245300893" lon="9.325521579118274"><ele>360.0</ele><time>2026-05-01T07:50:10Z</time></trkpt><trkpt lat="40.89118430014062" lon="9.325407840186125"><ele>359.0</ele><time>2026-05-01T07:50:12Z</time></trkpt><trkpt lat="40.8912407546688" lon="9.325304233365564"><ele>359.0</ele><time>2026-05-01T07:50:14Z</time></trkpt><trkpt lat="40.89128472912937" lon="9.325186885862445"><ele>359.0</ele><time>2026-05-01T07:50:16Z</time></trkpt><trkpt lat="40.891329419269766" lon="9.325079216054675"><ele>359.0</ele><time>2026-05-01T07:50:19Z</time></trkpt><trkpt lat="40.891351834003295" lon="9.32497843106184"><ele>359.0</ele><time>2026-05-01T07:50:21Z</time></trkpt><trkpt lat="40.89138732315283" lon="9.324863573558"><ele>359.0</ele><time>2026-05-01T07:50:23Z</time></trkpt><trkpt lat="40.89140716728361" lon="9.324748598837228"><ele>360.4</ele><time>2026-05-01T07:50:25Z</time></trkpt><trkpt lat="40.89142389234612" lon="9.324664537202102"><ele>361.79999999999995</ele><time>2026-05-01T07:50:27Z</time></trkpt><trkpt lat="40.89145227321831" lon="9.32458383921205"><ele>363.20000000000005</ele><time>2026-05-01T07:50:28Z</time></trkpt><trkpt lat="40.891444958664046" lon="9.324461764179988"><ele>364.6</ele><time>2026-05-01T07:50:30Z</time></trkpt><trkpt lat="40.89150291858325" lon="9.324289303549246"><ele>366.0</ele><time>2026-05-01T07:50:31Z</time></trkpt><trkpt lat="40.89154237598002" lon="9.324184737918822"><ele>366.0</ele><time>2026-05-01T07:50:33Z</time></trkpt><trkpt lat="40.891587748196194" lon="9.32406770039652"><ele>366.0</ele><time>2026-05-01T07:50:35Z</time></trkpt><trkpt lat="40.891637387394944" lon="9.323967134588715"><ele>366.0</ele><time>2026-05-01T07:50:37Z</time></trkpt><trkpt lat="40.89168475393826" lon="9.323841968874198"><ele>366.0</ele><time>2026-05-01T07:50:39Z</time></trkpt><trkpt lat="40.891721837700324" lon="9.323732350433186"><ele>366.0</ele><time>2026-05-01T07:50:41Z</time></trkpt><trkpt lat="40.891756435297616" lon="9.323618685166887"><ele>365.4</ele><time>2026-05-01T07:50:43Z</time></trkpt><trkpt lat="40.89177818188199" lon="9.323485978595153"><ele>364.8</ele><time>2026-05-01T07:50:45Z</time></trkpt><trkpt lat="40.89178607184819" lon="9.32335896508213"><ele>364.2</ele><time>2026-05-01T07:50:47Z</time></trkpt><trkpt lat="40.89176359318673" lon="9.323251219021767"><ele>363.59999999999997</ele><time>2026-05-01T07:50:49Z</time></trkpt><trkpt lat="40.89178842730914" lon="9.3231071049001"><ele>363.0</ele><time>2026-05-01T07:50:51Z</time></trkpt><trkpt lat="40.89178474513518" lon="9.322946003916657"><ele>363.0</ele><time>2026-05-01T07:50:55Z</time></trkpt><trkpt lat="40.891819560607416" lon="9.32284778931557"><ele>363.0</ele><time>2026-05-01T07:50:57Z</time></trkpt><trkpt lat="40.89182334019854" lon="9.322741018055318"><ele>363.0</ele><time>2026-05-01T07:50:59Z</time></trkpt><trkpt lat="40.89185280081273" lon="9.322546992957893"><ele>363.0</ele><time>2026-05-01T07:51:00Z</time></trkpt><trkpt lat="40.89188176138409" lon="9.322426091666951"><ele>363.0</ele><time>2026-05-01T07:51:02Z</time></trkpt><trkpt lat="40.89189953169519" lon="9.322300257245027"><ele>363.8333333333333</ele><time>2026-05-01T07:51:04Z</time></trkpt><trkpt lat="40.891925303460916" lon="9.322180282493314"><ele>364.6666666666667</ele><time>2026-05-01T07:51:06Z</time></trkpt><trkpt lat="40.89196097980155" lon="9.322074375820781"><ele>365.5</ele><time>2026-05-01T07:51:08Z</time></trkpt><trkpt lat="40.891972183464254" lon="9.321946184016953"><ele>366.33333333333337</ele><time>2026-05-01T07:51:10Z</time></trkpt><trkpt lat="40.89199638672419" lon="9.321832134426657"><ele>367.1666666666667</ele><time>2026-05-01T07:51:12Z</time></trkpt><trkpt lat="40.89200217038622" lon="9.321733858113994"><ele>368.0</ele><time>2026-05-01T07:51:14Z</time></trkpt><trkpt lat="40.89203979709212" lon="9.321593429120883"><ele>368.0</ele><time>2026-05-01T07:51:17Z</time></trkpt><trkpt lat="40.892080444107904" lon="9.321482623734052"><ele>368.0</ele><time>2026-05-01T07:51:19Z</time></trkpt><trkpt lat="40.892120144059305" lon="9.32138982987954"><ele>368.0</ele><time>2026-05-01T07:51:21Z</time></trkpt><trkpt lat="40.89215331671903" lon="9.321281246608795"><ele>368.0</ele><time>2026-05-01T07:51:23Z</time></trkpt><trkpt lat="40.89220580536992" lon="9.321227582627133"><ele>368.0</ele><time>2026-05-01T07:51:25Z</time></trkpt><trkpt lat="40.89225011431552" lon="9.321133089452436"><ele>368.0</ele><time>2026-05-01T07:51:28Z</time></trkpt><trkpt lat="40.89228871184248" lon="9.321050133753694"><ele>369.0</ele><time>2026-05-01T07:51:30Z</time></trkpt><trkpt lat="40.892326301442395" lon="9.320980791449504"><ele>370.0</ele><time>2026-05-01T07:51:32Z</time></trkpt><trkpt lat="40.89237341948323" lon="9.320903290997874"><ele>371.0</ele><time>2026-05-01T07:51:34Z</time></trkpt><trkpt lat="40.892406255687966" lon="9.320826990830355"><ele>372.0</ele><time>2026-05-01T07:51:36Z</time></trkpt><trkpt lat="40.892435851712904" lon="9.320741516714357"><ele>373.0</ele><time>2026-05-01T07:51:38Z</time></trkpt><trkpt lat="40.89247613084268" lon="9.320614079115312"><ele>374.0</ele><time>2026-05-01T07:51:41Z</time></trkpt><trkpt lat="40.89251848751692" lon="9.32049094097149"><ele>374.2</ele><time>2026-05-01T07:51:44Z</time></trkpt><trkpt lat="40.89253973669769" lon="9.32038933412369"><ele>374.4</ele><time>2026-05-01T07:51:46Z</time></trkpt><trkpt lat="40.89256662882413" lon="9.320245460556283"><ele>374.6</ele><time>2026-05-01T07:51:48Z</time></trkpt><trkpt lat="40.89258868130957" lon="9.320077796878198"><ele>374.8</ele><time>2026-05-01T07:51:50Z</time></trkpt><trkpt lat="40.89263193377336" lon="9.319939499057021"><ele>375.0</ele><time>2026-05-01T07:51:52Z</time></trkpt><trkpt lat="40.89266304712579" lon="9.319791171013273"><ele>376.25</ele><time>2026-05-01T07:51:54Z</time></trkpt><trkpt lat="40.89274129649858" lon="9.319557352032867"><ele>377.5</ele><time>2026-05-01T07:51:55Z</time></trkpt><trkpt lat="40.89275306927637" lon="9.319435290926988"><ele>378.75</ele><time>2026-05-01T07:51:57Z</time></trkpt><trkpt lat="40.892759342610645" lon="9.319322874971911"><ele>380.0</ele><time>2026-05-01T07:51:59Z</time></trkpt><trkpt lat="40.892764509436326" lon="9.319205948655833"><ele>380.0</ele><time>2026-05-01T07:52:01Z</time></trkpt><trkpt lat="40.892773226095514" lon="9.319084608246653"><ele>380.0</ele><time>2026-05-01T07:52:03Z</time></trkpt><trkpt lat="40.892776662390176" lon="9.31896090509606"><ele>380.0</ele><time>2026-05-01T07:52:05Z</time></trkpt><trkpt lat="40.89278341628509" lon="9.318834147384209"><ele>380.0</ele><time>2026-05-01T07:52:07Z</time></trkpt><trkpt lat="40.89279449002085" lon="9.318710327374898"><ele>380.0</ele><time>2026-05-01T07:52:09Z</time></trkpt><trkpt lat="40.892787953118265" lon="9.318591605571722"><ele>380.5</ele><time>2026-05-01T07:52:11Z</time></trkpt><trkpt lat="40.89279146201269" lon="9.318481149946228"><ele>381.0</ele><time>2026-05-01T07:52:13Z</time></trkpt><trkpt lat="40.89280281097987" lon="9.318357457650267"><ele>381.5</ele><time>2026-05-01T07:52:15Z</time></trkpt><trkpt lat="40.892806732115304" lon="9.318268141264936"><ele>382.0</ele><time>2026-05-01T07:52:17Z</time></trkpt><trkpt lat="40.89280769081835" lon="9.31818434331637"><ele>382.5</ele><time>2026-05-01T07:52:19Z</time></trkpt><trkpt lat="40.89282016462949" lon="9.318075212461702"><ele>383.0</ele><time>2026-05-01T07:52:21Z</time></trkpt><trkpt lat="40.89282888884172" lon="9.31796913775334"><ele>383.1666666666667</ele><time>2026-05-01T07:52:23Z</time></trkpt><trkpt lat="40.89283145006835" lon="9.317860912609182"><ele>383.33333333333337</ele><time>2026-05-01T07:52:25Z</time></trkpt><trkpt lat="40.89283868229792" lon="9.31769341337951"><ele>383.5</ele><time>2026-05-01T07:52:28Z</time></trkpt><trkpt lat="40.892848978281194" lon="9.317602376381997"><ele>383.6666666666667</ele><time>2026-05-01T07:52:30Z</time></trkpt><trkpt lat="40.89286170616885" lon="9.317505301648152"><ele>383.8333333333333</ele><time>2026-05-01T07:52:32Z</time></trkpt><trkpt lat="40.89289080061117" lon="9.317423875879447"><ele>384.0</ele><time>2026-05-01T07:52:34Z</time></trkpt><trkpt lat="40.892926460221844" lon="9.317301614244222"><ele>384.66666666666663</ele><time>2026-05-01T07:52:38Z</time></trkpt><trkpt lat="40.89294985353282" lon="9.31720456294528"><ele>385.3333333333333</ele><time>2026-05-01T07:52:40Z</time></trkpt><trkpt lat="40.892980351317625" lon="9.317108212455235"><ele>386.0</ele><time>2026-05-01T07:52:42Z</time></trkpt><trkpt lat="40.89314436594035" lon="9.31673962505496"><ele>386.0</ele><time>2026-05-01T07:52:43Z</time></trkpt><trkpt lat="40.893206455059335" lon="9.31663685081245"><ele>386.0</ele><time>2026-05-01T07:52:45Z</time></trkpt><trkpt lat="40.8932692950251" lon="9.31653283895823"><ele>386.0</ele><time>2026-05-01T07:52:47Z</time></trkpt><trkpt lat="40.893318150530526" lon="9.316421226224373"><ele>386.0</ele><time>2026-05-01T07:52:49Z</time></trkpt><trkpt lat="40.89337699037338" lon="9.316333309479413"><ele>386.0</ele><time>2026-05-01T07:52:51Z</time></trkpt><trkpt lat="40.89343611134125" lon="9.316219618278355"><ele>385.4</ele><time>2026-05-01T07:52:53Z</time></trkpt><trkpt lat="40.89349928040608" lon="9.316114184653596"><ele>384.8</ele><time>2026-05-01T07:52:55Z</time></trkpt><trkpt lat="40.8935587752918" lon="9.31601081638192"><ele>384.2</ele><time>2026-05-01T07:52:57Z</time></trkpt><trkpt lat="40.89363334506237" lon="9.31590005959571"><ele>383.59999999999997</ele><time>2026-05-01T07:52:59Z</time></trkpt><trkpt lat="40.89367610162369" lon="9.315791701774014"><ele>383.0</ele><time>2026-05-01T07:53:01Z</time></trkpt><trkpt lat="40.89374012102715" lon="9.315686907669846"><ele>383.0</ele><time>2026-05-01T07:53:03Z</time></trkpt><trkpt lat="40.89377015103902" lon="9.315582171945932"><ele>383.0</ele><time>2026-05-01T07:53:05Z</time></trkpt><trkpt lat="40.893813912474926" lon="9.315463678894666"><ele>383.0</ele><time>2026-05-01T07:53:07Z</time></trkpt><trkpt lat="40.89385021686655" lon="9.315345701165388"><ele>383.0</ele><time>2026-05-01T07:53:09Z</time></trkpt><trkpt lat="40.893869592631226" lon="9.315229013887379"><ele>383.0</ele><time>2026-05-01T07:53:11Z</time></trkpt><trkpt lat="40.89389043506121" lon="9.315113549231945"><ele>383.79999999999995</ele><time>2026-05-01T07:53:13Z</time></trkpt><trkpt lat="40.89390615918196" lon="9.314979405099603"><ele>384.6</ele><time>2026-05-01T07:53:15Z</time></trkpt><trkpt lat="40.89390102952681" lon="9.314839824560936"><ele>385.4</ele><time>2026-05-01T07:53:17Z</time></trkpt><trkpt lat="40.89391760419237" lon="9.314713035461006"><ele>386.20000000000005</ele><time>2026-05-01T07:53:19Z</time></trkpt><trkpt lat="40.89391862110695" lon="9.314580685810093"><ele>387.0</ele><time>2026-05-01T07:53:21Z</time></trkpt><trkpt lat="40.89391469907389" lon="9.31446116605349"><ele>387.8</ele><time>2026-05-01T07:53:23Z</time></trkpt><trkpt lat="40.89391743962069" lon="9.314314815423016"><ele>388.6</ele><time>2026-05-01T07:53:25Z</time></trkpt><trkpt lat="40.89388500091534" lon="9.314188886611156"><ele>389.40000000000003</ele><time>2026-05-01T07:53:27Z</time></trkpt><trkpt lat="40.89386042099373" lon="9.314089174770503"><ele>390.20000000000005</ele><time>2026-05-01T07:53:29Z</time></trkpt><trkpt lat="40.89384111275193" lon="9.313973219729592"><ele>391.0</ele><time>2026-05-01T07:53:31Z</time></trkpt><trkpt lat="40.89381273237556" lon="9.313856959518773"><ele>391.50000000000006</ele><time>2026-05-01T07:53:33Z</time></trkpt><trkpt lat="40.893774916788004" lon="9.313728046590626"><ele>392.0</ele><time>2026-05-01T07:53:35Z</time></trkpt><trkpt lat="40.89374544461124" lon="9.31361769556667"><ele>392.5</ele><time>2026-05-01T07:53:37Z</time></trkpt><trkpt lat="40.89371553232546" lon="9.313510015785313"><ele>393.0</ele><time>2026-05-01T07:53:39Z</time></trkpt><trkpt lat="40.893699486477686" lon="9.3133917787263"><ele>393.50000000000006</ele><time>2026-05-01T07:53:42Z</time></trkpt><trkpt lat="40.89369859385554" lon="9.313300828840614"><ele>394.0</ele><time>2026-05-01T07:53:45Z</time></trkpt><trkpt lat="40.893698060289545" lon="9.31321709992746"><ele>394.00000000000006</ele><time>2026-05-01T07:53:47Z</time></trkpt><trkpt lat="40.89371876074906" lon="9.313107603850334"><ele>394.0</ele><time>2026-05-01T07:53:49Z</time></trkpt><trkpt lat="40.89369785881283" lon="9.313015224071252"><ele>394.0</ele><time>2026-05-01T07:53:51Z</time></trkpt><trkpt lat="40.89371088429146" lon="9.312909008261402"><ele>394.0</ele><time>2026-05-01T07:53:53Z</time></trkpt><trkpt lat="40.89371936372496" lon="9.312825258591264"><ele>394.00000000000006</ele><time>2026-05-01T07:53:55Z</time></trkpt><trkpt lat="40.89371681596306" lon="9.312717070032372"><ele>394.0</ele><time>2026-05-01T07:53:57Z</time></trkpt><trkpt lat="40.89371858717011" lon="9.31262122741113"><ele>394.2</ele><time>2026-05-01T07:54:00Z</time></trkpt><trkpt lat="40.89376615688233" lon="9.31247016541029"><ele>394.4</ele><time>2026-05-01T07:54:03Z</time></trkpt><trkpt lat="40.89375327390423" lon="9.312354714197417"><ele>394.6</ele><time>2026-05-01T07:54:05Z</time></trkpt><trkpt lat="40.8937775364339" lon="9.312242222153431"><ele>394.8</ele><time>2026-05-01T07:54:07Z</time></trkpt><trkpt lat="40.89379897152882" lon="9.312142577996852"><ele>395.0</ele><time>2026-05-01T07:54:08Z</time></trkpt><trkpt lat="40.893819457419795" lon="9.312048985132277"><ele>395.0</ele><time>2026-05-01T07:54:09Z</time></trkpt><trkpt lat="40.89394506454308" lon="9.311985664791226"><ele>395.0</ele><time>2026-05-01T07:54:10Z</time></trkpt><trkpt lat="40.89397329144359" lon="9.31186853790613"><ele>395.0</ele><time>2026-05-01T07:54:11Z</time></trkpt><trkpt lat="40.89406754210833" lon="9.31153973115391"><ele>394.4</ele><time>2026-05-01T07:54:12Z</time></trkpt><trkpt lat="40.894084978642454" lon="9.311381402288788"><ele>393.8</ele><time>2026-05-01T07:54:16Z</time></trkpt><trkpt lat="40.894114579487514" lon="9.311247868766587"><ele>393.20000000000005</ele><time>2026-05-01T07:54:18Z</time></trkpt><trkpt lat="40.894125420775694" lon="9.311157220759101"><ele>392.6</ele><time>2026-05-01T07:54:19Z</time></trkpt><trkpt lat="40.89414379182632" lon="9.310994833218372"><ele>392.0</ele><time>2026-05-01T07:54:21Z</time></trkpt><trkpt lat="40.89414449158436" lon="9.310830782347697"><ele>392.0</ele><time>2026-05-01T07:54:23Z</time></trkpt><trkpt lat="40.89413331296598" lon="9.310674870318248"><ele>392.0</ele><time>2026-05-01T07:54:25Z</time></trkpt><trkpt lat="40.894118291972354" lon="9.31053124956659"><ele>392.0</ele><time>2026-05-01T07:54:27Z</time></trkpt><trkpt lat="40.89409963579589" lon="9.310372431673917"><ele>392.0</ele><time>2026-05-01T07:54:29Z</time></trkpt><trkpt lat="40.894083394516365" lon="9.310234171470084"><ele>391.6</ele><time>2026-05-01T07:54:31Z</time></trkpt><trkpt lat="40.89405390795784" lon="9.310093351180534"><ele>391.20000000000005</ele><time>2026-05-01T07:54:33Z</time></trkpt><trkpt lat="40.89404035698757" lon="9.309957529947509"><ele>390.8</ele><time>2026-05-01T07:54:35Z</time></trkpt><trkpt lat="40.8940246471297" lon="9.309819878493727"><ele>390.4</ele><time>2026-05-01T07:54:37Z</time></trkpt><trkpt lat="40.89401373259314" lon="9.309688678121644"><ele>390.0</ele><time>2026-05-01T07:54:39Z</time></trkpt><trkpt lat="40.89399670915076" lon="9.309558957831404"><ele>389.8</ele><time>2026-05-01T07:54:41Z</time></trkpt><trkpt lat="40.89397452758673" lon="9.309428249102856"><ele>389.6</ele><time>2026-05-01T07:54:43Z</time></trkpt><trkpt lat="40.89396160210482" lon="9.309295456306364"><ele>389.4</ele><time>2026-05-01T07:54:45Z</time></trkpt><trkpt lat="40.89394593043444" lon="9.309142158475295"><ele>389.2</ele><time>2026-05-01T07:54:47Z</time></trkpt><trkpt lat="40.893942490979555" lon="9.309015596340172"><ele>389.0</ele><time>2026-05-01T07:54:49Z</time></trkpt><trkpt lat="40.89392050445246" lon="9.308847574571166"><ele>389.0</ele><time>2026-05-01T07:54:51Z</time></trkpt><trkpt lat="40.893908589661855" lon="9.308688250775159"><ele>389.0</ele><time>2026-05-01T07:54:53Z</time></trkpt><trkpt lat="40.89388530919031" lon="9.3085982850149"><ele>389.0</ele><time>2026-05-01T07:54:54Z</time></trkpt><trkpt lat="40.893868102980164" lon="9.308437751841932"><ele>389.0</ele><time>2026-05-01T07:54:56Z</time></trkpt><trkpt lat="40.89384442536544" lon="9.308263165872686"><ele>389.0</ele><time>2026-05-01T07:54:58Z</time></trkpt><trkpt lat="40.893827407867605" lon="9.30813083654264"><ele>389.0</ele><time>2026-05-01T07:55:00Z</time></trkpt><trkpt lat="40.893781880242834" lon="9.307987494928192"><ele>389.0</ele><time>2026-05-01T07:55:02Z</time></trkpt><trkpt lat="40.89373911792821" lon="9.30791303529496"><ele>389.0</ele><time>2026-05-01T07:55:03Z</time></trkpt><trkpt lat="40.8936477083291" lon="9.307809382738006"><ele>389.0</ele><time>2026-05-01T07:55:05Z</time></trkpt><trkpt lat="40.893543974346755" lon="9.307718128376655"><ele>388.8333333333333</ele><time>2026-05-01T07:55:07Z</time></trkpt><trkpt lat="40.89349137686563" lon="9.3076664892237"><ele>388.66666666666663</ele><time>2026-05-01T07:55:08Z</time></trkpt><trkpt lat="40.89343399032507" lon="9.307618016021609"><ele>388.5</ele><time>2026-05-01T07:55:09Z</time></trkpt><trkpt lat="40.8933315582395" lon="9.307549477536408"><ele>388.33333333333337</ele><time>2026-05-01T07:55:11Z</time></trkpt><trkpt lat="40.89327205525718" lon="9.307504900834257"><ele>388.1666666666667</ele><time>2026-05-01T07:55:12Z</time></trkpt><trkpt lat="40.89316569486063" lon="9.307415366852153"><ele>388.0</ele><time>2026-05-01T07:55:14Z</time></trkpt><trkpt lat="40.89310843468075" lon="9.30737376256053"><ele>388.0</ele><time>2026-05-01T07:55:15Z</time></trkpt><trkpt lat="40.89305084182656" lon="9.30732904080874"><ele>388.0</ele><time>2026-05-01T07:55:16Z</time></trkpt><trkpt lat="40.8929419506955" lon="9.307245571189732"><ele>388.0</ele><time>2026-05-01T07:55:18Z</time></trkpt><trkpt lat="40.892839088332835" lon="9.307153098170607"><ele>388.0</ele><time>2026-05-01T07:55:20Z</time></trkpt><trkpt lat="40.892771697615146" lon="9.307104792190449"><ele>388.0</ele><time>2026-05-01T07:55:21Z</time></trkpt><trkpt lat="40.89270892985465" lon="9.30704794224965"><ele>387.83333333333337</ele><time>2026-05-01T07:55:22Z</time></trkpt><trkpt lat="40.89264761093047" lon="9.306996913095782"><ele>387.6666666666667</ele><time>2026-05-01T07:55:23Z</time></trkpt><trkpt lat="40.89258062201976" lon="9.306944239855719"><ele>387.5</ele><time>2026-05-01T07:55:24Z</time></trkpt><trkpt lat="40.89251437733539" lon="9.306881913988812"><ele>387.33333333333337</ele><time>2026-05-01T07:55:25Z</time></trkpt><trkpt lat="40.8924486415169" lon="9.306813219575108"><ele>387.1666666666667</ele><time>2026-05-01T07:55:26Z</time></trkpt><trkpt lat="40.89238583370334" lon="9.306733604254308"><ele>387.0</ele><time>2026-05-01T07:55:27Z</time></trkpt><trkpt lat="40.89232385847514" lon="9.306655300881157"><ele>387.0</ele><time>2026-05-01T07:55:28Z</time></trkpt><trkpt lat="40.89227511410046" lon="9.306559534208192"><ele>387.0</ele><time>2026-05-01T07:55:29Z</time></trkpt><trkpt lat="40.89220619524239" lon="9.306477921346609"><ele>387.0</ele><time>2026-05-01T07:55:30Z</time></trkpt><trkpt lat="40.892148528097934" lon="9.30638328244302"><ele>387.0</ele><time>2026-05-01T07:55:31Z</time></trkpt><trkpt lat="40.89208881610709" lon="9.306286778336986"><ele>387.0</ele><time>2026-05-01T07:55:32Z</time></trkpt><trkpt lat="40.892024434781426" lon="9.306181592432496"><ele>386.6</ele><time>2026-05-01T07:55:33Z</time></trkpt><trkpt lat="40.891973943994344" lon="9.30606562588209"><ele>386.20000000000005</ele><time>2026-05-01T07:55:34Z</time></trkpt><trkpt lat="40.89191147392297" lon="9.305959676340654"><ele>385.8</ele><time>2026-05-01T07:55:35Z</time></trkpt><trkpt lat="40.89183516021094" lon="9.305862001395852"><ele>385.4</ele><time>2026-05-01T07:55:36Z</time></trkpt><trkpt lat="40.891777036475034" lon="9.30573502010164"><ele>385.0</ele><time>2026-05-01T07:55:37Z</time></trkpt><trkpt lat="40.89172291220703" lon="9.305616566831565"><ele>383.0</ele><time>2026-05-01T07:55:38Z</time></trkpt><trkpt lat="40.8916885544364" lon="9.305480946235141"><ele>381.0</ele><time>2026-05-01T07:55:39Z</time></trkpt><trkpt lat="40.89165585495812" lon="9.305346463119998"><ele>379.0</ele><time>2026-05-01T07:55:40Z</time></trkpt><trkpt lat="40.891615499109555" lon="9.30519707424357"><ele>377.0</ele><time>2026-05-01T07:55:41Z</time></trkpt><trkpt lat="40.89160734824206" lon="9.305031121333124"><ele>377.0</ele><time>2026-05-01T07:55:42Z</time></trkpt><trkpt lat="40.891604713406835" lon="9.304879025686912"><ele>377.0</ele><time>2026-05-01T07:55:43Z</time></trkpt><trkpt lat="40.89160958641479" lon="9.304735511044537"><ele>377.0</ele><time>2026-05-01T07:55:44Z</time></trkpt><trkpt lat="40.89164629632836" lon="9.304591072964486"><ele>377.0</ele><time>2026-05-01T07:55:45Z</time></trkpt><trkpt lat="40.89170114065035" lon="9.30445415554085"><ele>376.0</ele><time>2026-05-01T07:55:46Z</time></trkpt><trkpt lat="40.89178229375816" lon="9.304335929132677"><ele>375.0</ele><time>2026-05-01T07:55:47Z</time></trkpt><trkpt lat="40.891889590987994" lon="9.3042568773889"><ele>374.0</ele><time>2026-05-01T07:55:48Z</time></trkpt><trkpt lat="40.89199473304008" lon="9.304180408421843"><ele>373.0</ele><time>2026-05-01T07:55:49Z</time></trkpt><trkpt lat="40.892113746767734" lon="9.304135908458711"><ele>373.0</ele><time>2026-05-01T07:55:50Z</time></trkpt><trkpt lat="40.89222858015755" lon="9.304082942738368"><ele>373.0</ele><time>2026-05-01T07:55:51Z</time></trkpt><trkpt lat="40.89233865912149" lon="9.304025673876705"><ele>373.0</ele><time>2026-05-01T07:55:52Z</time></trkpt><trkpt lat="40.89244768845781" lon="9.303969239006173"><ele>373.0</ele><time>2026-05-01T07:55:53Z</time></trkpt><trkpt lat="40.89255611401978" lon="9.303905014586284"><ele>373.5</ele><time>2026-05-01T07:55:54Z</time></trkpt><trkpt lat="40.89265924050969" lon="9.303830991275879"><ele>374.0</ele><time>2026-05-01T07:55:55Z</time></trkpt><trkpt lat="40.89275232557458" lon="9.303734011601668"><ele>374.5</ele><time>2026-05-01T07:55:56Z</time></trkpt><trkpt lat="40.89282799638394" lon="9.303620983300283"><ele>375.0</ele><time>2026-05-01T07:55:57Z</time></trkpt><trkpt lat="40.89287808289901" lon="9.303485017060407"><ele>375.0</ele><time>2026-05-01T07:55:58Z</time></trkpt><trkpt lat="40.892920099157784" lon="9.303349101851202"><ele>375.0</ele><time>2026-05-01T07:55:59Z</time></trkpt><trkpt lat="40.89295236431497" lon="9.303220765761452"><ele>375.0</ele><time>2026-05-01T07:56:00Z</time></trkpt><trkpt lat="40.892969977679684" lon="9.303086740751906"><ele>375.0</ele><time>2026-05-01T07:56:01Z</time></trkpt><trkpt lat="40.892983254076476" lon="9.302955101105788"><ele>375.0</ele><time>2026-05-01T07:56:02Z</time></trkpt><trkpt lat="40.89299307800804" lon="9.302829651662018"><ele>374.4</ele><time>2026-05-01T07:56:03Z</time></trkpt><trkpt lat="40.89300894448495" lon="9.302700455926578"><ele>373.8</ele><time>2026-05-01T07:56:04Z</time></trkpt><trkpt lat="40.89302070329755" lon="9.302569878169983"><ele>373.20000000000005</ele><time>2026-05-01T07:56:05Z</time></trkpt><trkpt lat="40.89304538565581" lon="9.302443087881526"><ele>372.6</ele><time>2026-05-01T07:56:06Z</time></trkpt><trkpt lat="40.893053570829295" lon="9.302313031174677"><ele>372.0</ele><time>2026-05-01T07:56:07Z</time></trkpt><trkpt lat="40.893067507893406" lon="9.302183783208239"><ele>371.8</ele><time>2026-05-01T07:56:08Z</time></trkpt><trkpt lat="40.89308180577352" lon="9.302056145950466"><ele>371.6</ele><time>2026-05-01T07:56:09Z</time></trkpt><trkpt lat="40.89309481266701" lon="9.301930754368122"><ele>371.40000000000003</ele><time>2026-05-01T07:56:10Z</time></trkpt><trkpt lat="40.89310969311142" lon="9.30180906117545"><ele>371.20000000000005</ele><time>2026-05-01T07:56:11Z</time></trkpt><trkpt lat="40.89312065511166" lon="9.301689503136984"><ele>371.0</ele><time>2026-05-01T07:56:12Z</time></trkpt><trkpt lat="40.89313572732312" lon="9.301571873261583"><ele>371.0</ele><time>2026-05-01T07:56:13Z</time></trkpt><trkpt lat="40.89314765594613" lon="9.301459444634892"><ele>371.0</ele><time>2026-05-01T07:56:14Z</time></trkpt><trkpt lat="40.89316272533934" lon="9.301349959450894"><ele>371.0</ele><time>2026-05-01T07:56:15Z</time></trkpt><trkpt lat="40.89318656802178" lon="9.30124882198615"><ele>371.0</ele><time>2026-05-01T07:56:16Z</time></trkpt><trkpt lat="40.89320632581718" lon="9.30115232663102"><ele>371.0</ele><time>2026-05-01T07:56:17Z</time></trkpt><trkpt lat="40.89322834424258" lon="9.301058693935051"><ele>371.0</ele><time>2026-05-01T07:56:18Z</time></trkpt><trkpt lat="40.8932629523446" lon="9.300983257840992"><ele>370.33333333333337</ele><time>2026-05-01T07:56:19Z</time></trkpt><trkpt lat="40.89328561862099" lon="9.300890110399239"><ele>369.6666666666667</ele><time>2026-05-01T07:56:20Z</time></trkpt><trkpt lat="40.89329734437641" lon="9.30079068904708"><ele>369.0</ele><time>2026-05-01T07:56:21Z</time></trkpt><trkpt lat="40.89331720776067" lon="9.300700305448844"><ele>368.3333333333333</ele><time>2026-05-01T07:56:22Z</time></trkpt><trkpt lat="40.89334683988212" lon="9.3006169530838"><ele>367.66666666666663</ele><time>2026-05-01T07:56:23Z</time></trkpt><trkpt lat="40.89338144291935" lon="9.300528065873126"><ele>367.0</ele><time>2026-05-01T07:56:24Z</time></trkpt><trkpt lat="40.893410103804364" lon="9.300369714679242"><ele>368.1428571428571</ele><time>2026-05-01T07:56:26Z</time></trkpt><trkpt lat="40.89343151567963" lon="9.300283423674697"><ele>369.28571428571433</ele><time>2026-05-01T07:56:27Z</time></trkpt><trkpt lat="40.89345565886398" lon="9.300198534430958"><ele>370.42857142857144</ele><time>2026-05-01T07:56:28Z</time></trkpt><trkpt lat="40.893476780948" lon="9.300116953624075"><ele>371.57142857142856</ele><time>2026-05-01T07:56:29Z</time></trkpt><trkpt lat="40.893494987718306" lon="9.300033621743731"><ele>372.71428571428567</ele><time>2026-05-01T07:56:30Z</time></trkpt><trkpt lat="40.89351730506965" lon="9.299948077577183"><ele>373.8571428571429</ele><time>2026-05-01T07:56:31Z</time></trkpt><trkpt lat="40.89354133289597" lon="9.29986745870501"><ele>375.0</ele><time>2026-05-01T07:56:32Z</time></trkpt><trkpt lat="40.893566273567934" lon="9.29978477180996"><ele>374.42857142857144</ele><time>2026-05-01T07:56:33Z</time></trkpt><trkpt lat="40.893589041962954" lon="9.299704154209088"><ele>373.85714285714283</ele><time>2026-05-01T07:56:34Z</time></trkpt><trkpt lat="40.89361713371639" lon="9.299626070366758"><ele>373.2857142857143</ele><time>2026-05-01T07:56:35Z</time></trkpt><trkpt lat="40.893642785651004" lon="9.299549618652513"><ele>372.7142857142857</ele><time>2026-05-01T07:56:36Z</time></trkpt><trkpt lat="40.893669681053986" lon="9.299473906126327"><ele>372.1428571428571</ele><time>2026-05-01T07:56:37Z</time></trkpt><trkpt lat="40.893701172868404" lon="9.299400409039768"><ele>371.57142857142856</ele><time>2026-05-01T07:56:38Z</time></trkpt><trkpt lat="40.893739971861635" lon="9.299325126278118"><ele>371.0</ele><time>2026-05-01T07:56:39Z</time></trkpt><trkpt lat="40.89381609921727" lon="9.29919052772118"><ele>371.0</ele><time>2026-05-01T07:56:41Z</time></trkpt><trkpt lat="40.89385837351285" lon="9.29911811428126"><ele>371.0</ele><time>2026-05-01T07:56:42Z</time></trkpt><trkpt lat="40.89393784801494" lon="9.298992538301393"><ele>371.0</ele><time>2026-05-01T07:56:44Z</time></trkpt><trkpt lat="40.894025026923224" lon="9.298866790572665"><ele>371.0</ele><time>2026-05-01T07:56:46Z</time></trkpt><trkpt lat="40.8941059740653" lon="9.298739256649293"><ele>371.0</ele><time>2026-05-01T07:56:48Z</time></trkpt><trkpt lat="40.89414294869938" lon="9.298668975583952"><ele>370.4</ele><time>2026-05-01T07:56:49Z</time></trkpt><trkpt lat="40.89422983477157" lon="9.298554483672007"><ele>369.8</ele><time>2026-05-01T07:56:51Z</time></trkpt><trkpt lat="40.89427112358182" lon="9.298491125594886"><ele>369.2</ele><time>2026-05-01T07:56:52Z</time></trkpt><trkpt lat="40.89434991929184" lon="9.298359642873548"><ele>368.59999999999997</ele><time>2026-05-01T07:56:54Z</time></trkpt><trkpt lat="40.89443220742265" lon="9.298237139848444"><ele>368.0</ele><time>2026-05-01T07:56:56Z</time></trkpt><trkpt lat="40.894477919840945" lon="9.298174411750614"><ele>368.83333333333337</ele><time>2026-05-01T07:56:57Z</time></trkpt><trkpt lat="40.894519207781414" lon="9.298109221508003"><ele>369.6666666666667</ele><time>2026-05-01T07:56:58Z</time></trkpt><trkpt lat="40.89455873684251" lon="9.298041212101676"><ele>370.5</ele><time>2026-05-01T07:56:59Z</time></trkpt><trkpt lat="40.894635942610265" lon="9.297912409048234"><ele>371.3333333333333</ele><time>2026-05-01T07:57:01Z</time></trkpt><trkpt lat="40.89466927452961" lon="9.297841193557602"><ele>372.16666666666663</ele><time>2026-05-01T07:57:02Z</time></trkpt><trkpt lat="40.8947443399791" lon="9.297714207960354"><ele>373.0</ele><time>2026-05-01T07:57:04Z</time></trkpt><trkpt lat="40.89477288457422" lon="9.297639302890182"><ele>373.0</ele><time>2026-05-01T07:57:05Z</time></trkpt><trkpt lat="40.89482811173558" lon="9.297496357091184"><ele>373.0</ele><time>2026-05-01T07:57:07Z</time></trkpt><trkpt lat="40.894880865964055" lon="9.29736013121012"><ele>373.0</ele><time>2026-05-01T07:57:09Z</time></trkpt><trkpt lat="40.8949387027348" lon="9.297234447966039"><ele>373.0</ele><time>2026-05-01T07:57:11Z</time></trkpt><trkpt lat="40.89499872096247" lon="9.297110859335563"><ele>373.4</ele><time>2026-05-01T07:57:13Z</time></trkpt><trkpt lat="40.89505771973743" lon="9.296981158152995"><ele>373.79999999999995</ele><time>2026-05-01T07:57:15Z</time></trkpt><trkpt lat="40.8951192832759" lon="9.296852328267514"><ele>374.2</ele><time>2026-05-01T07:57:17Z</time></trkpt><trkpt lat="40.89521089798922" lon="9.29677224453125"><ele>374.6</ele><time>2026-05-01T07:57:19Z</time></trkpt><trkpt lat="40.89527899023083" lon="9.296661782651535"><ele>375.0</ele><time>2026-05-01T07:57:21Z</time></trkpt><trkpt lat="40.89536441691096" lon="9.296564994325392"><ele>375.0</ele><time>2026-05-01T07:57:23Z</time></trkpt><trkpt lat="40.89545549083023" lon="9.29648340686128"><ele>375.0</ele><time>2026-05-01T07:57:25Z</time></trkpt><trkpt lat="40.89555617349106" lon="9.296421860039581"><ele>375.0</ele><time>2026-05-01T07:57:27Z</time></trkpt><trkpt lat="40.89564930097474" lon="9.296357235411191"><ele>375.0</ele><time>2026-05-01T07:57:29Z</time></trkpt><trkpt lat="40.89571844295209" lon="9.296267968302056"><ele>375.0</ele><time>2026-05-01T07:57:33Z</time></trkpt><trkpt lat="40.8958206213155" lon="9.296167473552893"><ele>375.5</ele><time>2026-05-01T07:57:35Z</time></trkpt><trkpt lat="40.895935553242985" lon="9.295997484071737"><ele>376.0</ele><time>2026-05-01T07:57:36Z</time></trkpt><trkpt lat="40.89599171631766" lon="9.295858657006933"><ele>376.5</ele><time>2026-05-01T07:57:38Z</time></trkpt><trkpt lat="40.89604383052633" lon="9.29572661992339"><ele>377.0</ele><time>2026-05-01T07:57:40Z</time></trkpt><trkpt lat="40.89609292503025" lon="9.29560389253534"><ele>376.20000000000005</ele><time>2026-05-01T07:57:42Z</time></trkpt><trkpt lat="40.8961381626354" lon="9.295476116434138"><ele>375.4</ele><time>2026-05-01T07:57:44Z</time></trkpt><trkpt lat="40.89620558439299" lon="9.295363891236471"><ele>374.6</ele><time>2026-05-01T07:57:46Z</time></trkpt><trkpt lat="40.89626356192253" lon="9.295242426391793"><ele>373.79999999999995</ele><time>2026-05-01T07:57:48Z</time></trkpt><trkpt lat="40.89635115674183" lon="9.295137824053606"><ele>373.0</ele><time>2026-05-01T07:57:50Z</time></trkpt><trkpt lat="40.89643405748844" lon="9.295037122604253"><ele>373.0</ele><time>2026-05-01T07:57:52Z</time></trkpt><trkpt lat="40.89651407208484" lon="9.294939911774634"><ele>373.0</ele><time>2026-05-01T07:57:54Z</time></trkpt><trkpt lat="40.896574080013856" lon="9.294851165032872"><ele>373.0</ele><time>2026-05-01T07:57:56Z</time></trkpt><trkpt lat="40.896653701908676" lon="9.29474812487279"><ele>373.0</ele><time>2026-05-01T07:57:58Z</time></trkpt><trkpt lat="40.89673129510014" lon="9.29464842649257"><ele>373.0</ele><time>2026-05-01T07:58:00Z</time></trkpt><trkpt lat="40.89680902847593" lon="9.294551981088544"><ele>374.4</ele><time>2026-05-01T07:58:02Z</time></trkpt><trkpt lat="40.89690093989045" lon="9.294463599168068"><ele>375.79999999999995</ele><time>2026-05-01T07:58:04Z</time></trkpt><trkpt lat="40.89697855866629" lon="9.294356689016132"><ele>377.2</ele><time>2026-05-01T07:58:06Z</time></trkpt><trkpt lat="40.897057751436286" lon="9.294262755543977"><ele>378.6</ele><time>2026-05-01T07:58:08Z</time></trkpt><trkpt lat="40.89710537347543" lon="9.294154331694136"><ele>380.0</ele><time>2026-05-01T07:58:10Z</time></trkpt><trkpt lat="40.89718459189213" lon="9.294062104372061"><ele>380.0</ele><time>2026-05-01T07:58:12Z</time></trkpt><trkpt lat="40.897255920668336" lon="9.293964136894559"><ele>380.0</ele><time>2026-05-01T07:58:14Z</time></trkpt><trkpt lat="40.89730768233572" lon="9.293901149942728"><ele>380.0</ele><time>2026-05-01T07:58:16Z</time></trkpt><trkpt lat="40.897361908248605" lon="9.293828853073652"><ele>380.0</ele><time>2026-05-01T07:58:17Z</time></trkpt><trkpt lat="40.89741483642731" lon="9.29370411351172"><ele>380.0</ele><time>2026-05-01T07:58:19Z</time></trkpt><trkpt lat="40.89746023307803" lon="9.293564564887207"><ele>379.2</ele><time>2026-05-01T07:58:21Z</time></trkpt><trkpt lat="40.8974931061463" lon="9.29343022309531"><ele>378.4</ele><time>2026-05-01T07:58:23Z</time></trkpt><trkpt lat="40.89751908592359" lon="9.293336862233158"><ele>377.6</ele><time>2026-05-01T07:58:25Z</time></trkpt><trkpt lat="40.89752352457649" lon="9.293234878474898"><ele>376.8</ele><time>2026-05-01T07:58:28Z</time></trkpt><trkpt lat="40.89756797592895" lon="9.293034848397753"><ele>376.0</ele><time>2026-05-01T07:58:30Z</time></trkpt><trkpt lat="40.89757735089302" lon="9.292933909688804"><ele>376.20000000000005</ele><time>2026-05-01T07:58:31Z</time></trkpt><trkpt lat="40.897599418615215" lon="9.292854668985152"><ele>376.40000000000003</ele><time>2026-05-01T07:58:32Z</time></trkpt><trkpt lat="40.897620538180725" lon="9.292694451670712"><ele>376.6</ele><time>2026-05-01T07:58:34Z</time></trkpt><trkpt lat="40.897639791182186" lon="9.292541872403353"><ele>376.8</ele><time>2026-05-01T07:58:36Z</time></trkpt><trkpt lat="40.89767428500073" lon="9.292401188795818"><ele>377.0</ele><time>2026-05-01T07:58:38Z</time></trkpt><trkpt lat="40.89767494097392" lon="9.292245467104284"><ele>377.0</ele><time>2026-05-01T07:58:40Z</time></trkpt><trkpt lat="40.89767864766238" lon="9.292098158197506"><ele>377.0</ele><time>2026-05-01T07:58:42Z</time></trkpt><trkpt lat="40.897682430657845" lon="9.291948994376458"><ele>377.0</ele><time>2026-05-01T07:58:44Z</time></trkpt><trkpt lat="40.897675466651656" lon="9.29179787968458"><ele>377.0</ele><time>2026-05-01T07:58:46Z</time></trkpt><trkpt lat="40.89766379868424" lon="9.291644536623773"><ele>377.0</ele><time>2026-05-01T07:58:48Z</time></trkpt><trkpt lat="40.89765817109242" lon="9.291524143819403"><ele>377.0</ele><time>2026-05-01T07:58:50Z</time></trkpt><trkpt lat="40.89765565657863" lon="9.291387877553744"><ele>377.0</ele><time>2026-05-01T07:58:52Z</time></trkpt><trkpt lat="40.89765930552973" lon="9.291241035197698"><ele>377.0</ele><time>2026-05-01T07:58:54Z</time></trkpt><trkpt lat="40.89765120824512" lon="9.291088551608324"><ele>377.0</ele><time>2026-05-01T07:58:56Z</time></trkpt><trkpt lat="40.89764080534973" lon="9.290936353922303"><ele>377.6</ele><time>2026-05-01T07:58:58Z</time></trkpt><trkpt lat="40.897633666271744" lon="9.290796790550502"><ele>378.20000000000005</ele><time>2026-05-01T07:59:00Z</time></trkpt><trkpt lat="40.89762703711505" lon="9.29065104684426"><ele>378.8</ele><time>2026-05-01T07:59:02Z</time></trkpt><trkpt lat="40.89761678993814" lon="9.290509788815227"><ele>379.4</ele><time>2026-05-01T07:59:04Z</time></trkpt><trkpt lat="40.897612908693944" lon="9.290364583205031"><ele>380.0</ele><time>2026-05-01T07:59:06Z</time></trkpt><trkpt lat="40.89760961992371" lon="9.290210994140564"><ele>380.25</ele><time>2026-05-01T07:59:08Z</time></trkpt><trkpt lat="40.897611471135136" lon="9.290057159194106"><ele>380.5</ele><time>2026-05-01T07:59:10Z</time></trkpt><trkpt lat="40.89761783674331" lon="9.289916735540022"><ele>380.75</ele><time>2026-05-01T07:59:12Z</time></trkpt><trkpt lat="40.89761968424003" lon="9.289762672557643"><ele>381.0</ele><time>2026-05-01T07:59:14Z</time></trkpt><trkpt lat="40.89763117148035" lon="9.289602936694102"><ele>380.5</ele><time>2026-05-01T07:59:16Z</time></trkpt><trkpt lat="40.89764975228532" lon="9.2894619239501"><ele>380.0</ele><time>2026-05-01T07:59:18Z</time></trkpt><trkpt lat="40.89768476354882" lon="9.289308111466617"><ele>379.5</ele><time>2026-05-01T07:59:20Z</time></trkpt><trkpt lat="40.89772539616378" lon="9.28916140630744"><ele>379.0</ele><time>2026-05-01T07:59:22Z</time></trkpt><trkpt lat="40.897782986640514" lon="9.289023058353097"><ele>378.75</ele><time>2026-05-01T07:59:24Z</time></trkpt><trkpt lat="40.897844416133374" lon="9.288885691397526"><ele>378.5</ele><time>2026-05-01T07:59:26Z</time></trkpt><trkpt lat="40.89791558022261" lon="9.288753994708838"><ele>378.25</ele><time>2026-05-01T07:59:28Z</time></trkpt><trkpt lat="40.89799052399216" lon="9.288635772367074"><ele>378.0</ele><time>2026-05-01T07:59:30Z</time></trkpt><trkpt lat="40.8980610055748" lon="9.288520030083617"><ele>378.0</ele><time>2026-05-01T07:59:32Z</time></trkpt><trkpt lat="40.898128159871824" lon="9.28839985932832"><ele>378.0</ele><time>2026-05-01T07:59:34Z</time></trkpt><trkpt lat="40.898200928301165" lon="9.288283755064736"><ele>378.0</ele><time>2026-05-01T07:59:36Z</time></trkpt><trkpt lat="40.89827078134577" lon="9.288158016274995"><ele>378.0</ele><time>2026-05-01T07:59:38Z</time></trkpt><trkpt lat="40.8983334724846" lon="9.288035080146587"><ele>377.5</ele><time>2026-05-01T07:59:40Z</time></trkpt><trkpt lat="40.89839524943646" lon="9.287906642603703"><ele>377.0</ele><time>2026-05-01T07:59:42Z</time></trkpt><trkpt lat="40.89843536686368" lon="9.287759088563192"><ele>376.5</ele><time>2026-05-01T07:59:44Z</time></trkpt><trkpt lat="40.89847244002427" lon="9.287616304347491"><ele>376.0</ele><time>2026-05-01T07:59:46Z</time></trkpt><trkpt lat="40.898485598741445" lon="9.287464796702784"><ele>376.0</ele><time>2026-05-01T07:59:48Z</time></trkpt><trkpt lat="40.89848727624814" lon="9.287308357808595"><ele>376.0</ele><time>2026-05-01T07:59:50Z</time></trkpt><trkpt lat="40.898467909555066" lon="9.287157931152052"><ele>376.0</ele><time>2026-05-01T07:59:52Z</time></trkpt><trkpt lat="40.89843182325715" lon="9.287006392081938"><ele>376.0</ele><time>2026-05-01T07:59:54Z</time></trkpt><trkpt lat="40.89840501445903" lon="9.28685656311927"><ele>376.0</ele><time>2026-05-01T07:59:56Z</time></trkpt><trkpt lat="40.89836739584718" lon="9.28671209194067"><ele>376.0</ele><time>2026-05-01T07:59:58Z</time></trkpt><trkpt lat="40.89834924146578" lon="9.28663100237548"><ele>376.0</ele><time>2026-05-01T07:59:59Z</time></trkpt><trkpt lat="40.89831039285407" lon="9.286490666154037"><ele>376.0</ele><time>2026-05-01T08:00:01Z</time></trkpt><trkpt lat="40.89829029189644" lon="9.286406489342859"><ele>376.0</ele><time>2026-05-01T08:00:02Z</time></trkpt><trkpt lat="40.89825401899514" lon="9.286266820730054"><ele>377.0</ele><time>2026-05-01T08:00:04Z</time></trkpt><trkpt lat="40.89821594756257" lon="9.286116545770437"><ele>378.0</ele><time>2026-05-01T08:00:06Z</time></trkpt><trkpt lat="40.898171728213676" lon="9.285970159434607"><ele>379.0</ele><time>2026-05-01T08:00:08Z</time></trkpt><trkpt lat="40.89813996043871" lon="9.285829793115564"><ele>380.0</ele><time>2026-05-01T08:00:10Z</time></trkpt><trkpt lat="40.89810613004112" lon="9.285688776610959"><ele>380.6</ele><time>2026-05-01T08:00:12Z</time></trkpt><trkpt lat="40.89807284063169" lon="9.285550795000557"><ele>381.2</ele><time>2026-05-01T08:00:14Z</time></trkpt><trkpt lat="40.8980384586326" lon="9.28540812295524"><ele>381.79999999999995</ele><time>2026-05-01T08:00:16Z</time></trkpt><trkpt lat="40.89800686679608" lon="9.285272578570964"><ele>382.4</ele><time>2026-05-01T08:00:18Z</time></trkpt><trkpt lat="40.89797874184072" lon="9.28512946210285"><ele>383.0</ele><time>2026-05-01T08:00:20Z</time></trkpt><trkpt lat="40.89795555858286" lon="9.284980867532429"><ele>383.0</ele><time>2026-05-01T08:00:22Z</time></trkpt><trkpt lat="40.897939536896125" lon="9.284828232525284"><ele>383.0</ele><time>2026-05-01T08:00:24Z</time></trkpt><trkpt lat="40.897940110429985" lon="9.284691601011403"><ele>383.0</ele><time>2026-05-01T08:00:26Z</time></trkpt><trkpt lat="40.897958126721335" lon="9.284545994706297"><ele>383.0</ele><time>2026-05-01T08:00:28Z</time></trkpt><trkpt lat="40.89794866236027" lon="9.284387017513572"><ele>384.0</ele><time>2026-05-01T08:00:30Z</time></trkpt><trkpt lat="40.89797012266724" lon="9.284245718499454"><ele>385.0</ele><time>2026-05-01T08:00:32Z</time></trkpt><trkpt lat="40.897993794320605" lon="9.284101529984536"><ele>386.0</ele><time>2026-05-01T08:00:34Z</time></trkpt><trkpt lat="40.898016471813754" lon="9.28394027503056"><ele>387.0</ele><time>2026-05-01T08:00:36Z</time></trkpt><trkpt lat="40.89803608117584" lon="9.283776204827854"><ele>387.0</ele><time>2026-05-01T08:00:38Z</time></trkpt><trkpt lat="40.89805119649745" lon="9.283626401311759"><ele>387.0</ele><time>2026-05-01T08:00:40Z</time></trkpt><trkpt lat="40.89807510450834" lon="9.283473059591365"><ele>387.0</ele><time>2026-05-01T08:00:42Z</time></trkpt><trkpt lat="40.89809105781562" lon="9.28331994423648"><ele>387.0</ele><time>2026-05-01T08:00:44Z</time></trkpt><trkpt lat="40.89811772732659" lon="9.283173889848875"><ele>387.75</ele><time>2026-05-01T08:00:46Z</time></trkpt><trkpt lat="40.89812937791612" lon="9.28303362635422"><ele>388.5</ele><time>2026-05-01T08:00:48Z</time></trkpt><trkpt lat="40.89814313210276" lon="9.282872366676674"><ele>389.25</ele><time>2026-05-01T08:00:50Z</time></trkpt><trkpt lat="40.898165616774165" lon="9.282714061375238"><ele>390.0</ele><time>2026-05-01T08:00:52Z</time></trkpt><trkpt lat="40.89816981482253" lon="9.282571705530193"><ele>390.0</ele><time>2026-05-01T08:00:54Z</time></trkpt><trkpt lat="40.898173005380954" lon="9.282425687516401"><ele>390.0</ele><time>2026-05-01T08:00:56Z</time></trkpt><trkpt lat="40.89814117416161" lon="9.282319600462499"><ele>390.0</ele><time>2026-05-01T08:01:00Z</time></trkpt><trkpt lat="40.89814288761869" lon="9.282137108934025"><ele>390.0</ele><time>2026-05-01T08:01:02Z</time></trkpt><trkpt lat="40.89811607067058" lon="9.282046585821073"><ele>390.0</ele><time>2026-05-01T08:01:04Z</time></trkpt><trkpt lat="40.89812278120119" lon="9.281955159099402"><ele>392.0</ele><time>2026-05-01T08:01:06Z</time></trkpt><trkpt lat="40.89811106859166" lon="9.281835837051103"><ele>394.0</ele><time>2026-05-01T08:01:08Z</time></trkpt><trkpt lat="40.898094200944094" lon="9.281733595875963"><ele>396.0</ele><time>2026-05-01T08:01:11Z</time></trkpt><trkpt lat="40.89793206148592" lon="9.28123612339997"><ele>398.4</ele><time>2026-05-01T08:01:12Z</time></trkpt><trkpt lat="40.897882496102646" lon="9.28110188978959"><ele>400.8</ele><time>2026-05-01T08:01:14Z</time></trkpt><trkpt lat="40.89786992212877" lon="9.281005769096135"><ele>403.2</ele><time>2026-05-01T08:01:15Z</time></trkpt><trkpt lat="40.89781527071385" lon="9.28088530411466"><ele>405.59999999999997</ele><time>2026-05-01T08:01:17Z</time></trkpt><trkpt lat="40.89780819491383" lon="9.280793095793602"><ele>408.0</ele><time>2026-05-01T08:01:18Z</time></trkpt><trkpt lat="40.897749381104795" lon="9.280675891114427"><ele>411.75</ele><time>2026-05-01T08:01:20Z</time></trkpt><trkpt lat="40.89770590965527" lon="9.28053894552419"><ele>415.5</ele><time>2026-05-01T08:01:22Z</time></trkpt><trkpt lat="40.89764866523537" lon="9.28039961836027"><ele>419.25</ele><time>2026-05-01T08:01:24Z</time></trkpt><trkpt lat="40.8976010877061" lon="9.280253811490109"><ele>423.0</ele><time>2026-05-01T08:01:26Z</time></trkpt><trkpt lat="40.89754885438104" lon="9.280107068664295"><ele>418.75</ele><time>2026-05-01T08:01:28Z</time></trkpt><trkpt lat="40.89749728846268" lon="9.279974781588674"><ele>414.5</ele><time>2026-05-01T08:01:30Z</time></trkpt><trkpt lat="40.897441858037084" lon="9.279825971193247"><ele>410.25</ele><time>2026-05-01T08:01:32Z</time></trkpt><trkpt lat="40.89738991308964" lon="9.279691245317611"><ele>406.0</ele><time>2026-05-01T08:01:34Z</time></trkpt><trkpt lat="40.89731271605706" lon="9.27956589071392"><ele>406.00000000000006</ele><time>2026-05-01T08:01:36Z</time></trkpt><trkpt lat="40.897231500043524" lon="9.279445729792297"><ele>406.0</ele><time>2026-05-01T08:01:38Z</time></trkpt><trkpt lat="40.89717500519419" lon="9.279379369941248"><ele>406.0</ele><time>2026-05-01T08:01:39Z</time></trkpt><trkpt lat="40.89709382279503" lon="9.279261125898856"><ele>406.0</ele><time>2026-05-01T08:01:41Z</time></trkpt><trkpt lat="40.89704699914619" lon="9.279200248717693"><ele>406.00000000000006</ele><time>2026-05-01T08:01:42Z</time></trkpt><trkpt lat="40.8969921677429" lon="9.279155429807282"><ele>406.0</ele><time>2026-05-01T08:01:43Z</time></trkpt><trkpt lat="40.896941927129355" lon="9.27910278972705"><ele>406.0</ele><time>2026-05-01T08:01:44Z</time></trkpt><trkpt lat="40.89686146832365" lon="9.278987787436805"><ele>406.0</ele><time>2026-05-01T08:01:46Z</time></trkpt><trkpt lat="40.89676997887924" lon="9.27887676793897"><ele>406.0</ele><time>2026-05-01T08:01:48Z</time></trkpt><trkpt lat="40.896722472917126" lon="9.278816704625205"><ele>406.0</ele><time>2026-05-01T08:01:49Z</time></trkpt><trkpt lat="40.89663062489274" lon="9.278709344176827"><ele>406.0</ele><time>2026-05-01T08:01:51Z</time></trkpt><trkpt lat="40.896566032513896" lon="9.27856989167921"><ele>406.00000000000006</ele><time>2026-05-01T08:01:53Z</time></trkpt><trkpt lat="40.896516827393704" lon="9.27850943653103"><ele>406.0</ele><time>2026-05-01T08:01:54Z</time></trkpt><trkpt lat="40.896460015208774" lon="9.278354557220553"><ele>406.0</ele><time>2026-05-01T08:01:56Z</time></trkpt><trkpt lat="40.89642895734559" lon="9.278282050122101"><ele>406.0</ele><time>2026-05-01T08:01:57Z</time></trkpt><trkpt lat="40.896389850978736" lon="9.27820222273501"><ele>406.00000000000006</ele><time>2026-05-01T08:01:58Z</time></trkpt><trkpt lat="40.89637009907105" lon="9.278115256416836"><ele>406.0</ele><time>2026-05-01T08:01:59Z</time></trkpt><trkpt lat="40.89633828576029" lon="9.277964825500662"><ele>406.00000000000006</ele><time>2026-05-01T08:02:01Z</time></trkpt><trkpt lat="40.89631783167188" lon="9.277885429665842"><ele>406.0</ele><time>2026-05-01T08:02:02Z</time></trkpt><trkpt lat="40.89630414156369" lon="9.277798847603702"><ele>406.0</ele><time>2026-05-01T08:02:03Z</time></trkpt><trkpt lat="40.89627912193397" lon="9.277640180373476"><ele>406.0</ele><time>2026-05-01T08:02:05Z</time></trkpt><trkpt lat="40.89626348462592" lon="9.277555642566636"><ele>406.00000000000006</ele><time>2026-05-01T08:02:06Z</time></trkpt><trkpt lat="40.89623764236939" lon="9.277395815358673"><ele>406.0</ele><time>2026-05-01T08:02:08Z</time></trkpt><trkpt lat="40.896227255074585" lon="9.27730545316099"><ele>406.6</ele><time>2026-05-01T08:02:09Z</time></trkpt><trkpt lat="40.89621177151901" lon="9.277158203292245"><ele>407.20000000000005</ele><time>2026-05-01T08:02:11Z</time></trkpt><trkpt lat="40.896199895634844" lon="9.27707474702689"><ele>407.79999999999995</ele><time>2026-05-01T08:02:12Z</time></trkpt><trkpt lat="40.89617743583782" lon="9.276915636808583"><ele>408.4</ele><time>2026-05-01T08:02:14Z</time></trkpt><trkpt lat="40.8961589210982" lon="9.276792223368606"><ele>409.0</ele><time>2026-05-01T08:02:16Z</time></trkpt><trkpt lat="40.896140909059234" lon="9.276699753930414"><ele>409.00000000000006</ele><time>2026-05-01T08:02:17Z</time></trkpt><trkpt lat="40.89612822629488" lon="9.276617326535462"><ele>409.0</ele><time>2026-05-01T08:02:18Z</time></trkpt><trkpt lat="40.89609985887751" lon="9.276458799167282"><ele>409.0</ele><time>2026-05-01T08:02:20Z</time></trkpt><trkpt lat="40.89608549465872" lon="9.276374728721715"><ele>409.0</ele><time>2026-05-01T08:02:21Z</time></trkpt><trkpt lat="40.896070734599455" lon="9.276283626773791"><ele>409.00000000000006</ele><time>2026-05-01T08:02:22Z</time></trkpt><trkpt lat="40.89605077157749" lon="9.276203912122192"><ele>409.0</ele><time>2026-05-01T08:02:23Z</time></trkpt><trkpt lat="40.89600856606901" lon="9.276061393434667"><ele>410.2</ele><time>2026-05-01T08:02:25Z</time></trkpt><trkpt lat="40.89595269322529" lon="9.27590418396807"><ele>411.4</ele><time>2026-05-01T08:02:27Z</time></trkpt><trkpt lat="40.89589197467421" lon="9.275759628886387"><ele>412.6</ele><time>2026-05-01T08:02:29Z</time></trkpt><trkpt lat="40.89586222159105" lon="9.275684599012141"><ele>413.8</ele><time>2026-05-01T08:02:30Z</time></trkpt><trkpt lat="40.89583068969371" lon="9.275612046536349"><ele>415.0</ele><time>2026-05-01T08:02:31Z</time></trkpt><trkpt lat="40.89577055929558" lon="9.275474066823664"><ele>411.83333333333337</ele><time>2026-05-01T08:02:33Z</time></trkpt><trkpt lat="40.895738592567135" lon="9.275400109357756"><ele>408.6666666666667</ele><time>2026-05-01T08:02:34Z</time></trkpt><trkpt lat="40.89570613131133" lon="9.2753040049222"><ele>405.5</ele><time>2026-05-01T08:02:37Z</time></trkpt><trkpt lat="40.89566831396975" lon="9.275226570222545"><ele>402.33333333333337</ele><time>2026-05-01T08:02:39Z</time></trkpt><trkpt lat="40.89565116481425" lon="9.275135077209844"><ele>399.1666666666667</ele><time>2026-05-01T08:02:42Z</time></trkpt><trkpt lat="40.895608508251684" lon="9.275024866127966"><ele>396.0</ele><time>2026-05-01T08:02:46Z</time></trkpt><trkpt lat="40.89554336390682" lon="9.274921570675087"><ele>396.0</ele><time>2026-05-01T08:02:48Z</time></trkpt><trkpt lat="40.89549171342373" lon="9.27485968744401"><ele>396.0</ele><time>2026-05-01T08:02:49Z</time></trkpt><trkpt lat="40.89543658890633" lon="9.274775271448474"><ele>396.0</ele><time>2026-05-01T08:02:50Z</time></trkpt><trkpt lat="40.895401281141915" lon="9.274683224250076"><ele>396.0</ele><time>2026-05-01T08:02:51Z</time></trkpt><trkpt lat="40.89535383268629" lon="9.274609999856033"><ele>396.0</ele><time>2026-05-01T08:02:52Z</time></trkpt><trkpt lat="40.89529036255652" lon="9.274516625426742"><ele>396.0</ele><time>2026-05-01T08:02:53Z</time></trkpt><trkpt lat="40.89523154835001" lon="9.274446222089729"><ele>395.4</ele><time>2026-05-01T08:02:54Z</time></trkpt><trkpt lat="40.89515968154779" lon="9.274362294228304"><ele>394.8</ele><time>2026-05-01T08:02:55Z</time></trkpt><trkpt lat="40.895099432057705" lon="9.274294444826326"><ele>394.2</ele><time>2026-05-01T08:02:56Z</time></trkpt><trkpt lat="40.89501593446755" lon="9.274203026987383"><ele>393.59999999999997</ele><time>2026-05-01T08:02:57Z</time></trkpt><trkpt lat="40.89492678439715" lon="9.274105420446418"><ele>393.0</ele><time>2026-05-01T08:02:58Z</time></trkpt><trkpt lat="40.894831268397866" lon="9.274024532869229"><ele>395.4</ele><time>2026-05-01T08:02:59Z</time></trkpt><trkpt lat="40.89473715893659" lon="9.273904685823782"><ele>397.79999999999995</ele><time>2026-05-01T08:03:00Z</time></trkpt><trkpt lat="40.894675898029796" lon="9.27381470591111"><ele>400.2</ele><time>2026-05-01T08:03:01Z</time></trkpt><trkpt lat="40.89463466022235" lon="9.273734180794307"><ele>402.6</ele><time>2026-05-01T08:03:02Z</time></trkpt><trkpt lat="40.89459557714457" lon="9.273658616128097"><ele>405.0</ele><time>2026-05-01T08:03:03Z</time></trkpt><trkpt lat="40.89452757637101" lon="9.273522737773684"><ele>405.0</ele><time>2026-05-01T08:03:05Z</time></trkpt><trkpt lat="40.894458097786995" lon="9.273387668577183"><ele>405.0</ele><time>2026-05-01T08:03:07Z</time></trkpt><trkpt lat="40.89442126394787" lon="9.273315245904302"><ele>405.0</ele><time>2026-05-01T08:03:08Z</time></trkpt><trkpt lat="40.8943876438237" lon="9.273244168008022"><ele>405.0</ele><time>2026-05-01T08:03:09Z</time></trkpt><trkpt lat="40.894323199147415" lon="9.273117118645294"><ele>405.0</ele><time>2026-05-01T08:03:11Z</time></trkpt><trkpt lat="40.894251277140384" lon="9.272982710854377"><ele>405.0</ele><time>2026-05-01T08:03:13Z</time></trkpt><trkpt lat="40.89418217624201" lon="9.272852638802096"><ele>405.0</ele><time>2026-05-01T08:03:15Z</time></trkpt><trkpt lat="40.8941194054644" lon="9.272743908828373"><ele>405.0</ele><time>2026-05-01T08:03:17Z</time></trkpt><trkpt lat="40.89405364392321" lon="9.272615160797105"><ele>405.0</ele><time>2026-05-01T08:03:19Z</time></trkpt><trkpt lat="40.89398940754144" lon="9.272503814419416"><ele>405.0</ele><time>2026-05-01T08:03:21Z</time></trkpt><trkpt lat="40.89390400737381" lon="9.272389313961298"><ele>408.6</ele><time>2026-05-01T08:03:23Z</time></trkpt><trkpt lat="40.89382886159854" lon="9.272263649895736"><ele>412.2</ele><time>2026-05-01T08:03:25Z</time></trkpt><trkpt lat="40.89377791327987" lon="9.272210062068353"><ele>415.79999999999995</ele><time>2026-05-01T08:03:26Z</time></trkpt><trkpt lat="40.89370180114056" lon="9.272131179684377"><ele>419.4</ele><time>2026-05-01T08:03:28Z</time></trkpt><trkpt lat="40.89362130500767" lon="9.272079783767765"><ele>423.0</ele><time>2026-05-01T08:03:29Z</time></trkpt><trkpt lat="40.89353015824468" lon="9.271984024994367"><ele>423.0</ele><time>2026-05-01T08:03:31Z</time></trkpt><trkpt lat="40.89342375998861" lon="9.271888421613582"><ele>423.0</ele><time>2026-05-01T08:03:33Z</time></trkpt><trkpt lat="40.8933400862505" lon="9.271787551126634"><ele>423.0</ele><time>2026-05-01T08:03:35Z</time></trkpt><trkpt lat="40.89328273920975" lon="9.271746208886293"><ele>423.0</ele><time>2026-05-01T08:03:36Z</time></trkpt><trkpt lat="40.89321640933742" lon="9.27170381590614"><ele>423.0</ele><time>2026-05-01T08:03:37Z</time></trkpt><trkpt lat="40.893119411597596" lon="9.271615986691781"><ele>420.75</ele><time>2026-05-01T08:03:39Z</time></trkpt><trkpt lat="40.89302485994678" lon="9.271514921876985"><ele>418.5</ele><time>2026-05-01T08:03:41Z</time></trkpt><trkpt lat="40.89294116142583" lon="9.271410706162126"><ele>416.25</ele><time>2026-05-01T08:03:43Z</time></trkpt><trkpt lat="40.89286957641419" lon="9.27127058938878"><ele>414.0</ele><time>2026-05-01T08:03:45Z</time></trkpt><trkpt lat="40.89280196128088" lon="9.271133085968456"><ele>414.0</ele><time>2026-05-01T08:03:47Z</time></trkpt><trkpt lat="40.8927300764218" lon="9.271013159963829"><ele>414.0</ele><time>2026-05-01T08:03:49Z</time></trkpt><trkpt lat="40.892682023602816" lon="9.270889487943212"><ele>414.0</ele><time>2026-05-01T08:03:51Z</time></trkpt><trkpt lat="40.89261304513042" lon="9.270783970042169"><ele>414.0</ele><time>2026-05-01T08:03:53Z</time></trkpt><trkpt lat="40.8925651529115" lon="9.2706362577321"><ele>414.0</ele><time>2026-05-01T08:03:55Z</time></trkpt><trkpt lat="40.892501197094326" lon="9.270515885242878"><ele>411.0</ele><time>2026-05-01T08:03:57Z</time></trkpt><trkpt lat="40.892441141698" lon="9.27039831280883"><ele>408.0</ele><time>2026-05-01T08:03:59Z</time></trkpt><trkpt lat="40.89237516353207" lon="9.270280443922344"><ele>405.0</ele><time>2026-05-01T08:04:01Z</time></trkpt><trkpt lat="40.89232722732922" lon="9.270149462174066"><ele>402.0</ele><time>2026-05-01T08:04:03Z</time></trkpt><trkpt lat="40.89226731232923" lon="9.270026867437045"><ele>399.0</ele><time>2026-05-01T08:04:05Z</time></trkpt><trkpt lat="40.8922133171293" lon="9.269900777777549"><ele>399.0</ele><time>2026-05-01T08:04:07Z</time></trkpt><trkpt lat="40.89216317709268" lon="9.269785782212727"><ele>399.0</ele><time>2026-05-01T08:04:09Z</time></trkpt><trkpt lat="40.89210034660051" lon="9.269660993551835"><ele>399.0</ele><time>2026-05-01T08:04:11Z</time></trkpt><trkpt lat="40.892056393458425" lon="9.269557025215775"><ele>399.0</ele><time>2026-05-01T08:04:13Z</time></trkpt><trkpt lat="40.892008800036386" lon="9.269470611378953"><ele>399.0</ele><time>2026-05-01T08:04:15Z</time></trkpt><trkpt lat="40.89200852412111" lon="9.26938532298014"><ele>399.0</ele><time>2026-05-01T08:04:16Z</time></trkpt><trkpt lat="40.89195175305707" lon="9.269253741237588"><ele>400.4</ele><time>2026-05-01T08:04:18Z</time></trkpt><trkpt lat="40.89193104819084" lon="9.26912019903487"><ele>401.79999999999995</ele><time>2026-05-01T08:04:20Z</time></trkpt><trkpt lat="40.891908505453465" lon="9.268993457390108"><ele>403.20000000000005</ele><time>2026-05-01T08:04:22Z</time></trkpt><trkpt lat="40.891900616833695" lon="9.26885257324685"><ele>404.6</ele><time>2026-05-01T08:04:24Z</time></trkpt><trkpt lat="40.89190177679584" lon="9.268716425399083"><ele>406.0</ele><time>2026-05-01T08:04:26Z</time></trkpt><trkpt lat="40.8919425153961" lon="9.268632588469202"><ele>407.50000000000006</ele><time>2026-05-01T08:04:27Z</time></trkpt><trkpt lat="40.891907509937376" lon="9.268505606815346"><ele>409.0</ele><time>2026-05-01T08:04:29Z</time></trkpt><trkpt lat="40.891904822778976" lon="9.268411785464187"><ele>410.5</ele><time>2026-05-01T08:04:32Z</time></trkpt><trkpt lat="40.89191552444097" lon="9.268311581929"><ele>412.0</ele><time>2026-05-01T08:04:34Z</time></trkpt><trkpt lat="40.89191379776803" lon="9.268225658793694"><ele>413.50000000000006</ele><time>2026-05-01T08:04:36Z</time></trkpt><trkpt lat="40.89192540232194" lon="9.268133784672"><ele>415.0</ele><time>2026-05-01T08:04:38Z</time></trkpt><trkpt lat="40.89192416478124" lon="9.268035363059047"><ele>415.8</ele><time>2026-05-01T08:04:40Z</time></trkpt><trkpt lat="40.89193436873596" lon="9.267946746800739"><ele>416.6</ele><time>2026-05-01T08:04:42Z</time></trkpt><trkpt lat="40.89194755722493" lon="9.26785803839787"><ele>417.4</ele><time>2026-05-01T08:04:44Z</time></trkpt><trkpt lat="40.89195249056063" lon="9.26774779498419"><ele>418.2</ele><time>2026-05-01T08:04:47Z</time></trkpt><trkpt lat="40.89196623922101" lon="9.26764130445468"><ele>419.0</ele><time>2026-05-01T08:04:50Z</time></trkpt><trkpt lat="40.89200663114553" lon="9.266984944912942"><ele>419.0</ele><time>2026-05-01T08:04:52Z</time></trkpt><trkpt lat="40.8920099320517" lon="9.266866169818902"><ele>419.0</ele><time>2026-05-01T08:04:54Z</time></trkpt><trkpt lat="40.89204942454998" lon="9.266786031613044"><ele>419.0</ele><time>2026-05-01T08:04:56Z</time></trkpt><trkpt lat="40.89199716030504" lon="9.266678082068982"><ele>419.0</ele><time>2026-05-01T08:04:57Z</time></trkpt><trkpt lat="40.891995992136216" lon="9.266549719736378"><ele>419.0</ele><time>2026-05-01T08:04:59Z</time></trkpt><trkpt lat="40.89199048215747" lon="9.266413328446141"><ele>417.2</ele><time>2026-05-01T08:05:01Z</time></trkpt><trkpt lat="40.89204157312038" lon="9.266284792199292"><ele>415.4</ele><time>2026-05-01T08:05:03Z</time></trkpt><trkpt lat="40.892001186792186" lon="9.266164820760466"><ele>413.6</ele><time>2026-05-01T08:05:05Z</time></trkpt><trkpt lat="40.89191545386613" lon="9.266129168121333"><ele>411.8</ele><time>2026-05-01T08:05:08Z</time></trkpt><trkpt lat="40.891862936539376" lon="9.266256760138559"><ele>410.0</ele><time>2026-05-01T08:05:10Z</time></trkpt><trkpt lat="40.891798202123425" lon="9.26628878210549"><ele>410.0</ele><time>2026-05-01T08:05:11Z</time></trkpt><trkpt lat="40.891758211038436" lon="9.266364010435503"><ele>410.0</ele><time>2026-05-01T08:05:12Z</time></trkpt><trkpt lat="40.891656294107875" lon="9.266459473902716"><ele>410.0</ele><time>2026-05-01T08:05:14Z</time></trkpt><trkpt lat="40.891579898052726" lon="9.26651190457915"><ele>410.0</ele><time>2026-05-01T08:05:16Z</time></trkpt><trkpt lat="40.8914870832547" lon="9.266532197208754"><ele>410.0</ele><time>2026-05-01T08:05:18Z</time></trkpt><trkpt lat="40.89137565706913" lon="9.26654742645226"><ele>408.99999999999994</ele><time>2026-05-01T08:05:20Z</time></trkpt><trkpt lat="40.89125095006708" lon="9.26654788074617"><ele>408.0</ele><time>2026-05-01T08:05:22Z</time></trkpt><trkpt lat="40.89118412190905" lon="9.266521757483213"><ele>407.0</ele><time>2026-05-01T08:05:23Z</time></trkpt><trkpt lat="40.891104468025574" lon="9.266510745914271"><ele>406.0</ele><time>2026-05-01T08:05:24Z</time></trkpt><trkpt lat="40.8910297216069" lon="9.2665058882945"><ele>404.99999999999994</ele><time>2026-05-01T08:05:25Z</time></trkpt><trkpt lat="40.890940247084124" lon="9.266486975592084"><ele>404.0</ele><time>2026-05-01T08:05:26Z</time></trkpt><trkpt lat="40.89086920153363" lon="9.266478617119308"><ele>404.0</ele><time>2026-05-01T08:05:27Z</time></trkpt><trkpt lat="40.89078813287666" lon="9.266440515827298"><ele>404.0</ele><time>2026-05-01T08:05:28Z</time></trkpt><trkpt lat="40.89072018843772" lon="9.266416118225386"><ele>404.0</ele><time>2026-05-01T08:05:29Z</time></trkpt><trkpt lat="40.89064416508627" lon="9.266398008907851"><ele>404.0</ele><time>2026-05-01T08:05:30Z</time></trkpt><trkpt lat="40.890574988660084" lon="9.266383333318759"><ele>404.0</ele><time>2026-05-01T08:05:31Z</time></trkpt><trkpt lat="40.89051728657125" lon="9.26634642082989"><ele>404.0</ele><time>2026-05-01T08:05:32Z</time></trkpt><trkpt lat="40.89046664144308" lon="9.266272069461154"><ele>404.0</ele><time>2026-05-01T08:05:33Z</time></trkpt><trkpt lat="40.89042969704107" lon="9.266186279271624"><ele>404.0</ele><time>2026-05-01T08:05:34Z</time></trkpt><trkpt lat="40.89038880203159" lon="9.266078067563415"><ele>404.0</ele><time>2026-05-01T08:05:35Z</time></trkpt><trkpt lat="40.890379443970154" lon="9.265990512857181"><ele>404.0</ele><time>2026-05-01T08:05:36Z</time></trkpt><trkpt lat="40.89036775420382" lon="9.265908582310935"><ele>404.0</ele><time>2026-05-01T08:05:37Z</time></trkpt><trkpt lat="40.89033505637928" lon="9.265831741212914"><ele>404.0</ele><time>2026-05-01T08:05:38Z</time></trkpt><trkpt lat="40.890292082292035" lon="9.265757768431135"><ele>404.0</ele><time>2026-05-01T08:05:39Z</time></trkpt><trkpt lat="40.89025649873246" lon="9.265670705477232"><ele>404.0</ele><time>2026-05-01T08:05:40Z</time></trkpt><trkpt lat="40.890203280117156" lon="9.265532194686815"><ele>403.25</ele><time>2026-05-01T08:05:42Z</time></trkpt><trkpt lat="40.89017197819989" lon="9.265379407472874"><ele>402.5</ele><time>2026-05-01T08:05:44Z</time></trkpt><trkpt lat="40.89013383595633" lon="9.265223582581061"><ele>401.75</ele><time>2026-05-01T08:05:46Z</time></trkpt><trkpt lat="40.89007459297361" lon="9.26507447482596"><ele>401.0</ele><time>2026-05-01T08:05:48Z</time></trkpt><trkpt lat="40.8900035756689" lon="9.264946128533243"><ele>401.0</ele><time>2026-05-01T08:05:50Z</time></trkpt><trkpt lat="40.88994633494266" lon="9.264888464383894"><ele>401.0</ele><time>2026-05-01T08:05:51Z</time></trkpt><trkpt lat="40.889838639670714" lon="9.264823559614987"><ele>401.0</ele><time>2026-05-01T08:05:53Z</time></trkpt><trkpt lat="40.88973716204896" lon="9.264757939946614"><ele>401.0</ele><time>2026-05-01T08:05:55Z</time></trkpt><trkpt lat="40.88967673168731" lon="9.264727649532924"><ele>401.0</ele><time>2026-05-01T08:05:56Z</time></trkpt><trkpt lat="40.88956263184591" lon="9.264683715347966"><ele>401.75</ele><time>2026-05-01T08:05:58Z</time></trkpt><trkpt lat="40.88945386361018" lon="9.264609579140913"><ele>402.5</ele><time>2026-05-01T08:06:00Z</time></trkpt><trkpt lat="40.88936241981595" lon="9.264510539991601"><ele>403.25</ele><time>2026-05-01T08:06:02Z</time></trkpt><trkpt lat="40.88923978602995" lon="9.264464747805867"><ele>404.0</ele><time>2026-05-01T08:06:04Z</time></trkpt><trkpt lat="40.889133999379425" lon="9.264425552607982"><ele>404.0</ele><time>2026-05-01T08:06:06Z</time></trkpt><trkpt lat="40.88903581952609" lon="9.264400537958693"><ele>404.0</ele><time>2026-05-01T08:06:08Z</time></trkpt><trkpt lat="40.88892402835238" lon="9.264367405993413"><ele>404.0</ele><time>2026-05-01T08:06:10Z</time></trkpt><trkpt lat="40.888818938612175" lon="9.264338147063766"><ele>404.0</ele><time>2026-05-01T08:06:12Z</time></trkpt><trkpt lat="40.88872574551256" lon="9.26429756485705"><ele>404.0</ele><time>2026-05-01T08:06:14Z</time></trkpt><trkpt lat="40.8886308015503" lon="9.264232585558391"><ele>404.0</ele><time>2026-05-01T08:06:16Z</time></trkpt><trkpt lat="40.888560244630916" lon="9.264168467005433"><ele>404.0</ele><time>2026-05-01T08:06:18Z</time></trkpt><trkpt lat="40.888508484195526" lon="9.264115288611295"><ele>404.0</ele><time>2026-05-01T08:06:20Z</time></trkpt><trkpt lat="40.88845358687013" lon="9.264070978641158"><ele>404.0</ele><time>2026-05-01T08:06:22Z</time></trkpt><trkpt lat="40.88838280686406" lon="9.264016511923607"><ele>404.0</ele><time>2026-05-01T08:06:24Z</time></trkpt><trkpt lat="40.88832297595914" lon="9.263961076944758"><ele>404.0</ele><time>2026-05-01T08:06:26Z</time></trkpt><trkpt lat="40.8882608821402" lon="9.263901279488545"><ele>404.0</ele><time>2026-05-01T08:06:28Z</time></trkpt><trkpt lat="40.88819570070135" lon="9.263840948277796"><ele>404.49999999999994</ele><time>2026-05-01T08:06:30Z</time></trkpt><trkpt lat="40.88812468964967" lon="9.263788953193117"><ele>405.0</ele><time>2026-05-01T08:06:32Z</time></trkpt><trkpt lat="40.88804757054294" lon="9.263721589338383"><ele>405.5</ele><time>2026-05-01T08:06:34Z</time></trkpt><trkpt lat="40.88798943301439" lon="9.263674124654987"><ele>406.0</ele><time>2026-05-01T08:06:36Z</time></trkpt><trkpt lat="40.88793209070958" lon="9.263597133699626"><ele>406.49999999999994</ele><time>2026-05-01T08:06:40Z</time></trkpt><trkpt lat="40.88786523166238" lon="9.263467355040634"><ele>407.0</ele><time>2026-05-01T08:06:42Z</time></trkpt><trkpt lat="40.88779526500777" lon="9.263364510575405"><ele>406.99999999999994</ele><time>2026-05-01T08:06:44Z</time></trkpt><trkpt lat="40.887765676011696" lon="9.26328325781632"><ele>407.0</ele><time>2026-05-01T08:06:47Z</time></trkpt><trkpt lat="40.887727683052894" lon="9.263154933203753"><ele>407.0</ele><time>2026-05-01T08:06:50Z</time></trkpt><trkpt lat="40.887685364624225" lon="9.263063139415213"><ele>407.0</ele><time>2026-05-01T08:06:53Z</time></trkpt><trkpt lat="40.88762438302247" lon="9.262974153916497"><ele>406.99999999999994</ele><time>2026-05-01T08:06:56Z</time></trkpt><trkpt lat="40.887548549679266" lon="9.262889833136349"><ele>407.0</ele><time>2026-05-01T08:06:59Z</time></trkpt><trkpt lat="40.88748176215236" lon="9.262880177440193"><ele>407.66666666666663</ele><time>2026-05-01T08:07:01Z</time></trkpt><trkpt lat="40.887414309863196" lon="9.262847252127473"><ele>408.3333333333333</ele><time>2026-05-01T08:07:02Z</time></trkpt><trkpt lat="40.887338219005514" lon="9.26278644262582"><ele>409.0</ele><time>2026-05-01T08:07:03Z</time></trkpt><trkpt lat="40.88727569312753" lon="9.262731052128903"><ele>409.66666666666663</ele><time>2026-05-01T08:07:04Z</time></trkpt><trkpt lat="40.88720710184876" lon="9.262676192417732"><ele>410.3333333333333</ele><time>2026-05-01T08:07:05Z</time></trkpt><trkpt lat="40.88714079381147" lon="9.262624091214265"><ele>411.0</ele><time>2026-05-01T08:07:06Z</time></trkpt><trkpt lat="40.887066699459204" lon="9.262570633679347"><ele>411.0</ele><time>2026-05-01T08:07:07Z</time></trkpt><trkpt lat="40.88692312008438" lon="9.262475214685601"><ele>411.0</ele><time>2026-05-01T08:07:09Z</time></trkpt><trkpt lat="40.88683864301376" lon="9.26242719920515"><ele>411.0</ele><time>2026-05-01T08:07:10Z</time></trkpt><trkpt lat="40.88674599101378" lon="9.262392553618932"><ele>411.0</ele><time>2026-05-01T08:07:11Z</time></trkpt><trkpt lat="40.88666461741463" lon="9.262380891682616"><ele>411.0</ele><time>2026-05-01T08:07:12Z</time></trkpt><trkpt lat="40.886601031788466" lon="9.262354755050364"><ele>411.8</ele><time>2026-05-01T08:07:13Z</time></trkpt><trkpt lat="40.88653889023323" lon="9.262276175784194"><ele>412.6</ele><time>2026-05-01T08:07:14Z</time></trkpt><trkpt lat="40.88651637986349" lon="9.262178306660982"><ele>413.4</ele><time>2026-05-01T08:07:15Z</time></trkpt><trkpt lat="40.88644757563453" lon="9.262079874878644"><ele>414.2</ele><time>2026-05-01T08:07:17Z</time></trkpt><trkpt lat="40.88635810390886" lon="9.262071649065668"><ele>415.0</ele><time>2026-05-01T08:07:19Z</time></trkpt><trkpt lat="40.886259587585876" lon="9.262072902050487"><ele>415.00000000000006</ele><time>2026-05-01T08:07:21Z</time></trkpt><trkpt lat="40.886162865034485" lon="9.262075747730082"><ele>415.0</ele><time>2026-05-01T08:07:23Z</time></trkpt><trkpt lat="40.88606963748482" lon="9.262105579182641"><ele>415.0</ele><time>2026-05-01T08:07:27Z</time></trkpt><trkpt lat="40.88600972856816" lon="9.26205966258776"><ele>415.0</ele><time>2026-05-01T08:07:29Z</time></trkpt><trkpt lat="40.885925236322144" lon="9.262084914759484"><ele>415.00000000000006</ele><time>2026-05-01T08:07:31Z</time></trkpt><trkpt lat="40.88584316085649" lon="9.262088999506902"><ele>415.0</ele><time>2026-05-01T08:07:33Z</time></trkpt><trkpt lat="40.885779408613544" lon="9.262081780566731"><ele>414.8</ele><time>2026-05-01T08:07:35Z</time></trkpt><trkpt lat="40.88563215398502" lon="9.26208902459718"><ele>414.6</ele><time>2026-05-01T08:07:37Z</time></trkpt><trkpt lat="40.88556759301138" lon="9.262081462967867"><ele>414.4</ele><time>2026-05-01T08:07:38Z</time></trkpt><trkpt lat="40.8854546295133" lon="9.262058198531037"><ele>414.2</ele><time>2026-05-01T08:07:40Z</time></trkpt><trkpt lat="40.88534913681603" lon="9.262045708670204"><ele>414.0</ele><time>2026-05-01T08:07:42Z</time></trkpt><trkpt lat="40.8852534778806" lon="9.262049445418157"><ele>414.0</ele><time>2026-05-01T08:07:44Z</time></trkpt><trkpt lat="40.885165333873594" lon="9.262051615013243"><ele>414.0</ele><time>2026-05-01T08:07:46Z</time></trkpt><trkpt lat="40.885075413386375" lon="9.262045569777813"><ele>414.0</ele><time>2026-05-01T08:07:48Z</time></trkpt><trkpt lat="40.8849862841298" lon="9.262041791028762"><ele>414.0</ele><time>2026-05-01T08:07:50Z</time></trkpt><trkpt lat="40.88490428452812" lon="9.262033915099492"><ele>414.0</ele><time>2026-05-01T08:07:52Z</time></trkpt><trkpt lat="40.88482317184092" lon="9.262021818517365"><ele>414.0</ele><time>2026-05-01T08:07:54Z</time></trkpt><trkpt lat="40.88476298563949" lon="9.261995367454896"><ele>413.6</ele><time>2026-05-01T08:07:57Z</time></trkpt><trkpt lat="40.88465032717073" lon="9.26196319671869"><ele>413.2</ele><time>2026-05-01T08:07:59Z</time></trkpt><trkpt lat="40.88455774719818" lon="9.2619414574931"><ele>412.8</ele><time>2026-05-01T08:08:01Z</time></trkpt><trkpt lat="40.88448220396661" lon="9.261902293217108"><ele>412.40000000000003</ele><time>2026-05-01T08:08:03Z</time></trkpt><trkpt lat="40.88442515622747" lon="9.261850921151341"><ele>412.0</ele><time>2026-05-01T08:08:06Z</time></trkpt><trkpt lat="40.884332394186515" lon="9.261836706541645"><ele>410.75</ele><time>2026-05-01T08:08:09Z</time></trkpt><trkpt lat="40.88420773279577" lon="9.261765795010794"><ele>409.5</ele><time>2026-05-01T08:08:11Z</time></trkpt><trkpt lat="40.88412090494033" lon="9.261671941044709"><ele>408.25</ele><time>2026-05-01T08:08:13Z</time></trkpt><trkpt lat="40.8840226034096" lon="9.261611331708053"><ele>407.0</ele><time>2026-05-01T08:08:15Z</time></trkpt><trkpt lat="40.88393447482649" lon="9.261558000844188"><ele>407.0</ele><time>2026-05-01T08:08:17Z</time></trkpt><trkpt lat="40.88384079976543" lon="9.261523987352856"><ele>407.0</ele><time>2026-05-01T08:08:19Z</time></trkpt><trkpt lat="40.88376139392868" lon="9.261453156465741"><ele>407.0</ele><time>2026-05-01T08:08:21Z</time></trkpt><trkpt lat="40.883675847518916" lon="9.261419009348502"><ele>407.0</ele><time>2026-05-01T08:08:23Z</time></trkpt><trkpt lat="40.883600764288424" lon="9.261340974688068"><ele>407.0</ele><time>2026-05-01T08:08:25Z</time></trkpt><trkpt lat="40.883508341993014" lon="9.261312866005424"><ele>408.16666666666663</ele><time>2026-05-01T08:08:27Z</time></trkpt><trkpt lat="40.88342449589494" lon="9.261251079492137"><ele>409.3333333333333</ele><time>2026-05-01T08:08:29Z</time></trkpt><trkpt lat="40.88333949837525" lon="9.261230926533635"><ele>410.5</ele><time>2026-05-01T08:08:31Z</time></trkpt><trkpt lat="40.883260063218195" lon="9.261168105300678"><ele>411.66666666666663</ele><time>2026-05-01T08:08:33Z</time></trkpt><trkpt lat="40.88317386731038" lon="9.261131708657063"><ele>412.8333333333333</ele><time>2026-05-01T08:08:35Z</time></trkpt><trkpt lat="40.883094479810424" lon="9.261114645747776"><ele>414.0</ele><time>2026-05-01T08:08:37Z</time></trkpt><trkpt lat="40.88300725388355" lon="9.261133026797454"><ele>414.0</ele><time>2026-05-01T08:08:39Z</time></trkpt><trkpt lat="40.8829325012802" lon="9.26118706933709"><ele>414.0</ele><time>2026-05-01T08:08:41Z</time></trkpt><trkpt lat="40.88286204302197" lon="9.261221942732863"><ele>414.0</ele><time>2026-05-01T08:08:43Z</time></trkpt><trkpt lat="40.882784384465616" lon="9.2612553431718"><ele>414.0</ele><time>2026-05-01T08:08:45Z</time></trkpt><trkpt lat="40.882711777949545" lon="9.261289259986185"><ele>414.0</ele><time>2026-05-01T08:08:47Z</time></trkpt><trkpt lat="40.882644385189415" lon="9.26132605003155"><ele>414.0</ele><time>2026-05-01T08:08:49Z</time></trkpt><trkpt lat="40.882571743166984" lon="9.26135077745307"><ele>414.0</ele><time>2026-05-01T08:08:51Z</time></trkpt><trkpt lat="40.882502727265305" lon="9.261387420525468"><ele>414.0</ele><time>2026-05-01T08:08:53Z</time></trkpt><trkpt lat="40.88243577768562" lon="9.261416210387718"><ele>414.0</ele><time>2026-05-01T08:08:55Z</time></trkpt><trkpt lat="40.88236712968149" lon="9.261432569611646"><ele>414.0</ele><time>2026-05-01T08:08:57Z</time></trkpt><trkpt lat="40.88226714899846" lon="9.261440552071274"><ele>414.0</ele><time>2026-05-01T08:09:01Z</time></trkpt><trkpt lat="40.88216468820669" lon="9.261500641946888"><ele>414.0</ele><time>2026-05-01T08:09:04Z</time></trkpt><trkpt lat="40.88209044022289" lon="9.261531214923837"><ele>414.00000000000006</ele><time>2026-05-01T08:09:06Z</time></trkpt><trkpt lat="40.882015459270995" lon="9.26156158813411"><ele>414.0</ele><time>2026-05-01T08:09:09Z</time></trkpt><trkpt lat="40.88194029901232" lon="9.26159547357915"><ele>414.0</ele><time>2026-05-01T08:09:12Z</time></trkpt><trkpt lat="40.88187410764883" lon="9.261615127878859"><ele>414.0</ele><time>2026-05-01T08:09:14Z</time></trkpt><trkpt lat="40.8818032308173" lon="9.26162037936175"><ele>414.0</ele><time>2026-05-01T08:09:17Z</time></trkpt><trkpt lat="40.88172890716909" lon="9.261637925950966"><ele>414.00000000000006</ele><time>2026-05-01T08:09:20Z</time></trkpt><trkpt lat="40.88165325717333" lon="9.26165396476083"><ele>414.0</ele><time>2026-05-01T08:09:23Z</time></trkpt><trkpt lat="40.88158136590772" lon="9.261672955271921"><ele>414.8571428571429</ele><time>2026-05-01T08:09:26Z</time></trkpt><trkpt lat="40.8815011467707" lon="9.261670993110078"><ele>415.7142857142857</ele><time>2026-05-01T08:09:29Z</time></trkpt><trkpt lat="40.88142044250221" lon="9.261679088669027"><ele>416.57142857142856</ele><time>2026-05-01T08:09:32Z</time></trkpt><trkpt lat="40.88134930558238" lon="9.26168884688962"><ele>417.42857142857144</ele><time>2026-05-01T08:09:35Z</time></trkpt><trkpt lat="40.88128285642451" lon="9.261686035003745"><ele>418.2857142857143</ele><time>2026-05-01T08:09:38Z</time></trkpt><trkpt lat="40.881217920900006" lon="9.261691695089576"><ele>419.14285714285717</ele><time>2026-05-01T08:09:41Z</time></trkpt><trkpt lat="40.8811485797507" lon="9.261702782708436"><ele>420.0</ele><time>2026-05-01T08:09:44Z</time></trkpt><trkpt lat="40.88107723913824" lon="9.261714305167922"><ele>420.0</ele><time>2026-05-01T08:09:47Z</time></trkpt><trkpt lat="40.88101050564262" lon="9.261716336416976"><ele>420.0</ele><time>2026-05-01T08:09:50Z</time></trkpt><trkpt lat="40.88094741851396" lon="9.261729647053556"><ele>420.0</ele><time>2026-05-01T08:09:53Z</time></trkpt><trkpt lat="40.88088138339329" lon="9.261728710569804"><ele>420.0</ele><time>2026-05-01T08:09:57Z</time></trkpt><trkpt lat="40.880809203851214" lon="9.261742111078116"><ele>420.0</ele><time>2026-05-01T08:10:00Z</time></trkpt><trkpt lat="40.88074917438397" lon="9.261700100379834"><ele>420.0</ele><time>2026-05-01T08:10:04Z</time></trkpt><trkpt lat="40.88071820952239" lon="9.261593911447955"><ele>420.0</ele><time>2026-05-01T08:10:09Z</time></trkpt><trkpt lat="40.880679248063366" lon="9.261503433491368"><ele>422.2857142857143</ele><time>2026-05-01T08:10:13Z</time></trkpt><trkpt lat="40.880638474236406" lon="9.261416079527624"><ele>424.57142857142856</ele><time>2026-05-01T08:10:17Z</time></trkpt><trkpt lat="40.88060070288369" lon="9.261328585941127"><ele>426.8571428571429</ele><time>2026-05-01T08:10:21Z</time></trkpt><trkpt lat="40.8805593964426" lon="9.261248046828888"><ele>429.1428571428571</ele><time>2026-05-01T08:10:26Z</time></trkpt><trkpt lat="40.88050687929755" lon="9.261188199410288"><ele>431.42857142857144</ele><time>2026-05-01T08:10:30Z</time></trkpt><trkpt lat="40.88044079804444" lon="9.261163480372625"><ele>433.7142857142857</ele><time>2026-05-01T08:10:33Z</time></trkpt><trkpt lat="40.88037765988701" lon="9.261138898169756"><ele>436.0</ele><time>2026-05-01T08:10:36Z</time></trkpt><trkpt lat="40.880310436354065" lon="9.261072214807783"><ele>436.0</ele><time>2026-05-01T08:10:42Z</time></trkpt><trkpt lat="40.88031679245906" lon="9.260983769864394"><ele>436.0</ele><time>2026-05-01T08:10:46Z</time></trkpt><trkpt lat="40.880336960360744" lon="9.260899650871409"><ele>436.0</ele><time>2026-05-01T08:10:51Z</time></trkpt><trkpt lat="40.88040067377401" lon="9.260859499957203"><ele>436.0</ele><time>2026-05-01T08:10:56Z</time></trkpt><trkpt lat="40.880437223626174" lon="9.26078750353425"><ele>436.0</ele><time>2026-05-01T08:11:00Z</time></trkpt><trkpt lat="40.88049962505365" lon="9.260758902680797"><ele>436.0</ele><time>2026-05-01T08:11:05Z</time></trkpt><trkpt lat="40.88056300785809" lon="9.260695588294636"><ele>436.0</ele><time>2026-05-01T08:11:10Z</time></trkpt><trkpt lat="40.880613095592736" lon="9.260630026255699"><ele>437.42857142857144</ele><time>2026-05-01T08:11:16Z</time></trkpt><trkpt lat="40.88061484090207" lon="9.260538246032937"><ele>438.8571428571429</ele><time>2026-05-01T08:11:20Z</time></trkpt><trkpt lat="40.88060798229723" lon="9.260445929768698"><ele>440.2857142857143</ele><time>2026-05-01T08:11:24Z</time></trkpt><trkpt lat="40.88057448639779" lon="9.26037030501377"><ele>441.7142857142857</ele><time>2026-05-01T08:11:28Z</time></trkpt><trkpt lat="40.88056992357881" lon="9.26028578246549"><ele>443.1428571428571</ele><time>2026-05-01T08:11:32Z</time></trkpt><trkpt lat="40.88052546445003" lon="9.260207024142987"><ele>444.57142857142856</ele><time>2026-05-01T08:11:37Z</time></trkpt><trkpt lat="40.88047716916291" lon="9.260122765392236"><ele>446.0</ele><time>2026-05-01T08:11:43Z</time></trkpt><trkpt lat="40.88046351028606" lon="9.260033499233039"><ele>446.0</ele><time>2026-05-01T08:11:49Z</time></trkpt><trkpt lat="40.88040458973315" lon="9.25997642213353"><ele>446.0</ele><time>2026-05-01T08:11:53Z</time></trkpt><trkpt lat="40.880359795668646" lon="9.259880191925587"><ele>446.0</ele><time>2026-05-01T08:11:58Z</time></trkpt><trkpt lat="40.88032638270507" lon="9.259807337011726"><ele>446.0</ele><time>2026-05-01T08:12:03Z</time></trkpt><trkpt lat="40.880279257652234" lon="9.259715099598498"><ele>446.0</ele><time>2026-05-01T08:12:08Z</time></trkpt><trkpt lat="40.88024358715892" lon="9.259646400212162"><ele>446.0</ele><time>2026-05-01T08:12:12Z</time></trkpt><trkpt lat="40.88021012364408" lon="9.259559986334628"><ele>446.0</ele><time>2026-05-01T08:12:16Z</time></trkpt><trkpt lat="40.88017928952779" lon="9.259485138487088"><ele>446.42857142857144</ele><time>2026-05-01T08:12:19Z</time></trkpt><trkpt lat="40.88012780992448" lon="9.259414376277478"><ele>446.85714285714283</ele><time>2026-05-01T08:12:22Z</time></trkpt><trkpt lat="40.880084373867874" lon="9.259325632161495"><ele>447.2857142857143</ele><time>2026-05-01T08:12:26Z</time></trkpt><trkpt lat="40.8800656227458" lon="9.25924493024335"><ele>447.71428571428567</ele><time>2026-05-01T08:12:30Z</time></trkpt><trkpt lat="40.88003478447498" lon="9.259163214524744"><ele>448.1428571428571</ele><time>2026-05-01T08:12:33Z</time></trkpt><trkpt lat="40.88003450757509" lon="9.25907603852272"><ele>448.57142857142856</ele><time>2026-05-01T08:12:37Z</time></trkpt><trkpt lat="40.88002026471552" lon="9.258979201022614"><ele>449.0</ele><time>2026-05-01T08:12:41Z</time></trkpt><trkpt lat="40.880005761022105" lon="9.258888828476172"><ele>451.85714285714283</ele><time>2026-05-01T08:12:44Z</time></trkpt><trkpt lat="40.88000200858338" lon="9.258783107230867"><ele>454.71428571428567</ele><time>2026-05-01T08:12:48Z</time></trkpt><trkpt lat="40.8799923495653" lon="9.258688662440516"><ele>457.57142857142856</ele><time>2026-05-01T08:12:52Z</time></trkpt><trkpt lat="40.879963976044074" lon="9.258593332823327"><ele>460.42857142857144</ele><time>2026-05-01T08:12:55Z</time></trkpt><trkpt lat="40.87995532298693" lon="9.258504578133959"><ele>463.2857142857143</ele><time>2026-05-01T08:12:58Z</time></trkpt><trkpt lat="40.87995708585837" lon="9.258417728865492"><ele>466.1428571428571</ele><time>2026-05-01T08:13:01Z</time></trkpt><trkpt lat="40.87996814888824" lon="9.258319558627132"><ele>469.0</ele><time>2026-05-01T08:13:04Z</time></trkpt><trkpt lat="40.879986029133995" lon="9.258218591756684"><ele>469.00000000000006</ele><time>2026-05-01T08:13:07Z</time></trkpt><trkpt lat="40.88001686977115" lon="9.258122763973315"><ele>469.0</ele><time>2026-05-01T08:13:10Z</time></trkpt><trkpt lat="40.88002660442257" lon="9.258018989953307"><ele>469.0</ele><time>2026-05-01T08:13:13Z</time></trkpt><trkpt lat="40.880012586944666" lon="9.25791705223573"><ele>469.0</ele><time>2026-05-01T08:13:16Z</time></trkpt><trkpt lat="40.87997487511612" lon="9.257807602967425"><ele>469.00000000000006</ele><time>2026-05-01T08:13:19Z</time></trkpt><trkpt lat="40.87992864700742" lon="9.257719014356955"><ele>469.0</ele><time>2026-05-01T08:13:22Z</time></trkpt><trkpt lat="40.87988646540213" lon="9.257635547037992"><ele>470.42857142857144</ele><time>2026-05-01T08:13:25Z</time></trkpt><trkpt lat="40.87985784440841" lon="9.257543008695082"><ele>471.8571428571429</ele><time>2026-05-01T08:13:28Z</time></trkpt><trkpt lat="40.879832818539214" lon="9.25746087154166"><ele>473.2857142857143</ele><time>2026-05-01T08:13:31Z</time></trkpt><trkpt lat="40.879827134253915" lon="9.257372677861516"><ele>474.7142857142857</ele><time>2026-05-01T08:13:34Z</time></trkpt><trkpt lat="40.87982164637567" lon="9.257262344994157"><ele>476.14285714285717</ele><time>2026-05-01T08:13:38Z</time></trkpt><trkpt lat="40.87983274902655" lon="9.257180311885751"><ele>477.57142857142856</ele><time>2026-05-01T08:13:41Z</time></trkpt><trkpt lat="40.87985164639199" lon="9.257078619989592"><ele>479.0</ele><time>2026-05-01T08:13:45Z</time></trkpt><trkpt lat="40.879861924949196" lon="9.256972239680767"><ele>480.8333333333333</ele><time>2026-05-01T08:13:49Z</time></trkpt><trkpt lat="40.879864995301624" lon="9.256882560582229"><ele>482.66666666666663</ele><time>2026-05-01T08:13:53Z</time></trkpt><trkpt lat="40.879844003162496" lon="9.256797363233444"><ele>484.5</ele><time>2026-05-01T08:13:56Z</time></trkpt><trkpt lat="40.87981728274194" lon="9.256693953884364"><ele>486.33333333333337</ele><time>2026-05-01T08:14:00Z</time></trkpt><trkpt lat="40.87978337654969" lon="9.25659839479207"><ele>488.1666666666667</ele><time>2026-05-01T08:14:04Z</time></trkpt><trkpt lat="40.879731886041256" lon="9.256502484710994"><ele>490.0</ele><time>2026-05-01T08:14:07Z</time></trkpt><trkpt lat="40.87969297755898" lon="9.256430543009099"><ele>491.57142857142856</ele><time>2026-05-01T08:14:09Z</time></trkpt><trkpt lat="40.87965785187139" lon="9.256351751550499"><ele>493.1428571428571</ele><time>2026-05-01T08:14:12Z</time></trkpt><trkpt lat="40.87961775109468" lon="9.25627656309647"><ele>494.7142857142857</ele><time>2026-05-01T08:14:15Z</time></trkpt><trkpt lat="40.87957920636742" lon="9.256185002765122"><ele>496.2857142857143</ele><time>2026-05-01T08:14:18Z</time></trkpt><trkpt lat="40.879567101960035" lon="9.256095237116588"><ele>497.85714285714283</ele><time>2026-05-01T08:14:21Z</time></trkpt><trkpt lat="40.87957431866556" lon="9.255991155286063"><ele>499.42857142857144</ele><time>2026-05-01T08:14:24Z</time></trkpt><trkpt lat="40.87961559803711" lon="9.255921464391362"><ele>501.0</ele><time>2026-05-01T08:14:27Z</time></trkpt><trkpt lat="40.87968993172036" lon="9.255863646143812"><ele>501.0</ele><time>2026-05-01T08:14:30Z</time></trkpt><trkpt lat="40.87977073306827" lon="9.255864904619004"><ele>501.0</ele><time>2026-05-01T08:14:33Z</time></trkpt><trkpt lat="40.879832868015804" lon="9.25591144630163"><ele>501.0</ele><time>2026-05-01T08:14:36Z</time></trkpt><trkpt lat="40.879880982575" lon="9.255996332666655"><ele>501.0</ele><time>2026-05-01T08:14:39Z</time></trkpt><trkpt lat="40.87989033052599" lon="9.25609747792381"><ele>501.0</ele><time>2026-05-01T08:14:42Z</time></trkpt><trkpt lat="40.87989804340756" lon="9.256188931487246"><ele>501.0</ele><time>2026-05-01T08:14:45Z</time></trkpt><trkpt lat="40.87991589937159" lon="9.256273980451487"><ele>501.0</ele><time>2026-05-01T08:14:48Z</time></trkpt><trkpt lat="40.87994148279195" lon="9.256352657711505"><ele>501.0</ele><time>2026-05-01T08:14:51Z</time></trkpt><trkpt lat="40.87997626365205" lon="9.25642706060954"><ele>501.0</ele><time>2026-05-01T08:14:54Z</time></trkpt><trkpt lat="40.880019233920926" lon="9.256488845497008"><ele>501.0</ele><time>2026-05-01T08:14:57Z</time></trkpt><trkpt lat="40.88006823519316" lon="9.256556366605274"><ele>501.0</ele><time>2026-05-01T08:15:01Z</time></trkpt><trkpt lat="40.88011996215684" lon="9.256621773387087"><ele>501.0</ele><time>2026-05-01T08:15:05Z</time></trkpt><trkpt lat="40.88018033167061" lon="9.256697067896349"><ele>501.0</ele><time>2026-05-01T08:15:09Z</time></trkpt><trkpt lat="40.88023363801676" lon="9.256750059283712"><ele>501.0</ele><time>2026-05-01T08:15:13Z</time></trkpt><trkpt lat="40.88030071999793" lon="9.256803203116204"><ele>500.57142857142856</ele><time>2026-05-01T08:15:17Z</time></trkpt><trkpt lat="40.88037622310726" lon="9.25683916028199"><ele>500.1428571428571</ele><time>2026-05-01T08:15:21Z</time></trkpt><trkpt lat="40.880446067553756" lon="9.256849565248427"><ele>499.71428571428567</ele><time>2026-05-01T08:15:25Z</time></trkpt><trkpt lat="40.88051157911503" lon="9.256851203311676"><ele>499.2857142857143</ele><time>2026-05-01T08:15:28Z</time></trkpt><trkpt lat="40.880588604934346" lon="9.25682580181072"><ele>498.8571428571428</ele><time>2026-05-01T08:15:32Z</time></trkpt><trkpt lat="40.880654500608294" lon="9.256786048325731"><ele>498.4285714285714</ele><time>2026-05-01T08:15:35Z</time></trkpt><trkpt lat="40.88071186360217" lon="9.256732587805962"><ele>498.0</ele><time>2026-05-01T08:15:38Z</time></trkpt><trkpt lat="40.88075706218112" lon="9.25666888153675"><ele>498.0</ele><time>2026-05-01T08:15:41Z</time></trkpt><trkpt lat="40.88079948922033" lon="9.25660070754889"><ele>497.99999999999994</ele><time>2026-05-01T08:15:44Z</time></trkpt><trkpt lat="40.88083440550221" lon="9.256525103289423"><ele>498.0</ele><time>2026-05-01T08:15:47Z</time></trkpt><trkpt lat="40.8808674756539" lon="9.256445827383756"><ele>498.0</ele><time>2026-05-01T08:15:50Z</time></trkpt><trkpt lat="40.8809104931775" lon="9.256351196928616"><ele>497.99999999999994</ele><time>2026-05-01T08:15:54Z</time></trkpt><trkpt lat="40.88094616336495" lon="9.25627905830836"><ele>498.0</ele><time>2026-05-01T08:15:57Z</time></trkpt><trkpt lat="40.880987377674096" lon="9.256181863590399"><ele>498.0</ele><time>2026-05-01T08:16:01Z</time></trkpt><trkpt lat="40.881030579880324" lon="9.256090238237416"><ele>501.0</ele><time>2026-05-01T08:16:05Z</time></trkpt><trkpt lat="40.88106816869415" lon="9.255997986809033"><ele>504.0</ele><time>2026-05-01T08:16:09Z</time></trkpt><trkpt lat="40.8811124000492" lon="9.255904046541099"><ele>507.0</ele><time>2026-05-01T08:16:13Z</time></trkpt><trkpt lat="40.881152412389525" lon="9.255818418209534"><ele>510.0</ele><time>2026-05-01T08:16:17Z</time></trkpt><trkpt lat="40.88118155349059" lon="9.2557429803144"><ele>513.0</ele><time>2026-05-01T08:16:20Z</time></trkpt><trkpt lat="40.88123093541373" lon="9.25566719147298"><ele>516.0</ele><time>2026-05-01T08:16:24Z</time></trkpt><trkpt lat="40.88128335304359" lon="9.255592298952251"><ele>517.7142857142857</ele><time>2026-05-01T08:16:28Z</time></trkpt><trkpt lat="40.88135091535646" lon="9.255526713282235"><ele>519.4285714285714</ele><time>2026-05-01T08:16:32Z</time></trkpt><trkpt lat="40.881413598671415" lon="9.255500128611214"><ele>521.1428571428571</ele><time>2026-05-01T08:16:35Z</time></trkpt><trkpt lat="40.88148781430545" lon="9.255460605560232"><ele>522.8571428571429</ele><time>2026-05-01T08:16:38.999Z</time></trkpt><trkpt lat="40.881564101848355" lon="9.255414279816641"><ele>524.5714285714286</ele><time>2026-05-01T08:16:42.999Z</time></trkpt><trkpt lat="40.8816270044449" lon="9.2554087390268"><ele>526.2857142857142</ele><time>2026-05-01T08:16:46Z</time></trkpt><trkpt lat="40.881684080418175" lon="9.255350539702421"><ele>528.0</ele><time>2026-05-01T08:16:49Z</time></trkpt><trkpt lat="40.88172338759442" lon="9.255277997065509"><ele>528.0</ele><time>2026-05-01T08:16:52Z</time></trkpt><trkpt lat="40.881712157731016" lon="9.255174490232179"><ele>528.0</ele><time>2026-05-01T08:16:55Z</time></trkpt><trkpt lat="40.88169267634578" lon="9.255080501083262"><ele>528.0</ele><time>2026-05-01T08:16:58Z</time></trkpt><trkpt lat="40.8816539209176" lon="9.254975217470253"><ele>528.0</ele><time>2026-05-01T08:17:01Z</time></trkpt><trkpt lat="40.88163004205115" lon="9.254879818470458"><ele>528.0</ele><time>2026-05-01T08:17:04Z</time></trkpt><trkpt lat="40.88159326634809" lon="9.254803972411716"><ele>528.0</ele><time>2026-05-01T08:17:06Z</time></trkpt><trkpt lat="40.88158076546446" lon="9.254690910830849"><ele>529.0</ele><time>2026-05-01T08:17:09Z</time></trkpt><trkpt lat="40.88154559517903" lon="9.254620495630919"><ele>530.0</ele><time>2026-05-01T08:17:11Z</time></trkpt><trkpt lat="40.881487939792855" lon="9.254519725757598"><ele>531.0</ele><time>2026-05-01T08:17:14Z</time></trkpt><trkpt lat="40.881449366840975" lon="9.254418025345371"><ele>532.0</ele><time>2026-05-01T08:17:17Z</time></trkpt><trkpt lat="40.88140101592068" lon="9.254328233066273"><ele>533.0</ele><time>2026-05-01T08:17:20Z</time></trkpt><trkpt lat="40.88137016523594" lon="9.254247261181934"><ele>534.0</ele><time>2026-05-01T08:17:22Z</time></trkpt><trkpt lat="40.88133936876764" lon="9.254173092478085"><ele>534.0</ele><time>2026-05-01T08:17:24Z</time></trkpt><trkpt lat="40.881300136869086" lon="9.254064956144605"><ele>534.0</ele><time>2026-05-01T08:17:27Z</time></trkpt><trkpt lat="40.881265471989096" lon="9.253965308828239"><ele>534.0</ele><time>2026-05-01T08:17:29Z</time></trkpt><trkpt lat="40.881276880614635" lon="9.253865368889056"><ele>534.0</ele><time>2026-05-01T08:17:33Z</time></trkpt><trkpt lat="40.88128715328443" lon="9.253763007546349"><ele>534.0</ele><time>2026-05-01T08:17:36Z</time></trkpt><trkpt lat="40.88131073997331" lon="9.253605623969893"><ele>534.0</ele><time>2026-05-01T08:17:39Z</time></trkpt><trkpt lat="40.88136073243884" lon="9.253485754305174"><ele>534.2857142857143</ele><time>2026-05-01T08:17:42Z</time></trkpt><trkpt lat="40.88139459232076" lon="9.253403533182741"><ele>534.5714285714286</ele><time>2026-05-01T08:17:44Z</time></trkpt><trkpt lat="40.881430059603325" lon="9.25332019459371"><ele>534.8571428571429</ele><time>2026-05-01T08:17:46Z</time></trkpt><trkpt lat="40.8814786026178" lon="9.253247625267495"><ele>535.1428571428571</ele><time>2026-05-01T08:17:48Z</time></trkpt><trkpt lat="40.88150959362482" lon="9.253167291456673"><ele>535.4285714285714</ele><time>2026-05-01T08:17:50Z</time></trkpt><trkpt lat="40.88154572752526" lon="9.253096347141174"><ele>535.7142857142858</ele><time>2026-05-01T08:17:52Z</time></trkpt><trkpt lat="40.8815827652751" lon="9.253024578623231"><ele>536.0</ele><time>2026-05-01T08:17:54Z</time></trkpt><trkpt lat="40.88161957020715" lon="9.25294865525626"><ele>535.2857142857143</ele><time>2026-05-01T08:17:56Z</time></trkpt><trkpt lat="40.8816575096907" lon="9.25287713781044"><ele>534.5714285714286</ele><time>2026-05-01T08:17:58Z</time></trkpt><trkpt lat="40.88169422215664" lon="9.252799708421575"><ele>533.8571428571429</ele><time>2026-05-01T08:18:00Z</time></trkpt><trkpt lat="40.88172251485867" lon="9.25272131542354"><ele>533.1428571428571</ele><time>2026-05-01T08:18:02Z</time></trkpt><trkpt lat="40.881760697628486" lon="9.252628016231261"><ele>532.4285714285714</ele><time>2026-05-01T08:18:05Z</time></trkpt><trkpt lat="40.88179068633376" lon="9.25253881465592"><ele>531.7142857142858</ele><time>2026-05-01T08:18:07Z</time></trkpt><trkpt lat="40.8818179359058" lon="9.252461910412835"><ele>531.0</ele><time>2026-05-01T08:18:09Z</time></trkpt><trkpt lat="40.88186400529697" lon="9.252358872783947"><ele>534.5</ele><time>2026-05-01T08:18:12Z</time></trkpt><trkpt lat="40.88190566525051" lon="9.252255748058847"><ele>538.0</ele><time>2026-05-01T08:18:15Z</time></trkpt><trkpt lat="40.8819459982638" lon="9.252147120396833"><ele>541.5</ele><time>2026-05-01T08:18:18Z</time></trkpt><trkpt lat="40.88198841123747" lon="9.252058410656431"><ele>545.0</ele><time>2026-05-01T08:18:22Z</time></trkpt><trkpt lat="40.88202561452334" lon="9.25198127563973"><ele>548.5</ele><time>2026-05-01T08:18:25Z</time></trkpt><trkpt lat="40.88206778304094" lon="9.251900511668289"><ele>552.0</ele><time>2026-05-01T08:18:28Z</time></trkpt><trkpt lat="40.882142435839164" lon="9.251823696057036"><ele>552.0</ele><time>2026-05-01T08:18:31Z</time></trkpt><trkpt lat="40.882179038843034" lon="9.25172749826636"><ele>552.0</ele><time>2026-05-01T08:18:34Z</time></trkpt><trkpt lat="40.88222626688623" lon="9.25163084793963"><ele>552.0</ele><time>2026-05-01T08:18:37Z</time></trkpt><trkpt lat="40.88228656305471" lon="9.251546590815868"><ele>552.0</ele><time>2026-05-01T08:18:40Z</time></trkpt><trkpt lat="40.88234397986538" lon="9.2514649227258"><ele>552.0</ele><time>2026-05-01T08:18:43Z</time></trkpt><trkpt lat="40.882405398285705" lon="9.251379595571262"><ele>552.0</ele><time>2026-05-01T08:18:46Z</time></trkpt><trkpt lat="40.882479779363905" lon="9.25131513018711"><ele>552.5</ele><time>2026-05-01T08:18:49Z</time></trkpt><trkpt lat="40.88254567746925" lon="9.251222830561751"><ele>553.0</ele><time>2026-05-01T08:18:52Z</time></trkpt><trkpt lat="40.88261217386718" lon="9.251137783712577"><ele>553.5</ele><time>2026-05-01T08:18:55Z</time></trkpt><trkpt lat="40.88266505934324" lon="9.251081197026494"><ele>554.0</ele><time>2026-05-01T08:18:57Z</time></trkpt><trkpt lat="40.88273887106841" lon="9.251019235446652"><ele>554.5</ele><time>2026-05-01T08:18:59Z</time></trkpt><trkpt lat="40.88279490577398" lon="9.250957244025152"><ele>555.0</ele><time>2026-05-01T08:19:01Z</time></trkpt><trkpt lat="40.88285302106246" lon="9.250875292661714"><ele>555.0</ele><time>2026-05-01T08:19:04Z</time></trkpt><trkpt lat="40.8829223448901" lon="9.250796038877096"><ele>555.0</ele><time>2026-05-01T08:19:07Z</time></trkpt><trkpt lat="40.88298535770663" lon="9.25072088138736"><ele>555.0</ele><time>2026-05-01T08:19:10Z</time></trkpt><trkpt lat="40.883041740917115" lon="9.250658091063306"><ele>555.0</ele><time>2026-05-01T08:19:12Z</time></trkpt><trkpt lat="40.88309821781318" lon="9.250609750356954"><ele>555.0</ele><time>2026-05-01T08:19:14Z</time></trkpt><trkpt lat="40.88314546621797" lon="9.250554064130297"><ele>555.0</ele><time>2026-05-01T08:19:16Z</time></trkpt><trkpt lat="40.88321287304707" lon="9.250521507887836"><ele>554.1666666666666</ele><time>2026-05-01T08:19:18Z</time></trkpt><trkpt lat="40.88327666465238" lon="9.250497275597565"><ele>553.3333333333334</ele><time>2026-05-01T08:19:20Z</time></trkpt><trkpt lat="40.88334194601204" lon="9.250485394415255"><ele>552.5</ele><time>2026-05-01T08:19:22Z</time></trkpt><trkpt lat="40.88342728285162" lon="9.250450449252357"><ele>551.6666666666667</ele><time>2026-05-01T08:19:25Z</time></trkpt><trkpt lat="40.883517605139616" lon="9.250437183720296"><ele>550.8333333333334</ele><time>2026-05-01T08:19:28Z</time></trkpt><trkpt lat="40.88359610136626" lon="9.250442892204289"><ele>550.0</ele><time>2026-05-01T08:19:31Z</time></trkpt><trkpt lat="40.8836835164123" lon="9.250420615709382"><ele>550.0</ele><time>2026-05-01T08:19:34Z</time></trkpt><trkpt lat="40.883745108025636" lon="9.25040328774618"><ele>550.0</ele><time>2026-05-01T08:19:36Z</time></trkpt><trkpt lat="40.88380955209157" lon="9.250356801292156"><ele>550.0</ele><time>2026-05-01T08:19:38Z</time></trkpt><trkpt lat="40.88390060434333" lon="9.25036993404226"><ele>550.0</ele><time>2026-05-01T08:19:41Z</time></trkpt><trkpt lat="40.88396265343514" lon="9.250351116244843"><ele>550.0</ele><time>2026-05-01T08:19:43Z</time></trkpt><trkpt lat="40.884046781250696" lon="9.250355245338886"><ele>550.0</ele><time>2026-05-01T08:19:46Z</time></trkpt><trkpt lat="40.88412781756096" lon="9.250360042014952"><ele>550.0</ele><time>2026-05-01T08:19:49Z</time></trkpt><trkpt lat="40.884190968882194" lon="9.250349567421956"><ele>550.0</ele><time>2026-05-01T08:19:51Z</time></trkpt><trkpt lat="40.88425413879482" lon="9.250355912638964"><ele>550.0</ele><time>2026-05-01T08:19:53Z</time></trkpt><trkpt lat="40.88432297437242" lon="9.250341225578044"><ele>550.0</ele><time>2026-05-01T08:19:55Z</time></trkpt><trkpt lat="40.88438963977562" lon="9.250340861873939"><ele>550.0</ele><time>2026-05-01T08:19:57Z</time></trkpt><trkpt lat="40.88445308239585" lon="9.25034302408114"><ele>550.0</ele><time>2026-05-01T08:19:59Z</time></trkpt><trkpt lat="40.884544252343844" lon="9.250353313441833"><ele>550.0</ele><time>2026-05-01T08:20:02Z</time></trkpt><trkpt lat="40.88461626677002" lon="9.250389341900176"><ele>549.5714285714286</ele><time>2026-05-01T08:20:04Z</time></trkpt><trkpt lat="40.884675214512264" lon="9.250445362153336"><ele>549.1428571428571</ele><time>2026-05-01T08:20:06Z</time></trkpt><trkpt lat="40.88472661013179" lon="9.25049549350005"><ele>548.7142857142857</ele><time>2026-05-01T08:20:08Z</time></trkpt><trkpt lat="40.88478464421669" lon="9.250540447009827"><ele>548.2857142857142</ele><time>2026-05-01T08:20:10Z</time></trkpt><trkpt lat="40.88485392428946" lon="9.250615328659451"><ele>547.8571428571428</ele><time>2026-05-01T08:20:12Z</time></trkpt><trkpt lat="40.88491521715085" lon="9.250673632302478"><ele>547.4285714285714</ele><time>2026-05-01T08:20:14Z</time></trkpt><trkpt lat="40.884967427918504" lon="9.25073762122037"><ele>547.0</ele><time>2026-05-01T08:20:16Z</time></trkpt><trkpt lat="40.88501721758596" lon="9.250791121460443"><ele>548.1428571428571</ele><time>2026-05-01T08:20:18Z</time></trkpt><trkpt lat="40.88507278071971" lon="9.250851452596624"><ele>549.2857142857142</ele><time>2026-05-01T08:20:20Z</time></trkpt><trkpt lat="40.88512346738557" lon="9.250918831119751"><ele>550.4285714285714</ele><time>2026-05-01T08:20:22Z</time></trkpt><trkpt lat="40.88517822470279" lon="9.250985982836134"><ele>551.5714285714286</ele><time>2026-05-01T08:20:24Z</time></trkpt><trkpt lat="40.88522371796174" lon="9.251044209714985"><ele>552.7142857142858</ele><time>2026-05-01T08:20:26Z</time></trkpt><trkpt lat="40.88527522846667" lon="9.251105671303886"><ele>553.8571428571429</ele><time>2026-05-01T08:20:28Z</time></trkpt><trkpt lat="40.885332420507396" lon="9.251142281905658"><ele>555.0</ele><time>2026-05-01T08:20:30Z</time></trkpt><trkpt lat="40.88539794860153" lon="9.251193685085946"><ele>555.5714285714287</ele><time>2026-05-01T08:20:32Z</time></trkpt><trkpt lat="40.885469509768136" lon="9.251210592676093"><ele>556.1428571428571</ele><time>2026-05-01T08:20:34Z</time></trkpt><trkpt lat="40.88554409109169" lon="9.251201578759021"><ele>556.7142857142858</ele><time>2026-05-01T08:20:36Z</time></trkpt><trkpt lat="40.885611698273046" lon="9.251173971696458"><ele>557.2857142857143</ele><time>2026-05-01T08:20:38Z</time></trkpt><trkpt lat="40.8856738616057" lon="9.251129585271093"><ele>557.8571428571429</ele><time>2026-05-01T08:20:40Z</time></trkpt><trkpt lat="40.885727236552555" lon="9.25106085278645"><ele>558.4285714285714</ele><time>2026-05-01T08:20:42Z</time></trkpt><trkpt lat="40.88576632048324" lon="9.250977860191375"><ele>559.0</ele><time>2026-05-01T08:20:44Z</time></trkpt><trkpt lat="40.88580287271191" lon="9.250889680726255"><ele>559.0</ele><time>2026-05-01T08:20:46Z</time></trkpt><trkpt lat="40.88583727221554" lon="9.250811111184246"><ele>559.0</ele><time>2026-05-01T08:20:48Z</time></trkpt><trkpt lat="40.88587002136461" lon="9.25072089583387"><ele>559.0</ele><time>2026-05-01T08:20:50Z</time></trkpt><trkpt lat="40.88589686539598" lon="9.250634342864776"><ele>559.0</ele><time>2026-05-01T08:20:52Z</time></trkpt><trkpt lat="40.88593035529519" lon="9.250553900093271"><ele>559.0</ele><time>2026-05-01T08:20:54Z</time></trkpt><trkpt lat="40.88596107985565" lon="9.250479374841056"><ele>559.0</ele><time>2026-05-01T08:20:56Z</time></trkpt><trkpt lat="40.8859955020063" lon="9.250375064669088"><ele>559.0</ele><time>2026-05-01T08:20:59Z</time></trkpt><trkpt lat="40.886033829051726" lon="9.25026408382418"><ele>560.5</ele><time>2026-05-01T08:21:02Z</time></trkpt><trkpt lat="40.88606793160407" lon="9.250156185832632"><ele>562.0</ele><time>2026-05-01T08:21:05Z</time></trkpt><trkpt lat="40.88610477597383" lon="9.25006830857659"><ele>563.5</ele><time>2026-05-01T08:21:08Z</time></trkpt><trkpt lat="40.88614414400134" lon="9.24996619215476"><ele>565.0</ele><time>2026-05-01T08:21:11Z</time></trkpt><trkpt lat="40.88618395030444" lon="9.249866217754914"><ele>566.5</ele><time>2026-05-01T08:21:14Z</time></trkpt><trkpt lat="40.8862206350757" lon="9.249768129463313"><ele>568.0</ele><time>2026-05-01T08:21:18Z</time></trkpt><trkpt lat="40.88625861368303" lon="9.24967571164306"><ele>568.0</ele><time>2026-05-01T08:21:21Z</time></trkpt><trkpt lat="40.886297446274035" lon="9.249588771027401"><ele>568.0</ele><time>2026-05-01T08:21:24Z</time></trkpt><trkpt lat="40.886331644271856" lon="9.249490578442465"><ele>568.0</ele><time>2026-05-01T08:21:27Z</time></trkpt><trkpt lat="40.886360464579695" lon="9.249384383536585"><ele>568.0</ele><time>2026-05-01T08:21:30Z</time></trkpt><trkpt lat="40.88640971879942" lon="9.249291723273972"><ele>568.0</ele><time>2026-05-01T08:21:33Z</time></trkpt><trkpt lat="40.88644846169083" lon="9.249185655758357"><ele>568.0</ele><time>2026-05-01T08:21:36Z</time></trkpt><trkpt lat="40.886497533535696" lon="9.249080501134952"><ele>568.0</ele><time>2026-05-01T08:21:39Z</time></trkpt><trkpt lat="40.88653044631379" lon="9.249007499375894"><ele>568.0</ele><time>2026-05-01T08:21:41Z</time></trkpt><trkpt lat="40.88656298099909" lon="9.248935946752502"><ele>568.0</ele><time>2026-05-01T08:21:43Z</time></trkpt><trkpt lat="40.88661660701539" lon="9.248834751940397"><ele>568.0</ele><time>2026-05-01T08:21:46Z</time></trkpt><trkpt lat="40.886664037262136" lon="9.24873467798158"><ele>568.0</ele><time>2026-05-01T08:21:49Z</time></trkpt><trkpt lat="40.88671595543322" lon="9.24863545225679"><ele>568.0</ele><time>2026-05-01T08:21:52Z</time></trkpt><trkpt lat="40.88676843208117" lon="9.248538885063638"><ele>569.3333333333334</ele><time>2026-05-01T08:21:55Z</time></trkpt><trkpt lat="40.88682224244592" lon="9.24844106387462"><ele>570.6666666666667</ele><time>2026-05-01T08:21:58Z</time></trkpt><trkpt lat="40.886873904468146" lon="9.248345627353237"><ele>572.0</ele><time>2026-05-01T08:22:01Z</time></trkpt><trkpt lat="40.88692037859009" lon="9.248245415282126"><ele>573.3333333333334</ele><time>2026-05-01T08:22:04Z</time></trkpt><trkpt lat="40.886975085117896" lon="9.248158808877713"><ele>574.6666666666666</ele><time>2026-05-01T08:22:07Z</time></trkpt><trkpt lat="40.88702041872834" lon="9.248064171180726"><ele>576.0</ele><time>2026-05-01T08:22:10Z</time></trkpt><trkpt lat="40.8870577027324" lon="9.247987038146888"><ele>576.0</ele><time>2026-05-01T08:22:13Z</time></trkpt><trkpt lat="40.88710591652683" lon="9.247899568511562"><ele>576.0</ele><time>2026-05-01T08:22:16Z</time></trkpt><trkpt lat="40.88715704314709" lon="9.247820814822145"><ele>576.0</ele><time>2026-05-01T08:22:19Z</time></trkpt><trkpt lat="40.88722269358606" lon="9.247718453579747"><ele>576.0</ele><time>2026-05-01T08:22:22Z</time></trkpt><trkpt lat="40.887275861648114" lon="9.247632988285275"><ele>576.0</ele><time>2026-05-01T08:22:25Z</time></trkpt><trkpt lat="40.887320883332016" lon="9.247549269387658"><ele>576.0</ele><time>2026-05-01T08:22:28Z</time></trkpt><trkpt lat="40.887383327830776" lon="9.247487979534002"><ele>576.0</ele><time>2026-05-01T08:22:31Z</time></trkpt><trkpt lat="40.887440754732154" lon="9.247412086875126"><ele>576.0</ele><time>2026-05-01T08:22:33Z</time></trkpt><trkpt lat="40.887494166045656" lon="9.247354341452786"><ele>576.0</ele><time>2026-05-01T08:22:35Z</time></trkpt><trkpt lat="40.887546498349124" lon="9.247308027438953"><ele>576.0</ele><time>2026-05-01T08:22:37Z</time></trkpt><trkpt lat="40.887603976543744" lon="9.247230007470794"><ele>576.0</ele><time>2026-05-01T08:22:40Z</time></trkpt><trkpt lat="40.887653059185304" lon="9.247156344726099"><ele>576.0</ele><time>2026-05-01T08:22:43Z</time></trkpt><trkpt lat="40.88772262937732" lon="9.247102685578339"><ele>577.1666666666666</ele><time>2026-05-01T08:22:46Z</time></trkpt><trkpt lat="40.88776982437953" lon="9.24704707950584"><ele>578.3333333333334</ele><time>2026-05-01T08:22:48Z</time></trkpt><trkpt lat="40.88782669749653" lon="9.246997427235506"><ele>579.5</ele><time>2026-05-01T08:22:50Z</time></trkpt><trkpt lat="40.88789239275484" lon="9.246938472361864"><ele>580.6666666666667</ele><time>2026-05-01T08:22:53Z</time></trkpt><trkpt lat="40.88795705278459" lon="9.246866584444128"><ele>581.8333333333334</ele><time>2026-05-01T08:22:56Z</time></trkpt><trkpt lat="40.88802461925293" lon="9.246803598514303"><ele>583.0</ele><time>2026-05-01T08:22:59Z</time></trkpt><trkpt lat="40.88808925228884" lon="9.246732520590724"><ele>583.0</ele><time>2026-05-01T08:23:02Z</time></trkpt><trkpt lat="40.88814590858074" lon="9.246679987193035"><ele>583.0</ele><time>2026-05-01T08:23:05Z</time></trkpt><trkpt lat="40.88820821496318" lon="9.246645587177433"><ele>583.0</ele><time>2026-05-01T08:23:07Z</time></trkpt><trkpt lat="40.888285358937885" lon="9.246619033873344"><ele>583.0</ele><time>2026-05-01T08:23:10Z</time></trkpt><trkpt lat="40.88838767090894" lon="9.246565518599498"><ele>583.0</ele><time>2026-05-01T08:23:13Z</time></trkpt><trkpt lat="40.88845980943195" lon="9.246545467088204"><ele>583.0</ele><time>2026-05-01T08:23:15Z</time></trkpt><trkpt lat="40.88853100398561" lon="9.246520039599066"><ele>583.5714285714287</ele><time>2026-05-01T08:23:17Z</time></trkpt><trkpt lat="40.888595511971644" lon="9.246504566107658"><ele>584.1428571428571</ele><time>2026-05-01T08:23:19Z</time></trkpt><trkpt lat="40.888663837173915" lon="9.246491815841125"><ele>584.7142857142858</ele><time>2026-05-01T08:23:21Z</time></trkpt><trkpt lat="40.888730041902015" lon="9.246492725630366"><ele>585.2857142857143</ele><time>2026-05-01T08:23:23Z</time></trkpt><trkpt lat="40.88879698448279" lon="9.246491858353245"><ele>585.8571428571429</ele><time>2026-05-01T08:23:25Z</time></trkpt><trkpt lat="40.88888110605572" lon="9.246468371214482"><ele>586.4285714285714</ele><time>2026-05-01T08:23:28Z</time></trkpt><trkpt lat="40.888966964671226" lon="9.246470804670272"><ele>587.0</ele><time>2026-05-01T08:23:31Z</time></trkpt><trkpt lat="40.88905434877272" lon="9.246421508578306"><ele>587.3333333333333</ele><time>2026-05-01T08:23:34Z</time></trkpt><trkpt lat="40.88912259732997" lon="9.246452846140937"><ele>587.6666666666666</ele><time>2026-05-01T08:23:36Z</time></trkpt><trkpt lat="40.88921932713348" lon="9.246445088794454"><ele>588.0</ele><time>2026-05-01T08:23:39Z</time></trkpt><trkpt lat="40.889305901367464" lon="9.246453486886683"><ele>588.3333333333334</ele><time>2026-05-01T08:23:42Z</time></trkpt><trkpt lat="40.88940169693723" lon="9.246445605187615"><ele>588.6666666666667</ele><time>2026-05-01T08:23:45Z</time></trkpt><trkpt lat="40.88949809363633" lon="9.246450557819683"><ele>589.0</ele><time>2026-05-01T08:23:48Z</time></trkpt><trkpt lat="40.88959518901661" lon="9.246471164712515"><ele>589.0</ele><time>2026-05-01T08:23:51Z</time></trkpt><trkpt lat="40.88967451976169" lon="9.246442484022616"><ele>589.0</ele><time>2026-05-01T08:23:53Z</time></trkpt><trkpt lat="40.88974003798064" lon="9.24642994547587"><ele>589.0</ele><time>2026-05-01T08:23:55Z</time></trkpt><trkpt lat="40.88982969512567" lon="9.246401672069656"><ele>589.0</ele><time>2026-05-01T08:23:57Z</time></trkpt><trkpt lat="40.88991453488283" lon="9.246379307039302"><ele>589.0</ele><time>2026-05-01T08:23:59Z</time></trkpt><trkpt lat="40.89000089586892" lon="9.246331350963185"><ele>589.0</ele><time>2026-05-01T08:24:01Z</time></trkpt><trkpt lat="40.89008659018546" lon="9.24629584324655"><ele>588.2</ele><time>2026-05-01T08:24:03Z</time></trkpt><trkpt lat="40.89017842895598" lon="9.246275366473217"><ele>587.4</ele><time>2026-05-01T08:24:05Z</time></trkpt><trkpt lat="40.890272790621765" lon="9.246255480768731"><ele>586.6</ele><time>2026-05-01T08:24:07Z</time></trkpt><trkpt lat="40.89036800813538" lon="9.246227054333948"><ele>585.8</ele><time>2026-05-01T08:24:09Z</time></trkpt><trkpt lat="40.89047697597715" lon="9.246193069840336"><ele>585.0</ele><time>2026-05-01T08:24:12Z</time></trkpt><trkpt lat="40.890559256279445" lon="9.246156664104216"><ele>585.0</ele><time>2026-05-01T08:24:14Z</time></trkpt><trkpt lat="40.89062835429981" lon="9.246150264850908"><ele>585.0</ele><time>2026-05-01T08:24:16Z</time></trkpt><trkpt lat="40.890695796634645" lon="9.246124196796888"><ele>585.0</ele><time>2026-05-01T08:24:17Z</time></trkpt><trkpt lat="40.89080349726396" lon="9.246082647039074"><ele>585.0</ele><time>2026-05-01T08:24:19Z</time></trkpt><trkpt lat="40.89090333363163" lon="9.24607358760396"><ele>585.0</ele><time>2026-05-01T08:24:21Z</time></trkpt><trkpt lat="40.89100136959658" lon="9.246013569698961"><ele>583.8</ele><time>2026-05-01T08:24:23Z</time></trkpt><trkpt lat="40.89109290689658" lon="9.245954176162805"><ele>582.6</ele><time>2026-05-01T08:24:25Z</time></trkpt><trkpt lat="40.891181185753396" lon="9.2458867997508"><ele>581.4</ele><time>2026-05-01T08:24:27Z</time></trkpt><trkpt lat="40.89126895156616" lon="9.245805791915098"><ele>580.2</ele><time>2026-05-01T08:24:29Z</time></trkpt><trkpt lat="40.89131153803562" lon="9.245744037609171"><ele>579.0</ele><time>2026-05-01T08:24:30Z</time></trkpt><trkpt lat="40.891395552684" lon="9.245669660255116"><ele>579.8</ele><time>2026-05-01T08:24:32Z</time></trkpt><trkpt lat="40.89146421577688" lon="9.245556477139418"><ele>580.5999999999999</ele><time>2026-05-01T08:24:34Z</time></trkpt><trkpt lat="40.89152622146893" lon="9.24543842339041"><ele>581.4</ele><time>2026-05-01T08:24:36Z</time></trkpt><trkpt lat="40.891579872530336" lon="9.245309454858656"><ele>582.1999999999999</ele><time>2026-05-01T08:24:38Z</time></trkpt><trkpt lat="40.89163034036194" lon="9.245186909667883"><ele>583.0</ele><time>2026-05-01T08:24:40Z</time></trkpt><trkpt lat="40.89166823410434" lon="9.24505500995882"><ele>583.0</ele><time>2026-05-01T08:24:42Z</time></trkpt><trkpt lat="40.89171168229165" lon="9.244932523318157"><ele>583.0</ele><time>2026-05-01T08:24:44Z</time></trkpt><trkpt lat="40.89175240929048" lon="9.244811620841292"><ele>583.0</ele><time>2026-05-01T08:24:46Z</time></trkpt><trkpt lat="40.89178438493143" lon="9.244689500912529"><ele>583.0</ele><time>2026-05-01T08:24:48Z</time></trkpt><trkpt lat="40.89182783026549" lon="9.244571910629144"><ele>583.0</ele><time>2026-05-01T08:24:50Z</time></trkpt><trkpt lat="40.89185661388176" lon="9.244450172843457"><ele>584.1999999999999</ele><time>2026-05-01T08:24:52Z</time></trkpt><trkpt lat="40.891894238793164" lon="9.244336915432697"><ele>585.4</ele><time>2026-05-01T08:24:54Z</time></trkpt><trkpt lat="40.89192473687869" lon="9.24421731924643"><ele>586.5999999999999</ele><time>2026-05-01T08:24:56Z</time></trkpt><trkpt lat="40.8919493090373" lon="9.244068558080901"><ele>587.8</ele><time>2026-05-01T08:25:00Z</time></trkpt><trkpt lat="40.891994280471415" lon="9.24397310497921"><ele>589.0</ele><time>2026-05-01T08:25:03Z</time></trkpt><trkpt lat="40.89201930561978" lon="9.243849039593583"><ele>589.2857142857142</ele><time>2026-05-01T08:25:05Z</time></trkpt><trkpt lat="40.892044566583465" lon="9.243753618348698"><ele>589.5714285714286</ele><time>2026-05-01T08:25:06Z</time></trkpt><trkpt lat="40.89208667052507" lon="9.243660526954763"><ele>589.8571428571429</ele><time>2026-05-01T08:25:09Z</time></trkpt><trkpt lat="40.892108172636526" lon="9.243577476866765"><ele>590.1428571428571</ele><time>2026-05-01T08:25:11Z</time></trkpt><trkpt lat="40.89213456846264" lon="9.243492762553169"><ele>590.4285714285714</ele><time>2026-05-01T08:25:12Z</time></trkpt><trkpt lat="40.89216280699558" lon="9.243390029785166"><ele>590.7142857142857</ele><time>2026-05-01T08:25:14Z</time></trkpt><trkpt lat="40.89219279732194" lon="9.243306994111451"><ele>591.0</ele><time>2026-05-01T08:25:16Z</time></trkpt><trkpt lat="40.89221637046011" lon="9.24321865926966"><ele>591.0</ele><time>2026-05-01T08:25:18Z</time></trkpt><trkpt lat="40.89225155206522" lon="9.243141011548039"><ele>591.0</ele><time>2026-05-01T08:25:20Z</time></trkpt><trkpt lat="40.892285244517" lon="9.243008121032455"><ele>591.0</ele><time>2026-05-01T08:25:22Z</time></trkpt><trkpt lat="40.89232580896815" lon="9.242889646673614"><ele>591.0</ele><time>2026-05-01T08:25:24Z</time></trkpt><trkpt lat="40.89235818307489" lon="9.242771985051323"><ele>591.0</ele><time>2026-05-01T08:25:26Z</time></trkpt><trkpt lat="40.89239638120292" lon="9.24266050653988"><ele>591.0</ele><time>2026-05-01T08:25:28Z</time></trkpt><trkpt lat="40.89244168780947" lon="9.242559333394272"><ele>591.0</ele><time>2026-05-01T08:25:30Z</time></trkpt><trkpt lat="40.8924676806348" lon="9.24244924873858"><ele>591.0</ele><time>2026-05-01T08:25:32Z</time></trkpt><trkpt lat="40.89250175619431" lon="9.242342993707712"><ele>591.0</ele><time>2026-05-01T08:25:34Z</time></trkpt><trkpt lat="40.89252745322483" lon="9.242239492922565"><ele>591.0</ele><time>2026-05-01T08:25:36Z</time></trkpt><trkpt lat="40.89256200636476" lon="9.242142411431836"><ele>591.0</ele><time>2026-05-01T08:25:38Z</time></trkpt><trkpt lat="40.89259631289341" lon="9.24204167688262"><ele>593.0</ele><time>2026-05-01T08:25:40Z</time></trkpt><trkpt lat="40.892625976204585" lon="9.241946784305364"><ele>595.0</ele><time>2026-05-01T08:25:42Z</time></trkpt><trkpt lat="40.89265833347569" lon="9.241854208670373"><ele>597.0</ele><time>2026-05-01T08:25:44Z</time></trkpt><trkpt lat="40.89268159871188" lon="9.241762365492242"><ele>599.0</ele><time>2026-05-01T08:25:46Z</time></trkpt><trkpt lat="40.89270579200926" lon="9.241666907793068"><ele>601.0</ele><time>2026-05-01T08:25:48Z</time></trkpt><trkpt lat="40.89272292809968" lon="9.241564912430446"><ele>603.0</ele><time>2026-05-01T08:25:50Z</time></trkpt><trkpt lat="40.89276180878892" lon="9.241470519008724"><ele>602.5</ele><time>2026-05-01T08:25:52Z</time></trkpt><trkpt lat="40.892783061418854" lon="9.241379851333775"><ele>602.0</ele><time>2026-05-01T08:25:54Z</time></trkpt><trkpt lat="40.89281245717111" lon="9.241293470839658"><ele>601.5</ele><time>2026-05-01T08:25:56Z</time></trkpt><trkpt lat="40.89285307662645" lon="9.241221390573209"><ele>601.0</ele><time>2026-05-01T08:25:59Z</time></trkpt><trkpt lat="40.892878821507516" lon="9.241132249208889"><ele>600.5</ele><time>2026-05-01T08:26:00Z</time></trkpt><trkpt lat="40.89288592923477" lon="9.241005374061753"><ele>600.0</ele><time>2026-05-01T08:26:03Z</time></trkpt><trkpt lat="40.892963410337" lon="9.24079118394765"><ele>600.0</ele><time>2026-05-01T08:26:05Z</time></trkpt><trkpt lat="40.892993312011384" lon="9.240687258241456"><ele>600.0</ele><time>2026-05-01T08:26:06Z</time></trkpt><trkpt lat="40.89302735762324" lon="9.24058404454329"><ele>600.0</ele><time>2026-05-01T08:26:07Z</time></trkpt><trkpt lat="40.89306503025321" lon="9.240484661237627"><ele>600.0</ele><time>2026-05-01T08:26:08Z</time></trkpt><trkpt lat="40.893100514732396" lon="9.240391334027676"><ele>600.0</ele><time>2026-05-01T08:26:09Z</time></trkpt><trkpt lat="40.89314267466354" lon="9.240293506687776"><ele>600.0</ele><time>2026-05-01T08:26:10Z</time></trkpt><trkpt lat="40.89317704997245" lon="9.24019259202725"><ele>599.1666666666666</ele><time>2026-05-01T08:26:11Z</time></trkpt><trkpt lat="40.893221234872684" lon="9.240097101871669"><ele>598.3333333333334</ele><time>2026-05-01T08:26:12Z</time></trkpt><trkpt lat="40.893250563196865" lon="9.240006026572352"><ele>597.5</ele><time>2026-05-01T08:26:13Z</time></trkpt><trkpt lat="40.89327186954137" lon="9.239914540437324"><ele>596.6666666666667</ele><time>2026-05-01T08:26:14Z</time></trkpt><trkpt lat="40.89330422776492" lon="9.239822680880389"><ele>595.8333333333334</ele><time>2026-05-01T08:26:15Z</time></trkpt><trkpt lat="40.89332784875735" lon="9.239738077436503"><ele>595.0</ele><time>2026-05-01T08:26:16Z</time></trkpt><trkpt lat="40.89335825598809" lon="9.239649760851231"><ele>594.4</ele><time>2026-05-01T08:26:17Z</time></trkpt><trkpt lat="40.893394393747776" lon="9.239557820126096"><ele>593.8</ele><time>2026-05-01T08:26:18Z</time></trkpt><trkpt lat="40.89342635584284" lon="9.239471695931677"><ele>593.2</ele><time>2026-05-01T08:26:19Z</time></trkpt><trkpt lat="40.89347131265893" lon="9.239316550463162"><ele>592.6</ele><time>2026-05-01T08:26:21Z</time></trkpt><trkpt lat="40.893498905489935" lon="9.239221357103956"><ele>592.0</ele><time>2026-05-01T08:26:22Z</time></trkpt><trkpt lat="40.893517877816166" lon="9.239061278921852"><ele>594.0</ele><time>2026-05-01T08:26:24Z</time></trkpt><trkpt lat="40.89354754698899" lon="9.238902588900661"><ele>596.0</ele><time>2026-05-01T08:26:26Z</time></trkpt><trkpt lat="40.89357547041633" lon="9.23874508936007"><ele>598.0</ele><time>2026-05-01T08:26:28Z</time></trkpt><trkpt lat="40.89359084828237" lon="9.238658385140475"><ele>600.0</ele><time>2026-05-01T08:26:29Z</time></trkpt><trkpt lat="40.893605996043995" lon="9.23857153195615"><ele>602.0</ele><time>2026-05-01T08:26:30Z</time></trkpt><trkpt lat="40.8936188800514" lon="9.238487957702793"><ele>604.0</ele><time>2026-05-01T08:26:31Z</time></trkpt><trkpt lat="40.89363182964963" lon="9.238399563720753"><ele>604.0000000000001</ele><time>2026-05-01T08:26:32Z</time></trkpt><trkpt lat="40.89364626894465" lon="9.238312250952832"><ele>604.0</ele><time>2026-05-01T08:26:33Z</time></trkpt><trkpt lat="40.893660432310035" lon="9.238222278762516"><ele>604.0</ele><time>2026-05-01T08:26:34Z</time></trkpt><trkpt lat="40.893671814171555" lon="9.238128146353024"><ele>604.0</ele><time>2026-05-01T08:26:35Z</time></trkpt><trkpt lat="40.89368928982857" lon="9.238036500638444"><ele>604.0</ele><time>2026-05-01T08:26:36Z</time></trkpt><trkpt lat="40.89370457111694" lon="9.237943458674026"><ele>604.0000000000001</ele><time>2026-05-01T08:26:37Z</time></trkpt><trkpt lat="40.893725849525126" lon="9.237857903651376"><ele>604.0</ele><time>2026-05-01T08:26:38Z</time></trkpt><trkpt lat="40.89374002616826" lon="9.237765428441765"><ele>602.7142857142858</ele><time>2026-05-01T08:26:39Z</time></trkpt><trkpt lat="40.89375508486669" lon="9.237669682216428"><ele>601.4285714285714</ele><time>2026-05-01T08:26:40Z</time></trkpt><trkpt lat="40.89377339058338" lon="9.237586899919323"><ele>600.1428571428571</ele><time>2026-05-01T08:26:41Z</time></trkpt><trkpt lat="40.8937772444385" lon="9.237483585105954"><ele>598.8571428571429</ele><time>2026-05-01T08:26:42Z</time></trkpt><trkpt lat="40.89380078266638" lon="9.23740191678739"><ele>597.5714285714286</ele><time>2026-05-01T08:26:43Z</time></trkpt><trkpt lat="40.89381690723974" lon="9.237312408348235"><ele>596.2857142857143</ele><time>2026-05-01T08:26:44Z</time></trkpt><trkpt lat="40.89383175572451" lon="9.237224089784915"><ele>595.0</ele><time>2026-05-01T08:26:45Z</time></trkpt><trkpt lat="40.89384300250488" lon="9.237136508105253"><ele>594.5</ele><time>2026-05-01T08:26:46Z</time></trkpt><trkpt lat="40.89385821023844" lon="9.237054744775156"><ele>594.0</ele><time>2026-05-01T08:26:47Z</time></trkpt><trkpt lat="40.89387884253296" lon="9.236970768277956"><ele>593.5</ele><time>2026-05-01T08:26:48Z</time></trkpt><trkpt lat="40.89389811664705" lon="9.236891170403446"><ele>593.0</ele><time>2026-05-01T08:26:49Z</time></trkpt><trkpt lat="40.8939285921394" lon="9.236732144160644"><ele>592.5</ele><time>2026-05-01T08:26:51Z</time></trkpt><trkpt lat="40.89395435175248" lon="9.2366536289021"><ele>592.0</ele><time>2026-05-01T08:26:52Z</time></trkpt><trkpt lat="40.89402488378839" lon="9.236520550214848"><ele>592.2</ele><time>2026-05-01T08:26:54Z</time></trkpt><trkpt lat="40.89407262746965" lon="9.236450509564326"><ele>592.4000000000001</ele><time>2026-05-01T08:26:55Z</time></trkpt><trkpt lat="40.89414607177" lon="9.23630698887257"><ele>592.5999999999999</ele><time>2026-05-01T08:26:57Z</time></trkpt><trkpt lat="40.89418984719652" lon="9.236240566781154"><ele>592.8</ele><time>2026-05-01T08:26:58Z</time></trkpt><trkpt lat="40.89427149035926" lon="9.236116681221967"><ele>593.0</ele><time>2026-05-01T08:27:00Z</time></trkpt><trkpt lat="40.89430774423146" lon="9.236047796435635"><ele>593.0</ele><time>2026-05-01T08:27:01Z</time></trkpt><trkpt lat="40.89434246148619" lon="9.235977704086968"><ele>593.0</ele><time>2026-05-01T08:27:02Z</time></trkpt><trkpt lat="40.894427349505065" lon="9.235852123185122"><ele>593.0</ele><time>2026-05-01T08:27:04Z</time></trkpt><trkpt lat="40.89447190287229" lon="9.235789219076082"><ele>593.0</ele><time>2026-05-01T08:27:05Z</time></trkpt><trkpt lat="40.89451361783327" lon="9.235723644210399"><ele>593.0</ele><time>2026-05-01T08:27:06Z</time></trkpt><trkpt lat="40.894598133235796" lon="9.235605317863358"><ele>593.0</ele><time>2026-05-01T08:27:08Z</time></trkpt><trkpt lat="40.89467927352475" lon="9.235485157707771"><ele>592.4</ele><time>2026-05-01T08:27:10Z</time></trkpt><trkpt lat="40.894723003009034" lon="9.235421612830818"><ele>591.8</ele><time>2026-05-01T08:27:11Z</time></trkpt><trkpt lat="40.89481703974199" lon="9.23531516120701"><ele>591.2</ele><time>2026-05-01T08:27:13Z</time></trkpt><trkpt lat="40.894887320054146" lon="9.235182111468971"><ele>590.6</ele><time>2026-05-01T08:27:15Z</time></trkpt><trkpt lat="40.894969794634676" lon="9.235059187498852"><ele>590.0</ele><time>2026-05-01T08:27:17Z</time></trkpt><trkpt lat="40.89504670451647" lon="9.234938465791688"><ele>590.0</ele><time>2026-05-01T08:27:19Z</time></trkpt><trkpt lat="40.89508744643784" lon="9.23487212612108"><ele>590.0</ele><time>2026-05-01T08:27:20Z</time></trkpt><trkpt lat="40.89512819923908" lon="9.23480716084971"><ele>590.0</ele><time>2026-05-01T08:27:21Z</time></trkpt><trkpt lat="40.89520736626038" lon="9.234681803961537"><ele>590.0</ele><time>2026-05-01T08:27:23Z</time></trkpt><trkpt lat="40.89528227897253" lon="9.234566756395672"><ele>590.0</ele><time>2026-05-01T08:27:25Z</time></trkpt><trkpt lat="40.895324048958514" lon="9.234496999088893"><ele>590.0</ele><time>2026-05-01T08:27:26Z</time></trkpt><trkpt lat="40.89537869027206" lon="9.234369528253639"><ele>590.5</ele><time>2026-05-01T08:27:28Z</time></trkpt><trkpt lat="40.895468137802794" lon="9.234266222213078"><ele>591.0</ele><time>2026-05-01T08:27:30Z</time></trkpt><trkpt lat="40.89555431889263" lon="9.234158485493102"><ele>591.5</ele><time>2026-05-01T08:27:32Z</time></trkpt><trkpt lat="40.89562533752933" lon="9.234039062764632"><ele>592.0</ele><time>2026-05-01T08:27:34Z</time></trkpt><trkpt lat="40.89570265711339" lon="9.233925462217128"><ele>592.0</ele><time>2026-05-01T08:27:36Z</time></trkpt><trkpt lat="40.8957740201491" lon="9.233812376316338"><ele>592.0</ele><time>2026-05-01T08:27:38Z</time></trkpt><trkpt lat="40.895855046109155" lon="9.233692356140562"><ele>592.0</ele><time>2026-05-01T08:27:40Z</time></trkpt><trkpt lat="40.89592931065921" lon="9.233582094340308"><ele>592.0</ele><time>2026-05-01T08:27:42Z</time></trkpt><trkpt lat="40.89600588859037" lon="9.233470169694955"><ele>592.4</ele><time>2026-05-01T08:27:44Z</time></trkpt><trkpt lat="40.89607797514716" lon="9.233360874907277"><ele>592.8000000000001</ele><time>2026-05-01T08:27:46Z</time></trkpt><trkpt lat="40.89615078383676" lon="9.23325034937368"><ele>593.2</ele><time>2026-05-01T08:27:48Z</time></trkpt><trkpt lat="40.896219364107544" lon="9.23314313710708"><ele>593.6</ele><time>2026-05-01T08:27:50Z</time></trkpt><trkpt lat="40.89628870157124" lon="9.233041909180715"><ele>594.0</ele><time>2026-05-01T08:27:52Z</time></trkpt><trkpt lat="40.89633740009169" lon="9.232927839318267"><ele>594.8333333333334</ele><time>2026-05-01T08:27:56Z</time></trkpt><trkpt lat="40.89639798381069" lon="9.232871779878767"><ele>595.6666666666666</ele><time>2026-05-01T08:27:58Z</time></trkpt><trkpt lat="40.89642901108151" lon="9.232795725040855"><ele>596.5</ele><time>2026-05-01T08:28:00Z</time></trkpt><trkpt lat="40.89645121151481" lon="9.232685050314085"><ele>597.3333333333333</ele><time>2026-05-01T08:28:03Z</time></trkpt><trkpt lat="40.89646282349747" lon="9.232544951228018"><ele>598.1666666666666</ele><time>2026-05-01T08:28:07Z</time></trkpt><trkpt lat="40.89649301191649" lon="9.232398538824773"><ele>599.0</ele><time>2026-05-01T08:28:11Z</time></trkpt><trkpt lat="40.89651277185168" lon="9.232298660796287"><ele>599.0</ele><time>2026-05-01T08:28:14Z</time></trkpt><trkpt lat="40.896518655422874" lon="9.232149088576845"><ele>599.0</ele><time>2026-05-01T08:28:17Z</time></trkpt><trkpt lat="40.89655722658123" lon="9.232051139879328"><ele>599.0</ele><time>2026-05-01T08:28:19Z</time></trkpt><trkpt lat="40.896561003519615" lon="9.23193231003619"><ele>599.0</ele><time>2026-05-01T08:28:22Z</time></trkpt><trkpt lat="40.896582911377635" lon="9.231837797239013"><ele>599.0</ele><time>2026-05-01T08:28:24Z</time></trkpt><trkpt lat="40.89659496542831" lon="9.231742574339808"><ele>599.0</ele><time>2026-05-01T08:28:25Z</time></trkpt><trkpt lat="40.89657981786026" lon="9.231832450575642"><ele>599.0</ele><time>2026-05-01T08:28:34Z</time></trkpt><trkpt lat="40.89652564627838" lon="9.23177507885299"><ele>599.0</ele><time>2026-05-01T08:28:38Z</time></trkpt><trkpt lat="40.896495855130304" lon="9.231668487281224"><ele>599.0</ele><time>2026-05-01T08:28:40Z</time></trkpt><trkpt lat="40.896479742379526" lon="9.231570501714389"><ele>599.0</ele><time>2026-05-01T08:28:42Z</time></trkpt><trkpt lat="40.89645894847876" lon="9.231471867555719"><ele>599.0</ele><time>2026-05-01T08:28:44Z</time></trkpt><trkpt lat="40.896446600891814" lon="9.231374950561765"><ele>599.0</ele><time>2026-05-01T08:28:46Z</time></trkpt><trkpt lat="40.896404677975056" lon="9.231298425880167"><ele>599.1428571428571</ele><time>2026-05-01T08:28:49Z</time></trkpt><trkpt lat="40.896344633318186" lon="9.231267679692412"><ele>599.2857142857142</ele><time>2026-05-01T08:28:53Z</time></trkpt><trkpt lat="40.896414904893106" lon="9.231236664498057"><ele>599.4285714285713</ele><time>2026-05-01T08:29:39Z</time></trkpt><trkpt lat="40.896469347918845" lon="9.231190337261966"><ele>599.5714285714286</ele><time>2026-05-01T08:29:45Z</time></trkpt><trkpt lat="40.89641220798694" lon="9.231234838334885"><ele>599.7142857142857</ele><time>2026-05-01T08:30:38Z</time></trkpt><trkpt lat="40.89637748439747" lon="9.231307506739487"><ele>599.8571428571428</ele><time>2026-05-01T08:30:43Z</time></trkpt><trkpt lat="40.896425927366366" lon="9.231233709300978"><ele>600.0</ele><time>2026-05-01T08:30:55Z</time></trkpt><trkpt lat="40.896482670694745" lon="9.231185275353603"><ele>600.0</ele><time>2026-05-01T08:31:01Z</time></trkpt><trkpt lat="40.896536501461156" lon="9.23113814226726"><ele>600.0</ele><time>2026-05-01T08:34:12Z</time></trkpt></trkseg></trk></gpx>